<?xml version="1.0" encoding="UTF-8" standalone="no" ?>
<gpx xmlns="http://www.topografix.com/GPX/1/1" xmlns:xsi="http://www.w3.org/2001/XMLSchema-instance" xsi:schemaLocation="http://www.topografix.com/GPX/1/1 http://www.topografix.com/GPX/1/1/gpx.xsd" version="1.1" creator="VisuGPX - https://www.visugpx.com">
  <metadata>
    <name>Champagnat Cyclisme sur route</name>
  </metadata>
  <trk>
    <name><![CDATA[Champagnat Cyclisme sur route_1]]></name>
    <trkseg>
      <trkpt lat="46.48269" lon="5.36833">
        <ele>266.6</ele>
        <time>2022-02-19T11:46:26Z</time>
      </trkpt>
      <trkpt lat="46.48261" lon="5.36822">
        <ele>266</ele>
        <time>2022-02-19T11:46:27Z</time>
      </trkpt>
      <trkpt lat="46.4825" lon="5.36811">
        <ele>265.2</ele>
        <time>2022-02-19T11:46:28Z</time>
      </trkpt>
      <trkpt lat="46.48232" lon="5.36796">
        <ele>264</ele>
        <time>2022-02-19T11:46:30Z</time>
      </trkpt>
      <trkpt lat="46.48222" lon="5.36788">
        <ele>263.6</ele>
        <time>2022-02-19T11:46:31Z</time>
      </trkpt>
      <trkpt lat="46.4821" lon="5.36779">
        <ele>262.6</ele>
        <time>2022-02-19T11:46:32Z</time>
      </trkpt>
      <trkpt lat="46.48192" lon="5.36764">
        <ele>261.6</ele>
        <time>2022-02-19T11:46:34Z</time>
      </trkpt>
      <trkpt lat="46.48172" lon="5.36748">
        <ele>260</ele>
        <time>2022-02-19T11:46:36Z</time>
      </trkpt>
      <trkpt lat="46.48161" lon="5.36738">
        <ele>258.8</ele>
        <time>2022-02-19T11:46:37Z</time>
      </trkpt>
      <trkpt lat="46.48141" lon="5.36722">
        <ele>257.6</ele>
        <time>2022-02-19T11:46:39Z</time>
      </trkpt>
      <trkpt lat="46.48126" lon="5.3671">
        <ele>256.2</ele>
        <time>2022-02-19T11:46:41Z</time>
      </trkpt>
      <trkpt lat="46.48113" lon="5.36698">
        <ele>255.2</ele>
        <time>2022-02-19T11:46:43Z</time>
      </trkpt>
      <trkpt lat="46.4811" lon="5.36682">
        <ele>253.8</ele>
        <time>2022-02-19T11:46:45Z</time>
      </trkpt>
      <trkpt lat="46.48119" lon="5.36667">
        <ele>252.2</ele>
        <time>2022-02-19T11:46:47Z</time>
      </trkpt>
      <trkpt lat="46.48124" lon="5.3666">
        <ele>251.2</ele>
        <time>2022-02-19T11:46:48Z</time>
      </trkpt>
      <trkpt lat="46.48137" lon="5.36647">
        <ele>250.2</ele>
        <time>2022-02-19T11:46:50Z</time>
      </trkpt>
      <trkpt lat="46.4815" lon="5.36633">
        <ele>249.4</ele>
        <time>2022-02-19T11:46:52Z</time>
      </trkpt>
      <trkpt lat="46.48189" lon="5.36607">
        <ele>248.6</ele>
        <time>2022-02-19T11:46:57Z</time>
      </trkpt>
      <trkpt lat="46.48197" lon="5.36604">
        <ele>248.4</ele>
        <time>2022-02-19T11:46:58Z</time>
      </trkpt>
      <trkpt lat="46.48213" lon="5.36598">
        <ele>248.2</ele>
        <time>2022-02-19T11:47:00Z</time>
      </trkpt>
      <trkpt lat="46.48218" lon="5.36591">
        <ele>248</ele>
        <time>2022-02-19T11:47:01Z</time>
      </trkpt>
      <trkpt lat="46.48224" lon="5.36581">
        <ele>247.8</ele>
        <time>2022-02-19T11:47:02Z</time>
      </trkpt>
      <trkpt lat="46.48226" lon="5.36573">
        <ele>247.8</ele>
        <time>2022-02-19T11:47:03Z</time>
      </trkpt>
      <trkpt lat="46.48229" lon="5.36562">
        <ele>247.6</ele>
        <time>2022-02-19T11:47:04Z</time>
      </trkpt>
      <trkpt lat="46.48239" lon="5.36546">
        <ele>247.4</ele>
        <time>2022-02-19T11:47:06Z</time>
      </trkpt>
      <trkpt lat="46.48245" lon="5.3654">
        <ele>247.4</ele>
        <time>2022-02-19T11:47:07Z</time>
      </trkpt>
      <trkpt lat="46.48289" lon="5.36492">
        <ele>246.8</ele>
        <time>2022-02-19T11:47:14Z</time>
      </trkpt>
      <trkpt lat="46.48308" lon="5.3647">
        <ele>245.8</ele>
        <time>2022-02-19T11:47:17Z</time>
      </trkpt>
      <trkpt lat="46.48333" lon="5.36442">
        <ele>245</ele>
        <time>2022-02-19T11:47:21Z</time>
      </trkpt>
      <trkpt lat="46.48346" lon="5.36428">
        <ele>244.8</ele>
        <time>2022-02-19T11:47:23Z</time>
      </trkpt>
      <trkpt lat="46.48388" lon="5.36383">
        <ele>243.4</ele>
        <time>2022-02-19T11:47:29Z</time>
      </trkpt>
      <trkpt lat="46.48401" lon="5.3637">
        <ele>242.6</ele>
        <time>2022-02-19T11:47:31Z</time>
      </trkpt>
      <trkpt lat="46.48407" lon="5.36365">
        <ele>242</ele>
        <time>2022-02-19T11:47:32Z</time>
      </trkpt>
      <trkpt lat="46.48429" lon="5.36352">
        <ele>241.8</ele>
        <time>2022-02-19T11:47:35Z</time>
      </trkpt>
      <trkpt lat="46.48467" lon="5.36344">
        <ele>241</ele>
        <time>2022-02-19T11:47:40Z</time>
      </trkpt>
      <trkpt lat="46.48474" lon="5.36343">
        <ele>240.8</ele>
        <time>2022-02-19T11:47:41Z</time>
      </trkpt>
      <trkpt lat="46.48504" lon="5.36338">
        <ele>240.6</ele>
        <time>2022-02-19T11:47:45Z</time>
      </trkpt>
      <trkpt lat="46.48563" lon="5.36328">
        <ele>240</ele>
        <time>2022-02-19T11:47:53Z</time>
      </trkpt>
      <trkpt lat="46.48612" lon="5.3632">
        <ele>239.4</ele>
        <time>2022-02-19T11:47:59Z</time>
      </trkpt>
      <trkpt lat="46.48627" lon="5.36309">
        <ele>239.2</ele>
        <time>2022-02-19T11:48:01Z</time>
      </trkpt>
      <trkpt lat="46.48632" lon="5.36299">
        <ele>239</ele>
        <time>2022-02-19T11:48:02Z</time>
      </trkpt>
      <trkpt lat="46.48636" lon="5.36287">
        <ele>238.8</ele>
        <time>2022-02-19T11:48:03Z</time>
      </trkpt>
      <trkpt lat="46.4864" lon="5.36261">
        <ele>238</ele>
        <time>2022-02-19T11:48:05Z</time>
      </trkpt>
      <trkpt lat="46.48641" lon="5.36248">
        <ele>237</ele>
        <time>2022-02-19T11:48:06Z</time>
      </trkpt>
      <trkpt lat="46.48642" lon="5.36235">
        <ele>236.8</ele>
        <time>2022-02-19T11:48:07Z</time>
      </trkpt>
      <trkpt lat="46.48646" lon="5.36196">
        <ele>235.4</ele>
        <time>2022-02-19T11:48:10Z</time>
      </trkpt>
      <trkpt lat="46.4865" lon="5.36146">
        <ele>234.4</ele>
        <time>2022-02-19T11:48:14Z</time>
      </trkpt>
      <trkpt lat="46.48652" lon="5.36133">
        <ele>234</ele>
        <time>2022-02-19T11:48:15Z</time>
      </trkpt>
      <trkpt lat="46.48664" lon="5.36075">
        <ele>233.2</ele>
        <time>2022-02-19T11:48:20Z</time>
      </trkpt>
      <trkpt lat="46.48668" lon="5.36056">
        <ele>233</ele>
        <time>2022-02-19T11:48:22Z</time>
      </trkpt>
      <trkpt lat="46.4867" lon="5.36046">
        <ele>233</ele>
        <time>2022-02-19T11:48:23Z</time>
      </trkpt>
      <trkpt lat="46.48674" lon="5.36028">
        <ele>233</ele>
        <time>2022-02-19T11:48:25Z</time>
      </trkpt>
      <trkpt lat="46.4868" lon="5.35979">
        <ele>234</ele>
        <time>2022-02-19T11:48:31Z</time>
      </trkpt>
      <trkpt lat="46.48681" lon="5.35971">
        <ele>234.2</ele>
        <time>2022-02-19T11:48:32Z</time>
      </trkpt>
      <trkpt lat="46.48688" lon="5.35922">
        <ele>234.6</ele>
        <time>2022-02-19T11:48:38Z</time>
      </trkpt>
      <trkpt lat="46.48689" lon="5.35914">
        <ele>234.6</ele>
        <time>2022-02-19T11:48:39Z</time>
      </trkpt>
      <trkpt lat="46.48708" lon="5.35863">
        <ele>234.2</ele>
        <time>2022-02-19T11:48:45Z</time>
      </trkpt>
      <trkpt lat="46.48734" lon="5.35801">
        <ele>233.2</ele>
        <time>2022-02-19T11:48:52Z</time>
      </trkpt>
      <trkpt lat="46.48738" lon="5.35793">
        <ele>233</ele>
        <time>2022-02-19T11:48:53Z</time>
      </trkpt>
      <trkpt lat="46.48765" lon="5.35733">
        <ele>232</ele>
        <time>2022-02-19T11:49:00Z</time>
      </trkpt>
      <trkpt lat="46.48769" lon="5.35724">
        <ele>232</ele>
        <time>2022-02-19T11:49:01Z</time>
      </trkpt>
      <trkpt lat="46.48799" lon="5.35658">
        <ele>231.4</ele>
        <time>2022-02-19T11:49:09Z</time>
      </trkpt>
      <trkpt lat="46.48802" lon="5.3565">
        <ele>231.4</ele>
        <time>2022-02-19T11:49:10Z</time>
      </trkpt>
      <trkpt lat="46.48814" lon="5.35626">
        <ele>231.4</ele>
        <time>2022-02-19T11:49:13Z</time>
      </trkpt>
      <trkpt lat="46.48821" lon="5.35609">
        <ele>231.4</ele>
        <time>2022-02-19T11:49:15Z</time>
      </trkpt>
      <trkpt lat="46.48826" lon="5.35601">
        <ele>231.4</ele>
        <time>2022-02-19T11:49:16Z</time>
      </trkpt>
      <trkpt lat="46.48857" lon="5.35533">
        <ele>231.8</ele>
        <time>2022-02-19T11:49:25Z</time>
      </trkpt>
      <trkpt lat="46.4886" lon="5.35526">
        <ele>231.8</ele>
        <time>2022-02-19T11:49:26Z</time>
      </trkpt>
      <trkpt lat="46.48883" lon="5.35472">
        <ele>231.8</ele>
        <time>2022-02-19T11:49:33Z</time>
      </trkpt>
      <trkpt lat="46.48903" lon="5.35427">
        <ele>231.4</ele>
        <time>2022-02-19T11:49:39Z</time>
      </trkpt>
      <trkpt lat="46.48909" lon="5.35412">
        <ele>231.4</ele>
        <time>2022-02-19T11:49:41Z</time>
      </trkpt>
      <trkpt lat="46.48932" lon="5.35358">
        <ele>231</ele>
        <time>2022-02-19T11:49:48Z</time>
      </trkpt>
      <trkpt lat="46.48935" lon="5.3535">
        <ele>231</ele>
        <time>2022-02-19T11:49:49Z</time>
      </trkpt>
      <trkpt lat="46.48944" lon="5.35327">
        <ele>230.4</ele>
        <time>2022-02-19T11:49:52Z</time>
      </trkpt>
      <trkpt lat="46.48961" lon="5.3529">
        <ele>230</ele>
        <time>2022-02-19T11:49:57Z</time>
      </trkpt>
      <trkpt lat="46.48983" lon="5.35242">
        <ele>230</ele>
        <time>2022-02-19T11:50:04Z</time>
      </trkpt>
      <trkpt lat="46.48986" lon="5.35235">
        <ele>230.2</ele>
        <time>2022-02-19T11:50:05Z</time>
      </trkpt>
      <trkpt lat="46.48995" lon="5.35216">
        <ele>230.2</ele>
        <time>2022-02-19T11:50:08Z</time>
      </trkpt>
      <trkpt lat="46.49019" lon="5.35165">
        <ele>231</ele>
        <time>2022-02-19T11:50:16Z</time>
      </trkpt>
      <trkpt lat="46.49034" lon="5.3513">
        <ele>231.2</ele>
        <time>2022-02-19T11:50:21Z</time>
      </trkpt>
      <trkpt lat="46.49036" lon="5.35122">
        <ele>231.2</ele>
        <time>2022-02-19T11:50:22Z</time>
      </trkpt>
      <trkpt lat="46.49045" lon="5.35073">
        <ele>231.4</ele>
        <time>2022-02-19T11:50:27Z</time>
      </trkpt>
      <trkpt lat="46.49064" lon="5.34988">
        <ele>231.2</ele>
        <time>2022-02-19T11:50:35Z</time>
      </trkpt>
      <trkpt lat="46.4908" lon="5.34907">
        <ele>230.4</ele>
        <time>2022-02-19T11:50:42Z</time>
      </trkpt>
      <trkpt lat="46.49082" lon="5.34896">
        <ele>230.2</ele>
        <time>2022-02-19T11:50:43Z</time>
      </trkpt>
      <trkpt lat="46.49084" lon="5.34884">
        <ele>230</ele>
        <time>2022-02-19T11:50:44Z</time>
      </trkpt>
      <trkpt lat="46.49093" lon="5.34837">
        <ele>228.8</ele>
        <time>2022-02-19T11:50:48Z</time>
      </trkpt>
      <trkpt lat="46.49102" lon="5.34791">
        <ele>228.2</ele>
        <time>2022-02-19T11:50:52Z</time>
      </trkpt>
      <trkpt lat="46.49106" lon="5.34768">
        <ele>227.8</ele>
        <time>2022-02-19T11:50:54Z</time>
      </trkpt>
      <trkpt lat="46.49111" lon="5.34744">
        <ele>227.4</ele>
        <time>2022-02-19T11:50:56Z</time>
      </trkpt>
      <trkpt lat="46.49125" lon="5.34671">
        <ele>226.2</ele>
        <time>2022-02-19T11:51:02Z</time>
      </trkpt>
      <trkpt lat="46.49132" lon="5.34637">
        <ele>225.8</ele>
        <time>2022-02-19T11:51:05Z</time>
      </trkpt>
      <trkpt lat="46.49142" lon="5.34588">
        <ele>226</ele>
        <time>2022-02-19T11:51:10Z</time>
      </trkpt>
      <trkpt lat="46.49154" lon="5.34521">
        <ele>226.4</ele>
        <time>2022-02-19T11:51:17Z</time>
      </trkpt>
      <trkpt lat="46.49164" lon="5.34468">
        <ele>226</ele>
        <time>2022-02-19T11:51:22Z</time>
      </trkpt>
      <trkpt lat="46.4917" lon="5.34437">
        <ele>225.2</ele>
        <time>2022-02-19T11:51:25Z</time>
      </trkpt>
      <trkpt lat="46.49181" lon="5.3438">
        <ele>225</ele>
        <time>2022-02-19T11:51:31Z</time>
      </trkpt>
      <trkpt lat="46.49192" lon="5.34329">
        <ele>225.8</ele>
        <time>2022-02-19T11:51:37Z</time>
      </trkpt>
      <trkpt lat="46.49201" lon="5.34274">
        <ele>226.4</ele>
        <time>2022-02-19T11:51:43Z</time>
      </trkpt>
      <trkpt lat="46.49215" lon="5.34193">
        <ele>225.8</ele>
        <time>2022-02-19T11:51:51Z</time>
      </trkpt>
      <trkpt lat="46.49217" lon="5.34183">
        <ele>225.6</ele>
        <time>2022-02-19T11:51:52Z</time>
      </trkpt>
      <trkpt lat="46.4923" lon="5.34116">
        <ele>225.4</ele>
        <time>2022-02-19T11:51:59Z</time>
      </trkpt>
      <trkpt lat="46.49236" lon="5.34092">
        <ele>225.6</ele>
        <time>2022-02-19T11:52:02Z</time>
      </trkpt>
      <trkpt lat="46.49241" lon="5.34078">
        <ele>225.6</ele>
        <time>2022-02-19T11:52:04Z</time>
      </trkpt>
      <trkpt lat="46.49243" lon="5.34071">
        <ele>226</ele>
        <time>2022-02-19T11:52:05Z</time>
      </trkpt>
      <trkpt lat="46.49251" lon="5.34041">
        <ele>227.2</ele>
        <time>2022-02-19T11:52:09Z</time>
      </trkpt>
      <trkpt lat="46.49252" lon="5.34032">
        <ele>227.4</ele>
        <time>2022-02-19T11:52:10Z</time>
      </trkpt>
      <trkpt lat="46.49255" lon="5.33998">
        <ele>228</ele>
        <time>2022-02-19T11:52:14Z</time>
      </trkpt>
      <trkpt lat="46.49258" lon="5.3398">
        <ele>228.2</ele>
        <time>2022-02-19T11:52:16Z</time>
      </trkpt>
      <trkpt lat="46.49265" lon="5.33944">
        <ele>228.4</ele>
        <time>2022-02-19T11:52:20Z</time>
      </trkpt>
      <trkpt lat="46.49281" lon="5.33863">
        <ele>228.6</ele>
        <time>2022-02-19T11:52:29Z</time>
      </trkpt>
      <trkpt lat="46.4929" lon="5.33809">
        <ele>228.4</ele>
        <time>2022-02-19T11:52:35Z</time>
      </trkpt>
      <trkpt lat="46.49292" lon="5.338">
        <ele>228.4</ele>
        <time>2022-02-19T11:52:36Z</time>
      </trkpt>
      <trkpt lat="46.49304" lon="5.33734">
        <ele>228</ele>
        <time>2022-02-19T11:52:43Z</time>
      </trkpt>
      <trkpt lat="46.49307" lon="5.33674">
        <ele>227.8</ele>
        <time>2022-02-19T11:52:49Z</time>
      </trkpt>
      <trkpt lat="46.49312" lon="5.33605">
        <ele>227.2</ele>
        <time>2022-02-19T11:52:56Z</time>
      </trkpt>
      <trkpt lat="46.49313" lon="5.33595">
        <ele>227</ele>
        <time>2022-02-19T11:52:57Z</time>
      </trkpt>
      <trkpt lat="46.49321" lon="5.33558">
        <ele>227</ele>
        <time>2022-02-19T11:53:01Z</time>
      </trkpt>
      <trkpt lat="46.49322" lon="5.33539">
        <ele>226.8</ele>
        <time>2022-02-19T11:53:03Z</time>
      </trkpt>
      <trkpt lat="46.49317" lon="5.33476">
        <ele>226.8</ele>
        <time>2022-02-19T11:53:10Z</time>
      </trkpt>
      <trkpt lat="46.49302" lon="5.33397">
        <ele>226.6</ele>
        <time>2022-02-19T11:53:19Z</time>
      </trkpt>
      <trkpt lat="46.49299" lon="5.33378">
        <ele>226.6</ele>
        <time>2022-02-19T11:53:21Z</time>
      </trkpt>
      <trkpt lat="46.49288" lon="5.33329">
        <ele>226.2</ele>
        <time>2022-02-19T11:53:26Z</time>
      </trkpt>
      <trkpt lat="46.49284" lon="5.33309">
        <ele>225.8</ele>
        <time>2022-02-19T11:53:28Z</time>
      </trkpt>
      <trkpt lat="46.49266" lon="5.33228">
        <ele>225</ele>
        <time>2022-02-19T11:53:36Z</time>
      </trkpt>
      <trkpt lat="46.49259" lon="5.33209">
        <ele>224.4</ele>
        <time>2022-02-19T11:53:38Z</time>
      </trkpt>
      <trkpt lat="46.49248" lon="5.33193">
        <ele>224.2</ele>
        <time>2022-02-19T11:53:40Z</time>
      </trkpt>
      <trkpt lat="46.49228" lon="5.33176">
        <ele>223.8</ele>
        <time>2022-02-19T11:53:43Z</time>
      </trkpt>
      <trkpt lat="46.49221" lon="5.33171">
        <ele>223.8</ele>
        <time>2022-02-19T11:53:44Z</time>
      </trkpt>
      <trkpt lat="46.4918" lon="5.33135">
        <ele>222.6</ele>
        <time>2022-02-19T11:53:50Z</time>
      </trkpt>
      <trkpt lat="46.49173" lon="5.33128">
        <ele>222.6</ele>
        <time>2022-02-19T11:53:51Z</time>
      </trkpt>
      <trkpt lat="46.49167" lon="5.33121">
        <ele>222.2</ele>
        <time>2022-02-19T11:53:52Z</time>
      </trkpt>
      <trkpt lat="46.49158" lon="5.33103">
        <ele>222</ele>
        <time>2022-02-19T11:53:54Z</time>
      </trkpt>
      <trkpt lat="46.49147" lon="5.33074">
        <ele>221.6</ele>
        <time>2022-02-19T11:53:57Z</time>
      </trkpt>
      <trkpt lat="46.49144" lon="5.33065">
        <ele>221.6</ele>
        <time>2022-02-19T11:53:58Z</time>
      </trkpt>
      <trkpt lat="46.49142" lon="5.33055">
        <ele>221.4</ele>
        <time>2022-02-19T11:53:59Z</time>
      </trkpt>
      <trkpt lat="46.49129" lon="5.32973">
        <ele>221.2</ele>
        <time>2022-02-19T11:54:07Z</time>
      </trkpt>
      <trkpt lat="46.49126" lon="5.32928">
        <ele>220.6</ele>
        <time>2022-02-19T11:54:11Z</time>
      </trkpt>
      <trkpt lat="46.49127" lon="5.32905">
        <ele>220.2</ele>
        <time>2022-02-19T11:54:13Z</time>
      </trkpt>
      <trkpt lat="46.49128" lon="5.32885">
        <ele>220</ele>
        <time>2022-02-19T11:54:15Z</time>
      </trkpt>
      <trkpt lat="46.49134" lon="5.32866">
        <ele>219.8</ele>
        <time>2022-02-19T11:54:17Z</time>
      </trkpt>
      <trkpt lat="46.49143" lon="5.32828">
        <ele>219.4</ele>
        <time>2022-02-19T11:54:21Z</time>
      </trkpt>
      <trkpt lat="46.49145" lon="5.32818">
        <ele>219.4</ele>
        <time>2022-02-19T11:54:22Z</time>
      </trkpt>
      <trkpt lat="46.49145" lon="5.32808">
        <ele>219.4</ele>
        <time>2022-02-19T11:54:23Z</time>
      </trkpt>
      <trkpt lat="46.49143" lon="5.32781">
        <ele>219.4</ele>
        <time>2022-02-19T11:54:26Z</time>
      </trkpt>
      <trkpt lat="46.49135" lon="5.32738">
        <ele>219.6</ele>
        <time>2022-02-19T11:54:31Z</time>
      </trkpt>
      <trkpt lat="46.49133" lon="5.3273">
        <ele>219.6</ele>
        <time>2022-02-19T11:54:32Z</time>
      </trkpt>
      <trkpt lat="46.4913" lon="5.32721">
        <ele>219.6</ele>
        <time>2022-02-19T11:54:33Z</time>
      </trkpt>
      <trkpt lat="46.49121" lon="5.32706">
        <ele>219.8</ele>
        <time>2022-02-19T11:54:35Z</time>
      </trkpt>
      <trkpt lat="46.49116" lon="5.327">
        <ele>219.8</ele>
        <time>2022-02-19T11:54:36Z</time>
      </trkpt>
      <trkpt lat="46.4911" lon="5.32697">
        <ele>219.8</ele>
        <time>2022-02-19T11:54:37Z</time>
      </trkpt>
      <trkpt lat="46.49096" lon="5.32695">
        <ele>219.6</ele>
        <time>2022-02-19T11:54:39Z</time>
      </trkpt>
      <trkpt lat="46.49065" lon="5.32701">
        <ele>218.8</ele>
        <time>2022-02-19T11:54:43Z</time>
      </trkpt>
      <trkpt lat="46.49048" lon="5.32704">
        <ele>218.4</ele>
        <time>2022-02-19T11:54:45Z</time>
      </trkpt>
      <trkpt lat="46.49011" lon="5.3271">
        <ele>216.8</ele>
        <time>2022-02-19T11:54:49Z</time>
      </trkpt>
      <trkpt lat="46.48982" lon="5.3271">
        <ele>215.4</ele>
        <time>2022-02-19T11:54:52Z</time>
      </trkpt>
      <trkpt lat="46.48972" lon="5.32707">
        <ele>215.2</ele>
        <time>2022-02-19T11:54:53Z</time>
      </trkpt>
      <trkpt lat="46.48964" lon="5.32701">
        <ele>214.6</ele>
        <time>2022-02-19T11:54:54Z</time>
      </trkpt>
      <trkpt lat="46.48955" lon="5.32694">
        <ele>214.4</ele>
        <time>2022-02-19T11:54:55Z</time>
      </trkpt>
      <trkpt lat="46.48946" lon="5.32684">
        <ele>213.8</ele>
        <time>2022-02-19T11:54:56Z</time>
      </trkpt>
      <trkpt lat="46.4893" lon="5.3266">
        <ele>212.4</ele>
        <time>2022-02-19T11:54:58Z</time>
      </trkpt>
      <trkpt lat="46.48923" lon="5.32645">
        <ele>211.8</ele>
        <time>2022-02-19T11:54:59Z</time>
      </trkpt>
      <trkpt lat="46.4892" lon="5.32629">
        <ele>211.4</ele>
        <time>2022-02-19T11:55:00Z</time>
      </trkpt>
      <trkpt lat="46.48921" lon="5.32613">
        <ele>210.6</ele>
        <time>2022-02-19T11:55:01Z</time>
      </trkpt>
      <trkpt lat="46.48927" lon="5.32598">
        <ele>210.4</ele>
        <time>2022-02-19T11:55:02Z</time>
      </trkpt>
      <trkpt lat="46.48935" lon="5.32586">
        <ele>209.4</ele>
        <time>2022-02-19T11:55:03Z</time>
      </trkpt>
      <trkpt lat="46.48943" lon="5.32576">
        <ele>208.8</ele>
        <time>2022-02-19T11:55:04Z</time>
      </trkpt>
      <trkpt lat="46.48957" lon="5.32554">
        <ele>207.4</ele>
        <time>2022-02-19T11:55:06Z</time>
      </trkpt>
      <trkpt lat="46.48963" lon="5.32541">
        <ele>206.6</ele>
        <time>2022-02-19T11:55:07Z</time>
      </trkpt>
      <trkpt lat="46.48962" lon="5.32527">
        <ele>205.8</ele>
        <time>2022-02-19T11:55:08Z</time>
      </trkpt>
      <trkpt lat="46.4896" lon="5.32513">
        <ele>205.4</ele>
        <time>2022-02-19T11:55:09Z</time>
      </trkpt>
      <trkpt lat="46.48956" lon="5.325">
        <ele>204.8</ele>
        <time>2022-02-19T11:55:10Z</time>
      </trkpt>
      <trkpt lat="46.48945" lon="5.32464">
        <ele>203.8</ele>
        <time>2022-02-19T11:55:13Z</time>
      </trkpt>
      <trkpt lat="46.48942" lon="5.32453">
        <ele>203.6</ele>
        <time>2022-02-19T11:55:14Z</time>
      </trkpt>
      <trkpt lat="46.48928" lon="5.32407">
        <ele>203.2</ele>
        <time>2022-02-19T11:55:18Z</time>
      </trkpt>
      <trkpt lat="46.48916" lon="5.32365">
        <ele>203.2</ele>
        <time>2022-02-19T11:55:22Z</time>
      </trkpt>
      <trkpt lat="46.48908" lon="5.32345">
        <ele>203.2</ele>
        <time>2022-02-19T11:55:24Z</time>
      </trkpt>
      <trkpt lat="46.489" lon="5.32328">
        <ele>203.2</ele>
        <time>2022-02-19T11:55:26Z</time>
      </trkpt>
      <trkpt lat="46.48884" lon="5.32305">
        <ele>203.6</ele>
        <time>2022-02-19T11:55:30Z</time>
      </trkpt>
      <trkpt lat="46.48865" lon="5.32279">
        <ele>205.4</ele>
        <time>2022-02-19T11:55:35Z</time>
      </trkpt>
      <trkpt lat="46.48862" lon="5.32273">
        <ele>205.4</ele>
        <time>2022-02-19T11:55:36Z</time>
      </trkpt>
      <trkpt lat="46.48858" lon="5.32269">
        <ele>205.8</ele>
        <time>2022-02-19T11:55:37Z</time>
      </trkpt>
      <trkpt lat="46.48852" lon="5.32258">
        <ele>206.6</ele>
        <time>2022-02-19T11:55:39Z</time>
      </trkpt>
      <trkpt lat="46.48842" lon="5.32241">
        <ele>208.2</ele>
        <time>2022-02-19T11:55:42Z</time>
      </trkpt>
      <trkpt lat="46.48837" lon="5.32229">
        <ele>209</ele>
        <time>2022-02-19T11:55:44Z</time>
      </trkpt>
      <trkpt lat="46.48834" lon="5.32221">
        <ele>209.2</ele>
        <time>2022-02-19T11:55:45Z</time>
      </trkpt>
      <trkpt lat="46.48831" lon="5.32206">
        <ele>210.2</ele>
        <time>2022-02-19T11:55:47Z</time>
      </trkpt>
      <trkpt lat="46.48827" lon="5.3218">
        <ele>210.4</ele>
        <time>2022-02-19T11:55:50Z</time>
      </trkpt>
      <trkpt lat="46.48826" lon="5.32151">
        <ele>210.4</ele>
        <time>2022-02-19T11:55:53Z</time>
      </trkpt>
      <trkpt lat="46.48827" lon="5.3213">
        <ele>210</ele>
        <time>2022-02-19T11:55:55Z</time>
      </trkpt>
      <trkpt lat="46.48834" lon="5.32089">
        <ele>209.2</ele>
        <time>2022-02-19T11:55:59Z</time>
      </trkpt>
      <trkpt lat="46.48836" lon="5.32079">
        <ele>209</ele>
        <time>2022-02-19T11:56:00Z</time>
      </trkpt>
      <trkpt lat="46.48848" lon="5.32009">
        <ele>208</ele>
        <time>2022-02-19T11:56:07Z</time>
      </trkpt>
      <trkpt lat="46.48849" lon="5.31987">
        <ele>208.2</ele>
        <time>2022-02-19T11:56:09Z</time>
      </trkpt>
      <trkpt lat="46.48844" lon="5.3191">
        <ele>207</ele>
        <time>2022-02-19T11:56:16Z</time>
      </trkpt>
      <trkpt lat="46.48841" lon="5.31889">
        <ele>206.6</ele>
        <time>2022-02-19T11:56:18Z</time>
      </trkpt>
      <trkpt lat="46.48834" lon="5.31869">
        <ele>206.4</ele>
        <time>2022-02-19T11:56:20Z</time>
      </trkpt>
      <trkpt lat="46.48829" lon="5.31862">
        <ele>206</ele>
        <time>2022-02-19T11:56:21Z</time>
      </trkpt>
      <trkpt lat="46.48822" lon="5.31856">
        <ele>205.8</ele>
        <time>2022-02-19T11:56:22Z</time>
      </trkpt>
      <trkpt lat="46.48816" lon="5.31852">
        <ele>205.6</ele>
        <time>2022-02-19T11:56:23Z</time>
      </trkpt>
      <trkpt lat="46.48802" lon="5.31846">
        <ele>205.2</ele>
        <time>2022-02-19T11:56:25Z</time>
      </trkpt>
      <trkpt lat="46.48789" lon="5.31834">
        <ele>205</ele>
        <time>2022-02-19T11:56:27Z</time>
      </trkpt>
      <trkpt lat="46.48783" lon="5.31814">
        <ele>204.8</ele>
        <time>2022-02-19T11:56:29Z</time>
      </trkpt>
      <trkpt lat="46.4878" lon="5.31755">
        <ele>204.8</ele>
        <time>2022-02-19T11:56:35Z</time>
      </trkpt>
      <trkpt lat="46.48778" lon="5.31734">
        <ele>204.8</ele>
        <time>2022-02-19T11:56:37Z</time>
      </trkpt>
      <trkpt lat="46.48773" lon="5.31717">
        <ele>204.8</ele>
        <time>2022-02-19T11:56:39Z</time>
      </trkpt>
      <trkpt lat="46.48765" lon="5.31703">
        <ele>204.8</ele>
        <time>2022-02-19T11:56:41Z</time>
      </trkpt>
      <trkpt lat="46.48756" lon="5.31691">
        <ele>204.8</ele>
        <time>2022-02-19T11:56:43Z</time>
      </trkpt>
      <trkpt lat="46.48735" lon="5.31663">
        <ele>205.2</ele>
        <time>2022-02-19T11:56:48Z</time>
      </trkpt>
      <trkpt lat="46.48727" lon="5.31654">
        <ele>205.2</ele>
        <time>2022-02-19T11:56:50Z</time>
      </trkpt>
      <trkpt lat="46.48712" lon="5.31636">
        <ele>205.2</ele>
        <time>2022-02-19T11:56:53Z</time>
      </trkpt>
      <trkpt lat="46.48702" lon="5.31623">
        <ele>205.2</ele>
        <time>2022-02-19T11:56:55Z</time>
      </trkpt>
      <trkpt lat="46.48692" lon="5.31612">
        <ele>205.4</ele>
        <time>2022-02-19T11:56:57Z</time>
      </trkpt>
      <trkpt lat="46.48676" lon="5.31589">
        <ele>205.4</ele>
        <time>2022-02-19T11:57:00Z</time>
      </trkpt>
      <trkpt lat="46.4865" lon="5.31555">
        <ele>205.4</ele>
        <time>2022-02-19T11:57:05Z</time>
      </trkpt>
      <trkpt lat="46.48645" lon="5.31549">
        <ele>205.4</ele>
        <time>2022-02-19T11:57:06Z</time>
      </trkpt>
      <trkpt lat="46.4863" lon="5.3153">
        <ele>205.4</ele>
        <time>2022-02-19T11:57:09Z</time>
      </trkpt>
      <trkpt lat="46.48621" lon="5.31514">
        <ele>205.4</ele>
        <time>2022-02-19T11:57:11Z</time>
      </trkpt>
      <trkpt lat="46.48613" lon="5.31496">
        <ele>205.2</ele>
        <time>2022-02-19T11:57:13Z</time>
      </trkpt>
      <trkpt lat="46.48608" lon="5.31475">
        <ele>205</ele>
        <time>2022-02-19T11:57:15Z</time>
      </trkpt>
      <trkpt lat="46.48608" lon="5.31457">
        <ele>204.8</ele>
        <time>2022-02-19T11:57:17Z</time>
      </trkpt>
      <trkpt lat="46.48606" lon="5.31439">
        <ele>204.8</ele>
        <time>2022-02-19T11:57:19Z</time>
      </trkpt>
      <trkpt lat="46.48603" lon="5.31422">
        <ele>204.8</ele>
        <time>2022-02-19T11:57:21Z</time>
      </trkpt>
      <trkpt lat="46.48601" lon="5.31416">
        <ele>205</ele>
        <time>2022-02-19T11:57:22Z</time>
      </trkpt>
      <trkpt lat="46.48593" lon="5.31404">
        <ele>205.2</ele>
        <time>2022-02-19T11:57:24Z</time>
      </trkpt>
      <trkpt lat="46.48586" lon="5.31396">
        <ele>205.4</ele>
        <time>2022-02-19T11:57:26Z</time>
      </trkpt>
      <trkpt lat="46.48583" lon="5.31392">
        <ele>205.8</ele>
        <time>2022-02-19T11:57:27Z</time>
      </trkpt>
      <trkpt lat="46.48571" lon="5.31375">
        <ele>206.8</ele>
        <time>2022-02-19T11:57:31Z</time>
      </trkpt>
      <trkpt lat="46.48568" lon="5.3137">
        <ele>207</ele>
        <time>2022-02-19T11:57:32Z</time>
      </trkpt>
      <trkpt lat="46.48564" lon="5.31359">
        <ele>208</ele>
        <time>2022-02-19T11:57:34Z</time>
      </trkpt>
      <trkpt lat="46.48562" lon="5.31353">
        <ele>208</ele>
        <time>2022-02-19T11:57:35Z</time>
      </trkpt>
      <trkpt lat="46.48559" lon="5.31338">
        <ele>208.6</ele>
        <time>2022-02-19T11:57:38Z</time>
      </trkpt>
      <trkpt lat="46.48558" lon="5.31327">
        <ele>209.2</ele>
        <time>2022-02-19T11:57:40Z</time>
      </trkpt>
      <trkpt lat="46.48556" lon="5.31308">
        <ele>210.2</ele>
        <time>2022-02-19T11:57:43Z</time>
      </trkpt>
      <trkpt lat="46.48555" lon="5.31294">
        <ele>210.6</ele>
        <time>2022-02-19T11:57:45Z</time>
      </trkpt>
      <trkpt lat="46.48554" lon="5.31259">
        <ele>211.2</ele>
        <time>2022-02-19T11:57:50Z</time>
      </trkpt>
      <trkpt lat="46.48554" lon="5.31251">
        <ele>211.4</ele>
        <time>2022-02-19T11:57:51Z</time>
      </trkpt>
      <trkpt lat="46.48555" lon="5.31244">
        <ele>211.4</ele>
        <time>2022-02-19T11:57:52Z</time>
      </trkpt>
      <trkpt lat="46.48559" lon="5.31231">
        <ele>211.8</ele>
        <time>2022-02-19T11:57:54Z</time>
      </trkpt>
      <trkpt lat="46.48567" lon="5.31213">
        <ele>212</ele>
        <time>2022-02-19T11:57:57Z</time>
      </trkpt>
      <trkpt lat="46.48572" lon="5.31203">
        <ele>212.4</ele>
        <time>2022-02-19T11:57:59Z</time>
      </trkpt>
      <trkpt lat="46.48582" lon="5.31182">
        <ele>212.8</ele>
        <time>2022-02-19T11:58:03Z</time>
      </trkpt>
      <trkpt lat="46.48593" lon="5.3116">
        <ele>213.2</ele>
        <time>2022-02-19T11:58:07Z</time>
      </trkpt>
      <trkpt lat="46.48595" lon="5.31154">
        <ele>213.4</ele>
        <time>2022-02-19T11:58:08Z</time>
      </trkpt>
      <trkpt lat="46.48616" lon="5.31112">
        <ele>214.4</ele>
        <time>2022-02-19T11:58:16Z</time>
      </trkpt>
      <trkpt lat="46.4862" lon="5.31103">
        <ele>214.8</ele>
        <time>2022-02-19T11:58:18Z</time>
      </trkpt>
      <trkpt lat="46.48638" lon="5.31066">
        <ele>215.6</ele>
        <time>2022-02-19T11:58:25Z</time>
      </trkpt>
      <trkpt lat="46.48643" lon="5.31055">
        <ele>216</ele>
        <time>2022-02-19T11:58:27Z</time>
      </trkpt>
      <trkpt lat="46.48648" lon="5.31044">
        <ele>216.4</ele>
        <time>2022-02-19T11:58:29Z</time>
      </trkpt>
      <trkpt lat="46.48653" lon="5.31034">
        <ele>216.6</ele>
        <time>2022-02-19T11:58:31Z</time>
      </trkpt>
      <trkpt lat="46.4867" lon="5.31001">
        <ele>217.8</ele>
        <time>2022-02-19T11:58:37Z</time>
      </trkpt>
      <trkpt lat="46.48691" lon="5.30958">
        <ele>218.4</ele>
        <time>2022-02-19T11:58:44Z</time>
      </trkpt>
      <trkpt lat="46.4871" lon="5.30924">
        <ele>218.4</ele>
        <time>2022-02-19T11:58:49Z</time>
      </trkpt>
      <trkpt lat="46.4872" lon="5.30909">
        <ele>218</ele>
        <time>2022-02-19T11:58:51Z</time>
      </trkpt>
      <trkpt lat="46.48725" lon="5.30891">
        <ele>217.6</ele>
        <time>2022-02-19T11:58:53Z</time>
      </trkpt>
      <trkpt lat="46.48722" lon="5.3087">
        <ele>217</ele>
        <time>2022-02-19T11:58:55Z</time>
      </trkpt>
      <trkpt lat="46.48718" lon="5.30861">
        <ele>216.8</ele>
        <time>2022-02-19T11:58:56Z</time>
      </trkpt>
      <trkpt lat="46.48714" lon="5.30854">
        <ele>216.6</ele>
        <time>2022-02-19T11:58:57Z</time>
      </trkpt>
      <trkpt lat="46.48702" lon="5.30844">
        <ele>215.8</ele>
        <time>2022-02-19T11:58:59Z</time>
      </trkpt>
      <trkpt lat="46.48696" lon="5.30839">
        <ele>215.6</ele>
        <time>2022-02-19T11:59:00Z</time>
      </trkpt>
      <trkpt lat="46.48661" lon="5.30817">
        <ele>214.6</ele>
        <time>2022-02-19T11:59:05Z</time>
      </trkpt>
      <trkpt lat="46.48653" lon="5.30812">
        <ele>214.4</ele>
        <time>2022-02-19T11:59:06Z</time>
      </trkpt>
      <trkpt lat="46.48602" lon="5.30773">
        <ele>213.6</ele>
        <time>2022-02-19T11:59:13Z</time>
      </trkpt>
      <trkpt lat="46.48596" lon="5.30768">
        <ele>213.4</ele>
        <time>2022-02-19T11:59:14Z</time>
      </trkpt>
      <trkpt lat="46.48574" lon="5.30746">
        <ele>213.4</ele>
        <time>2022-02-19T11:59:18Z</time>
      </trkpt>
      <trkpt lat="46.4857" lon="5.30741">
        <ele>213.6</ele>
        <time>2022-02-19T11:59:19Z</time>
      </trkpt>
      <trkpt lat="46.48566" lon="5.30734">
        <ele>213.8</ele>
        <time>2022-02-19T11:59:20Z</time>
      </trkpt>
      <trkpt lat="46.48556" lon="5.30712">
        <ele>214.2</ele>
        <time>2022-02-19T11:59:23Z</time>
      </trkpt>
      <trkpt lat="46.48553" lon="5.30707">
        <ele>214.4</ele>
        <time>2022-02-19T11:59:24Z</time>
      </trkpt>
      <trkpt lat="46.48551" lon="5.307">
        <ele>214.6</ele>
        <time>2022-02-19T11:59:25Z</time>
      </trkpt>
      <trkpt lat="46.48549" lon="5.30693">
        <ele>215</ele>
        <time>2022-02-19T11:59:26Z</time>
      </trkpt>
      <trkpt lat="46.48546" lon="5.3068">
        <ele>215.6</ele>
        <time>2022-02-19T11:59:28Z</time>
      </trkpt>
      <trkpt lat="46.48545" lon="5.30674">
        <ele>215.6</ele>
        <time>2022-02-19T11:59:29Z</time>
      </trkpt>
      <trkpt lat="46.48547" lon="5.30647">
        <ele>216.2</ele>
        <time>2022-02-19T11:59:33Z</time>
      </trkpt>
      <trkpt lat="46.48548" lon="5.30633">
        <ele>216.6</ele>
        <time>2022-02-19T11:59:35Z</time>
      </trkpt>
      <trkpt lat="46.4855" lon="5.30621">
        <ele>216.8</ele>
        <time>2022-02-19T11:59:37Z</time>
      </trkpt>
      <trkpt lat="46.48551" lon="5.30609">
        <ele>217.2</ele>
        <time>2022-02-19T11:59:39Z</time>
      </trkpt>
      <trkpt lat="46.48551" lon="5.30602">
        <ele>217.4</ele>
        <time>2022-02-19T11:59:40Z</time>
      </trkpt>
      <trkpt lat="46.48552" lon="5.30591">
        <ele>217.8</ele>
        <time>2022-02-19T11:59:42Z</time>
      </trkpt>
      <trkpt lat="46.48553" lon="5.30585">
        <ele>218.2</ele>
        <time>2022-02-19T11:59:43Z</time>
      </trkpt>
      <trkpt lat="46.48554" lon="5.30578">
        <ele>218.4</ele>
        <time>2022-02-19T11:59:44Z</time>
      </trkpt>
      <trkpt lat="46.48556" lon="5.30562">
        <ele>219</ele>
        <time>2022-02-19T11:59:47Z</time>
      </trkpt>
      <trkpt lat="46.48557" lon="5.30556">
        <ele>219.2</ele>
        <time>2022-02-19T11:59:48Z</time>
      </trkpt>
      <trkpt lat="46.48558" lon="5.30549">
        <ele>219.4</ele>
        <time>2022-02-19T11:59:49Z</time>
      </trkpt>
      <trkpt lat="46.48563" lon="5.30508">
        <ele>220.4</ele>
        <time>2022-02-19T11:59:55Z</time>
      </trkpt>
      <trkpt lat="46.48562" lon="5.30504">
        <ele>220.4</ele>
        <time>2022-02-19T11:59:56Z</time>
      </trkpt>
      <trkpt lat="46.4856" lon="5.30498">
        <ele>220.4</ele>
        <time>2022-02-19T11:59:57Z</time>
      </trkpt>
      <trkpt lat="46.48552" lon="5.30495">
        <ele>220.6</ele>
        <time>2022-02-19T11:59:59Z</time>
      </trkpt>
      <trkpt lat="46.48535" lon="5.30505">
        <ele>220.6</ele>
        <time>2022-02-19T12:00:03Z</time>
      </trkpt>
      <trkpt lat="46.48508" lon="5.30527">
        <ele>220.8</ele>
        <time>2022-02-19T12:00:08Z</time>
      </trkpt>
      <trkpt lat="46.48488" lon="5.30549">
        <ele>221.2</ele>
        <time>2022-02-19T12:00:12Z</time>
      </trkpt>
      <trkpt lat="46.48477" lon="5.30559">
        <ele>221.2</ele>
        <time>2022-02-19T12:00:14Z</time>
      </trkpt>
      <trkpt lat="46.48439" lon="5.30597">
        <ele>220.8</ele>
        <time>2022-02-19T12:00:21Z</time>
      </trkpt>
      <trkpt lat="46.48394" lon="5.30638">
        <ele>220.4</ele>
        <time>2022-02-19T12:00:29Z</time>
      </trkpt>
      <trkpt lat="46.48346" lon="5.30682">
        <ele>219.2</ele>
        <time>2022-02-19T12:00:37Z</time>
      </trkpt>
      <trkpt lat="46.4834" lon="5.30686">
        <ele>219.2</ele>
        <time>2022-02-19T12:00:38Z</time>
      </trkpt>
      <trkpt lat="46.48333" lon="5.3069">
        <ele>219.2</ele>
        <time>2022-02-19T12:00:39Z</time>
      </trkpt>
      <trkpt lat="46.48318" lon="5.30697">
        <ele>219</ele>
        <time>2022-02-19T12:00:41Z</time>
      </trkpt>
      <trkpt lat="46.48311" lon="5.30698">
        <ele>218.8</ele>
        <time>2022-02-19T12:00:42Z</time>
      </trkpt>
      <trkpt lat="46.48277" lon="5.30694">
        <ele>218.6</ele>
        <time>2022-02-19T12:00:47Z</time>
      </trkpt>
      <trkpt lat="46.48233" lon="5.30682">
        <ele>219.2</ele>
        <time>2022-02-19T12:00:54Z</time>
      </trkpt>
      <trkpt lat="46.48221" lon="5.30682">
        <ele>219.6</ele>
        <time>2022-02-19T12:00:56Z</time>
      </trkpt>
      <trkpt lat="46.48212" lon="5.30685">
        <ele>220.2</ele>
        <time>2022-02-19T12:00:58Z</time>
      </trkpt>
      <trkpt lat="46.48206" lon="5.30686">
        <ele>220.4</ele>
        <time>2022-02-19T12:00:59Z</time>
      </trkpt>
      <trkpt lat="46.48181" lon="5.30699">
        <ele>221.4</ele>
        <time>2022-02-19T12:01:04Z</time>
      </trkpt>
      <trkpt lat="46.48175" lon="5.30702">
        <ele>221.4</ele>
        <time>2022-02-19T12:01:05Z</time>
      </trkpt>
      <trkpt lat="46.48142" lon="5.3072">
        <ele>222.4</ele>
        <time>2022-02-19T12:01:12Z</time>
      </trkpt>
      <trkpt lat="46.48099" lon="5.30743">
        <ele>223.4</ele>
        <time>2022-02-19T12:01:20Z</time>
      </trkpt>
      <trkpt lat="46.48095" lon="5.30745">
        <ele>223.6</ele>
        <time>2022-02-19T12:01:21Z</time>
      </trkpt>
      <trkpt lat="46.4804" lon="5.30776">
        <ele>223.8</ele>
        <time>2022-02-19T12:01:31Z</time>
      </trkpt>
      <trkpt lat="46.48034" lon="5.30779">
        <ele>223.8</ele>
        <time>2022-02-19T12:01:32Z</time>
      </trkpt>
      <trkpt lat="46.47979" lon="5.30809">
        <ele>223</ele>
        <time>2022-02-19T12:01:40Z</time>
      </trkpt>
      <trkpt lat="46.47949" lon="5.30818">
        <ele>222.4</ele>
        <time>2022-02-19T12:01:44Z</time>
      </trkpt>
      <trkpt lat="46.47942" lon="5.30818">
        <ele>222</ele>
        <time>2022-02-19T12:01:45Z</time>
      </trkpt>
      <trkpt lat="46.47922" lon="5.30815">
        <ele>221.8</ele>
        <time>2022-02-19T12:01:48Z</time>
      </trkpt>
      <trkpt lat="46.47916" lon="5.30813">
        <ele>221.8</ele>
        <time>2022-02-19T12:01:49Z</time>
      </trkpt>
      <trkpt lat="46.47911" lon="5.30811">
        <ele>221.8</ele>
        <time>2022-02-19T12:01:50Z</time>
      </trkpt>
      <trkpt lat="46.47884" lon="5.308">
        <ele>223.6</ele>
        <time>2022-02-19T12:01:56Z</time>
      </trkpt>
      <trkpt lat="46.47866" lon="5.30797">
        <ele>224.8</ele>
        <time>2022-02-19T12:02:00Z</time>
      </trkpt>
      <trkpt lat="46.47854" lon="5.30798">
        <ele>225.8</ele>
        <time>2022-02-19T12:02:03Z</time>
      </trkpt>
      <trkpt lat="46.47846" lon="5.308">
        <ele>226.6</ele>
        <time>2022-02-19T12:02:05Z</time>
      </trkpt>
      <trkpt lat="46.47838" lon="5.30804">
        <ele>227.2</ele>
        <time>2022-02-19T12:02:07Z</time>
      </trkpt>
      <trkpt lat="46.47834" lon="5.30807">
        <ele>227.6</ele>
        <time>2022-02-19T12:02:08Z</time>
      </trkpt>
      <trkpt lat="46.47819" lon="5.30821">
        <ele>228.4</ele>
        <time>2022-02-19T12:02:12Z</time>
      </trkpt>
      <trkpt lat="46.47806" lon="5.30839">
        <ele>229</ele>
        <time>2022-02-19T12:02:16Z</time>
      </trkpt>
      <trkpt lat="46.47797" lon="5.30855">
        <ele>229.6</ele>
        <time>2022-02-19T12:02:19Z</time>
      </trkpt>
      <trkpt lat="46.47782" lon="5.30878">
        <ele>229.8</ele>
        <time>2022-02-19T12:02:23Z</time>
      </trkpt>
      <trkpt lat="46.47778" lon="5.30883">
        <ele>229.8</ele>
        <time>2022-02-19T12:02:24Z</time>
      </trkpt>
      <trkpt lat="46.47772" lon="5.30889">
        <ele>229.8</ele>
        <time>2022-02-19T12:02:25Z</time>
      </trkpt>
      <trkpt lat="46.47761" lon="5.30897">
        <ele>229.8</ele>
        <time>2022-02-19T12:02:27Z</time>
      </trkpt>
      <trkpt lat="46.47754" lon="5.30901">
        <ele>229.6</ele>
        <time>2022-02-19T12:02:28Z</time>
      </trkpt>
      <trkpt lat="46.47747" lon="5.30904">
        <ele>229.6</ele>
        <time>2022-02-19T12:02:29Z</time>
      </trkpt>
      <trkpt lat="46.47731" lon="5.30905">
        <ele>229.4</ele>
        <time>2022-02-19T12:02:31Z</time>
      </trkpt>
      <trkpt lat="46.47723" lon="5.30904">
        <ele>229</ele>
        <time>2022-02-19T12:02:32Z</time>
      </trkpt>
      <trkpt lat="46.47706" lon="5.30899">
        <ele>228.6</ele>
        <time>2022-02-19T12:02:34Z</time>
      </trkpt>
      <trkpt lat="46.4768" lon="5.3089">
        <ele>227.2</ele>
        <time>2022-02-19T12:02:37Z</time>
      </trkpt>
      <trkpt lat="46.47672" lon="5.30888">
        <ele>226.8</ele>
        <time>2022-02-19T12:02:38Z</time>
      </trkpt>
      <trkpt lat="46.47654" lon="5.30887">
        <ele>226</ele>
        <time>2022-02-19T12:02:40Z</time>
      </trkpt>
      <trkpt lat="46.47645" lon="5.3089">
        <ele>225.8</ele>
        <time>2022-02-19T12:02:41Z</time>
      </trkpt>
      <trkpt lat="46.47602" lon="5.30909">
        <ele>224.8</ele>
        <time>2022-02-19T12:02:46Z</time>
      </trkpt>
      <trkpt lat="46.47584" lon="5.30916">
        <ele>224.2</ele>
        <time>2022-02-19T12:02:48Z</time>
      </trkpt>
      <trkpt lat="46.47575" lon="5.3092">
        <ele>223.8</ele>
        <time>2022-02-19T12:02:49Z</time>
      </trkpt>
      <trkpt lat="46.47532" lon="5.30945">
        <ele>222.6</ele>
        <time>2022-02-19T12:02:54Z</time>
      </trkpt>
      <trkpt lat="46.47515" lon="5.30956">
        <ele>222</ele>
        <time>2022-02-19T12:02:56Z</time>
      </trkpt>
      <trkpt lat="46.47506" lon="5.30962">
        <ele>221.8</ele>
        <time>2022-02-19T12:02:57Z</time>
      </trkpt>
      <trkpt lat="46.47498" lon="5.30967">
        <ele>221.2</ele>
        <time>2022-02-19T12:02:58Z</time>
      </trkpt>
      <trkpt lat="46.4745" lon="5.30999">
        <ele>220.6</ele>
        <time>2022-02-19T12:03:04Z</time>
      </trkpt>
      <trkpt lat="46.47415" lon="5.31022">
        <ele>220.8</ele>
        <time>2022-02-19T12:03:09Z</time>
      </trkpt>
      <trkpt lat="46.4738" lon="5.31044">
        <ele>222.4</ele>
        <time>2022-02-19T12:03:15Z</time>
      </trkpt>
      <trkpt lat="46.47361" lon="5.31058">
        <ele>223.4</ele>
        <time>2022-02-19T12:03:19Z</time>
      </trkpt>
      <trkpt lat="46.47357" lon="5.31062">
        <ele>224</ele>
        <time>2022-02-19T12:03:20Z</time>
      </trkpt>
      <trkpt lat="46.47354" lon="5.31065">
        <ele>224.4</ele>
        <time>2022-02-19T12:03:21Z</time>
      </trkpt>
      <trkpt lat="46.47351" lon="5.31069">
        <ele>224.4</ele>
        <time>2022-02-19T12:03:22Z</time>
      </trkpt>
      <trkpt lat="46.47345" lon="5.3108">
        <ele>225.2</ele>
        <time>2022-02-19T12:03:25Z</time>
      </trkpt>
      <trkpt lat="46.47343" lon="5.31085">
        <ele>225.2</ele>
        <time>2022-02-19T12:03:26Z</time>
      </trkpt>
      <trkpt lat="46.4734" lon="5.31091">
        <ele>225.6</ele>
        <time>2022-02-19T12:03:27Z</time>
      </trkpt>
      <trkpt lat="46.47335" lon="5.31107">
        <ele>226</ele>
        <time>2022-02-19T12:03:29Z</time>
      </trkpt>
      <trkpt lat="46.47328" lon="5.31122">
        <ele>226.2</ele>
        <time>2022-02-19T12:03:31Z</time>
      </trkpt>
      <trkpt lat="46.47321" lon="5.31137">
        <ele>226.4</ele>
        <time>2022-02-19T12:03:33Z</time>
      </trkpt>
      <trkpt lat="46.47317" lon="5.31143">
        <ele>226.6</ele>
        <time>2022-02-19T12:03:34Z</time>
      </trkpt>
      <trkpt lat="46.47312" lon="5.31148">
        <ele>226.8</ele>
        <time>2022-02-19T12:03:35Z</time>
      </trkpt>
      <trkpt lat="46.47302" lon="5.31162">
        <ele>227</ele>
        <time>2022-02-19T12:03:37Z</time>
      </trkpt>
      <trkpt lat="46.47297" lon="5.31168">
        <ele>227</ele>
        <time>2022-02-19T12:03:38Z</time>
      </trkpt>
      <trkpt lat="46.47292" lon="5.31175">
        <ele>227.4</ele>
        <time>2022-02-19T12:03:39Z</time>
      </trkpt>
      <trkpt lat="46.47287" lon="5.3118">
        <ele>227.4</ele>
        <time>2022-02-19T12:03:40Z</time>
      </trkpt>
      <trkpt lat="46.47272" lon="5.31193">
        <ele>227.6</ele>
        <time>2022-02-19T12:03:42Z</time>
      </trkpt>
      <trkpt lat="46.47265" lon="5.31198">
        <ele>227.6</ele>
        <time>2022-02-19T12:03:43Z</time>
      </trkpt>
      <trkpt lat="46.4725" lon="5.31209">
        <ele>227.6</ele>
        <time>2022-02-19T12:03:45Z</time>
      </trkpt>
      <trkpt lat="46.47238" lon="5.31222">
        <ele>227.8</ele>
        <time>2022-02-19T12:03:47Z</time>
      </trkpt>
      <trkpt lat="46.47213" lon="5.31261">
        <ele>228.6</ele>
        <time>2022-02-19T12:03:53Z</time>
      </trkpt>
      <trkpt lat="46.47209" lon="5.31267">
        <ele>228.6</ele>
        <time>2022-02-19T12:03:54Z</time>
      </trkpt>
      <trkpt lat="46.47195" lon="5.31284">
        <ele>228.8</ele>
        <time>2022-02-19T12:03:57Z</time>
      </trkpt>
      <trkpt lat="46.47191" lon="5.3129">
        <ele>229</ele>
        <time>2022-02-19T12:03:58Z</time>
      </trkpt>
      <trkpt lat="46.47162" lon="5.31329">
        <ele>229.4</ele>
        <time>2022-02-19T12:04:04Z</time>
      </trkpt>
      <trkpt lat="46.4715" lon="5.31346">
        <ele>229.2</ele>
        <time>2022-02-19T12:04:07Z</time>
      </trkpt>
      <trkpt lat="46.4713" lon="5.31373">
        <ele>229.4</ele>
        <time>2022-02-19T12:04:11Z</time>
      </trkpt>
      <trkpt lat="46.47117" lon="5.31392">
        <ele>229.6</ele>
        <time>2022-02-19T12:04:15Z</time>
      </trkpt>
      <trkpt lat="46.47109" lon="5.31403">
        <ele>229.8</ele>
        <time>2022-02-19T12:04:17Z</time>
      </trkpt>
      <trkpt lat="46.47102" lon="5.3141">
        <ele>229.8</ele>
        <time>2022-02-19T12:04:18Z</time>
      </trkpt>
      <trkpt lat="46.47087" lon="5.31429">
        <ele>230</ele>
        <time>2022-02-19T12:04:21Z</time>
      </trkpt>
      <trkpt lat="46.47073" lon="5.31446">
        <ele>230.2</ele>
        <time>2022-02-19T12:04:24Z</time>
      </trkpt>
      <trkpt lat="46.47055" lon="5.31465">
        <ele>230.2</ele>
        <time>2022-02-19T12:04:27Z</time>
      </trkpt>
      <trkpt lat="46.47043" lon="5.31483">
        <ele>230.2</ele>
        <time>2022-02-19T12:04:30Z</time>
      </trkpt>
      <trkpt lat="46.47004" lon="5.31535">
        <ele>230.2</ele>
        <time>2022-02-19T12:04:38Z</time>
      </trkpt>
      <trkpt lat="46.46974" lon="5.31579">
        <ele>230.8</ele>
        <time>2022-02-19T12:04:46Z</time>
      </trkpt>
      <trkpt lat="46.46959" lon="5.31597">
        <ele>231</ele>
        <time>2022-02-19T12:04:49Z</time>
      </trkpt>
      <trkpt lat="46.46951" lon="5.31611">
        <ele>231.2</ele>
        <time>2022-02-19T12:04:52Z</time>
      </trkpt>
      <trkpt lat="46.46927" lon="5.31648">
        <ele>231.8</ele>
        <time>2022-02-19T12:04:58Z</time>
      </trkpt>
      <trkpt lat="46.46919" lon="5.31658">
        <ele>231.8</ele>
        <time>2022-02-19T12:05:01Z</time>
      </trkpt>
      <trkpt lat="46.46904" lon="5.31676">
        <ele>231.8</ele>
        <time>2022-02-19T12:05:03Z</time>
      </trkpt>
      <trkpt lat="46.46899" lon="5.31682">
        <ele>231.8</ele>
        <time>2022-02-19T12:05:04Z</time>
      </trkpt>
      <trkpt lat="46.4686" lon="5.31728">
        <ele>231.6</ele>
        <time>2022-02-19T12:05:11Z</time>
      </trkpt>
      <trkpt lat="46.46822" lon="5.31771">
        <ele>231.2</ele>
        <time>2022-02-19T12:05:17Z</time>
      </trkpt>
      <trkpt lat="46.46798" lon="5.31801">
        <ele>230.6</ele>
        <time>2022-02-19T12:05:21Z</time>
      </trkpt>
      <trkpt lat="46.46785" lon="5.31814">
        <ele>230.4</ele>
        <time>2022-02-19T12:05:23Z</time>
      </trkpt>
      <trkpt lat="46.46754" lon="5.31848">
        <ele>229.6</ele>
        <time>2022-02-19T12:05:28Z</time>
      </trkpt>
      <trkpt lat="46.4674" lon="5.31862">
        <ele>229.4</ele>
        <time>2022-02-19T12:05:30Z</time>
      </trkpt>
      <trkpt lat="46.46697" lon="5.31895">
        <ele>229.2</ele>
        <time>2022-02-19T12:05:36Z</time>
      </trkpt>
      <trkpt lat="46.46642" lon="5.31945">
        <ele>229.8</ele>
        <time>2022-02-19T12:05:45Z</time>
      </trkpt>
      <trkpt lat="46.46619" lon="5.31979">
        <ele>230.6</ele>
        <time>2022-02-19T12:05:50Z</time>
      </trkpt>
      <trkpt lat="46.46611" lon="5.31993">
        <ele>230.6</ele>
        <time>2022-02-19T12:05:52Z</time>
      </trkpt>
      <trkpt lat="46.46574" lon="5.32059">
        <ele>231.2</ele>
        <time>2022-02-19T12:06:00Z</time>
      </trkpt>
      <trkpt lat="46.46556" lon="5.3209">
        <ele>231.4</ele>
        <time>2022-02-19T12:06:04Z</time>
      </trkpt>
      <trkpt lat="46.46526" lon="5.3215">
        <ele>231.4</ele>
        <time>2022-02-19T12:06:11Z</time>
      </trkpt>
      <trkpt lat="46.46521" lon="5.32158">
        <ele>231.4</ele>
        <time>2022-02-19T12:06:12Z</time>
      </trkpt>
      <trkpt lat="46.46509" lon="5.32181">
        <ele>231.6</ele>
        <time>2022-02-19T12:06:15Z</time>
      </trkpt>
      <trkpt lat="46.46505" lon="5.32191">
        <ele>231.6</ele>
        <time>2022-02-19T12:06:16Z</time>
      </trkpt>
      <trkpt lat="46.46491" lon="5.32221">
        <ele>231.6</ele>
        <time>2022-02-19T12:06:20Z</time>
      </trkpt>
      <trkpt lat="46.46486" lon="5.3223">
        <ele>231.6</ele>
        <time>2022-02-19T12:06:21Z</time>
      </trkpt>
      <trkpt lat="46.46463" lon="5.32276">
        <ele>231.6</ele>
        <time>2022-02-19T12:06:27Z</time>
      </trkpt>
      <trkpt lat="46.46454" lon="5.32291">
        <ele>231.6</ele>
        <time>2022-02-19T12:06:29Z</time>
      </trkpt>
      <trkpt lat="46.46437" lon="5.32321">
        <ele>231.6</ele>
        <time>2022-02-19T12:06:33Z</time>
      </trkpt>
      <trkpt lat="46.46411" lon="5.32364">
        <ele>231.6</ele>
        <time>2022-02-19T12:06:40Z</time>
      </trkpt>
      <trkpt lat="46.46386" lon="5.32409">
        <ele>231.6</ele>
        <time>2022-02-19T12:06:45Z</time>
      </trkpt>
      <trkpt lat="46.46379" lon="5.32425">
        <ele>231.6</ele>
        <time>2022-02-19T12:06:47Z</time>
      </trkpt>
      <trkpt lat="46.46358" lon="5.32481">
        <ele>231.8</ele>
        <time>2022-02-19T12:06:53Z</time>
      </trkpt>
      <trkpt lat="46.46336" lon="5.32541">
        <ele>232.2</ele>
        <time>2022-02-19T12:07:01Z</time>
      </trkpt>
      <trkpt lat="46.46322" lon="5.326">
        <ele>232.2</ele>
        <time>2022-02-19T12:07:06Z</time>
      </trkpt>
      <trkpt lat="46.4632" lon="5.32663">
        <ele>232</ele>
        <time>2022-02-19T12:07:12Z</time>
      </trkpt>
      <trkpt lat="46.4632" lon="5.32746">
        <ele>231.6</ele>
        <time>2022-02-19T12:07:20Z</time>
      </trkpt>
      <trkpt lat="46.46319" lon="5.32754">
        <ele>231.6</ele>
        <time>2022-02-19T12:07:21Z</time>
      </trkpt>
      <trkpt lat="46.46317" lon="5.32763">
        <ele>231.6</ele>
        <time>2022-02-19T12:07:22Z</time>
      </trkpt>
      <trkpt lat="46.46313" lon="5.32784">
        <ele>231.6</ele>
        <time>2022-02-19T12:07:24Z</time>
      </trkpt>
      <trkpt lat="46.46309" lon="5.32792">
        <ele>231.6</ele>
        <time>2022-02-19T12:07:25Z</time>
      </trkpt>
      <trkpt lat="46.46306" lon="5.32798">
        <ele>231.6</ele>
        <time>2022-02-19T12:07:26Z</time>
      </trkpt>
      <trkpt lat="46.46287" lon="5.32827">
        <ele>231.6</ele>
        <time>2022-02-19T12:07:30Z</time>
      </trkpt>
      <trkpt lat="46.46242" lon="5.32888">
        <ele>231.8</ele>
        <time>2022-02-19T12:07:39Z</time>
      </trkpt>
      <trkpt lat="46.46236" lon="5.32896">
        <ele>231.8</ele>
        <time>2022-02-19T12:07:40Z</time>
      </trkpt>
      <trkpt lat="46.46226" lon="5.32911">
        <ele>231.8</ele>
        <time>2022-02-19T12:07:42Z</time>
      </trkpt>
      <trkpt lat="46.46216" lon="5.32926">
        <ele>231.8</ele>
        <time>2022-02-19T12:07:44Z</time>
      </trkpt>
      <trkpt lat="46.46199" lon="5.32944">
        <ele>231.6</ele>
        <time>2022-02-19T12:07:47Z</time>
      </trkpt>
      <trkpt lat="46.4617" lon="5.3297">
        <ele>231.6</ele>
        <time>2022-02-19T12:07:52Z</time>
      </trkpt>
      <trkpt lat="46.46166" lon="5.32974">
        <ele>231.6</ele>
        <time>2022-02-19T12:07:53Z</time>
      </trkpt>
      <trkpt lat="46.4615" lon="5.32988">
        <ele>232</ele>
        <time>2022-02-19T12:07:56Z</time>
      </trkpt>
      <trkpt lat="46.46145" lon="5.32991">
        <ele>232.2</ele>
        <time>2022-02-19T12:07:58Z</time>
      </trkpt>
      <trkpt lat="46.46135" lon="5.32997">
        <ele>232.4</ele>
        <time>2022-02-19T12:07:59Z</time>
      </trkpt>
      <trkpt lat="46.46125" lon="5.33005">
        <ele>232.6</ele>
        <time>2022-02-19T12:08:01Z</time>
      </trkpt>
      <trkpt lat="46.46115" lon="5.33012">
        <ele>233</ele>
        <time>2022-02-19T12:08:03Z</time>
      </trkpt>
      <trkpt lat="46.46111" lon="5.33014">
        <ele>233.2</ele>
        <time>2022-02-19T12:08:04Z</time>
      </trkpt>
      <trkpt lat="46.46099" lon="5.33021">
        <ele>233.4</ele>
        <time>2022-02-19T12:08:06Z</time>
      </trkpt>
      <trkpt lat="46.4608" lon="5.33037">
        <ele>233.8</ele>
        <time>2022-02-19T12:08:10Z</time>
      </trkpt>
      <trkpt lat="46.46058" lon="5.33055">
        <ele>233.8</ele>
        <time>2022-02-19T12:08:14Z</time>
      </trkpt>
      <trkpt lat="46.46033" lon="5.33076">
        <ele>234</ele>
        <time>2022-02-19T12:08:18Z</time>
      </trkpt>
      <trkpt lat="46.46009" lon="5.33098">
        <ele>233.8</ele>
        <time>2022-02-19T12:08:22Z</time>
      </trkpt>
      <trkpt lat="46.4598" lon="5.33124">
        <ele>233.6</ele>
        <time>2022-02-19T12:08:27Z</time>
      </trkpt>
      <trkpt lat="46.45934" lon="5.33171">
        <ele>234</ele>
        <time>2022-02-19T12:08:36Z</time>
      </trkpt>
      <trkpt lat="46.45929" lon="5.33177">
        <ele>234</ele>
        <time>2022-02-19T12:08:37Z</time>
      </trkpt>
      <trkpt lat="46.45894" lon="5.33214">
        <ele>234.4</ele>
        <time>2022-02-19T12:08:44Z</time>
      </trkpt>
      <trkpt lat="46.45861" lon="5.33254">
        <ele>234.6</ele>
        <time>2022-02-19T12:08:51Z</time>
      </trkpt>
      <trkpt lat="46.45848" lon="5.33273">
        <ele>235</ele>
        <time>2022-02-19T12:08:54Z</time>
      </trkpt>
      <trkpt lat="46.45829" lon="5.33308">
        <ele>235.6</ele>
        <time>2022-02-19T12:08:59Z</time>
      </trkpt>
      <trkpt lat="46.45796" lon="5.33376">
        <ele>235.8</ele>
        <time>2022-02-19T12:09:08Z</time>
      </trkpt>
      <trkpt lat="46.45779" lon="5.33414">
        <ele>236</ele>
        <time>2022-02-19T12:09:13Z</time>
      </trkpt>
      <trkpt lat="46.4577" lon="5.33437">
        <ele>236.2</ele>
        <time>2022-02-19T12:09:16Z</time>
      </trkpt>
      <trkpt lat="46.45742" lon="5.33506">
        <ele>237</ele>
        <time>2022-02-19T12:09:25Z</time>
      </trkpt>
      <trkpt lat="46.45739" lon="5.33514">
        <ele>237</ele>
        <time>2022-02-19T12:09:26Z</time>
      </trkpt>
      <trkpt lat="46.45715" lon="5.33571">
        <ele>237.6</ele>
        <time>2022-02-19T12:09:34Z</time>
      </trkpt>
      <trkpt lat="46.45709" lon="5.33583">
        <ele>238.2</ele>
        <time>2022-02-19T12:09:36Z</time>
      </trkpt>
      <trkpt lat="46.45699" lon="5.33605">
        <ele>239</ele>
        <time>2022-02-19T12:09:40Z</time>
      </trkpt>
      <trkpt lat="46.45693" lon="5.33618">
        <ele>239.2</ele>
        <time>2022-02-19T12:09:42Z</time>
      </trkpt>
      <trkpt lat="46.45678" lon="5.33652">
        <ele>240</ele>
        <time>2022-02-19T12:09:48Z</time>
      </trkpt>
      <trkpt lat="46.45671" lon="5.33672">
        <ele>240.4</ele>
        <time>2022-02-19T12:09:50Z</time>
      </trkpt>
      <trkpt lat="46.45665" lon="5.33687">
        <ele>240.6</ele>
        <time>2022-02-19T12:09:52Z</time>
      </trkpt>
      <trkpt lat="46.45654" lon="5.33706">
        <ele>240.8</ele>
        <time>2022-02-19T12:09:55Z</time>
      </trkpt>
      <trkpt lat="46.45635" lon="5.33746">
        <ele>241.4</ele>
        <time>2022-02-19T12:10:01Z</time>
      </trkpt>
      <trkpt lat="46.4563" lon="5.3376">
        <ele>241.6</ele>
        <time>2022-02-19T12:10:03Z</time>
      </trkpt>
      <trkpt lat="46.45612" lon="5.33797">
        <ele>242.4</ele>
        <time>2022-02-19T12:10:09Z</time>
      </trkpt>
      <trkpt lat="46.45609" lon="5.33803">
        <ele>242.6</ele>
        <time>2022-02-19T12:10:10Z</time>
      </trkpt>
      <trkpt lat="46.45603" lon="5.33818">
        <ele>242.8</ele>
        <time>2022-02-19T12:10:12Z</time>
      </trkpt>
      <trkpt lat="46.45595" lon="5.33828">
        <ele>243.2</ele>
        <time>2022-02-19T12:10:14Z</time>
      </trkpt>
      <trkpt lat="46.45592" lon="5.33833">
        <ele>243.6</ele>
        <time>2022-02-19T12:10:15Z</time>
      </trkpt>
      <trkpt lat="46.45587" lon="5.33845">
        <ele>244</ele>
        <time>2022-02-19T12:10:17Z</time>
      </trkpt>
      <trkpt lat="46.45581" lon="5.33864">
        <ele>244.4</ele>
        <time>2022-02-19T12:10:20Z</time>
      </trkpt>
      <trkpt lat="46.45574" lon="5.33882">
        <ele>244.6</ele>
        <time>2022-02-19T12:10:23Z</time>
      </trkpt>
      <trkpt lat="46.45558" lon="5.33916">
        <ele>245.6</ele>
        <time>2022-02-19T12:10:29Z</time>
      </trkpt>
      <trkpt lat="46.45556" lon="5.33921">
        <ele>246</ele>
        <time>2022-02-19T12:10:30Z</time>
      </trkpt>
      <trkpt lat="46.4555" lon="5.33937">
        <ele>246.6</ele>
        <time>2022-02-19T12:10:33Z</time>
      </trkpt>
      <trkpt lat="46.45536" lon="5.3396">
        <ele>247.6</ele>
        <time>2022-02-19T12:10:38Z</time>
      </trkpt>
      <trkpt lat="46.45526" lon="5.33973">
        <ele>248</ele>
        <time>2022-02-19T12:10:41Z</time>
      </trkpt>
      <trkpt lat="46.45517" lon="5.33985">
        <ele>248.6</ele>
        <time>2022-02-19T12:10:44Z</time>
      </trkpt>
      <trkpt lat="46.45509" lon="5.33993">
        <ele>249</ele>
        <time>2022-02-19T12:10:46Z</time>
      </trkpt>
      <trkpt lat="46.45505" lon="5.33996">
        <ele>249.2</ele>
        <time>2022-02-19T12:10:47Z</time>
      </trkpt>
      <trkpt lat="46.45494" lon="5.34005">
        <ele>249.8</ele>
        <time>2022-02-19T12:10:50Z</time>
      </trkpt>
      <trkpt lat="46.45482" lon="5.34014">
        <ele>250.6</ele>
        <time>2022-02-19T12:10:53Z</time>
      </trkpt>
      <trkpt lat="46.45473" lon="5.34018">
        <ele>250.8</ele>
        <time>2022-02-19T12:10:55Z</time>
      </trkpt>
      <trkpt lat="46.45469" lon="5.34021">
        <ele>251</ele>
        <time>2022-02-19T12:10:56Z</time>
      </trkpt>
      <trkpt lat="46.45456" lon="5.34027">
        <ele>251.8</ele>
        <time>2022-02-19T12:11:00Z</time>
      </trkpt>
      <trkpt lat="46.45452" lon="5.34028">
        <ele>252.2</ele>
        <time>2022-02-19T12:11:01Z</time>
      </trkpt>
      <trkpt lat="46.4544" lon="5.34033">
        <ele>253</ele>
        <time>2022-02-19T12:11:05Z</time>
      </trkpt>
      <trkpt lat="46.45434" lon="5.34034">
        <ele>253.4</ele>
        <time>2022-02-19T12:11:07Z</time>
      </trkpt>
      <trkpt lat="46.45417" lon="5.34036">
        <ele>253.8</ele>
        <time>2022-02-19T12:11:11Z</time>
      </trkpt>
      <trkpt lat="46.454" lon="5.34039">
        <ele>254.6</ele>
        <time>2022-02-19T12:11:14Z</time>
      </trkpt>
      <trkpt lat="46.45382" lon="5.34042">
        <ele>255.2</ele>
        <time>2022-02-19T12:11:17Z</time>
      </trkpt>
      <trkpt lat="46.45372" lon="5.34046">
        <ele>255.8</ele>
        <time>2022-02-19T12:11:19Z</time>
      </trkpt>
      <trkpt lat="46.45354" lon="5.3405">
        <ele>256.4</ele>
        <time>2022-02-19T12:11:23Z</time>
      </trkpt>
      <trkpt lat="46.45333" lon="5.34056">
        <ele>256.8</ele>
        <time>2022-02-19T12:11:28Z</time>
      </trkpt>
      <trkpt lat="46.45329" lon="5.3406">
        <ele>257</ele>
        <time>2022-02-19T12:11:29Z</time>
      </trkpt>
      <trkpt lat="46.45295" lon="5.34068">
        <ele>257.6</ele>
        <time>2022-02-19T12:11:35Z</time>
      </trkpt>
      <trkpt lat="46.45283" lon="5.3407">
        <ele>257.6</ele>
        <time>2022-02-19T12:11:37Z</time>
      </trkpt>
      <trkpt lat="46.45272" lon="5.34072">
        <ele>257.8</ele>
        <time>2022-02-19T12:11:39Z</time>
      </trkpt>
      <trkpt lat="46.45242" lon="5.34081">
        <ele>258.2</ele>
        <time>2022-02-19T12:11:45Z</time>
      </trkpt>
      <trkpt lat="46.45203" lon="5.34089">
        <ele>259</ele>
        <time>2022-02-19T12:11:53Z</time>
      </trkpt>
      <trkpt lat="46.45184" lon="5.34093">
        <ele>259.8</ele>
        <time>2022-02-19T12:11:57Z</time>
      </trkpt>
      <trkpt lat="46.4517" lon="5.34095">
        <ele>260.2</ele>
        <time>2022-02-19T12:12:00Z</time>
      </trkpt>
      <trkpt lat="46.45118" lon="5.34106">
        <ele>260.6</ele>
        <time>2022-02-19T12:12:10Z</time>
      </trkpt>
      <trkpt lat="46.45083" lon="5.34113">
        <ele>260.8</ele>
        <time>2022-02-19T12:12:16Z</time>
      </trkpt>
      <trkpt lat="46.45041" lon="5.34119">
        <ele>260.4</ele>
        <time>2022-02-19T12:12:22Z</time>
      </trkpt>
      <trkpt lat="46.44991" lon="5.34115">
        <ele>258.8</ele>
        <time>2022-02-19T12:12:28Z</time>
      </trkpt>
      <trkpt lat="46.44958" lon="5.34106">
        <ele>257.6</ele>
        <time>2022-02-19T12:12:32Z</time>
      </trkpt>
      <trkpt lat="46.44932" lon="5.34099">
        <ele>257</ele>
        <time>2022-02-19T12:12:35Z</time>
      </trkpt>
      <trkpt lat="46.44923" lon="5.34096">
        <ele>256.4</ele>
        <time>2022-02-19T12:12:36Z</time>
      </trkpt>
      <trkpt lat="46.44896" lon="5.34089">
        <ele>255.2</ele>
        <time>2022-02-19T12:12:39Z</time>
      </trkpt>
      <trkpt lat="46.44878" lon="5.34087">
        <ele>254.4</ele>
        <time>2022-02-19T12:12:41Z</time>
      </trkpt>
      <trkpt lat="46.44859" lon="5.3409">
        <ele>253.8</ele>
        <time>2022-02-19T12:12:43Z</time>
      </trkpt>
      <trkpt lat="46.44841" lon="5.341">
        <ele>253.2</ele>
        <time>2022-02-19T12:12:45Z</time>
      </trkpt>
      <trkpt lat="46.44832" lon="5.34107">
        <ele>252.8</ele>
        <time>2022-02-19T12:12:46Z</time>
      </trkpt>
      <trkpt lat="46.44823" lon="5.34116">
        <ele>252.6</ele>
        <time>2022-02-19T12:12:47Z</time>
      </trkpt>
      <trkpt lat="46.44812" lon="5.34129">
        <ele>252.2</ele>
        <time>2022-02-19T12:12:49Z</time>
      </trkpt>
      <trkpt lat="46.44806" lon="5.34132">
        <ele>251.6</ele>
        <time>2022-02-19T12:12:50Z</time>
      </trkpt>
      <trkpt lat="46.448" lon="5.3413">
        <ele>251</ele>
        <time>2022-02-19T12:12:51Z</time>
      </trkpt>
      <trkpt lat="46.44794" lon="5.34124">
        <ele>250.2</ele>
        <time>2022-02-19T12:12:52Z</time>
      </trkpt>
      <trkpt lat="46.44792" lon="5.34117">
        <ele>249.6</ele>
        <time>2022-02-19T12:12:53Z</time>
      </trkpt>
      <trkpt lat="46.44793" lon="5.34086">
        <ele>249.4</ele>
        <time>2022-02-19T12:12:57Z</time>
      </trkpt>
      <trkpt lat="46.4479" lon="5.34058">
        <ele>249.6</ele>
        <time>2022-02-19T12:13:01Z</time>
      </trkpt>
      <trkpt lat="46.44789" lon="5.34053">
        <ele>250</ele>
        <time>2022-02-19T12:13:02Z</time>
      </trkpt>
      <trkpt lat="46.44783" lon="5.3401">
        <ele>251.6</ele>
        <time>2022-02-19T12:13:09Z</time>
      </trkpt>
      <trkpt lat="46.44783" lon="5.34004">
        <ele>251.8</ele>
        <time>2022-02-19T12:13:10Z</time>
      </trkpt>
      <trkpt lat="46.44781" lon="5.33993">
        <ele>252.8</ele>
        <time>2022-02-19T12:13:12Z</time>
      </trkpt>
      <trkpt lat="46.44777" lon="5.3397">
        <ele>254</ele>
        <time>2022-02-19T12:13:16Z</time>
      </trkpt>
      <trkpt lat="46.44775" lon="5.3395">
        <ele>254.8</ele>
        <time>2022-02-19T12:13:19Z</time>
      </trkpt>
      <trkpt lat="46.44773" lon="5.33936">
        <ele>255.2</ele>
        <time>2022-02-19T12:13:21Z</time>
      </trkpt>
      <trkpt lat="46.44771" lon="5.33909">
        <ele>255.8</ele>
        <time>2022-02-19T12:13:25Z</time>
      </trkpt>
      <trkpt lat="46.44769" lon="5.33894">
        <ele>256</ele>
        <time>2022-02-19T12:13:27Z</time>
      </trkpt>
      <trkpt lat="46.44764" lon="5.33883">
        <ele>256</ele>
        <time>2022-02-19T12:13:29Z</time>
      </trkpt>
      <trkpt lat="46.44758" lon="5.33879">
        <ele>256</ele>
        <time>2022-02-19T12:13:30Z</time>
      </trkpt>
      <trkpt lat="46.44731" lon="5.33868">
        <ele>255.8</ele>
        <time>2022-02-19T12:13:34Z</time>
      </trkpt>
      <trkpt lat="46.44684" lon="5.33847">
        <ele>254.8</ele>
        <time>2022-02-19T12:13:41Z</time>
      </trkpt>
      <trkpt lat="46.44679" lon="5.33843">
        <ele>254.6</ele>
        <time>2022-02-19T12:13:42Z</time>
      </trkpt>
      <trkpt lat="46.44674" lon="5.33838">
        <ele>254.4</ele>
        <time>2022-02-19T12:13:43Z</time>
      </trkpt>
      <trkpt lat="46.44663" lon="5.33822">
        <ele>254.2</ele>
        <time>2022-02-19T12:13:45Z</time>
      </trkpt>
      <trkpt lat="46.4466" lon="5.33815">
        <ele>254.2</ele>
        <time>2022-02-19T12:13:46Z</time>
      </trkpt>
      <trkpt lat="46.4464" lon="5.33767">
        <ele>253.4</ele>
        <time>2022-02-19T12:13:51Z</time>
      </trkpt>
      <trkpt lat="46.44637" lon="5.33757">
        <ele>252.8</ele>
        <time>2022-02-19T12:13:52Z</time>
      </trkpt>
      <trkpt lat="46.4462" lon="5.33714">
        <ele>251.8</ele>
        <time>2022-02-19T12:13:56Z</time>
      </trkpt>
      <trkpt lat="46.44616" lon="5.33703">
        <ele>251.4</ele>
        <time>2022-02-19T12:13:57Z</time>
      </trkpt>
      <trkpt lat="46.44607" lon="5.33679">
        <ele>250.4</ele>
        <time>2022-02-19T12:13:59Z</time>
      </trkpt>
      <trkpt lat="46.44597" lon="5.33654">
        <ele>249.2</ele>
        <time>2022-02-19T12:14:01Z</time>
      </trkpt>
      <trkpt lat="46.44583" lon="5.33616">
        <ele>247.4</ele>
        <time>2022-02-19T12:14:04Z</time>
      </trkpt>
      <trkpt lat="46.44573" lon="5.33592">
        <ele>246.4</ele>
        <time>2022-02-19T12:14:06Z</time>
      </trkpt>
      <trkpt lat="46.4456" lon="5.33557">
        <ele>244.4</ele>
        <time>2022-02-19T12:14:09Z</time>
      </trkpt>
      <trkpt lat="46.44552" lon="5.33535">
        <ele>244.6</ele>
        <time>2022-02-19T12:14:11Z</time>
      </trkpt>
      <trkpt lat="46.44548" lon="5.33525">
        <ele>244.4</ele>
        <time>2022-02-19T12:14:12Z</time>
      </trkpt>
      <trkpt lat="46.44521" lon="5.33455">
        <ele>243.6</ele>
        <time>2022-02-19T12:14:19Z</time>
      </trkpt>
      <trkpt lat="46.44506" lon="5.33416">
        <ele>243.4</ele>
        <time>2022-02-19T12:14:23Z</time>
      </trkpt>
      <trkpt lat="46.44487" lon="5.33371">
        <ele>243.2</ele>
        <time>2022-02-19T12:14:28Z</time>
      </trkpt>
      <trkpt lat="46.44483" lon="5.33363">
        <ele>243.2</ele>
        <time>2022-02-19T12:14:29Z</time>
      </trkpt>
      <trkpt lat="46.44474" lon="5.33349">
        <ele>243.2</ele>
        <time>2022-02-19T12:14:31Z</time>
      </trkpt>
      <trkpt lat="46.44464" lon="5.33337">
        <ele>243.2</ele>
        <time>2022-02-19T12:14:33Z</time>
      </trkpt>
      <trkpt lat="46.44417" lon="5.33286">
        <ele>243.2</ele>
        <time>2022-02-19T12:14:42Z</time>
      </trkpt>
      <trkpt lat="46.44378" lon="5.33244">
        <ele>242.2</ele>
        <time>2022-02-19T12:14:49Z</time>
      </trkpt>
      <trkpt lat="46.44372" lon="5.33238">
        <ele>241.8</ele>
        <time>2022-02-19T12:14:51Z</time>
      </trkpt>
      <trkpt lat="46.44336" lon="5.33198">
        <ele>241.2</ele>
        <time>2022-02-19T12:14:56Z</time>
      </trkpt>
      <trkpt lat="46.44329" lon="5.33192">
        <ele>241</ele>
        <time>2022-02-19T12:14:57Z</time>
      </trkpt>
      <trkpt lat="46.44313" lon="5.33184">
        <ele>240.6</ele>
        <time>2022-02-19T12:14:59Z</time>
      </trkpt>
      <trkpt lat="46.44297" lon="5.33181">
        <ele>240</ele>
        <time>2022-02-19T12:15:01Z</time>
      </trkpt>
      <trkpt lat="46.44258" lon="5.33181">
        <ele>239</ele>
        <time>2022-02-19T12:15:06Z</time>
      </trkpt>
      <trkpt lat="46.4425" lon="5.33182">
        <ele>239</ele>
        <time>2022-02-19T12:15:07Z</time>
      </trkpt>
      <trkpt lat="46.44227" lon="5.33185">
        <ele>238.4</ele>
        <time>2022-02-19T12:15:10Z</time>
      </trkpt>
      <trkpt lat="46.44213" lon="5.3319">
        <ele>238.2</ele>
        <time>2022-02-19T12:15:12Z</time>
      </trkpt>
      <trkpt lat="46.44183" lon="5.33212">
        <ele>238.2</ele>
        <time>2022-02-19T12:15:17Z</time>
      </trkpt>
      <trkpt lat="46.44159" lon="5.33231">
        <ele>238.6</ele>
        <time>2022-02-19T12:15:22Z</time>
      </trkpt>
      <trkpt lat="46.44155" lon="5.33234">
        <ele>238.6</ele>
        <time>2022-02-19T12:15:23Z</time>
      </trkpt>
      <trkpt lat="46.44146" lon="5.33234">
        <ele>239</ele>
        <time>2022-02-19T12:15:26Z</time>
      </trkpt>
      <trkpt lat="46.4414" lon="5.33229">
        <ele>239.2</ele>
        <time>2022-02-19T12:15:28Z</time>
      </trkpt>
      <trkpt lat="46.44137" lon="5.33224">
        <ele>239.2</ele>
        <time>2022-02-19T12:15:29Z</time>
      </trkpt>
      <trkpt lat="46.44128" lon="5.33202">
        <ele>239.2</ele>
        <time>2022-02-19T12:15:32Z</time>
      </trkpt>
      <trkpt lat="46.44123" lon="5.33197">
        <ele>239.2</ele>
        <time>2022-02-19T12:15:33Z</time>
      </trkpt>
      <trkpt lat="46.44117" lon="5.33194">
        <ele>239.2</ele>
        <time>2022-02-19T12:15:34Z</time>
      </trkpt>
      <trkpt lat="46.44105" lon="5.33195">
        <ele>239.2</ele>
        <time>2022-02-19T12:15:36Z</time>
      </trkpt>
      <trkpt lat="46.44066" lon="5.33216">
        <ele>239.8</ele>
        <time>2022-02-19T12:15:43Z</time>
      </trkpt>
      <trkpt lat="46.44025" lon="5.33244">
        <ele>240</ele>
        <time>2022-02-19T12:15:50Z</time>
      </trkpt>
      <trkpt lat="46.44019" lon="5.33247">
        <ele>240</ele>
        <time>2022-02-19T12:15:51Z</time>
      </trkpt>
      <trkpt lat="46.43996" lon="5.33253">
        <ele>239.8</ele>
        <time>2022-02-19T12:15:54Z</time>
      </trkpt>
      <trkpt lat="46.4395" lon="5.33251">
        <ele>239</ele>
        <time>2022-02-19T12:16:00Z</time>
      </trkpt>
      <trkpt lat="46.43892" lon="5.33239">
        <ele>238.6</ele>
        <time>2022-02-19T12:16:08Z</time>
      </trkpt>
      <trkpt lat="46.43838" lon="5.3324">
        <ele>239</ele>
        <time>2022-02-19T12:16:16Z</time>
      </trkpt>
      <trkpt lat="46.43832" lon="5.3324">
        <ele>239.2</ele>
        <time>2022-02-19T12:16:17Z</time>
      </trkpt>
      <trkpt lat="46.43777" lon="5.33244">
        <ele>240</ele>
        <time>2022-02-19T12:16:26Z</time>
      </trkpt>
      <trkpt lat="46.43752" lon="5.33249">
        <ele>240.2</ele>
        <time>2022-02-19T12:16:30Z</time>
      </trkpt>
      <trkpt lat="46.43739" lon="5.33256">
        <ele>240</ele>
        <time>2022-02-19T12:16:32Z</time>
      </trkpt>
      <trkpt lat="46.43733" lon="5.33261">
        <ele>240</ele>
        <time>2022-02-19T12:16:33Z</time>
      </trkpt>
      <trkpt lat="46.43714" lon="5.3328">
        <ele>239.8</ele>
        <time>2022-02-19T12:16:36Z</time>
      </trkpt>
      <trkpt lat="46.43679" lon="5.33311">
        <ele>238.4</ele>
        <time>2022-02-19T12:16:41Z</time>
      </trkpt>
      <trkpt lat="46.43671" lon="5.33317">
        <ele>238</ele>
        <time>2022-02-19T12:16:42Z</time>
      </trkpt>
      <trkpt lat="46.43645" lon="5.33328">
        <ele>237</ele>
        <time>2022-02-19T12:16:45Z</time>
      </trkpt>
      <trkpt lat="46.43621" lon="5.33331">
        <ele>235.8</ele>
        <time>2022-02-19T12:16:48Z</time>
      </trkpt>
      <trkpt lat="46.43613" lon="5.33329">
        <ele>235.2</ele>
        <time>2022-02-19T12:16:49Z</time>
      </trkpt>
      <trkpt lat="46.43607" lon="5.33325">
        <ele>235</ele>
        <time>2022-02-19T12:16:50Z</time>
      </trkpt>
      <trkpt lat="46.436" lon="5.33321">
        <ele>234.2</ele>
        <time>2022-02-19T12:16:51Z</time>
      </trkpt>
      <trkpt lat="46.43594" lon="5.33321">
        <ele>234</ele>
        <time>2022-02-19T12:16:52Z</time>
      </trkpt>
      <trkpt lat="46.43584" lon="5.3333">
        <ele>233</ele>
        <time>2022-02-19T12:16:54Z</time>
      </trkpt>
      <trkpt lat="46.43571" lon="5.3337">
        <ele>232.2</ele>
        <time>2022-02-19T12:16:58Z</time>
      </trkpt>
      <trkpt lat="46.43556" lon="5.33383">
        <ele>231.8</ele>
        <time>2022-02-19T12:17:00Z</time>
      </trkpt>
      <trkpt lat="46.4354" lon="5.33386">
        <ele>230.6</ele>
        <time>2022-02-19T12:17:02Z</time>
      </trkpt>
      <trkpt lat="46.43529" lon="5.33383">
        <ele>230</ele>
        <time>2022-02-19T12:17:03Z</time>
      </trkpt>
      <trkpt lat="46.43521" lon="5.33379">
        <ele>229.6</ele>
        <time>2022-02-19T12:17:04Z</time>
      </trkpt>
      <trkpt lat="46.43492" lon="5.33364">
        <ele>229</ele>
        <time>2022-02-19T12:17:08Z</time>
      </trkpt>
      <trkpt lat="46.43466" lon="5.33345">
        <ele>229</ele>
        <time>2022-02-19T12:17:13Z</time>
      </trkpt>
      <trkpt lat="46.43443" lon="5.33321">
        <ele>231</ele>
        <time>2022-02-19T12:17:19Z</time>
      </trkpt>
      <trkpt lat="46.4344" lon="5.33317">
        <ele>231.2</ele>
        <time>2022-02-19T12:17:20Z</time>
      </trkpt>
      <trkpt lat="46.43433" lon="5.33308">
        <ele>232.2</ele>
        <time>2022-02-19T12:17:22Z</time>
      </trkpt>
      <trkpt lat="46.4343" lon="5.33304">
        <ele>232.8</ele>
        <time>2022-02-19T12:17:23Z</time>
      </trkpt>
      <trkpt lat="46.43427" lon="5.33299">
        <ele>233.4</ele>
        <time>2022-02-19T12:17:24Z</time>
      </trkpt>
      <trkpt lat="46.43423" lon="5.33291">
        <ele>234.2</ele>
        <time>2022-02-19T12:17:26Z</time>
      </trkpt>
      <trkpt lat="46.43419" lon="5.33281">
        <ele>234.8</ele>
        <time>2022-02-19T12:17:28Z</time>
      </trkpt>
      <trkpt lat="46.43416" lon="5.33266">
        <ele>235.6</ele>
        <time>2022-02-19T12:17:31Z</time>
      </trkpt>
      <trkpt lat="46.43414" lon="5.3326">
        <ele>236.2</ele>
        <time>2022-02-19T12:17:32Z</time>
      </trkpt>
      <trkpt lat="46.43411" lon="5.33244">
        <ele>237.2</ele>
        <time>2022-02-19T12:17:35Z</time>
      </trkpt>
      <trkpt lat="46.43408" lon="5.33237">
        <ele>237.4</ele>
        <time>2022-02-19T12:17:36Z</time>
      </trkpt>
      <trkpt lat="46.43405" lon="5.33233">
        <ele>237.8</ele>
        <time>2022-02-19T12:17:37Z</time>
      </trkpt>
      <trkpt lat="46.43398" lon="5.33227">
        <ele>238.4</ele>
        <time>2022-02-19T12:17:39Z</time>
      </trkpt>
      <trkpt lat="46.43393" lon="5.33224">
        <ele>238.6</ele>
        <time>2022-02-19T12:17:40Z</time>
      </trkpt>
      <trkpt lat="46.43368" lon="5.33214">
        <ele>239.4</ele>
        <time>2022-02-19T12:17:45Z</time>
      </trkpt>
      <trkpt lat="46.43357" lon="5.33211">
        <ele>239.8</ele>
        <time>2022-02-19T12:17:47Z</time>
      </trkpt>
      <trkpt lat="46.43315" lon="5.33199">
        <ele>240.4</ele>
        <time>2022-02-19T12:17:55Z</time>
      </trkpt>
      <trkpt lat="46.43309" lon="5.33198">
        <ele>240.6</ele>
        <time>2022-02-19T12:17:56Z</time>
      </trkpt>
      <trkpt lat="46.43264" lon="5.33189">
        <ele>240.8</ele>
        <time>2022-02-19T12:18:04Z</time>
      </trkpt>
      <trkpt lat="46.43208" lon="5.33178">
        <ele>240.8</ele>
        <time>2022-02-19T12:18:13Z</time>
      </trkpt>
      <trkpt lat="46.432" lon="5.33176">
        <ele>240.8</ele>
        <time>2022-02-19T12:18:14Z</time>
      </trkpt>
      <trkpt lat="46.43143" lon="5.33153">
        <ele>240.6</ele>
        <time>2022-02-19T12:18:23Z</time>
      </trkpt>
      <trkpt lat="46.43126" lon="5.33142">
        <ele>240.6</ele>
        <time>2022-02-19T12:18:26Z</time>
      </trkpt>
      <trkpt lat="46.43107" lon="5.33123">
        <ele>240.2</ele>
        <time>2022-02-19T12:18:29Z</time>
      </trkpt>
      <trkpt lat="46.43082" lon="5.33086">
        <ele>239.4</ele>
        <time>2022-02-19T12:18:34Z</time>
      </trkpt>
      <trkpt lat="46.43079" lon="5.33079">
        <ele>239.2</ele>
        <time>2022-02-19T12:18:35Z</time>
      </trkpt>
      <trkpt lat="46.43062" lon="5.33047">
        <ele>238.2</ele>
        <time>2022-02-19T12:18:39Z</time>
      </trkpt>
      <trkpt lat="46.43047" lon="5.33009">
        <ele>237.4</ele>
        <time>2022-02-19T12:18:43Z</time>
      </trkpt>
      <trkpt lat="46.43044" lon="5.32998">
        <ele>237.2</ele>
        <time>2022-02-19T12:18:44Z</time>
      </trkpt>
      <trkpt lat="46.43039" lon="5.32975">
        <ele>236.6</ele>
        <time>2022-02-19T12:18:46Z</time>
      </trkpt>
      <trkpt lat="46.4303" lon="5.32943">
        <ele>236</ele>
        <time>2022-02-19T12:18:49Z</time>
      </trkpt>
      <trkpt lat="46.43004" lon="5.32881">
        <ele>235.2</ele>
        <time>2022-02-19T12:18:55Z</time>
      </trkpt>
      <trkpt lat="46.42991" lon="5.3285">
        <ele>234.6</ele>
        <time>2022-02-19T12:18:58Z</time>
      </trkpt>
      <trkpt lat="46.42983" lon="5.3283">
        <ele>234</ele>
        <time>2022-02-19T12:19:00Z</time>
      </trkpt>
      <trkpt lat="46.42965" lon="5.32788">
        <ele>233</ele>
        <time>2022-02-19T12:19:04Z</time>
      </trkpt>
      <trkpt lat="46.42953" lon="5.32758">
        <ele>232.6</ele>
        <time>2022-02-19T12:19:07Z</time>
      </trkpt>
      <trkpt lat="46.42936" lon="5.32716">
        <ele>231.8</ele>
        <time>2022-02-19T12:19:11Z</time>
      </trkpt>
      <trkpt lat="46.42923" lon="5.3268">
        <ele>231.2</ele>
        <time>2022-02-19T12:19:14Z</time>
      </trkpt>
      <trkpt lat="46.42916" lon="5.32655">
        <ele>230.6</ele>
        <time>2022-02-19T12:19:16Z</time>
      </trkpt>
      <trkpt lat="46.42904" lon="5.32614">
        <ele>229.2</ele>
        <time>2022-02-19T12:19:19Z</time>
      </trkpt>
      <trkpt lat="46.42897" lon="5.32586">
        <ele>228.4</ele>
        <time>2022-02-19T12:19:21Z</time>
      </trkpt>
      <trkpt lat="46.42893" lon="5.32572">
        <ele>228</ele>
        <time>2022-02-19T12:19:22Z</time>
      </trkpt>
      <trkpt lat="46.42884" lon="5.32542">
        <ele>226.6</ele>
        <time>2022-02-19T12:19:24Z</time>
      </trkpt>
      <trkpt lat="46.42871" lon="5.32499">
        <ele>225</ele>
        <time>2022-02-19T12:19:27Z</time>
      </trkpt>
      <trkpt lat="46.42854" lon="5.32459">
        <ele>223.4</ele>
        <time>2022-02-19T12:19:30Z</time>
      </trkpt>
      <trkpt lat="46.42847" lon="5.32446">
        <ele>223</ele>
        <time>2022-02-19T12:19:31Z</time>
      </trkpt>
      <trkpt lat="46.42833" lon="5.32422">
        <ele>222.2</ele>
        <time>2022-02-19T12:19:33Z</time>
      </trkpt>
      <trkpt lat="46.42826" lon="5.32411">
        <ele>221.2</ele>
        <time>2022-02-19T12:19:34Z</time>
      </trkpt>
      <trkpt lat="46.42812" lon="5.32386">
        <ele>219.6</ele>
        <time>2022-02-19T12:19:36Z</time>
      </trkpt>
      <trkpt lat="46.42807" lon="5.32373">
        <ele>219.2</ele>
        <time>2022-02-19T12:19:37Z</time>
      </trkpt>
      <trkpt lat="46.42802" lon="5.32359">
        <ele>219</ele>
        <time>2022-02-19T12:19:38Z</time>
      </trkpt>
      <trkpt lat="46.42798" lon="5.32345">
        <ele>218.4</ele>
        <time>2022-02-19T12:19:39Z</time>
      </trkpt>
      <trkpt lat="46.42792" lon="5.32318">
        <ele>217.4</ele>
        <time>2022-02-19T12:19:41Z</time>
      </trkpt>
      <trkpt lat="46.42785" lon="5.32291">
        <ele>216.6</ele>
        <time>2022-02-19T12:19:43Z</time>
      </trkpt>
      <trkpt lat="46.42772" lon="5.32234">
        <ele>216.2</ele>
        <time>2022-02-19T12:19:48Z</time>
      </trkpt>
      <trkpt lat="46.42769" lon="5.32224">
        <ele>216.2</ele>
        <time>2022-02-19T12:19:49Z</time>
      </trkpt>
      <trkpt lat="46.42762" lon="5.32196">
        <ele>216</ele>
        <time>2022-02-19T12:19:52Z</time>
      </trkpt>
      <trkpt lat="46.42755" lon="5.32184">
        <ele>215.8</ele>
        <time>2022-02-19T12:19:54Z</time>
      </trkpt>
      <trkpt lat="46.42743" lon="5.32185">
        <ele>215.8</ele>
        <time>2022-02-19T12:19:56Z</time>
      </trkpt>
      <trkpt lat="46.42732" lon="5.32197">
        <ele>215.6</ele>
        <time>2022-02-19T12:19:58Z</time>
      </trkpt>
      <trkpt lat="46.42728" lon="5.32205">
        <ele>215.6</ele>
        <time>2022-02-19T12:19:59Z</time>
      </trkpt>
      <trkpt lat="46.42725" lon="5.32215">
        <ele>215.4</ele>
        <time>2022-02-19T12:20:00Z</time>
      </trkpt>
      <trkpt lat="46.42717" lon="5.32256">
        <ele>215.4</ele>
        <time>2022-02-19T12:20:04Z</time>
      </trkpt>
      <trkpt lat="46.42711" lon="5.32275">
        <ele>215.2</ele>
        <time>2022-02-19T12:20:06Z</time>
      </trkpt>
      <trkpt lat="46.42706" lon="5.32295">
        <ele>215.2</ele>
        <time>2022-02-19T12:20:08Z</time>
      </trkpt>
      <trkpt lat="46.42703" lon="5.32306">
        <ele>215.4</ele>
        <time>2022-02-19T12:20:09Z</time>
      </trkpt>
      <trkpt lat="46.4269" lon="5.32378">
        <ele>215.4</ele>
        <time>2022-02-19T12:20:16Z</time>
      </trkpt>
      <trkpt lat="46.42674" lon="5.32459">
        <ele>216.2</ele>
        <time>2022-02-19T12:20:24Z</time>
      </trkpt>
      <trkpt lat="46.42672" lon="5.32469">
        <ele>216.2</ele>
        <time>2022-02-19T12:20:25Z</time>
      </trkpt>
      <trkpt lat="46.42666" lon="5.32508">
        <ele>216.4</ele>
        <time>2022-02-19T12:20:29Z</time>
      </trkpt>
      <trkpt lat="46.42662" lon="5.32539">
        <ele>216.6</ele>
        <time>2022-02-19T12:20:32Z</time>
      </trkpt>
      <trkpt lat="46.42652" lon="5.32625">
        <ele>217</ele>
        <time>2022-02-19T12:20:41Z</time>
      </trkpt>
      <trkpt lat="46.42652" lon="5.32634">
        <ele>217</ele>
        <time>2022-02-19T12:20:42Z</time>
      </trkpt>
      <trkpt lat="46.42646" lon="5.3272">
        <ele>217.4</ele>
        <time>2022-02-19T12:20:51Z</time>
      </trkpt>
      <trkpt lat="46.42646" lon="5.32727">
        <ele>217.6</ele>
        <time>2022-02-19T12:20:52Z</time>
      </trkpt>
      <trkpt lat="46.42648" lon="5.32756">
        <ele>217.6</ele>
        <time>2022-02-19T12:20:55Z</time>
      </trkpt>
      <trkpt lat="46.4265" lon="5.32765">
        <ele>217.6</ele>
        <time>2022-02-19T12:20:56Z</time>
      </trkpt>
      <trkpt lat="46.42668" lon="5.32811">
        <ele>217.8</ele>
        <time>2022-02-19T12:21:02Z</time>
      </trkpt>
      <trkpt lat="46.42678" lon="5.32836">
        <ele>217.8</ele>
        <time>2022-02-19T12:21:05Z</time>
      </trkpt>
      <trkpt lat="46.4268" lon="5.32852">
        <ele>217.8</ele>
        <time>2022-02-19T12:21:07Z</time>
      </trkpt>
      <trkpt lat="46.42675" lon="5.32867">
        <ele>217.8</ele>
        <time>2022-02-19T12:21:09Z</time>
      </trkpt>
      <trkpt lat="46.42671" lon="5.32872">
        <ele>217.8</ele>
        <time>2022-02-19T12:21:10Z</time>
      </trkpt>
      <trkpt lat="46.42666" lon="5.32874">
        <ele>217.8</ele>
        <time>2022-02-19T12:21:11Z</time>
      </trkpt>
      <trkpt lat="46.42653" lon="5.32874">
        <ele>217.8</ele>
        <time>2022-02-19T12:21:13Z</time>
      </trkpt>
      <trkpt lat="46.42642" lon="5.32875">
        <ele>217.8</ele>
        <time>2022-02-19T12:21:15Z</time>
      </trkpt>
      <trkpt lat="46.42631" lon="5.32879">
        <ele>217.8</ele>
        <time>2022-02-19T12:21:17Z</time>
      </trkpt>
      <trkpt lat="46.42627" lon="5.32883">
        <ele>218</ele>
        <time>2022-02-19T12:21:18Z</time>
      </trkpt>
      <trkpt lat="46.42623" lon="5.32888">
        <ele>218</ele>
        <time>2022-02-19T12:21:19Z</time>
      </trkpt>
      <trkpt lat="46.42616" lon="5.32901">
        <ele>218</ele>
        <time>2022-02-19T12:21:21Z</time>
      </trkpt>
      <trkpt lat="46.42614" lon="5.32909">
        <ele>218.2</ele>
        <time>2022-02-19T12:21:22Z</time>
      </trkpt>
      <trkpt lat="46.42612" lon="5.32915">
        <ele>218.2</ele>
        <time>2022-02-19T12:21:23Z</time>
      </trkpt>
      <trkpt lat="46.42605" lon="5.32933">
        <ele>218.2</ele>
        <time>2022-02-19T12:21:25Z</time>
      </trkpt>
      <trkpt lat="46.42597" lon="5.32954">
        <ele>218.8</ele>
        <time>2022-02-19T12:21:28Z</time>
      </trkpt>
      <trkpt lat="46.42594" lon="5.32966">
        <ele>219.2</ele>
        <time>2022-02-19T12:21:30Z</time>
      </trkpt>
      <trkpt lat="46.42591" lon="5.32988">
        <ele>219.6</ele>
        <time>2022-02-19T12:21:33Z</time>
      </trkpt>
      <trkpt lat="46.42591" lon="5.32995">
        <ele>219.8</ele>
        <time>2022-02-19T12:21:34Z</time>
      </trkpt>
      <trkpt lat="46.4259" lon="5.33003">
        <ele>220</ele>
        <time>2022-02-19T12:21:35Z</time>
      </trkpt>
      <trkpt lat="46.42589" lon="5.33018">
        <ele>220</ele>
        <time>2022-02-19T12:21:37Z</time>
      </trkpt>
      <trkpt lat="46.42589" lon="5.33034">
        <ele>220.2</ele>
        <time>2022-02-19T12:21:39Z</time>
      </trkpt>
      <trkpt lat="46.42591" lon="5.3305">
        <ele>220.4</ele>
        <time>2022-02-19T12:21:41Z</time>
      </trkpt>
      <trkpt lat="46.42596" lon="5.33064">
        <ele>220.4</ele>
        <time>2022-02-19T12:21:43Z</time>
      </trkpt>
      <trkpt lat="46.42603" lon="5.33077">
        <ele>220.4</ele>
        <time>2022-02-19T12:21:45Z</time>
      </trkpt>
      <trkpt lat="46.42638" lon="5.33138">
        <ele>220.8</ele>
        <time>2022-02-19T12:21:55Z</time>
      </trkpt>
      <trkpt lat="46.42642" lon="5.33145">
        <ele>221</ele>
        <time>2022-02-19T12:21:56Z</time>
      </trkpt>
      <trkpt lat="46.42677" lon="5.33203">
        <ele>220.6</ele>
        <time>2022-02-19T12:22:04Z</time>
      </trkpt>
      <trkpt lat="46.42689" lon="5.33215">
        <ele>220.4</ele>
        <time>2022-02-19T12:22:06Z</time>
      </trkpt>
      <trkpt lat="46.42701" lon="5.33222">
        <ele>220.4</ele>
        <time>2022-02-19T12:22:08Z</time>
      </trkpt>
      <trkpt lat="46.42731" lon="5.33245">
        <ele>220</ele>
        <time>2022-02-19T12:22:13Z</time>
      </trkpt>
      <trkpt lat="46.42765" lon="5.33274">
        <ele>219.8</ele>
        <time>2022-02-19T12:22:19Z</time>
      </trkpt>
      <trkpt lat="46.42772" lon="5.33279">
        <ele>219.8</ele>
        <time>2022-02-19T12:22:20Z</time>
      </trkpt>
      <trkpt lat="46.42808" lon="5.33306">
        <ele>220.2</ele>
        <time>2022-02-19T12:22:26Z</time>
      </trkpt>
      <trkpt lat="46.42821" lon="5.33328">
        <ele>220.2</ele>
        <time>2022-02-19T12:22:29Z</time>
      </trkpt>
      <trkpt lat="46.42829" lon="5.33341">
        <ele>220</ele>
        <time>2022-02-19T12:22:31Z</time>
      </trkpt>
      <trkpt lat="46.42844" lon="5.33362">
        <ele>220</ele>
        <time>2022-02-19T12:22:34Z</time>
      </trkpt>
      <trkpt lat="46.42855" lon="5.33383">
        <ele>220</ele>
        <time>2022-02-19T12:22:37Z</time>
      </trkpt>
      <trkpt lat="46.42858" lon="5.33402">
        <ele>220</ele>
        <time>2022-02-19T12:22:39Z</time>
      </trkpt>
      <trkpt lat="46.42856" lon="5.33409">
        <ele>220.2</ele>
        <time>2022-02-19T12:22:40Z</time>
      </trkpt>
      <trkpt lat="46.4284" lon="5.3347">
        <ele>220.4</ele>
        <time>2022-02-19T12:22:47Z</time>
      </trkpt>
      <trkpt lat="46.42831" lon="5.33499">
        <ele>220.6</ele>
        <time>2022-02-19T12:22:51Z</time>
      </trkpt>
      <trkpt lat="46.42829" lon="5.33517">
        <ele>220.6</ele>
        <time>2022-02-19T12:22:53Z</time>
      </trkpt>
      <trkpt lat="46.42832" lon="5.33539">
        <ele>221.2</ele>
        <time>2022-02-19T12:22:56Z</time>
      </trkpt>
      <trkpt lat="46.42834" lon="5.33548">
        <ele>221.2</ele>
        <time>2022-02-19T12:22:57Z</time>
      </trkpt>
      <trkpt lat="46.42836" lon="5.33555">
        <ele>221.6</ele>
        <time>2022-02-19T12:22:58Z</time>
      </trkpt>
      <trkpt lat="46.42844" lon="5.33583">
        <ele>222.2</ele>
        <time>2022-02-19T12:23:02Z</time>
      </trkpt>
      <trkpt lat="46.42848" lon="5.33611">
        <ele>223</ele>
        <time>2022-02-19T12:23:06Z</time>
      </trkpt>
      <trkpt lat="46.4285" lon="5.33631">
        <ele>223.4</ele>
        <time>2022-02-19T12:23:09Z</time>
      </trkpt>
      <trkpt lat="46.42853" lon="5.33666">
        <ele>224.2</ele>
        <time>2022-02-19T12:23:14Z</time>
      </trkpt>
      <trkpt lat="46.42853" lon="5.33674">
        <ele>224.2</ele>
        <time>2022-02-19T12:23:15Z</time>
      </trkpt>
      <trkpt lat="46.42855" lon="5.3368">
        <ele>224.4</ele>
        <time>2022-02-19T12:23:16Z</time>
      </trkpt>
      <trkpt lat="46.42857" lon="5.33685">
        <ele>224.6</ele>
        <time>2022-02-19T12:23:17Z</time>
      </trkpt>
      <trkpt lat="46.4286" lon="5.3369">
        <ele>224.8</ele>
        <time>2022-02-19T12:23:18Z</time>
      </trkpt>
      <trkpt lat="46.42863" lon="5.33695">
        <ele>225</ele>
        <time>2022-02-19T12:23:19Z</time>
      </trkpt>
      <trkpt lat="46.42878" lon="5.33708">
        <ele>225.6</ele>
        <time>2022-02-19T12:23:23Z</time>
      </trkpt>
      <trkpt lat="46.42892" lon="5.33721">
        <ele>226</ele>
        <time>2022-02-19T12:23:26Z</time>
      </trkpt>
      <trkpt lat="46.42897" lon="5.33731">
        <ele>226.6</ele>
        <time>2022-02-19T12:23:28Z</time>
      </trkpt>
      <trkpt lat="46.42899" lon="5.33737">
        <ele>226.6</ele>
        <time>2022-02-19T12:23:29Z</time>
      </trkpt>
      <trkpt lat="46.429" lon="5.33745">
        <ele>226.8</ele>
        <time>2022-02-19T12:23:30Z</time>
      </trkpt>
      <trkpt lat="46.42901" lon="5.33758">
        <ele>227.2</ele>
        <time>2022-02-19T12:23:32Z</time>
      </trkpt>
      <trkpt lat="46.429" lon="5.3377">
        <ele>227.8</ele>
        <time>2022-02-19T12:23:34Z</time>
      </trkpt>
      <trkpt lat="46.42897" lon="5.33797">
        <ele>228.6</ele>
        <time>2022-02-19T12:23:39Z</time>
      </trkpt>
      <trkpt lat="46.42895" lon="5.33806">
        <ele>229</ele>
        <time>2022-02-19T12:23:41Z</time>
      </trkpt>
      <trkpt lat="46.42891" lon="5.33831">
        <ele>230.4</ele>
        <time>2022-02-19T12:23:46Z</time>
      </trkpt>
      <trkpt lat="46.42889" lon="5.33835">
        <ele>230.4</ele>
        <time>2022-02-19T12:23:47Z</time>
      </trkpt>
      <trkpt lat="46.42873" lon="5.33838">
        <ele>231.4</ele>
        <time>2022-02-19T12:23:51Z</time>
      </trkpt>
      <trkpt lat="46.42869" lon="5.33837">
        <ele>231.4</ele>
        <time>2022-02-19T12:23:52Z</time>
      </trkpt>
      <trkpt lat="46.42842" lon="5.33835">
        <ele>231.6</ele>
        <time>2022-02-19T12:23:57Z</time>
      </trkpt>
      <trkpt lat="46.42794" lon="5.33831">
        <ele>231.8</ele>
        <time>2022-02-19T12:24:06Z</time>
      </trkpt>
      <trkpt lat="46.42768" lon="5.33821">
        <ele>232.6</ele>
        <time>2022-02-19T12:24:12Z</time>
      </trkpt>
      <trkpt lat="46.42764" lon="5.33819">
        <ele>232.8</ele>
        <time>2022-02-19T12:24:13Z</time>
      </trkpt>
      <trkpt lat="46.42745" lon="5.33808">
        <ele>234</ele>
        <time>2022-02-19T12:24:18Z</time>
      </trkpt>
      <trkpt lat="46.42742" lon="5.33806">
        <ele>234</ele>
        <time>2022-02-19T12:24:19Z</time>
      </trkpt>
      <trkpt lat="46.4273" lon="5.338">
        <ele>235.2</ele>
        <time>2022-02-19T12:24:22Z</time>
      </trkpt>
      <trkpt lat="46.42708" lon="5.33794">
        <ele>236.2</ele>
        <time>2022-02-19T12:24:27Z</time>
      </trkpt>
      <trkpt lat="46.42681" lon="5.33792">
        <ele>237.4</ele>
        <time>2022-02-19T12:24:33Z</time>
      </trkpt>
      <trkpt lat="46.42667" lon="5.33793">
        <ele>238</ele>
        <time>2022-02-19T12:24:36Z</time>
      </trkpt>
      <trkpt lat="46.42648" lon="5.33796">
        <ele>238.4</ele>
        <time>2022-02-19T12:24:40Z</time>
      </trkpt>
      <trkpt lat="46.42628" lon="5.33799">
        <ele>238.8</ele>
        <time>2022-02-19T12:24:44Z</time>
      </trkpt>
      <trkpt lat="46.42592" lon="5.33799">
        <ele>239.2</ele>
        <time>2022-02-19T12:24:51Z</time>
      </trkpt>
      <trkpt lat="46.42587" lon="5.33797">
        <ele>239.2</ele>
        <time>2022-02-19T12:24:52Z</time>
      </trkpt>
      <trkpt lat="46.42568" lon="5.33789">
        <ele>239.6</ele>
        <time>2022-02-19T12:24:56Z</time>
      </trkpt>
      <trkpt lat="46.42552" lon="5.33779">
        <ele>240.2</ele>
        <time>2022-02-19T12:25:00Z</time>
      </trkpt>
      <trkpt lat="46.42536" lon="5.33768">
        <ele>240.8</ele>
        <time>2022-02-19T12:25:04Z</time>
      </trkpt>
      <trkpt lat="46.42532" lon="5.33766">
        <ele>240.8</ele>
        <time>2022-02-19T12:25:05Z</time>
      </trkpt>
      <trkpt lat="46.42525" lon="5.33761">
        <ele>241.4</ele>
        <time>2022-02-19T12:25:07Z</time>
      </trkpt>
      <trkpt lat="46.42522" lon="5.33759">
        <ele>241.6</ele>
        <time>2022-02-19T12:25:08Z</time>
      </trkpt>
      <trkpt lat="46.42515" lon="5.33754">
        <ele>242</ele>
        <time>2022-02-19T12:25:10Z</time>
      </trkpt>
      <trkpt lat="46.42502" lon="5.33745">
        <ele>243.2</ele>
        <time>2022-02-19T12:25:14Z</time>
      </trkpt>
      <trkpt lat="46.42485" lon="5.33731">
        <ele>244.4</ele>
        <time>2022-02-19T12:25:19Z</time>
      </trkpt>
      <trkpt lat="46.42474" lon="5.33721">
        <ele>245.2</ele>
        <time>2022-02-19T12:25:22Z</time>
      </trkpt>
      <trkpt lat="46.42467" lon="5.33714">
        <ele>245.8</ele>
        <time>2022-02-19T12:25:24Z</time>
      </trkpt>
      <trkpt lat="46.42442" lon="5.33696">
        <ele>246.4</ele>
        <time>2022-02-19T12:25:30Z</time>
      </trkpt>
      <trkpt lat="46.42419" lon="5.33684">
        <ele>246.8</ele>
        <time>2022-02-19T12:25:35Z</time>
      </trkpt>
      <trkpt lat="46.42411" lon="5.33681">
        <ele>247</ele>
        <time>2022-02-19T12:25:37Z</time>
      </trkpt>
      <trkpt lat="46.42406" lon="5.33678">
        <ele>247.2</ele>
        <time>2022-02-19T12:25:38Z</time>
      </trkpt>
      <trkpt lat="46.42402" lon="5.33677">
        <ele>247.2</ele>
        <time>2022-02-19T12:25:39Z</time>
      </trkpt>
      <trkpt lat="46.42387" lon="5.33677">
        <ele>247.6</ele>
        <time>2022-02-19T12:25:42Z</time>
      </trkpt>
      <trkpt lat="46.42382" lon="5.33678">
        <ele>247.8</ele>
        <time>2022-02-19T12:25:43Z</time>
      </trkpt>
      <trkpt lat="46.42378" lon="5.3368">
        <ele>247.8</ele>
        <time>2022-02-19T12:25:44Z</time>
      </trkpt>
      <trkpt lat="46.42374" lon="5.33682">
        <ele>248.2</ele>
        <time>2022-02-19T12:25:45Z</time>
      </trkpt>
      <trkpt lat="46.4237" lon="5.33684">
        <ele>248.4</ele>
        <time>2022-02-19T12:25:46Z</time>
      </trkpt>
      <trkpt lat="46.42362" lon="5.33689">
        <ele>248.6</ele>
        <time>2022-02-19T12:25:48Z</time>
      </trkpt>
      <trkpt lat="46.42356" lon="5.33694">
        <ele>249</ele>
        <time>2022-02-19T12:25:50Z</time>
      </trkpt>
      <trkpt lat="46.42352" lon="5.33696">
        <ele>249.4</ele>
        <time>2022-02-19T12:25:51Z</time>
      </trkpt>
      <trkpt lat="46.4234" lon="5.33702">
        <ele>250</ele>
        <time>2022-02-19T12:25:54Z</time>
      </trkpt>
      <trkpt lat="46.42323" lon="5.33712">
        <ele>251</ele>
        <time>2022-02-19T12:25:59Z</time>
      </trkpt>
      <trkpt lat="46.4232" lon="5.33715">
        <ele>251.2</ele>
        <time>2022-02-19T12:26:00Z</time>
      </trkpt>
      <trkpt lat="46.42306" lon="5.33731">
        <ele>252.6</ele>
        <time>2022-02-19T12:26:05Z</time>
      </trkpt>
      <trkpt lat="46.4229" lon="5.33761">
        <ele>253.4</ele>
        <time>2022-02-19T12:26:11Z</time>
      </trkpt>
      <trkpt lat="46.42288" lon="5.33765">
        <ele>253.6</ele>
        <time>2022-02-19T12:26:12Z</time>
      </trkpt>
      <trkpt lat="46.42278" lon="5.33786">
        <ele>254.6</ele>
        <time>2022-02-19T12:26:16Z</time>
      </trkpt>
      <trkpt lat="46.42274" lon="5.33797">
        <ele>255.2</ele>
        <time>2022-02-19T12:26:18Z</time>
      </trkpt>
      <trkpt lat="46.42267" lon="5.3381">
        <ele>255.8</ele>
        <time>2022-02-19T12:26:21Z</time>
      </trkpt>
      <trkpt lat="46.42252" lon="5.33836">
        <ele>256.6</ele>
        <time>2022-02-19T12:26:27Z</time>
      </trkpt>
      <trkpt lat="46.42247" lon="5.33845">
        <ele>256.8</ele>
        <time>2022-02-19T12:26:29Z</time>
      </trkpt>
      <trkpt lat="46.42236" lon="5.33864">
        <ele>257.4</ele>
        <time>2022-02-19T12:26:33Z</time>
      </trkpt>
      <trkpt lat="46.42229" lon="5.33878">
        <ele>258</ele>
        <time>2022-02-19T12:26:36Z</time>
      </trkpt>
      <trkpt lat="46.42218" lon="5.339">
        <ele>259</ele>
        <time>2022-02-19T12:26:41Z</time>
      </trkpt>
      <trkpt lat="46.42202" lon="5.33924">
        <ele>260.2</ele>
        <time>2022-02-19T12:26:47Z</time>
      </trkpt>
      <trkpt lat="46.42185" lon="5.33937">
        <ele>261.2</ele>
        <time>2022-02-19T12:26:52Z</time>
      </trkpt>
      <trkpt lat="46.42182" lon="5.33938">
        <ele>261.4</ele>
        <time>2022-02-19T12:26:53Z</time>
      </trkpt>
      <trkpt lat="46.42166" lon="5.33937">
        <ele>262.2</ele>
        <time>2022-02-19T12:26:57Z</time>
      </trkpt>
      <trkpt lat="46.42158" lon="5.33935">
        <ele>262.6</ele>
        <time>2022-02-19T12:26:59Z</time>
      </trkpt>
      <trkpt lat="46.42151" lon="5.33933">
        <ele>263.2</ele>
        <time>2022-02-19T12:27:01Z</time>
      </trkpt>
      <trkpt lat="46.42132" lon="5.33923">
        <ele>264.2</ele>
        <time>2022-02-19T12:27:06Z</time>
      </trkpt>
      <trkpt lat="46.42127" lon="5.33921">
        <ele>264.4</ele>
        <time>2022-02-19T12:27:07Z</time>
      </trkpt>
      <trkpt lat="46.42096" lon="5.33906">
        <ele>264.8</ele>
        <time>2022-02-19T12:27:13Z</time>
      </trkpt>
      <trkpt lat="46.42063" lon="5.33901">
        <ele>265.2</ele>
        <time>2022-02-19T12:27:19Z</time>
      </trkpt>
      <trkpt lat="46.42033" lon="5.33902">
        <ele>265.2</ele>
        <time>2022-02-19T12:27:24Z</time>
      </trkpt>
      <trkpt lat="46.42014" lon="5.33901">
        <ele>265.2</ele>
        <time>2022-02-19T12:27:27Z</time>
      </trkpt>
      <trkpt lat="46.42001" lon="5.33898">
        <ele>265</ele>
        <time>2022-02-19T12:27:29Z</time>
      </trkpt>
      <trkpt lat="46.41985" lon="5.33889">
        <ele>264.8</ele>
        <time>2022-02-19T12:27:31Z</time>
      </trkpt>
      <trkpt lat="46.4197" lon="5.33878">
        <ele>264</ele>
        <time>2022-02-19T12:27:33Z</time>
      </trkpt>
      <trkpt lat="46.41954" lon="5.33872">
        <ele>263.2</ele>
        <time>2022-02-19T12:27:35Z</time>
      </trkpt>
      <trkpt lat="46.41942" lon="5.3387">
        <ele>262.8</ele>
        <time>2022-02-19T12:27:36Z</time>
      </trkpt>
      <trkpt lat="46.41922" lon="5.33871">
        <ele>262</ele>
        <time>2022-02-19T12:27:38Z</time>
      </trkpt>
      <trkpt lat="46.41902" lon="5.33876">
        <ele>261</ele>
        <time>2022-02-19T12:27:40Z</time>
      </trkpt>
      <trkpt lat="46.41883" lon="5.33879">
        <ele>260</ele>
        <time>2022-02-19T12:27:42Z</time>
      </trkpt>
      <trkpt lat="46.41874" lon="5.33879">
        <ele>259.8</ele>
        <time>2022-02-19T12:27:43Z</time>
      </trkpt>
      <trkpt lat="46.41835" lon="5.33879">
        <ele>259</ele>
        <time>2022-02-19T12:27:48Z</time>
      </trkpt>
      <trkpt lat="46.41803" lon="5.33871">
        <ele>259.4</ele>
        <time>2022-02-19T12:27:53Z</time>
      </trkpt>
      <trkpt lat="46.41778" lon="5.33862">
        <ele>261.4</ele>
        <time>2022-02-19T12:27:58Z</time>
      </trkpt>
      <trkpt lat="46.41772" lon="5.3386">
        <ele>261.6</ele>
        <time>2022-02-19T12:27:59Z</time>
      </trkpt>
      <trkpt lat="46.41759" lon="5.33859">
        <ele>262.6</ele>
        <time>2022-02-19T12:28:02Z</time>
      </trkpt>
      <trkpt lat="46.41754" lon="5.33859">
        <ele>263</ele>
        <time>2022-02-19T12:28:03Z</time>
      </trkpt>
      <trkpt lat="46.41741" lon="5.33862">
        <ele>263.6</ele>
        <time>2022-02-19T12:28:06Z</time>
      </trkpt>
      <trkpt lat="46.41734" lon="5.33865">
        <ele>264.4</ele>
        <time>2022-02-19T12:28:08Z</time>
      </trkpt>
      <trkpt lat="46.4173" lon="5.33867">
        <ele>264.8</ele>
        <time>2022-02-19T12:28:09Z</time>
      </trkpt>
      <trkpt lat="46.41713" lon="5.33874">
        <ele>266.2</ele>
        <time>2022-02-19T12:28:14Z</time>
      </trkpt>
      <trkpt lat="46.41707" lon="5.33876">
        <ele>266.8</ele>
        <time>2022-02-19T12:28:16Z</time>
      </trkpt>
      <trkpt lat="46.41699" lon="5.33878">
        <ele>267.6</ele>
        <time>2022-02-19T12:28:18Z</time>
      </trkpt>
      <trkpt lat="46.41687" lon="5.33882">
        <ele>268.6</ele>
        <time>2022-02-19T12:28:22Z</time>
      </trkpt>
      <trkpt lat="46.41683" lon="5.33883">
        <ele>268.8</ele>
        <time>2022-02-19T12:28:23Z</time>
      </trkpt>
      <trkpt lat="46.41667" lon="5.33882">
        <ele>269.8</ele>
        <time>2022-02-19T12:28:27Z</time>
      </trkpt>
      <trkpt lat="46.41649" lon="5.3388">
        <ele>271</ele>
        <time>2022-02-19T12:28:31Z</time>
      </trkpt>
      <trkpt lat="46.41643" lon="5.3388">
        <ele>271.2</ele>
        <time>2022-02-19T12:28:32Z</time>
      </trkpt>
      <trkpt lat="46.41617" lon="5.33884">
        <ele>272.2</ele>
        <time>2022-02-19T12:28:37Z</time>
      </trkpt>
      <trkpt lat="46.41604" lon="5.33887">
        <ele>272.4</ele>
        <time>2022-02-19T12:28:40Z</time>
      </trkpt>
      <trkpt lat="46.41598" lon="5.33887">
        <ele>272.6</ele>
        <time>2022-02-19T12:28:41Z</time>
      </trkpt>
      <trkpt lat="46.41575" lon="5.33884">
        <ele>273.2</ele>
        <time>2022-02-19T12:28:46Z</time>
      </trkpt>
      <trkpt lat="46.41538" lon="5.33878">
        <ele>273.4</ele>
        <time>2022-02-19T12:28:53Z</time>
      </trkpt>
      <trkpt lat="46.41498" lon="5.33867">
        <ele>272.6</ele>
        <time>2022-02-19T12:28:59Z</time>
      </trkpt>
      <trkpt lat="46.41491" lon="5.33863">
        <ele>272.4</ele>
        <time>2022-02-19T12:29:00Z</time>
      </trkpt>
      <trkpt lat="46.41478" lon="5.33852">
        <ele>272</ele>
        <time>2022-02-19T12:29:02Z</time>
      </trkpt>
      <trkpt lat="46.41464" lon="5.33841">
        <ele>271.6</ele>
        <time>2022-02-19T12:29:04Z</time>
      </trkpt>
      <trkpt lat="46.41456" lon="5.33836">
        <ele>271.2</ele>
        <time>2022-02-19T12:29:05Z</time>
      </trkpt>
      <trkpt lat="46.4144" lon="5.33829">
        <ele>270.8</ele>
        <time>2022-02-19T12:29:07Z</time>
      </trkpt>
      <trkpt lat="46.41431" lon="5.33827">
        <ele>270.8</ele>
        <time>2022-02-19T12:29:08Z</time>
      </trkpt>
      <trkpt lat="46.41405" lon="5.33819">
        <ele>269.6</ele>
        <time>2022-02-19T12:29:11Z</time>
      </trkpt>
      <trkpt lat="46.41378" lon="5.33811">
        <ele>268.6</ele>
        <time>2022-02-19T12:29:14Z</time>
      </trkpt>
      <trkpt lat="46.41359" lon="5.33806">
        <ele>267.8</ele>
        <time>2022-02-19T12:29:16Z</time>
      </trkpt>
      <trkpt lat="46.41351" lon="5.33804">
        <ele>267.6</ele>
        <time>2022-02-19T12:29:17Z</time>
      </trkpt>
      <trkpt lat="46.41324" lon="5.33793">
        <ele>266.6</ele>
        <time>2022-02-19T12:29:20Z</time>
      </trkpt>
      <trkpt lat="46.41315" lon="5.33786">
        <ele>266.2</ele>
        <time>2022-02-19T12:29:21Z</time>
      </trkpt>
      <trkpt lat="46.41306" lon="5.33778">
        <ele>266</ele>
        <time>2022-02-19T12:29:22Z</time>
      </trkpt>
      <trkpt lat="46.41283" lon="5.3375">
        <ele>264.8</ele>
        <time>2022-02-19T12:29:25Z</time>
      </trkpt>
      <trkpt lat="46.41258" lon="5.33725">
        <ele>263.6</ele>
        <time>2022-02-19T12:29:28Z</time>
      </trkpt>
      <trkpt lat="46.41242" lon="5.3371">
        <ele>262.4</ele>
        <time>2022-02-19T12:29:30Z</time>
      </trkpt>
      <trkpt lat="46.41225" lon="5.33695">
        <ele>261.8</ele>
        <time>2022-02-19T12:29:32Z</time>
      </trkpt>
      <trkpt lat="46.412" lon="5.33673">
        <ele>261.2</ele>
        <time>2022-02-19T12:29:35Z</time>
      </trkpt>
      <trkpt lat="46.41161" lon="5.33636">
        <ele>260.2</ele>
        <time>2022-02-19T12:29:40Z</time>
      </trkpt>
      <trkpt lat="46.41153" lon="5.33629">
        <ele>260</ele>
        <time>2022-02-19T12:29:41Z</time>
      </trkpt>
      <trkpt lat="46.41106" lon="5.33594">
        <ele>259.6</ele>
        <time>2022-02-19T12:29:47Z</time>
      </trkpt>
      <trkpt lat="46.41062" lon="5.33572">
        <ele>260.2</ele>
        <time>2022-02-19T12:29:53Z</time>
      </trkpt>
      <trkpt lat="46.41021" lon="5.3356">
        <ele>261.4</ele>
        <time>2022-02-19T12:29:59Z</time>
      </trkpt>
      <trkpt lat="46.4099" lon="5.3355">
        <ele>261.8</ele>
        <time>2022-02-19T12:30:04Z</time>
      </trkpt>
      <trkpt lat="46.40962" lon="5.3354">
        <ele>262.8</ele>
        <time>2022-02-19T12:30:09Z</time>
      </trkpt>
      <trkpt lat="46.4095" lon="5.33537">
        <ele>263.2</ele>
        <time>2022-02-19T12:30:11Z</time>
      </trkpt>
      <trkpt lat="46.40921" lon="5.33531">
        <ele>264</ele>
        <time>2022-02-19T12:30:16Z</time>
      </trkpt>
      <trkpt lat="46.4089" lon="5.33523">
        <ele>264.4</ele>
        <time>2022-02-19T12:30:21Z</time>
      </trkpt>
      <trkpt lat="46.40839" lon="5.3351">
        <ele>264</ele>
        <time>2022-02-19T12:30:28Z</time>
      </trkpt>
      <trkpt lat="46.40807" lon="5.335">
        <ele>262.8</ele>
        <time>2022-02-19T12:30:32Z</time>
      </trkpt>
      <trkpt lat="46.40773" lon="5.33489">
        <ele>261.6</ele>
        <time>2022-02-19T12:30:36Z</time>
      </trkpt>
      <trkpt lat="46.40732" lon="5.33469">
        <ele>260.4</ele>
        <time>2022-02-19T12:30:41Z</time>
      </trkpt>
      <trkpt lat="46.40725" lon="5.33464">
        <ele>260.2</ele>
        <time>2022-02-19T12:30:42Z</time>
      </trkpt>
      <trkpt lat="46.40703" lon="5.3345">
        <ele>259</ele>
        <time>2022-02-19T12:30:45Z</time>
      </trkpt>
      <trkpt lat="46.4066" lon="5.33424">
        <ele>257.8</ele>
        <time>2022-02-19T12:30:50Z</time>
      </trkpt>
      <trkpt lat="46.40635" lon="5.33408">
        <ele>256.8</ele>
        <time>2022-02-19T12:30:53Z</time>
      </trkpt>
      <trkpt lat="46.406" lon="5.33387">
        <ele>255.2</ele>
        <time>2022-02-19T12:30:57Z</time>
      </trkpt>
      <trkpt lat="46.40584" lon="5.33377">
        <ele>254</ele>
        <time>2022-02-19T12:30:59Z</time>
      </trkpt>
      <trkpt lat="46.40554" lon="5.33359">
        <ele>253.2</ele>
        <time>2022-02-19T12:31:02Z</time>
      </trkpt>
      <trkpt lat="46.40545" lon="5.33354">
        <ele>252.6</ele>
        <time>2022-02-19T12:31:03Z</time>
      </trkpt>
      <trkpt lat="46.40526" lon="5.33342">
        <ele>251.8</ele>
        <time>2022-02-19T12:31:05Z</time>
      </trkpt>
      <trkpt lat="46.40517" lon="5.33334">
        <ele>251.4</ele>
        <time>2022-02-19T12:31:06Z</time>
      </trkpt>
      <trkpt lat="46.40509" lon="5.33325">
        <ele>251</ele>
        <time>2022-02-19T12:31:07Z</time>
      </trkpt>
      <trkpt lat="46.40501" lon="5.33316">
        <ele>250.2</ele>
        <time>2022-02-19T12:31:08Z</time>
      </trkpt>
      <trkpt lat="46.40492" lon="5.33308">
        <ele>249.8</ele>
        <time>2022-02-19T12:31:09Z</time>
      </trkpt>
      <trkpt lat="46.40474" lon="5.33297">
        <ele>249.2</ele>
        <time>2022-02-19T12:31:11Z</time>
      </trkpt>
      <trkpt lat="46.40464" lon="5.33293">
        <ele>249</ele>
        <time>2022-02-19T12:31:12Z</time>
      </trkpt>
      <trkpt lat="46.4043" lon="5.33271">
        <ele>248</ele>
        <time>2022-02-19T12:31:16Z</time>
      </trkpt>
      <trkpt lat="46.40422" lon="5.33265">
        <ele>247.6</ele>
        <time>2022-02-19T12:31:17Z</time>
      </trkpt>
      <trkpt lat="46.40395" lon="5.33234">
        <ele>247</ele>
        <time>2022-02-19T12:31:21Z</time>
      </trkpt>
      <trkpt lat="46.40353" lon="5.33179">
        <ele>247.6</ele>
        <time>2022-02-19T12:31:28Z</time>
      </trkpt>
      <trkpt lat="46.40321" lon="5.33135">
        <ele>249</ele>
        <time>2022-02-19T12:31:34Z</time>
      </trkpt>
      <trkpt lat="46.40286" lon="5.33083">
        <ele>250</ele>
        <time>2022-02-19T12:31:42Z</time>
      </trkpt>
      <trkpt lat="46.40277" lon="5.33069">
        <ele>250</ele>
        <time>2022-02-19T12:31:44Z</time>
      </trkpt>
      <trkpt lat="46.40241" lon="5.33018">
        <ele>250.4</ele>
        <time>2022-02-19T12:31:52Z</time>
      </trkpt>
      <trkpt lat="46.40236" lon="5.33011">
        <ele>250.4</ele>
        <time>2022-02-19T12:31:53Z</time>
      </trkpt>
      <trkpt lat="46.40212" lon="5.32974">
        <ele>250.2</ele>
        <time>2022-02-19T12:31:58Z</time>
      </trkpt>
      <trkpt lat="46.40187" lon="5.3293">
        <ele>249.8</ele>
        <time>2022-02-19T12:32:04Z</time>
      </trkpt>
      <trkpt lat="46.40156" lon="5.32866">
        <ele>250</ele>
        <time>2022-02-19T12:32:12Z</time>
      </trkpt>
      <trkpt lat="46.40124" lon="5.32793">
        <ele>249.6</ele>
        <time>2022-02-19T12:32:21Z</time>
      </trkpt>
      <trkpt lat="46.40116" lon="5.32777">
        <ele>249.6</ele>
        <time>2022-02-19T12:32:23Z</time>
      </trkpt>
      <trkpt lat="46.40086" lon="5.32703">
        <ele>249.2</ele>
        <time>2022-02-19T12:32:32Z</time>
      </trkpt>
      <trkpt lat="46.40083" lon="5.32694">
        <ele>249.2</ele>
        <time>2022-02-19T12:32:33Z</time>
      </trkpt>
      <trkpt lat="46.4008" lon="5.32685">
        <ele>249</ele>
        <time>2022-02-19T12:32:34Z</time>
      </trkpt>
      <trkpt lat="46.40071" lon="5.32642">
        <ele>248.8</ele>
        <time>2022-02-19T12:32:39Z</time>
      </trkpt>
      <trkpt lat="46.40068" lon="5.32634">
        <ele>248.6</ele>
        <time>2022-02-19T12:32:40Z</time>
      </trkpt>
      <trkpt lat="46.40064" lon="5.32628">
        <ele>248.6</ele>
        <time>2022-02-19T12:32:41Z</time>
      </trkpt>
      <trkpt lat="46.40052" lon="5.32623">
        <ele>248.4</ele>
        <time>2022-02-19T12:32:43Z</time>
      </trkpt>
      <trkpt lat="46.40035" lon="5.32631">
        <ele>248.4</ele>
        <time>2022-02-19T12:32:46Z</time>
      </trkpt>
      <trkpt lat="46.39982" lon="5.32657">
        <ele>248.2</ele>
        <time>2022-02-19T12:32:54Z</time>
      </trkpt>
      <trkpt lat="46.39975" lon="5.3266">
        <ele>248</ele>
        <time>2022-02-19T12:32:55Z</time>
      </trkpt>
      <trkpt lat="46.39968" lon="5.32663">
        <ele>248</ele>
        <time>2022-02-19T12:32:56Z</time>
      </trkpt>
      <trkpt lat="46.39918" lon="5.32686">
        <ele>247.4</ele>
        <time>2022-02-19T12:33:03Z</time>
      </trkpt>
      <trkpt lat="46.39889" lon="5.32699">
        <ele>247</ele>
        <time>2022-02-19T12:33:07Z</time>
      </trkpt>
      <trkpt lat="46.39858" lon="5.32712">
        <ele>246.2</ele>
        <time>2022-02-19T12:33:11Z</time>
      </trkpt>
      <trkpt lat="46.39851" lon="5.32716">
        <ele>246</ele>
        <time>2022-02-19T12:33:12Z</time>
      </trkpt>
      <trkpt lat="46.39805" lon="5.32737">
        <ele>244.8</ele>
        <time>2022-02-19T12:33:18Z</time>
      </trkpt>
      <trkpt lat="46.39797" lon="5.3274">
        <ele>244.4</ele>
        <time>2022-02-19T12:33:19Z</time>
      </trkpt>
      <trkpt lat="46.39774" lon="5.32752">
        <ele>243.8</ele>
        <time>2022-02-19T12:33:22Z</time>
      </trkpt>
      <trkpt lat="46.39742" lon="5.32769">
        <ele>242.8</ele>
        <time>2022-02-19T12:33:26Z</time>
      </trkpt>
      <trkpt lat="46.39727" lon="5.32777">
        <ele>241.8</ele>
        <time>2022-02-19T12:33:28Z</time>
      </trkpt>
      <trkpt lat="46.39717" lon="5.32783">
        <ele>241.6</ele>
        <time>2022-02-19T12:33:29Z</time>
      </trkpt>
      <trkpt lat="46.39699" lon="5.32792">
        <ele>240.4</ele>
        <time>2022-02-19T12:33:31Z</time>
      </trkpt>
      <trkpt lat="46.39664" lon="5.32811">
        <ele>238.8</ele>
        <time>2022-02-19T12:33:35Z</time>
      </trkpt>
      <trkpt lat="46.39637" lon="5.32822">
        <ele>237.4</ele>
        <time>2022-02-19T12:33:38Z</time>
      </trkpt>
      <trkpt lat="46.39625" lon="5.32825">
        <ele>237</ele>
        <time>2022-02-19T12:33:39Z</time>
      </trkpt>
      <trkpt lat="46.39605" lon="5.3283">
        <ele>236.2</ele>
        <time>2022-02-19T12:33:41Z</time>
      </trkpt>
      <trkpt lat="46.39577" lon="5.32841">
        <ele>234.6</ele>
        <time>2022-02-19T12:33:44Z</time>
      </trkpt>
      <trkpt lat="46.39554" lon="5.32855">
        <ele>233.6</ele>
        <time>2022-02-19T12:33:47Z</time>
      </trkpt>
      <trkpt lat="46.39538" lon="5.32865">
        <ele>233.2</ele>
        <time>2022-02-19T12:33:49Z</time>
      </trkpt>
      <trkpt lat="46.39491" lon="5.32884">
        <ele>232.6</ele>
        <time>2022-02-19T12:33:55Z</time>
      </trkpt>
      <trkpt lat="46.39483" lon="5.32887">
        <ele>232.4</ele>
        <time>2022-02-19T12:33:56Z</time>
      </trkpt>
      <trkpt lat="46.39448" lon="5.32899">
        <ele>231.2</ele>
        <time>2022-02-19T12:34:00Z</time>
      </trkpt>
      <trkpt lat="46.39439" lon="5.32902">
        <ele>231</ele>
        <time>2022-02-19T12:34:01Z</time>
      </trkpt>
      <trkpt lat="46.3942" lon="5.32906">
        <ele>230.2</ele>
        <time>2022-02-19T12:34:03Z</time>
      </trkpt>
      <trkpt lat="46.39401" lon="5.32907">
        <ele>229.4</ele>
        <time>2022-02-19T12:34:05Z</time>
      </trkpt>
      <trkpt lat="46.39384" lon="5.329">
        <ele>228.6</ele>
        <time>2022-02-19T12:34:07Z</time>
      </trkpt>
      <trkpt lat="46.39376" lon="5.32894">
        <ele>228</ele>
        <time>2022-02-19T12:34:08Z</time>
      </trkpt>
      <trkpt lat="46.39371" lon="5.32889">
        <ele>227.4</ele>
        <time>2022-02-19T12:34:09Z</time>
      </trkpt>
      <trkpt lat="46.39365" lon="5.32885">
        <ele>226.8</ele>
        <time>2022-02-19T12:34:10Z</time>
      </trkpt>
      <trkpt lat="46.39358" lon="5.32884">
        <ele>226.6</ele>
        <time>2022-02-19T12:34:11Z</time>
      </trkpt>
      <trkpt lat="46.39353" lon="5.32887">
        <ele>226.2</ele>
        <time>2022-02-19T12:34:12Z</time>
      </trkpt>
      <trkpt lat="46.39349" lon="5.32893">
        <ele>226</ele>
        <time>2022-02-19T12:34:13Z</time>
      </trkpt>
      <trkpt lat="46.39348" lon="5.32902">
        <ele>225.6</ele>
        <time>2022-02-19T12:34:14Z</time>
      </trkpt>
      <trkpt lat="46.39342" lon="5.32921">
        <ele>224.8</ele>
        <time>2022-02-19T12:34:16Z</time>
      </trkpt>
      <trkpt lat="46.3933" lon="5.32933">
        <ele>224.4</ele>
        <time>2022-02-19T12:34:18Z</time>
      </trkpt>
      <trkpt lat="46.39322" lon="5.32936">
        <ele>223.8</ele>
        <time>2022-02-19T12:34:19Z</time>
      </trkpt>
      <trkpt lat="46.39289" lon="5.32953">
        <ele>222.6</ele>
        <time>2022-02-19T12:34:23Z</time>
      </trkpt>
      <trkpt lat="46.39229" lon="5.32981">
        <ele>221.6</ele>
        <time>2022-02-19T12:34:30Z</time>
      </trkpt>
      <trkpt lat="46.39221" lon="5.32985">
        <ele>221.4</ele>
        <time>2022-02-19T12:34:31Z</time>
      </trkpt>
      <trkpt lat="46.39163" lon="5.33006">
        <ele>221.2</ele>
        <time>2022-02-19T12:34:38Z</time>
      </trkpt>
      <trkpt lat="46.39147" lon="5.33012">
        <ele>221</ele>
        <time>2022-02-19T12:34:40Z</time>
      </trkpt>
      <trkpt lat="46.39093" lon="5.33024">
        <ele>220.8</ele>
        <time>2022-02-19T12:34:47Z</time>
      </trkpt>
      <trkpt lat="46.39056" lon="5.33016">
        <ele>221</ele>
        <time>2022-02-19T12:34:52Z</time>
      </trkpt>
      <trkpt lat="46.38996" lon="5.32996">
        <ele>221.2</ele>
        <time>2022-02-19T12:35:00Z</time>
      </trkpt>
      <trkpt lat="46.38989" lon="5.32993">
        <ele>221.2</ele>
        <time>2022-02-19T12:35:01Z</time>
      </trkpt>
      <trkpt lat="46.38951" lon="5.32978">
        <ele>220.4</ele>
        <time>2022-02-19T12:35:06Z</time>
      </trkpt>
      <trkpt lat="46.38928" lon="5.3297">
        <ele>219.8</ele>
        <time>2022-02-19T12:35:09Z</time>
      </trkpt>
      <trkpt lat="46.38913" lon="5.32965">
        <ele>219.6</ele>
        <time>2022-02-19T12:35:11Z</time>
      </trkpt>
      <trkpt lat="46.38899" lon="5.32959">
        <ele>219.4</ele>
        <time>2022-02-19T12:35:13Z</time>
      </trkpt>
      <trkpt lat="46.38849" lon="5.32939">
        <ele>218.4</ele>
        <time>2022-02-19T12:35:20Z</time>
      </trkpt>
      <trkpt lat="46.38793" lon="5.32916">
        <ele>218</ele>
        <time>2022-02-19T12:35:28Z</time>
      </trkpt>
      <trkpt lat="46.38781" lon="5.32911">
        <ele>218</ele>
        <time>2022-02-19T12:35:30Z</time>
      </trkpt>
      <trkpt lat="46.3877" lon="5.32901">
        <ele>218</ele>
        <time>2022-02-19T12:35:32Z</time>
      </trkpt>
      <trkpt lat="46.38766" lon="5.32892">
        <ele>218</ele>
        <time>2022-02-19T12:35:33Z</time>
      </trkpt>
      <trkpt lat="46.38764" lon="5.32884">
        <ele>217.8</ele>
        <time>2022-02-19T12:35:34Z</time>
      </trkpt>
      <trkpt lat="46.38761" lon="5.32861">
        <ele>217.8</ele>
        <time>2022-02-19T12:35:36Z</time>
      </trkpt>
      <trkpt lat="46.38761" lon="5.3285">
        <ele>217.8</ele>
        <time>2022-02-19T12:35:37Z</time>
      </trkpt>
      <trkpt lat="46.38765" lon="5.32818">
        <ele>217.4</ele>
        <time>2022-02-19T12:35:40Z</time>
      </trkpt>
      <trkpt lat="46.3877" lon="5.32798">
        <ele>217.4</ele>
        <time>2022-02-19T12:35:42Z</time>
      </trkpt>
      <trkpt lat="46.38776" lon="5.32778">
        <ele>217.4</ele>
        <time>2022-02-19T12:35:44Z</time>
      </trkpt>
      <trkpt lat="46.3878" lon="5.32769">
        <ele>217.2</ele>
        <time>2022-02-19T12:35:45Z</time>
      </trkpt>
      <trkpt lat="46.3879" lon="5.32731">
        <ele>217.2</ele>
        <time>2022-02-19T12:35:49Z</time>
      </trkpt>
      <trkpt lat="46.38792" lon="5.32711">
        <ele>217</ele>
        <time>2022-02-19T12:35:51Z</time>
      </trkpt>
      <trkpt lat="46.38789" lon="5.32654">
        <ele>216.8</ele>
        <time>2022-02-19T12:35:57Z</time>
      </trkpt>
      <trkpt lat="46.38783" lon="5.3264">
        <ele>216.6</ele>
        <time>2022-02-19T12:35:59Z</time>
      </trkpt>
      <trkpt lat="46.38778" lon="5.32637">
        <ele>216.6</ele>
        <time>2022-02-19T12:36:00Z</time>
      </trkpt>
      <trkpt lat="46.38749" lon="5.32614">
        <ele>217.2</ele>
        <time>2022-02-19T12:36:05Z</time>
      </trkpt>
      <trkpt lat="46.38706" lon="5.32579">
        <ele>217.2</ele>
        <time>2022-02-19T12:36:12Z</time>
      </trkpt>
      <trkpt lat="46.38666" lon="5.32538">
        <ele>217</ele>
        <time>2022-02-19T12:36:19Z</time>
      </trkpt>
      <trkpt lat="46.38636" lon="5.32513">
        <ele>217.2</ele>
        <time>2022-02-19T12:36:24Z</time>
      </trkpt>
      <trkpt lat="46.38623" lon="5.32505">
        <ele>217.2</ele>
        <time>2022-02-19T12:36:26Z</time>
      </trkpt>
      <trkpt lat="46.38617" lon="5.32501">
        <ele>217.2</ele>
        <time>2022-02-19T12:36:27Z</time>
      </trkpt>
      <trkpt lat="46.38592" lon="5.3248">
        <ele>217</ele>
        <time>2022-02-19T12:36:31Z</time>
      </trkpt>
      <trkpt lat="46.38543" lon="5.32432">
        <ele>216.2</ele>
        <time>2022-02-19T12:36:39Z</time>
      </trkpt>
      <trkpt lat="46.38507" lon="5.32396">
        <ele>216</ele>
        <time>2022-02-19T12:36:45Z</time>
      </trkpt>
      <trkpt lat="46.38496" lon="5.32384">
        <ele>215.8</ele>
        <time>2022-02-19T12:36:47Z</time>
      </trkpt>
      <trkpt lat="46.38484" lon="5.32374">
        <ele>215.6</ele>
        <time>2022-02-19T12:36:49Z</time>
      </trkpt>
      <trkpt lat="46.38465" lon="5.32366">
        <ele>215.4</ele>
        <time>2022-02-19T12:36:52Z</time>
      </trkpt>
      <trkpt lat="46.38451" lon="5.32366">
        <ele>215.4</ele>
        <time>2022-02-19T12:36:54Z</time>
      </trkpt>
      <trkpt lat="46.38438" lon="5.32373">
        <ele>215.2</ele>
        <time>2022-02-19T12:36:56Z</time>
      </trkpt>
      <trkpt lat="46.38432" lon="5.32379">
        <ele>215.2</ele>
        <time>2022-02-19T12:36:57Z</time>
      </trkpt>
      <trkpt lat="46.38428" lon="5.32387">
        <ele>215</ele>
        <time>2022-02-19T12:36:58Z</time>
      </trkpt>
      <trkpt lat="46.38412" lon="5.32416">
        <ele>214.8</ele>
        <time>2022-02-19T12:37:02Z</time>
      </trkpt>
      <trkpt lat="46.38405" lon="5.32432">
        <ele>214.8</ele>
        <time>2022-02-19T12:37:04Z</time>
      </trkpt>
      <trkpt lat="46.38402" lon="5.32451">
        <ele>215</ele>
        <time>2022-02-19T12:37:06Z</time>
      </trkpt>
      <trkpt lat="46.38391" lon="5.32486">
        <ele>215</ele>
        <time>2022-02-19T12:37:10Z</time>
      </trkpt>
      <trkpt lat="46.38379" lon="5.32499">
        <ele>214.8</ele>
        <time>2022-02-19T12:37:12Z</time>
      </trkpt>
      <trkpt lat="46.38372" lon="5.32501">
        <ele>214.6</ele>
        <time>2022-02-19T12:37:13Z</time>
      </trkpt>
      <trkpt lat="46.38365" lon="5.32501">
        <ele>214.4</ele>
        <time>2022-02-19T12:37:14Z</time>
      </trkpt>
      <trkpt lat="46.38345" lon="5.32496">
        <ele>214.6</ele>
        <time>2022-02-19T12:37:17Z</time>
      </trkpt>
      <trkpt lat="46.38297" lon="5.32477">
        <ele>214.8</ele>
        <time>2022-02-19T12:37:24Z</time>
      </trkpt>
      <trkpt lat="46.38249" lon="5.32468">
        <ele>214</ele>
        <time>2022-02-19T12:37:31Z</time>
      </trkpt>
      <trkpt lat="46.38234" lon="5.32464">
        <ele>214</ele>
        <time>2022-02-19T12:37:33Z</time>
      </trkpt>
      <trkpt lat="46.38221" lon="5.32457">
        <ele>214</ele>
        <time>2022-02-19T12:37:35Z</time>
      </trkpt>
      <trkpt lat="46.38171" lon="5.3241">
        <ele>213.6</ele>
        <time>2022-02-19T12:37:43Z</time>
      </trkpt>
      <trkpt lat="46.38125" lon="5.32365">
        <ele>213.4</ele>
        <time>2022-02-19T12:37:51Z</time>
      </trkpt>
      <trkpt lat="46.38106" lon="5.32333">
        <ele>213.8</ele>
        <time>2022-02-19T12:37:56Z</time>
      </trkpt>
      <trkpt lat="46.38097" lon="5.32314">
        <ele>213.8</ele>
        <time>2022-02-19T12:37:59Z</time>
      </trkpt>
      <trkpt lat="46.38095" lon="5.32305">
        <ele>213.8</ele>
        <time>2022-02-19T12:38:01Z</time>
      </trkpt>
      <trkpt lat="46.38094" lon="5.32304">
        <ele>213.8</ele>
        <time>2022-02-19T12:38:02Z</time>
      </trkpt>
      <trkpt lat="46.38094" lon="5.32302">
        <ele>213.6</ele>
        <time>2022-02-19T12:38:04Z</time>
      </trkpt>
      <trkpt lat="46.38094" lon="5.32302">
        <ele>213.6</ele>
        <time>2022-02-19T12:38:05Z</time>
      </trkpt>
      <trkpt lat="46.38089" lon="5.32294">
        <ele>213.4</ele>
        <time>2022-02-19T12:38:54Z</time>
      </trkpt>
      <trkpt lat="46.38086" lon="5.32289">
        <ele>213.4</ele>
        <time>2022-02-19T12:38:55Z</time>
      </trkpt>
      <trkpt lat="46.3808" lon="5.32281">
        <ele>213.4</ele>
        <time>2022-02-19T12:38:57Z</time>
      </trkpt>
      <trkpt lat="46.38067" lon="5.32272">
        <ele>213.4</ele>
        <time>2022-02-19T12:39:00Z</time>
      </trkpt>
      <trkpt lat="46.38059" lon="5.32265">
        <ele>213.8</ele>
        <time>2022-02-19T12:39:02Z</time>
      </trkpt>
      <trkpt lat="46.3805" lon="5.32249">
        <ele>214.4</ele>
        <time>2022-02-19T12:39:05Z</time>
      </trkpt>
      <trkpt lat="46.38045" lon="5.32225">
        <ele>215</ele>
        <time>2022-02-19T12:39:08Z</time>
      </trkpt>
      <trkpt lat="46.38043" lon="5.32218">
        <ele>215.2</ele>
        <time>2022-02-19T12:39:09Z</time>
      </trkpt>
      <trkpt lat="46.38034" lon="5.32173">
        <ele>215.6</ele>
        <time>2022-02-19T12:39:14Z</time>
      </trkpt>
      <trkpt lat="46.38031" lon="5.32165">
        <ele>215.6</ele>
        <time>2022-02-19T12:39:15Z</time>
      </trkpt>
      <trkpt lat="46.38013" lon="5.32121">
        <ele>215.4</ele>
        <time>2022-02-19T12:39:20Z</time>
      </trkpt>
      <trkpt lat="46.37977" lon="5.32065">
        <ele>214.4</ele>
        <time>2022-02-19T12:39:27Z</time>
      </trkpt>
      <trkpt lat="46.37961" lon="5.32029">
        <ele>214</ele>
        <time>2022-02-19T12:39:31Z</time>
      </trkpt>
      <trkpt lat="46.37958" lon="5.3202">
        <ele>213.8</ele>
        <time>2022-02-19T12:39:32Z</time>
      </trkpt>
      <trkpt lat="46.37941" lon="5.31953">
        <ele>213.4</ele>
        <time>2022-02-19T12:39:39Z</time>
      </trkpt>
      <trkpt lat="46.37925" lon="5.31902">
        <ele>214</ele>
        <time>2022-02-19T12:39:45Z</time>
      </trkpt>
      <trkpt lat="46.379" lon="5.31858">
        <ele>214.2</ele>
        <time>2022-02-19T12:39:51Z</time>
      </trkpt>
      <trkpt lat="46.37868" lon="5.31813">
        <ele>213.8</ele>
        <time>2022-02-19T12:39:57Z</time>
      </trkpt>
      <trkpt lat="46.37837" lon="5.31766">
        <ele>213.2</ele>
        <time>2022-02-19T12:40:03Z</time>
      </trkpt>
      <trkpt lat="46.37806" lon="5.31721">
        <ele>212.8</ele>
        <time>2022-02-19T12:40:09Z</time>
      </trkpt>
      <trkpt lat="46.37791" lon="5.31699">
        <ele>212.6</ele>
        <time>2022-02-19T12:40:12Z</time>
      </trkpt>
      <trkpt lat="46.37781" lon="5.31684">
        <ele>212.6</ele>
        <time>2022-02-19T12:40:14Z</time>
      </trkpt>
      <trkpt lat="46.37761" lon="5.31655">
        <ele>212.8</ele>
        <time>2022-02-19T12:40:18Z</time>
      </trkpt>
      <trkpt lat="46.37721" lon="5.31597">
        <ele>212.2</ele>
        <time>2022-02-19T12:40:26Z</time>
      </trkpt>
      <trkpt lat="46.37685" lon="5.31545">
        <ele>212</ele>
        <time>2022-02-19T12:40:33Z</time>
      </trkpt>
      <trkpt lat="46.37657" lon="5.31506">
        <ele>211.8</ele>
        <time>2022-02-19T12:40:38Z</time>
      </trkpt>
      <trkpt lat="46.37627" lon="5.31461">
        <ele>211.4</ele>
        <time>2022-02-19T12:40:44Z</time>
      </trkpt>
      <trkpt lat="46.37587" lon="5.31404">
        <ele>211.2</ele>
        <time>2022-02-19T12:40:52Z</time>
      </trkpt>
      <trkpt lat="46.37544" lon="5.31342">
        <ele>211.4</ele>
        <time>2022-02-19T12:41:01Z</time>
      </trkpt>
      <trkpt lat="46.37535" lon="5.31329">
        <ele>211.6</ele>
        <time>2022-02-19T12:41:03Z</time>
      </trkpt>
      <trkpt lat="46.37496" lon="5.31273">
        <ele>211.8</ele>
        <time>2022-02-19T12:41:11Z</time>
      </trkpt>
      <trkpt lat="46.37491" lon="5.31266">
        <ele>211.8</ele>
        <time>2022-02-19T12:41:12Z</time>
      </trkpt>
      <trkpt lat="46.37451" lon="5.31206">
        <ele>211.4</ele>
        <time>2022-02-19T12:41:21Z</time>
      </trkpt>
      <trkpt lat="46.37446" lon="5.312">
        <ele>211.4</ele>
        <time>2022-02-19T12:41:22Z</time>
      </trkpt>
      <trkpt lat="46.37408" lon="5.31144">
        <ele>211.4</ele>
        <time>2022-02-19T12:41:30Z</time>
      </trkpt>
      <trkpt lat="46.37398" lon="5.31129">
        <ele>211.4</ele>
        <time>2022-02-19T12:41:32Z</time>
      </trkpt>
      <trkpt lat="46.37372" lon="5.3109">
        <ele>210.8</ele>
        <time>2022-02-19T12:41:37Z</time>
      </trkpt>
      <trkpt lat="46.3735" lon="5.31058">
        <ele>210.4</ele>
        <time>2022-02-19T12:41:41Z</time>
      </trkpt>
      <trkpt lat="46.37308" lon="5.30998">
        <ele>209.8</ele>
        <time>2022-02-19T12:41:49Z</time>
      </trkpt>
      <trkpt lat="46.37302" lon="5.30989">
        <ele>209.8</ele>
        <time>2022-02-19T12:41:50Z</time>
      </trkpt>
      <trkpt lat="46.37297" lon="5.30983">
        <ele>209.8</ele>
        <time>2022-02-19T12:41:51Z</time>
      </trkpt>
      <trkpt lat="46.37277" lon="5.30953">
        <ele>209.8</ele>
        <time>2022-02-19T12:41:55Z</time>
      </trkpt>
      <trkpt lat="46.37261" lon="5.3093">
        <ele>209.6</ele>
        <time>2022-02-19T12:41:58Z</time>
      </trkpt>
      <trkpt lat="46.3722" lon="5.30871">
        <ele>209.4</ele>
        <time>2022-02-19T12:42:06Z</time>
      </trkpt>
      <trkpt lat="46.37215" lon="5.30864">
        <ele>209.4</ele>
        <time>2022-02-19T12:42:07Z</time>
      </trkpt>
      <trkpt lat="46.37177" lon="5.30801">
        <ele>209.6</ele>
        <time>2022-02-19T12:42:15Z</time>
      </trkpt>
      <trkpt lat="46.37151" lon="5.30741">
        <ele>209.8</ele>
        <time>2022-02-19T12:42:22Z</time>
      </trkpt>
      <trkpt lat="46.37128" lon="5.30664">
        <ele>209.6</ele>
        <time>2022-02-19T12:42:30Z</time>
      </trkpt>
      <trkpt lat="46.37116" lon="5.30595">
        <ele>209.6</ele>
        <time>2022-02-19T12:42:37Z</time>
      </trkpt>
      <trkpt lat="46.37117" lon="5.30544">
        <ele>209.6</ele>
        <time>2022-02-19T12:42:42Z</time>
      </trkpt>
      <trkpt lat="46.37122" lon="5.30475">
        <ele>209.4</ele>
        <time>2022-02-19T12:42:49Z</time>
      </trkpt>
      <trkpt lat="46.37129" lon="5.3039">
        <ele>209.6</ele>
        <time>2022-02-19T12:42:58Z</time>
      </trkpt>
      <trkpt lat="46.37135" lon="5.30312">
        <ele>210.2</ele>
        <time>2022-02-19T12:43:07Z</time>
      </trkpt>
      <trkpt lat="46.3714" lon="5.30273">
        <ele>211</ele>
        <time>2022-02-19T12:43:12Z</time>
      </trkpt>
      <trkpt lat="46.37142" lon="5.30266">
        <ele>211.2</ele>
        <time>2022-02-19T12:43:13Z</time>
      </trkpt>
      <trkpt lat="46.37144" lon="5.30259">
        <ele>211.2</ele>
        <time>2022-02-19T12:43:14Z</time>
      </trkpt>
      <trkpt lat="46.37147" lon="5.30252">
        <ele>211.4</ele>
        <time>2022-02-19T12:43:15Z</time>
      </trkpt>
      <trkpt lat="46.37152" lon="5.30241">
        <ele>211.6</ele>
        <time>2022-02-19T12:43:17Z</time>
      </trkpt>
      <trkpt lat="46.37156" lon="5.30237">
        <ele>211.8</ele>
        <time>2022-02-19T12:43:18Z</time>
      </trkpt>
      <trkpt lat="46.3716" lon="5.30233">
        <ele>212</ele>
        <time>2022-02-19T12:43:19Z</time>
      </trkpt>
      <trkpt lat="46.37168" lon="5.30226">
        <ele>212</ele>
        <time>2022-02-19T12:43:21Z</time>
      </trkpt>
      <trkpt lat="46.3718" lon="5.30217">
        <ele>212.8</ele>
        <time>2022-02-19T12:43:24Z</time>
      </trkpt>
      <trkpt lat="46.37193" lon="5.30211">
        <ele>213.4</ele>
        <time>2022-02-19T12:43:27Z</time>
      </trkpt>
      <trkpt lat="46.37215" lon="5.30203">
        <ele>214.4</ele>
        <time>2022-02-19T12:43:32Z</time>
      </trkpt>
      <trkpt lat="46.37219" lon="5.30201">
        <ele>214.6</ele>
        <time>2022-02-19T12:43:33Z</time>
      </trkpt>
      <trkpt lat="46.37234" lon="5.30191">
        <ele>215.6</ele>
        <time>2022-02-19T12:43:37Z</time>
      </trkpt>
      <trkpt lat="46.37241" lon="5.30186">
        <ele>216</ele>
        <time>2022-02-19T12:43:39Z</time>
      </trkpt>
      <trkpt lat="46.37246" lon="5.30178">
        <ele>216.4</ele>
        <time>2022-02-19T12:43:41Z</time>
      </trkpt>
      <trkpt lat="46.37249" lon="5.30174">
        <ele>216.8</ele>
        <time>2022-02-19T12:43:42Z</time>
      </trkpt>
      <trkpt lat="46.37258" lon="5.30156">
        <ele>217.8</ele>
        <time>2022-02-19T12:43:46Z</time>
      </trkpt>
      <trkpt lat="46.37261" lon="5.30146">
        <ele>218.2</ele>
        <time>2022-02-19T12:43:48Z</time>
      </trkpt>
      <trkpt lat="46.37262" lon="5.30117">
        <ele>219.2</ele>
        <time>2022-02-19T12:43:53Z</time>
      </trkpt>
      <trkpt lat="46.37262" lon="5.30111">
        <ele>219.4</ele>
        <time>2022-02-19T12:43:54Z</time>
      </trkpt>
      <trkpt lat="46.37261" lon="5.30089">
        <ele>220.2</ele>
        <time>2022-02-19T12:43:58Z</time>
      </trkpt>
      <trkpt lat="46.3726" lon="5.30064">
        <ele>221.2</ele>
        <time>2022-02-19T12:44:03Z</time>
      </trkpt>
      <trkpt lat="46.37259" lon="5.30059">
        <ele>221.4</ele>
        <time>2022-02-19T12:44:04Z</time>
      </trkpt>
      <trkpt lat="46.37259" lon="5.30033">
        <ele>222.4</ele>
        <time>2022-02-19T12:44:09Z</time>
      </trkpt>
      <trkpt lat="46.3726" lon="5.30023">
        <ele>222.6</ele>
        <time>2022-02-19T12:44:11Z</time>
      </trkpt>
      <trkpt lat="46.37266" lon="5.29998">
        <ele>223.4</ele>
        <time>2022-02-19T12:44:16Z</time>
      </trkpt>
      <trkpt lat="46.37269" lon="5.29994">
        <ele>223.8</ele>
        <time>2022-02-19T12:44:17Z</time>
      </trkpt>
      <trkpt lat="46.37284" lon="5.29981">
        <ele>224.6</ele>
        <time>2022-02-19T12:44:22Z</time>
      </trkpt>
      <trkpt lat="46.37287" lon="5.29979">
        <ele>225.2</ele>
        <time>2022-02-19T12:44:23Z</time>
      </trkpt>
      <trkpt lat="46.37297" lon="5.29973">
        <ele>226</ele>
        <time>2022-02-19T12:44:26Z</time>
      </trkpt>
      <trkpt lat="46.37309" lon="5.29965">
        <ele>227</ele>
        <time>2022-02-19T12:44:30Z</time>
      </trkpt>
      <trkpt lat="46.37314" lon="5.29958">
        <ele>227.6</ele>
        <time>2022-02-19T12:44:32Z</time>
      </trkpt>
      <trkpt lat="46.37318" lon="5.29944">
        <ele>228.2</ele>
        <time>2022-02-19T12:44:35Z</time>
      </trkpt>
      <trkpt lat="46.37318" lon="5.29939">
        <ele>228.2</ele>
        <time>2022-02-19T12:44:36Z</time>
      </trkpt>
      <trkpt lat="46.37312" lon="5.29922">
        <ele>229</ele>
        <time>2022-02-19T12:44:40Z</time>
      </trkpt>
      <trkpt lat="46.37309" lon="5.29919">
        <ele>229.2</ele>
        <time>2022-02-19T12:44:41Z</time>
      </trkpt>
      <trkpt lat="46.37297" lon="5.29908">
        <ele>230.2</ele>
        <time>2022-02-19T12:44:45Z</time>
      </trkpt>
      <trkpt lat="46.37293" lon="5.29906">
        <ele>230.4</ele>
        <time>2022-02-19T12:44:46Z</time>
      </trkpt>
      <trkpt lat="46.37276" lon="5.29904">
        <ele>231.4</ele>
        <time>2022-02-19T12:44:51Z</time>
      </trkpt>
      <trkpt lat="46.37272" lon="5.29904">
        <ele>231.6</ele>
        <time>2022-02-19T12:44:52Z</time>
      </trkpt>
      <trkpt lat="46.37254" lon="5.29907">
        <ele>232.4</ele>
        <time>2022-02-19T12:44:57Z</time>
      </trkpt>
      <trkpt lat="46.3724" lon="5.29911">
        <ele>233.2</ele>
        <time>2022-02-19T12:45:01Z</time>
      </trkpt>
      <trkpt lat="46.37232" lon="5.29913">
        <ele>233.6</ele>
        <time>2022-02-19T12:45:03Z</time>
      </trkpt>
      <trkpt lat="46.37211" lon="5.29922">
        <ele>234.4</ele>
        <time>2022-02-19T12:45:08Z</time>
      </trkpt>
      <trkpt lat="46.37207" lon="5.29925">
        <ele>234.6</ele>
        <time>2022-02-19T12:45:09Z</time>
      </trkpt>
      <trkpt lat="46.37193" lon="5.29931">
        <ele>234.8</ele>
        <time>2022-02-19T12:45:12Z</time>
      </trkpt>
      <trkpt lat="46.37184" lon="5.29931">
        <ele>235</ele>
        <time>2022-02-19T12:45:14Z</time>
      </trkpt>
      <trkpt lat="46.37179" lon="5.2993">
        <ele>235.2</ele>
        <time>2022-02-19T12:45:15Z</time>
      </trkpt>
      <trkpt lat="46.37169" lon="5.29928">
        <ele>235.4</ele>
        <time>2022-02-19T12:45:17Z</time>
      </trkpt>
      <trkpt lat="46.3716" lon="5.29923">
        <ele>235.6</ele>
        <time>2022-02-19T12:45:19Z</time>
      </trkpt>
      <trkpt lat="46.37156" lon="5.2992">
        <ele>235.8</ele>
        <time>2022-02-19T12:45:20Z</time>
      </trkpt>
      <trkpt lat="46.37151" lon="5.29917">
        <ele>235.8</ele>
        <time>2022-02-19T12:45:21Z</time>
      </trkpt>
      <trkpt lat="46.37137" lon="5.29909">
        <ele>236</ele>
        <time>2022-02-19T12:45:24Z</time>
      </trkpt>
      <trkpt lat="46.37127" lon="5.299">
        <ele>236</ele>
        <time>2022-02-19T12:45:26Z</time>
      </trkpt>
      <trkpt lat="46.37092" lon="5.29871">
        <ele>235</ele>
        <time>2022-02-19T12:45:32Z</time>
      </trkpt>
      <trkpt lat="46.37079" lon="5.29863">
        <ele>234.4</ele>
        <time>2022-02-19T12:45:34Z</time>
      </trkpt>
      <trkpt lat="46.37058" lon="5.29849">
        <ele>233.4</ele>
        <time>2022-02-19T12:45:37Z</time>
      </trkpt>
      <trkpt lat="46.37044" lon="5.29839">
        <ele>233</ele>
        <time>2022-02-19T12:45:39Z</time>
      </trkpt>
      <trkpt lat="46.37029" lon="5.29827">
        <ele>232.6</ele>
        <time>2022-02-19T12:45:41Z</time>
      </trkpt>
      <trkpt lat="46.37012" lon="5.29821">
        <ele>232.4</ele>
        <time>2022-02-19T12:45:43Z</time>
      </trkpt>
      <trkpt lat="46.37004" lon="5.29821">
        <ele>232</ele>
        <time>2022-02-19T12:45:44Z</time>
      </trkpt>
      <trkpt lat="46.36973" lon="5.29819">
        <ele>231.6</ele>
        <time>2022-02-19T12:45:48Z</time>
      </trkpt>
      <trkpt lat="46.36942" lon="5.29812">
        <ele>232.2</ele>
        <time>2022-02-19T12:45:53Z</time>
      </trkpt>
      <trkpt lat="46.36914" lon="5.29815">
        <ele>233.2</ele>
        <time>2022-02-19T12:45:58Z</time>
      </trkpt>
      <trkpt lat="46.3691" lon="5.29816">
        <ele>233.8</ele>
        <time>2022-02-19T12:45:59Z</time>
      </trkpt>
      <trkpt lat="46.36899" lon="5.2982">
        <ele>234.4</ele>
        <time>2022-02-19T12:46:01Z</time>
      </trkpt>
      <trkpt lat="46.36875" lon="5.29828">
        <ele>235.6</ele>
        <time>2022-02-19T12:46:06Z</time>
      </trkpt>
      <trkpt lat="46.3687" lon="5.29829">
        <ele>236.2</ele>
        <time>2022-02-19T12:46:07Z</time>
      </trkpt>
      <trkpt lat="46.36856" lon="5.29834">
        <ele>236.8</ele>
        <time>2022-02-19T12:46:10Z</time>
      </trkpt>
      <trkpt lat="46.36831" lon="5.29842">
        <ele>237.8</ele>
        <time>2022-02-19T12:46:15Z</time>
      </trkpt>
      <trkpt lat="46.36824" lon="5.29844">
        <ele>238.2</ele>
        <time>2022-02-19T12:46:16Z</time>
      </trkpt>
      <trkpt lat="46.36808" lon="5.29845">
        <ele>238.4</ele>
        <time>2022-02-19T12:46:19Z</time>
      </trkpt>
      <trkpt lat="46.36794" lon="5.29842">
        <ele>238.4</ele>
        <time>2022-02-19T12:46:21Z</time>
      </trkpt>
      <trkpt lat="46.36761" lon="5.29824">
        <ele>238.4</ele>
        <time>2022-02-19T12:46:26Z</time>
      </trkpt>
      <trkpt lat="46.36714" lon="5.29787">
        <ele>237.4</ele>
        <time>2022-02-19T12:46:33Z</time>
      </trkpt>
      <trkpt lat="46.36668" lon="5.29754">
        <ele>236.8</ele>
        <time>2022-02-19T12:46:40Z</time>
      </trkpt>
      <trkpt lat="46.36662" lon="5.29751">
        <ele>236.8</ele>
        <time>2022-02-19T12:46:41Z</time>
      </trkpt>
      <trkpt lat="46.3661" lon="5.29724">
        <ele>237</ele>
        <time>2022-02-19T12:46:49Z</time>
      </trkpt>
      <trkpt lat="46.36602" lon="5.2972">
        <ele>237</ele>
        <time>2022-02-19T12:46:50Z</time>
      </trkpt>
      <trkpt lat="46.36561" lon="5.29701">
        <ele>237.6</ele>
        <time>2022-02-19T12:46:57Z</time>
      </trkpt>
      <trkpt lat="46.36531" lon="5.29688">
        <ele>238</ele>
        <time>2022-02-19T12:47:02Z</time>
      </trkpt>
      <trkpt lat="46.36512" lon="5.29681">
        <ele>238.2</ele>
        <time>2022-02-19T12:47:05Z</time>
      </trkpt>
      <trkpt lat="46.36461" lon="5.29656">
        <ele>238</ele>
        <time>2022-02-19T12:47:13Z</time>
      </trkpt>
      <trkpt lat="46.36422" lon="5.29628">
        <ele>238.2</ele>
        <time>2022-02-19T12:47:20Z</time>
      </trkpt>
      <trkpt lat="46.3638" lon="5.29589">
        <ele>238.8</ele>
        <time>2022-02-19T12:47:28Z</time>
      </trkpt>
      <trkpt lat="46.36369" lon="5.2957">
        <ele>239.2</ele>
        <time>2022-02-19T12:47:31Z</time>
      </trkpt>
      <trkpt lat="46.36358" lon="5.29548">
        <ele>239.4</ele>
        <time>2022-02-19T12:47:34Z</time>
      </trkpt>
      <trkpt lat="46.36338" lon="5.29516">
        <ele>239.6</ele>
        <time>2022-02-19T12:47:39Z</time>
      </trkpt>
      <trkpt lat="46.36332" lon="5.2951">
        <ele>239.6</ele>
        <time>2022-02-19T12:47:40Z</time>
      </trkpt>
      <trkpt lat="46.36327" lon="5.29505">
        <ele>239.6</ele>
        <time>2022-02-19T12:47:41Z</time>
      </trkpt>
      <trkpt lat="46.36308" lon="5.2949">
        <ele>239.4</ele>
        <time>2022-02-19T12:47:44Z</time>
      </trkpt>
      <trkpt lat="46.36301" lon="5.29484">
        <ele>239.2</ele>
        <time>2022-02-19T12:47:45Z</time>
      </trkpt>
      <trkpt lat="46.36287" lon="5.29476">
        <ele>238.6</ele>
        <time>2022-02-19T12:47:47Z</time>
      </trkpt>
      <trkpt lat="46.36279" lon="5.29473">
        <ele>238.4</ele>
        <time>2022-02-19T12:47:48Z</time>
      </trkpt>
      <trkpt lat="46.36262" lon="5.29468">
        <ele>237.8</ele>
        <time>2022-02-19T12:47:50Z</time>
      </trkpt>
      <trkpt lat="46.36246" lon="5.29466">
        <ele>237.2</ele>
        <time>2022-02-19T12:47:52Z</time>
      </trkpt>
      <trkpt lat="46.36236" lon="5.29468">
        <ele>237</ele>
        <time>2022-02-19T12:47:53Z</time>
      </trkpt>
      <trkpt lat="46.36228" lon="5.29471">
        <ele>236.4</ele>
        <time>2022-02-19T12:47:54Z</time>
      </trkpt>
      <trkpt lat="46.36213" lon="5.2948">
        <ele>236.2</ele>
        <time>2022-02-19T12:47:56Z</time>
      </trkpt>
      <trkpt lat="46.36208" lon="5.29486">
        <ele>236.2</ele>
        <time>2022-02-19T12:47:57Z</time>
      </trkpt>
      <trkpt lat="46.36176" lon="5.29515">
        <ele>236.6</ele>
        <time>2022-02-19T12:48:02Z</time>
      </trkpt>
      <trkpt lat="46.36154" lon="5.29525">
        <ele>237.6</ele>
        <time>2022-02-19T12:48:05Z</time>
      </trkpt>
      <trkpt lat="46.36146" lon="5.29527">
        <ele>238</ele>
        <time>2022-02-19T12:48:06Z</time>
      </trkpt>
      <trkpt lat="46.36094" lon="5.29535">
        <ele>238</ele>
        <time>2022-02-19T12:48:12Z</time>
      </trkpt>
      <trkpt lat="46.36034" lon="5.29542">
        <ele>237</ele>
        <time>2022-02-19T12:48:19Z</time>
      </trkpt>
      <trkpt lat="46.35976" lon="5.2955">
        <ele>236.8</ele>
        <time>2022-02-19T12:48:26Z</time>
      </trkpt>
      <trkpt lat="46.35922" lon="5.29555">
        <ele>237</ele>
        <time>2022-02-19T12:48:33Z</time>
      </trkpt>
      <trkpt lat="46.35907" lon="5.29555">
        <ele>237</ele>
        <time>2022-02-19T12:48:35Z</time>
      </trkpt>
      <trkpt lat="46.35874" lon="5.29548">
        <ele>237.4</ele>
        <time>2022-02-19T12:48:40Z</time>
      </trkpt>
      <trkpt lat="46.35843" lon="5.29544">
        <ele>238.8</ele>
        <time>2022-02-19T12:48:45Z</time>
      </trkpt>
      <trkpt lat="46.35831" lon="5.29543">
        <ele>239.2</ele>
        <time>2022-02-19T12:48:47Z</time>
      </trkpt>
      <trkpt lat="46.35812" lon="5.29542">
        <ele>239.8</ele>
        <time>2022-02-19T12:48:50Z</time>
      </trkpt>
      <trkpt lat="46.35785" lon="5.29542">
        <ele>240.4</ele>
        <time>2022-02-19T12:48:54Z</time>
      </trkpt>
      <trkpt lat="46.35767" lon="5.29541">
        <ele>240.8</ele>
        <time>2022-02-19T12:48:57Z</time>
      </trkpt>
      <trkpt lat="46.35736" lon="5.29542">
        <ele>241.8</ele>
        <time>2022-02-19T12:49:02Z</time>
      </trkpt>
      <trkpt lat="46.3573" lon="5.29542">
        <ele>242</ele>
        <time>2022-02-19T12:49:03Z</time>
      </trkpt>
      <trkpt lat="46.35724" lon="5.29543">
        <ele>242</ele>
        <time>2022-02-19T12:49:04Z</time>
      </trkpt>
      <trkpt lat="46.35706" lon="5.29549">
        <ele>242.6</ele>
        <time>2022-02-19T12:49:07Z</time>
      </trkpt>
      <trkpt lat="46.35692" lon="5.29561">
        <ele>243</ele>
        <time>2022-02-19T12:49:10Z</time>
      </trkpt>
      <trkpt lat="46.35687" lon="5.29566">
        <ele>243</ele>
        <time>2022-02-19T12:49:11Z</time>
      </trkpt>
      <trkpt lat="46.3565" lon="5.29598">
        <ele>243.2</ele>
        <time>2022-02-19T12:49:18Z</time>
      </trkpt>
      <trkpt lat="46.35595" lon="5.29626">
        <ele>243.4</ele>
        <time>2022-02-19T12:49:27Z</time>
      </trkpt>
      <trkpt lat="46.35589" lon="5.29629">
        <ele>243.4</ele>
        <time>2022-02-19T12:49:28Z</time>
      </trkpt>
      <trkpt lat="46.35546" lon="5.29644">
        <ele>243.6</ele>
        <time>2022-02-19T12:49:35Z</time>
      </trkpt>
      <trkpt lat="46.35505" lon="5.29651">
        <ele>243.4</ele>
        <time>2022-02-19T12:49:41Z</time>
      </trkpt>
      <trkpt lat="46.35499" lon="5.29655">
        <ele>243.4</ele>
        <time>2022-02-19T12:49:42Z</time>
      </trkpt>
      <trkpt lat="46.35493" lon="5.29661">
        <ele>243.2</ele>
        <time>2022-02-19T12:49:43Z</time>
      </trkpt>
      <trkpt lat="46.35484" lon="5.29676">
        <ele>242.8</ele>
        <time>2022-02-19T12:49:45Z</time>
      </trkpt>
      <trkpt lat="46.35475" lon="5.29691">
        <ele>242.6</ele>
        <time>2022-02-19T12:49:47Z</time>
      </trkpt>
      <trkpt lat="46.3547" lon="5.29694">
        <ele>242.6</ele>
        <time>2022-02-19T12:49:48Z</time>
      </trkpt>
      <trkpt lat="46.35464" lon="5.29695">
        <ele>242.6</ele>
        <time>2022-02-19T12:49:49Z</time>
      </trkpt>
      <trkpt lat="46.35451" lon="5.29692">
        <ele>242.4</ele>
        <time>2022-02-19T12:49:51Z</time>
      </trkpt>
      <trkpt lat="46.35412" lon="5.2968">
        <ele>242.8</ele>
        <time>2022-02-19T12:49:57Z</time>
      </trkpt>
      <trkpt lat="46.35359" lon="5.29662">
        <ele>243.4</ele>
        <time>2022-02-19T12:50:05Z</time>
      </trkpt>
      <trkpt lat="46.35352" lon="5.2966">
        <ele>243.4</ele>
        <time>2022-02-19T12:50:06Z</time>
      </trkpt>
      <trkpt lat="46.35299" lon="5.29646">
        <ele>243.8</ele>
        <time>2022-02-19T12:50:14Z</time>
      </trkpt>
      <trkpt lat="46.35286" lon="5.29644">
        <ele>243.8</ele>
        <time>2022-02-19T12:50:16Z</time>
      </trkpt>
      <trkpt lat="46.3523" lon="5.29643">
        <ele>243.4</ele>
        <time>2022-02-19T12:50:24Z</time>
      </trkpt>
      <trkpt lat="46.35215" lon="5.29645">
        <ele>243.4</ele>
        <time>2022-02-19T12:50:26Z</time>
      </trkpt>
      <trkpt lat="46.35153" lon="5.29656">
        <ele>242.8</ele>
        <time>2022-02-19T12:50:34Z</time>
      </trkpt>
      <trkpt lat="46.35125" lon="5.29659">
        <ele>242</ele>
        <time>2022-02-19T12:50:37Z</time>
      </trkpt>
      <trkpt lat="46.35081" lon="5.29661">
        <ele>241</ele>
        <time>2022-02-19T12:50:42Z</time>
      </trkpt>
      <trkpt lat="46.35057" lon="5.29654">
        <ele>240.4</ele>
        <time>2022-02-19T12:50:45Z</time>
      </trkpt>
      <trkpt lat="46.3505" lon="5.2965">
        <ele>240.4</ele>
        <time>2022-02-19T12:50:46Z</time>
      </trkpt>
      <trkpt lat="46.35024" lon="5.29637">
        <ele>240.4</ele>
        <time>2022-02-19T12:50:50Z</time>
      </trkpt>
      <trkpt lat="46.35017" lon="5.29636">
        <ele>240.4</ele>
        <time>2022-02-19T12:50:51Z</time>
      </trkpt>
      <trkpt lat="46.34982" lon="5.29632">
        <ele>242</ele>
        <time>2022-02-19T12:50:57Z</time>
      </trkpt>
      <trkpt lat="46.34975" lon="5.29633">
        <ele>242.2</ele>
        <time>2022-02-19T12:50:58Z</time>
      </trkpt>
      <trkpt lat="46.34963" lon="5.29639">
        <ele>242.6</ele>
        <time>2022-02-19T12:51:00Z</time>
      </trkpt>
      <trkpt lat="46.34958" lon="5.29644">
        <ele>242.6</ele>
        <time>2022-02-19T12:51:01Z</time>
      </trkpt>
      <trkpt lat="46.3494" lon="5.2966">
        <ele>242.8</ele>
        <time>2022-02-19T12:51:04Z</time>
      </trkpt>
      <trkpt lat="46.34933" lon="5.29664">
        <ele>242.8</ele>
        <time>2022-02-19T12:51:05Z</time>
      </trkpt>
      <trkpt lat="46.34928" lon="5.29665">
        <ele>242.8</ele>
        <time>2022-02-19T12:51:06Z</time>
      </trkpt>
      <trkpt lat="46.34912" lon="5.29661">
        <ele>242.8</ele>
        <time>2022-02-19T12:51:08Z</time>
      </trkpt>
      <trkpt lat="46.34869" lon="5.29632">
        <ele>243</ele>
        <time>2022-02-19T12:51:15Z</time>
      </trkpt>
      <trkpt lat="46.34863" lon="5.29628">
        <ele>243</ele>
        <time>2022-02-19T12:51:16Z</time>
      </trkpt>
      <trkpt lat="46.34828" lon="5.29615">
        <ele>243.4</ele>
        <time>2022-02-19T12:51:21Z</time>
      </trkpt>
      <trkpt lat="46.34791" lon="5.29615">
        <ele>243.6</ele>
        <time>2022-02-19T12:51:26Z</time>
      </trkpt>
      <trkpt lat="46.34747" lon="5.29623">
        <ele>243.2</ele>
        <time>2022-02-19T12:51:32Z</time>
      </trkpt>
      <trkpt lat="46.3474" lon="5.29627">
        <ele>243.2</ele>
        <time>2022-02-19T12:51:33Z</time>
      </trkpt>
      <trkpt lat="46.34719" lon="5.29641">
        <ele>242.8</ele>
        <time>2022-02-19T12:51:36Z</time>
      </trkpt>
      <trkpt lat="46.34703" lon="5.29644">
        <ele>242.6</ele>
        <time>2022-02-19T12:51:38Z</time>
      </trkpt>
      <trkpt lat="46.34671" lon="5.29637">
        <ele>242.2</ele>
        <time>2022-02-19T12:51:42Z</time>
      </trkpt>
      <trkpt lat="46.34663" lon="5.29637">
        <ele>242</ele>
        <time>2022-02-19T12:51:43Z</time>
      </trkpt>
      <trkpt lat="46.34616" lon="5.29627">
        <ele>241.4</ele>
        <time>2022-02-19T12:51:49Z</time>
      </trkpt>
      <trkpt lat="46.34608" lon="5.29625">
        <ele>241</ele>
        <time>2022-02-19T12:51:50Z</time>
      </trkpt>
      <trkpt lat="46.34554" lon="5.29616">
        <ele>240.4</ele>
        <time>2022-02-19T12:51:57Z</time>
      </trkpt>
      <trkpt lat="46.34546" lon="5.29614">
        <ele>240.2</ele>
        <time>2022-02-19T12:51:58Z</time>
      </trkpt>
      <trkpt lat="46.34488" lon="5.29603">
        <ele>240</ele>
        <time>2022-02-19T12:52:06Z</time>
      </trkpt>
      <trkpt lat="46.34481" lon="5.29601">
        <ele>240.2</ele>
        <time>2022-02-19T12:52:07Z</time>
      </trkpt>
      <trkpt lat="46.34468" lon="5.29596">
        <ele>240.2</ele>
        <time>2022-02-19T12:52:09Z</time>
      </trkpt>
      <trkpt lat="46.34458" lon="5.29583">
        <ele>240.2</ele>
        <time>2022-02-19T12:52:11Z</time>
      </trkpt>
      <trkpt lat="46.34455" lon="5.29565">
        <ele>240.4</ele>
        <time>2022-02-19T12:52:13Z</time>
      </trkpt>
      <trkpt lat="46.34455" lon="5.29557">
        <ele>240.6</ele>
        <time>2022-02-19T12:52:14Z</time>
      </trkpt>
      <trkpt lat="46.34464" lon="5.29508">
        <ele>241.4</ele>
        <time>2022-02-19T12:52:20Z</time>
      </trkpt>
      <trkpt lat="46.3447" lon="5.29476">
        <ele>242.4</ele>
        <time>2022-02-19T12:52:24Z</time>
      </trkpt>
      <trkpt lat="46.34467" lon="5.29459">
        <ele>242.8</ele>
        <time>2022-02-19T12:52:26Z</time>
      </trkpt>
      <trkpt lat="46.34461" lon="5.29446">
        <ele>243</ele>
        <time>2022-02-19T12:52:28Z</time>
      </trkpt>
      <trkpt lat="46.34453" lon="5.29435">
        <ele>243.4</ele>
        <time>2022-02-19T12:52:30Z</time>
      </trkpt>
      <trkpt lat="46.34449" lon="5.29429">
        <ele>243.6</ele>
        <time>2022-02-19T12:52:31Z</time>
      </trkpt>
      <trkpt lat="46.34441" lon="5.29417">
        <ele>243.8</ele>
        <time>2022-02-19T12:52:33Z</time>
      </trkpt>
      <trkpt lat="46.3443" lon="5.29396">
        <ele>244.2</ele>
        <time>2022-02-19T12:52:36Z</time>
      </trkpt>
      <trkpt lat="46.34415" lon="5.29367">
        <ele>244.4</ele>
        <time>2022-02-19T12:52:40Z</time>
      </trkpt>
      <trkpt lat="46.34406" lon="5.29355">
        <ele>244.4</ele>
        <time>2022-02-19T12:52:42Z</time>
      </trkpt>
      <trkpt lat="46.34394" lon="5.29346">
        <ele>244.4</ele>
        <time>2022-02-19T12:52:44Z</time>
      </trkpt>
      <trkpt lat="46.34379" lon="5.29341">
        <ele>244.4</ele>
        <time>2022-02-19T12:52:46Z</time>
      </trkpt>
      <trkpt lat="46.34344" lon="5.29324">
        <ele>244</ele>
        <time>2022-02-19T12:52:51Z</time>
      </trkpt>
      <trkpt lat="46.34303" lon="5.29299">
        <ele>243.4</ele>
        <time>2022-02-19T12:52:57Z</time>
      </trkpt>
      <trkpt lat="46.34245" lon="5.29282">
        <ele>242.8</ele>
        <time>2022-02-19T12:53:05Z</time>
      </trkpt>
      <trkpt lat="46.34209" lon="5.29268">
        <ele>242.4</ele>
        <time>2022-02-19T12:53:10Z</time>
      </trkpt>
      <trkpt lat="46.34195" lon="5.29262">
        <ele>242.4</ele>
        <time>2022-02-19T12:53:12Z</time>
      </trkpt>
      <trkpt lat="46.34187" lon="5.2926">
        <ele>242.2</ele>
        <time>2022-02-19T12:53:13Z</time>
      </trkpt>
      <trkpt lat="46.34171" lon="5.29262">
        <ele>242.2</ele>
        <time>2022-02-19T12:53:15Z</time>
      </trkpt>
      <trkpt lat="46.34116" lon="5.29272">
        <ele>241.4</ele>
        <time>2022-02-19T12:53:22Z</time>
      </trkpt>
      <trkpt lat="46.34102" lon="5.29282">
        <ele>241.2</ele>
        <time>2022-02-19T12:53:24Z</time>
      </trkpt>
      <trkpt lat="46.34096" lon="5.29289">
        <ele>241.2</ele>
        <time>2022-02-19T12:53:25Z</time>
      </trkpt>
      <trkpt lat="46.34091" lon="5.29298">
        <ele>241</ele>
        <time>2022-02-19T12:53:26Z</time>
      </trkpt>
      <trkpt lat="46.34078" lon="5.29326">
        <ele>240.8</ele>
        <time>2022-02-19T12:53:29Z</time>
      </trkpt>
      <trkpt lat="46.34069" lon="5.29344">
        <ele>240.8</ele>
        <time>2022-02-19T12:53:31Z</time>
      </trkpt>
      <trkpt lat="46.34058" lon="5.29358">
        <ele>240.8</ele>
        <time>2022-02-19T12:53:33Z</time>
      </trkpt>
      <trkpt lat="46.34044" lon="5.29367">
        <ele>240.8</ele>
        <time>2022-02-19T12:53:35Z</time>
      </trkpt>
      <trkpt lat="46.34031" lon="5.29373">
        <ele>241</ele>
        <time>2022-02-19T12:53:37Z</time>
      </trkpt>
      <trkpt lat="46.34019" lon="5.29377">
        <ele>241.4</ele>
        <time>2022-02-19T12:53:39Z</time>
      </trkpt>
      <trkpt lat="46.34002" lon="5.29388">
        <ele>241.8</ele>
        <time>2022-02-19T12:53:42Z</time>
      </trkpt>
      <trkpt lat="46.33974" lon="5.2942">
        <ele>242.6</ele>
        <time>2022-02-19T12:53:48Z</time>
      </trkpt>
      <trkpt lat="46.33964" lon="5.29442">
        <ele>243</ele>
        <time>2022-02-19T12:53:51Z</time>
      </trkpt>
      <trkpt lat="46.33958" lon="5.29465">
        <ele>243.2</ele>
        <time>2022-02-19T12:53:54Z</time>
      </trkpt>
      <trkpt lat="46.33954" lon="5.29481">
        <ele>243.8</ele>
        <time>2022-02-19T12:53:56Z</time>
      </trkpt>
      <trkpt lat="46.33951" lon="5.2949">
        <ele>244</ele>
        <time>2022-02-19T12:53:57Z</time>
      </trkpt>
      <trkpt lat="46.33944" lon="5.29505">
        <ele>244.2</ele>
        <time>2022-02-19T12:53:59Z</time>
      </trkpt>
      <trkpt lat="46.33939" lon="5.2951">
        <ele>244.4</ele>
        <time>2022-02-19T12:54:00Z</time>
      </trkpt>
      <trkpt lat="46.33933" lon="5.29512">
        <ele>244.4</ele>
        <time>2022-02-19T12:54:01Z</time>
      </trkpt>
      <trkpt lat="46.33912" lon="5.29516">
        <ele>244.6</ele>
        <time>2022-02-19T12:54:04Z</time>
      </trkpt>
      <trkpt lat="46.33863" lon="5.29516">
        <ele>244.6</ele>
        <time>2022-02-19T12:54:11Z</time>
      </trkpt>
      <trkpt lat="46.33815" lon="5.29515">
        <ele>244.4</ele>
        <time>2022-02-19T12:54:18Z</time>
      </trkpt>
      <trkpt lat="46.33796" lon="5.29508">
        <ele>244.4</ele>
        <time>2022-02-19T12:54:21Z</time>
      </trkpt>
      <trkpt lat="46.33785" lon="5.29501">
        <ele>244.4</ele>
        <time>2022-02-19T12:54:23Z</time>
      </trkpt>
      <trkpt lat="46.33753" lon="5.29474">
        <ele>244.8</ele>
        <time>2022-02-19T12:54:29Z</time>
      </trkpt>
      <trkpt lat="46.3372" lon="5.29433">
        <ele>244.8</ele>
        <time>2022-02-19T12:54:36Z</time>
      </trkpt>
      <trkpt lat="46.337" lon="5.29403">
        <ele>245</ele>
        <time>2022-02-19T12:54:41Z</time>
      </trkpt>
      <trkpt lat="46.33683" lon="5.2938">
        <ele>245.2</ele>
        <time>2022-02-19T12:54:45Z</time>
      </trkpt>
      <trkpt lat="46.33672" lon="5.29371">
        <ele>245.2</ele>
        <time>2022-02-19T12:54:47Z</time>
      </trkpt>
      <trkpt lat="46.3366" lon="5.29366">
        <ele>245.2</ele>
        <time>2022-02-19T12:54:49Z</time>
      </trkpt>
      <trkpt lat="46.33647" lon="5.29365">
        <ele>245.6</ele>
        <time>2022-02-19T12:54:51Z</time>
      </trkpt>
      <trkpt lat="46.33635" lon="5.29367">
        <ele>245.4</ele>
        <time>2022-02-19T12:54:53Z</time>
      </trkpt>
      <trkpt lat="46.3361" lon="5.29372">
        <ele>245.2</ele>
        <time>2022-02-19T12:54:57Z</time>
      </trkpt>
      <trkpt lat="46.33597" lon="5.29371">
        <ele>245.2</ele>
        <time>2022-02-19T12:54:59Z</time>
      </trkpt>
      <trkpt lat="46.33557" lon="5.29362">
        <ele>246.2</ele>
        <time>2022-02-19T12:55:06Z</time>
      </trkpt>
      <trkpt lat="46.33502" lon="5.29342">
        <ele>246.4</ele>
        <time>2022-02-19T12:55:15Z</time>
      </trkpt>
      <trkpt lat="46.33453" lon="5.29315">
        <ele>246.2</ele>
        <time>2022-02-19T12:55:23Z</time>
      </trkpt>
      <trkpt lat="46.3343" lon="5.29294">
        <ele>245.8</ele>
        <time>2022-02-19T12:55:27Z</time>
      </trkpt>
      <trkpt lat="46.33426" lon="5.29289">
        <ele>245.6</ele>
        <time>2022-02-19T12:55:28Z</time>
      </trkpt>
      <trkpt lat="46.33424" lon="5.29283">
        <ele>245.4</ele>
        <time>2022-02-19T12:55:29Z</time>
      </trkpt>
      <trkpt lat="46.33424" lon="5.2927">
        <ele>245</ele>
        <time>2022-02-19T12:55:31Z</time>
      </trkpt>
      <trkpt lat="46.33424" lon="5.29263">
        <ele>245</ele>
        <time>2022-02-19T12:55:32Z</time>
      </trkpt>
      <trkpt lat="46.33418" lon="5.29252">
        <ele>244.8</ele>
        <time>2022-02-19T12:55:34Z</time>
      </trkpt>
      <trkpt lat="46.33407" lon="5.29245">
        <ele>244.4</ele>
        <time>2022-02-19T12:55:36Z</time>
      </trkpt>
      <trkpt lat="46.33394" lon="5.2924">
        <ele>244.2</ele>
        <time>2022-02-19T12:55:38Z</time>
      </trkpt>
      <trkpt lat="46.33386" lon="5.29237">
        <ele>244</ele>
        <time>2022-02-19T12:55:39Z</time>
      </trkpt>
      <trkpt lat="46.3335" lon="5.29225">
        <ele>244</ele>
        <time>2022-02-19T12:55:44Z</time>
      </trkpt>
      <trkpt lat="46.33316" lon="5.29204">
        <ele>243.8</ele>
        <time>2022-02-19T12:55:49Z</time>
      </trkpt>
      <trkpt lat="46.33282" lon="5.29165">
        <ele>243.8</ele>
        <time>2022-02-19T12:55:55Z</time>
      </trkpt>
      <trkpt lat="46.33252" lon="5.29141">
        <ele>243.4</ele>
        <time>2022-02-19T12:56:00Z</time>
      </trkpt>
      <trkpt lat="46.33244" lon="5.29137">
        <ele>243.2</ele>
        <time>2022-02-19T12:56:01Z</time>
      </trkpt>
      <trkpt lat="46.33223" lon="5.29135">
        <ele>243.2</ele>
        <time>2022-02-19T12:56:04Z</time>
      </trkpt>
      <trkpt lat="46.33177" lon="5.29129">
        <ele>243.2</ele>
        <time>2022-02-19T12:56:11Z</time>
      </trkpt>
      <trkpt lat="46.33125" lon="5.29113">
        <ele>243.8</ele>
        <time>2022-02-19T12:56:20Z</time>
      </trkpt>
      <trkpt lat="46.33092" lon="5.29089">
        <ele>244.6</ele>
        <time>2022-02-19T12:56:26Z</time>
      </trkpt>
      <trkpt lat="46.33043" lon="5.29056">
        <ele>244.8</ele>
        <time>2022-02-19T12:56:34Z</time>
      </trkpt>
      <trkpt lat="46.32994" lon="5.29024">
        <ele>244.8</ele>
        <time>2022-02-19T12:56:42Z</time>
      </trkpt>
      <trkpt lat="46.32981" lon="5.29016">
        <ele>244.8</ele>
        <time>2022-02-19T12:56:44Z</time>
      </trkpt>
      <trkpt lat="46.32927" lon="5.28986">
        <ele>244.4</ele>
        <time>2022-02-19T12:56:52Z</time>
      </trkpt>
      <trkpt lat="46.32874" lon="5.28958">
        <ele>244.2</ele>
        <time>2022-02-19T12:57:00Z</time>
      </trkpt>
      <trkpt lat="46.32853" lon="5.28946">
        <ele>244</ele>
        <time>2022-02-19T12:57:03Z</time>
      </trkpt>
      <trkpt lat="46.32795" lon="5.28918">
        <ele>243.6</ele>
        <time>2022-02-19T12:57:11Z</time>
      </trkpt>
      <trkpt lat="46.32774" lon="5.28908">
        <ele>243.6</ele>
        <time>2022-02-19T12:57:14Z</time>
      </trkpt>
      <trkpt lat="46.32717" lon="5.28884">
        <ele>243.4</ele>
        <time>2022-02-19T12:57:22Z</time>
      </trkpt>
      <trkpt lat="46.3271" lon="5.28882">
        <ele>243.2</ele>
        <time>2022-02-19T12:57:23Z</time>
      </trkpt>
      <trkpt lat="46.32661" lon="5.28864">
        <ele>243.2</ele>
        <time>2022-02-19T12:57:30Z</time>
      </trkpt>
      <trkpt lat="46.32607" lon="5.2884">
        <ele>243.2</ele>
        <time>2022-02-19T12:57:38Z</time>
      </trkpt>
      <trkpt lat="46.32598" lon="5.28836">
        <ele>243</ele>
        <time>2022-02-19T12:57:39Z</time>
      </trkpt>
      <trkpt lat="46.32556" lon="5.28818">
        <ele>242.4</ele>
        <time>2022-02-19T12:57:45Z</time>
      </trkpt>
      <trkpt lat="46.32531" lon="5.28797">
        <ele>242.2</ele>
        <time>2022-02-19T12:57:49Z</time>
      </trkpt>
      <trkpt lat="46.325" lon="5.28758">
        <ele>242.2</ele>
        <time>2022-02-19T12:57:55Z</time>
      </trkpt>
      <trkpt lat="46.32453" lon="5.28709">
        <ele>242.6</ele>
        <time>2022-02-19T12:58:04Z</time>
      </trkpt>
      <trkpt lat="46.32442" lon="5.28697">
        <ele>242.6</ele>
        <time>2022-02-19T12:58:06Z</time>
      </trkpt>
      <trkpt lat="46.3241" lon="5.2865">
        <ele>242.8</ele>
        <time>2022-02-19T12:58:13Z</time>
      </trkpt>
      <trkpt lat="46.32396" lon="5.28629">
        <ele>242.8</ele>
        <time>2022-02-19T12:58:16Z</time>
      </trkpt>
      <trkpt lat="46.32379" lon="5.28612">
        <ele>242.8</ele>
        <time>2022-02-19T12:58:19Z</time>
      </trkpt>
      <trkpt lat="46.32331" lon="5.2858">
        <ele>243</ele>
        <time>2022-02-19T12:58:27Z</time>
      </trkpt>
      <trkpt lat="46.32295" lon="5.28552">
        <ele>243.4</ele>
        <time>2022-02-19T12:58:33Z</time>
      </trkpt>
      <trkpt lat="46.32289" lon="5.28546">
        <ele>243.4</ele>
        <time>2022-02-19T12:58:34Z</time>
      </trkpt>
      <trkpt lat="46.32249" lon="5.28519">
        <ele>243.2</ele>
        <time>2022-02-19T12:58:40Z</time>
      </trkpt>
      <trkpt lat="46.32211" lon="5.28514">
        <ele>242.8</ele>
        <time>2022-02-19T12:58:45Z</time>
      </trkpt>
      <trkpt lat="46.32188" lon="5.28512">
        <ele>242.6</ele>
        <time>2022-02-19T12:58:48Z</time>
      </trkpt>
      <trkpt lat="46.32165" lon="5.28506">
        <ele>242.6</ele>
        <time>2022-02-19T12:58:51Z</time>
      </trkpt>
      <trkpt lat="46.32107" lon="5.28479">
        <ele>242.4</ele>
        <time>2022-02-19T12:58:59Z</time>
      </trkpt>
      <trkpt lat="46.32099" lon="5.28476">
        <ele>242.4</ele>
        <time>2022-02-19T12:59:00Z</time>
      </trkpt>
      <trkpt lat="46.32083" lon="5.28472">
        <ele>242.2</ele>
        <time>2022-02-19T12:59:02Z</time>
      </trkpt>
      <trkpt lat="46.32053" lon="5.28464">
        <ele>241.8</ele>
        <time>2022-02-19T12:59:06Z</time>
      </trkpt>
      <trkpt lat="46.32038" lon="5.28457">
        <ele>241.4</ele>
        <time>2022-02-19T12:59:08Z</time>
      </trkpt>
      <trkpt lat="46.32031" lon="5.28453">
        <ele>241.2</ele>
        <time>2022-02-19T12:59:09Z</time>
      </trkpt>
      <trkpt lat="46.32025" lon="5.28448">
        <ele>241.2</ele>
        <time>2022-02-19T12:59:10Z</time>
      </trkpt>
      <trkpt lat="46.32" lon="5.28427">
        <ele>241</ele>
        <time>2022-02-19T12:59:14Z</time>
      </trkpt>
      <trkpt lat="46.31986" lon="5.28421">
        <ele>240.8</ele>
        <time>2022-02-19T12:59:16Z</time>
      </trkpt>
      <trkpt lat="46.31933" lon="5.28407">
        <ele>240.2</ele>
        <time>2022-02-19T12:59:23Z</time>
      </trkpt>
      <trkpt lat="46.31895" lon="5.28393">
        <ele>239</ele>
        <time>2022-02-19T12:59:28Z</time>
      </trkpt>
      <trkpt lat="46.31873" lon="5.28384">
        <ele>238.6</ele>
        <time>2022-02-19T12:59:31Z</time>
      </trkpt>
      <trkpt lat="46.31836" lon="5.28378">
        <ele>238.2</ele>
        <time>2022-02-19T12:59:36Z</time>
      </trkpt>
      <trkpt lat="46.31821" lon="5.28376">
        <ele>238</ele>
        <time>2022-02-19T12:59:38Z</time>
      </trkpt>
      <trkpt lat="46.31798" lon="5.28374">
        <ele>237.6</ele>
        <time>2022-02-19T12:59:41Z</time>
      </trkpt>
      <trkpt lat="46.3179" lon="5.28375">
        <ele>237.4</ele>
        <time>2022-02-19T12:59:42Z</time>
      </trkpt>
      <trkpt lat="46.31782" lon="5.28379">
        <ele>237.2</ele>
        <time>2022-02-19T12:59:43Z</time>
      </trkpt>
      <trkpt lat="46.31774" lon="5.28383">
        <ele>236.8</ele>
        <time>2022-02-19T12:59:44Z</time>
      </trkpt>
      <trkpt lat="46.31766" lon="5.28386">
        <ele>236.4</ele>
        <time>2022-02-19T12:59:45Z</time>
      </trkpt>
      <trkpt lat="46.31748" lon="5.28383">
        <ele>235.8</ele>
        <time>2022-02-19T12:59:47Z</time>
      </trkpt>
      <trkpt lat="46.31739" lon="5.2838">
        <ele>235.2</ele>
        <time>2022-02-19T12:59:48Z</time>
      </trkpt>
      <trkpt lat="46.3171" lon="5.2837">
        <ele>233.8</ele>
        <time>2022-02-19T12:59:51Z</time>
      </trkpt>
      <trkpt lat="46.317" lon="5.28367">
        <ele>233</ele>
        <time>2022-02-19T12:59:52Z</time>
      </trkpt>
      <trkpt lat="46.3169" lon="5.28363">
        <ele>232.2</ele>
        <time>2022-02-19T12:59:53Z</time>
      </trkpt>
      <trkpt lat="46.3167" lon="5.28354">
        <ele>230.6</ele>
        <time>2022-02-19T12:59:55Z</time>
      </trkpt>
      <trkpt lat="46.31649" lon="5.28345">
        <ele>229.2</ele>
        <time>2022-02-19T12:59:57Z</time>
      </trkpt>
      <trkpt lat="46.31639" lon="5.28341">
        <ele>229</ele>
        <time>2022-02-19T12:59:58Z</time>
      </trkpt>
      <trkpt lat="46.31619" lon="5.28332">
        <ele>228</ele>
        <time>2022-02-19T13:00:00Z</time>
      </trkpt>
      <trkpt lat="46.31599" lon="5.28325">
        <ele>226.6</ele>
        <time>2022-02-19T13:00:02Z</time>
      </trkpt>
      <trkpt lat="46.31577" lon="5.28318">
        <ele>225.4</ele>
        <time>2022-02-19T13:00:04Z</time>
      </trkpt>
      <trkpt lat="46.31545" lon="5.28306">
        <ele>224.4</ele>
        <time>2022-02-19T13:00:07Z</time>
      </trkpt>
      <trkpt lat="46.31524" lon="5.28296">
        <ele>223</ele>
        <time>2022-02-19T13:00:09Z</time>
      </trkpt>
      <trkpt lat="46.31514" lon="5.28291">
        <ele>222.6</ele>
        <time>2022-02-19T13:00:10Z</time>
      </trkpt>
      <trkpt lat="46.31503" lon="5.28285">
        <ele>221.8</ele>
        <time>2022-02-19T13:00:11Z</time>
      </trkpt>
      <trkpt lat="46.31484" lon="5.28275">
        <ele>220.6</ele>
        <time>2022-02-19T13:00:13Z</time>
      </trkpt>
      <trkpt lat="46.31445" lon="5.28261">
        <ele>219.8</ele>
        <time>2022-02-19T13:00:17Z</time>
      </trkpt>
      <trkpt lat="46.31435" lon="5.2826">
        <ele>219.6</ele>
        <time>2022-02-19T13:00:18Z</time>
      </trkpt>
      <trkpt lat="46.31417" lon="5.2826">
        <ele>219.4</ele>
        <time>2022-02-19T13:00:20Z</time>
      </trkpt>
      <trkpt lat="46.31408" lon="5.28261">
        <ele>219.4</ele>
        <time>2022-02-19T13:00:21Z</time>
      </trkpt>
      <trkpt lat="46.31367" lon="5.28268">
        <ele>219</ele>
        <time>2022-02-19T13:00:26Z</time>
      </trkpt>
      <trkpt lat="46.31359" lon="5.28272">
        <ele>219</ele>
        <time>2022-02-19T13:00:27Z</time>
      </trkpt>
      <trkpt lat="46.31352" lon="5.28275">
        <ele>219</ele>
        <time>2022-02-19T13:00:28Z</time>
      </trkpt>
      <trkpt lat="46.31339" lon="5.28275">
        <ele>219.2</ele>
        <time>2022-02-19T13:00:30Z</time>
      </trkpt>
      <trkpt lat="46.31324" lon="5.28257">
        <ele>219.2</ele>
        <time>2022-02-19T13:00:33Z</time>
      </trkpt>
      <trkpt lat="46.31312" lon="5.28251">
        <ele>218.8</ele>
        <time>2022-02-19T13:00:35Z</time>
      </trkpt>
      <trkpt lat="46.31305" lon="5.28251">
        <ele>218.8</ele>
        <time>2022-02-19T13:00:36Z</time>
      </trkpt>
      <trkpt lat="46.31264" lon="5.28256">
        <ele>219</ele>
        <time>2022-02-19T13:00:42Z</time>
      </trkpt>
      <trkpt lat="46.31209" lon="5.2826">
        <ele>219.2</ele>
        <time>2022-02-19T13:00:50Z</time>
      </trkpt>
      <trkpt lat="46.31159" lon="5.28264">
        <ele>220</ele>
        <time>2022-02-19T13:00:58Z</time>
      </trkpt>
      <trkpt lat="46.31125" lon="5.28267">
        <ele>220.8</ele>
        <time>2022-02-19T13:01:04Z</time>
      </trkpt>
      <trkpt lat="46.31109" lon="5.28269">
        <ele>221</ele>
        <time>2022-02-19T13:01:07Z</time>
      </trkpt>
      <trkpt lat="46.3109" lon="5.2827">
        <ele>221.8</ele>
        <time>2022-02-19T13:01:11Z</time>
      </trkpt>
      <trkpt lat="46.31066" lon="5.28273">
        <ele>222.6</ele>
        <time>2022-02-19T13:01:16Z</time>
      </trkpt>
      <trkpt lat="46.31061" lon="5.28274">
        <ele>223</ele>
        <time>2022-02-19T13:01:17Z</time>
      </trkpt>
      <trkpt lat="46.31039" lon="5.28275">
        <ele>224</ele>
        <time>2022-02-19T13:01:22Z</time>
      </trkpt>
      <trkpt lat="46.31027" lon="5.28276">
        <ele>224.6</ele>
        <time>2022-02-19T13:01:25Z</time>
      </trkpt>
      <trkpt lat="46.31019" lon="5.28277">
        <ele>225.2</ele>
        <time>2022-02-19T13:01:27Z</time>
      </trkpt>
      <trkpt lat="46.31006" lon="5.2828">
        <ele>226.4</ele>
        <time>2022-02-19T13:01:31Z</time>
      </trkpt>
      <trkpt lat="46.30993" lon="5.2828">
        <ele>227.6</ele>
        <time>2022-02-19T13:01:35Z</time>
      </trkpt>
      <trkpt lat="46.3099" lon="5.28279">
        <ele>228</ele>
        <time>2022-02-19T13:01:36Z</time>
      </trkpt>
      <trkpt lat="46.30983" lon="5.2828">
        <ele>228.8</ele>
        <time>2022-02-19T13:01:38Z</time>
      </trkpt>
      <trkpt lat="46.3097" lon="5.28278">
        <ele>230</ele>
        <time>2022-02-19T13:01:42Z</time>
      </trkpt>
      <trkpt lat="46.30957" lon="5.28277">
        <ele>231.2</ele>
        <time>2022-02-19T13:01:46Z</time>
      </trkpt>
      <trkpt lat="46.30947" lon="5.28275">
        <ele>232.4</ele>
        <time>2022-02-19T13:01:49Z</time>
      </trkpt>
      <trkpt lat="46.3093" lon="5.28271">
        <ele>233.4</ele>
        <time>2022-02-19T13:01:54Z</time>
      </trkpt>
      <trkpt lat="46.30914" lon="5.28269">
        <ele>234.8</ele>
        <time>2022-02-19T13:01:58Z</time>
      </trkpt>
      <trkpt lat="46.30911" lon="5.28268">
        <ele>235</ele>
        <time>2022-02-19T13:01:59Z</time>
      </trkpt>
      <trkpt lat="46.30891" lon="5.28265">
        <ele>236</ele>
        <time>2022-02-19T13:02:04Z</time>
      </trkpt>
      <trkpt lat="46.30887" lon="5.28264">
        <ele>236.4</ele>
        <time>2022-02-19T13:02:05Z</time>
      </trkpt>
      <trkpt lat="46.30874" lon="5.28262">
        <ele>237</ele>
        <time>2022-02-19T13:02:08Z</time>
      </trkpt>
      <trkpt lat="46.30861" lon="5.2826">
        <ele>237.4</ele>
        <time>2022-02-19T13:02:11Z</time>
      </trkpt>
      <trkpt lat="46.30839" lon="5.28257">
        <ele>238.2</ele>
        <time>2022-02-19T13:02:16Z</time>
      </trkpt>
      <trkpt lat="46.30817" lon="5.28254">
        <ele>239.4</ele>
        <time>2022-02-19T13:02:21Z</time>
      </trkpt>
      <trkpt lat="46.30782" lon="5.28249">
        <ele>240.4</ele>
        <time>2022-02-19T13:02:29Z</time>
      </trkpt>
      <trkpt lat="46.30751" lon="5.28244">
        <ele>241.4</ele>
        <time>2022-02-19T13:02:36Z</time>
      </trkpt>
      <trkpt lat="46.30737" lon="5.28241">
        <ele>241.8</ele>
        <time>2022-02-19T13:02:39Z</time>
      </trkpt>
      <trkpt lat="46.30713" lon="5.28237">
        <ele>242.4</ele>
        <time>2022-02-19T13:02:44Z</time>
      </trkpt>
      <trkpt lat="46.30687" lon="5.28232">
        <ele>243</ele>
        <time>2022-02-19T13:02:49Z</time>
      </trkpt>
      <trkpt lat="46.30646" lon="5.28225">
        <ele>243.4</ele>
        <time>2022-02-19T13:02:57Z</time>
      </trkpt>
      <trkpt lat="46.30641" lon="5.28225">
        <ele>243.6</ele>
        <time>2022-02-19T13:02:58Z</time>
      </trkpt>
      <trkpt lat="46.30591" lon="5.28226">
        <ele>244.4</ele>
        <time>2022-02-19T13:03:07Z</time>
      </trkpt>
      <trkpt lat="46.30585" lon="5.28227">
        <ele>244.6</ele>
        <time>2022-02-19T13:03:08Z</time>
      </trkpt>
      <trkpt lat="46.30545" lon="5.28237">
        <ele>245</ele>
        <time>2022-02-19T13:03:15Z</time>
      </trkpt>
      <trkpt lat="46.30493" lon="5.28257">
        <ele>245.2</ele>
        <time>2022-02-19T13:03:24Z</time>
      </trkpt>
      <trkpt lat="46.30445" lon="5.28269">
        <ele>245.4</ele>
        <time>2022-02-19T13:03:32Z</time>
      </trkpt>
      <trkpt lat="46.30408" lon="5.28269">
        <ele>245.8</ele>
        <time>2022-02-19T13:03:38Z</time>
      </trkpt>
      <trkpt lat="46.30385" lon="5.28267">
        <ele>245.8</ele>
        <time>2022-02-19T13:03:42Z</time>
      </trkpt>
      <trkpt lat="46.30379" lon="5.28266">
        <ele>246</ele>
        <time>2022-02-19T13:03:43Z</time>
      </trkpt>
      <trkpt lat="46.30355" lon="5.28256">
        <ele>246</ele>
        <time>2022-02-19T13:03:47Z</time>
      </trkpt>
      <trkpt lat="46.30325" lon="5.2824">
        <ele>245</ele>
        <time>2022-02-19T13:03:52Z</time>
      </trkpt>
      <trkpt lat="46.30313" lon="5.28234">
        <ele>244.8</ele>
        <time>2022-02-19T13:03:54Z</time>
      </trkpt>
      <trkpt lat="46.30309" lon="5.28236">
        <ele>244.4</ele>
        <time>2022-02-19T13:03:55Z</time>
      </trkpt>
      <trkpt lat="46.30305" lon="5.2824">
        <ele>244.4</ele>
        <time>2022-02-19T13:03:56Z</time>
      </trkpt>
      <trkpt lat="46.30303" lon="5.28251">
        <ele>243.8</ele>
        <time>2022-02-19T13:03:57Z</time>
      </trkpt>
      <trkpt lat="46.30302" lon="5.28259">
        <ele>243.6</ele>
        <time>2022-02-19T13:03:58Z</time>
      </trkpt>
      <trkpt lat="46.30297" lon="5.28295">
        <ele>242.8</ele>
        <time>2022-02-19T13:04:01Z</time>
      </trkpt>
      <trkpt lat="46.30294" lon="5.28311">
        <ele>242</ele>
        <time>2022-02-19T13:04:02Z</time>
      </trkpt>
      <trkpt lat="46.30288" lon="5.28337">
        <ele>240.6</ele>
        <time>2022-02-19T13:04:04Z</time>
      </trkpt>
      <trkpt lat="46.30284" lon="5.28352">
        <ele>240.4</ele>
        <time>2022-02-19T13:04:05Z</time>
      </trkpt>
      <trkpt lat="46.30277" lon="5.28383">
        <ele>239</ele>
        <time>2022-02-19T13:04:07Z</time>
      </trkpt>
      <trkpt lat="46.30272" lon="5.28403">
        <ele>238</ele>
        <time>2022-02-19T13:04:08Z</time>
      </trkpt>
      <trkpt lat="46.30269" lon="5.28416">
        <ele>237</ele>
        <time>2022-02-19T13:04:09Z</time>
      </trkpt>
      <trkpt lat="46.3026" lon="5.28448">
        <ele>236</ele>
        <time>2022-02-19T13:04:11Z</time>
      </trkpt>
      <trkpt lat="46.30256" lon="5.28464">
        <ele>235.6</ele>
        <time>2022-02-19T13:04:12Z</time>
      </trkpt>
      <trkpt lat="46.30247" lon="5.28498">
        <ele>234.2</ele>
        <time>2022-02-19T13:04:14Z</time>
      </trkpt>
      <trkpt lat="46.30238" lon="5.28534">
        <ele>232.2</ele>
        <time>2022-02-19T13:04:16Z</time>
      </trkpt>
      <trkpt lat="46.30229" lon="5.28566">
        <ele>231.2</ele>
        <time>2022-02-19T13:04:18Z</time>
      </trkpt>
      <trkpt lat="46.30226" lon="5.28579">
        <ele>230.8</ele>
        <time>2022-02-19T13:04:19Z</time>
      </trkpt>
      <trkpt lat="46.30222" lon="5.28595">
        <ele>229.8</ele>
        <time>2022-02-19T13:04:20Z</time>
      </trkpt>
      <trkpt lat="46.30213" lon="5.2863">
        <ele>228.6</ele>
        <time>2022-02-19T13:04:22Z</time>
      </trkpt>
      <trkpt lat="46.30206" lon="5.28658">
        <ele>227.4</ele>
        <time>2022-02-19T13:04:24Z</time>
      </trkpt>
      <trkpt lat="46.30196" lon="5.28688">
        <ele>226.6</ele>
        <time>2022-02-19T13:04:26Z</time>
      </trkpt>
      <trkpt lat="46.30185" lon="5.2871">
        <ele>226.4</ele>
        <time>2022-02-19T13:04:28Z</time>
      </trkpt>
      <trkpt lat="46.3016" lon="5.28761">
        <ele>225.4</ele>
        <time>2022-02-19T13:04:32Z</time>
      </trkpt>
      <trkpt lat="46.3015" lon="5.28782">
        <ele>225</ele>
        <time>2022-02-19T13:04:34Z</time>
      </trkpt>
      <trkpt lat="46.30135" lon="5.2882">
        <ele>224.8</ele>
        <time>2022-02-19T13:04:37Z</time>
      </trkpt>
      <trkpt lat="46.30132" lon="5.28833">
        <ele>224.6</ele>
        <time>2022-02-19T13:04:38Z</time>
      </trkpt>
      <trkpt lat="46.30126" lon="5.2888">
        <ele>224.6</ele>
        <time>2022-02-19T13:04:42Z</time>
      </trkpt>
      <trkpt lat="46.30119" lon="5.28897">
        <ele>224.8</ele>
        <time>2022-02-19T13:04:44Z</time>
      </trkpt>
      <trkpt lat="46.30115" lon="5.28903">
        <ele>225.2</ele>
        <time>2022-02-19T13:04:45Z</time>
      </trkpt>
      <trkpt lat="46.30103" lon="5.2892">
        <ele>226.2</ele>
        <time>2022-02-19T13:04:48Z</time>
      </trkpt>
      <trkpt lat="46.30093" lon="5.28929">
        <ele>226.8</ele>
        <time>2022-02-19T13:04:50Z</time>
      </trkpt>
      <trkpt lat="46.30079" lon="5.28938">
        <ele>227.2</ele>
        <time>2022-02-19T13:04:53Z</time>
      </trkpt>
      <trkpt lat="46.30075" lon="5.2894">
        <ele>227.6</ele>
        <time>2022-02-19T13:04:54Z</time>
      </trkpt>
      <trkpt lat="46.30067" lon="5.28943">
        <ele>228.2</ele>
        <time>2022-02-19T13:04:56Z</time>
      </trkpt>
      <trkpt lat="46.30063" lon="5.28945">
        <ele>228.8</ele>
        <time>2022-02-19T13:04:57Z</time>
      </trkpt>
      <trkpt lat="46.3005" lon="5.28949">
        <ele>229.8</ele>
        <time>2022-02-19T13:05:00Z</time>
      </trkpt>
      <trkpt lat="46.30035" lon="5.28953">
        <ele>230.8</ele>
        <time>2022-02-19T13:05:04Z</time>
      </trkpt>
      <trkpt lat="46.3003" lon="5.28955">
        <ele>231</ele>
        <time>2022-02-19T13:05:05Z</time>
      </trkpt>
      <trkpt lat="46.30011" lon="5.28959">
        <ele>232</ele>
        <time>2022-02-19T13:05:10Z</time>
      </trkpt>
      <trkpt lat="46.29995" lon="5.28971">
        <ele>233</ele>
        <time>2022-02-19T13:05:15Z</time>
      </trkpt>
      <trkpt lat="46.29994" lon="5.28993">
        <ele>233.6</ele>
        <time>2022-02-19T13:05:19Z</time>
      </trkpt>
      <trkpt lat="46.29992" lon="5.29004">
        <ele>234.2</ele>
        <time>2022-02-19T13:05:21Z</time>
      </trkpt>
      <trkpt lat="46.29989" lon="5.29009">
        <ele>234.4</ele>
        <time>2022-02-19T13:05:22Z</time>
      </trkpt>
      <trkpt lat="46.29985" lon="5.29012">
        <ele>234.4</ele>
        <time>2022-02-19T13:05:23Z</time>
      </trkpt>
      <trkpt lat="46.29971" lon="5.29019">
        <ele>234.8</ele>
        <time>2022-02-19T13:05:26Z</time>
      </trkpt>
      <trkpt lat="46.2995" lon="5.2903">
        <ele>235.2</ele>
        <time>2022-02-19T13:05:31Z</time>
      </trkpt>
      <trkpt lat="46.29937" lon="5.29037">
        <ele>235.6</ele>
        <time>2022-02-19T13:05:34Z</time>
      </trkpt>
      <trkpt lat="46.29919" lon="5.29049">
        <ele>236.4</ele>
        <time>2022-02-19T13:05:38Z</time>
      </trkpt>
      <trkpt lat="46.29901" lon="5.29061">
        <ele>237</ele>
        <time>2022-02-19T13:05:42Z</time>
      </trkpt>
      <trkpt lat="46.29884" lon="5.29072">
        <ele>237.4</ele>
        <time>2022-02-19T13:05:46Z</time>
      </trkpt>
      <trkpt lat="46.2986" lon="5.29092">
        <ele>238</ele>
        <time>2022-02-19T13:05:52Z</time>
      </trkpt>
      <trkpt lat="46.29853" lon="5.29101">
        <ele>238.4</ele>
        <time>2022-02-19T13:05:54Z</time>
      </trkpt>
      <trkpt lat="46.29832" lon="5.29128">
        <ele>239</ele>
        <time>2022-02-19T13:06:00Z</time>
      </trkpt>
      <trkpt lat="46.29816" lon="5.29145">
        <ele>239.4</ele>
        <time>2022-02-19T13:06:04Z</time>
      </trkpt>
      <trkpt lat="46.29803" lon="5.29158">
        <ele>239.8</ele>
        <time>2022-02-19T13:06:07Z</time>
      </trkpt>
      <trkpt lat="46.29782" lon="5.29181">
        <ele>240.4</ele>
        <time>2022-02-19T13:06:12Z</time>
      </trkpt>
      <trkpt lat="46.29775" lon="5.29192">
        <ele>240.6</ele>
        <time>2022-02-19T13:06:14Z</time>
      </trkpt>
      <trkpt lat="46.29772" lon="5.29198">
        <ele>240.6</ele>
        <time>2022-02-19T13:06:15Z</time>
      </trkpt>
      <trkpt lat="46.2977" lon="5.29205">
        <ele>240.8</ele>
        <time>2022-02-19T13:06:16Z</time>
      </trkpt>
      <trkpt lat="46.29762" lon="5.29231">
        <ele>241</ele>
        <time>2022-02-19T13:06:20Z</time>
      </trkpt>
      <trkpt lat="46.29756" lon="5.29256">
        <ele>241.8</ele>
        <time>2022-02-19T13:06:24Z</time>
      </trkpt>
      <trkpt lat="46.29748" lon="5.29287">
        <ele>242.4</ele>
        <time>2022-02-19T13:06:29Z</time>
      </trkpt>
      <trkpt lat="46.29743" lon="5.29305">
        <ele>242.8</ele>
        <time>2022-02-19T13:06:32Z</time>
      </trkpt>
      <trkpt lat="46.29734" lon="5.29334">
        <ele>243.8</ele>
        <time>2022-02-19T13:06:37Z</time>
      </trkpt>
      <trkpt lat="46.29731" lon="5.29346">
        <ele>244.4</ele>
        <time>2022-02-19T13:06:39Z</time>
      </trkpt>
      <trkpt lat="46.29726" lon="5.29366">
        <ele>245</ele>
        <time>2022-02-19T13:06:42Z</time>
      </trkpt>
      <trkpt lat="46.29725" lon="5.29372">
        <ele>245.2</ele>
        <time>2022-02-19T13:06:43Z</time>
      </trkpt>
      <trkpt lat="46.29716" lon="5.29395">
        <ele>246.2</ele>
        <time>2022-02-19T13:06:47Z</time>
      </trkpt>
      <trkpt lat="46.29704" lon="5.29419">
        <ele>247</ele>
        <time>2022-02-19T13:06:51Z</time>
      </trkpt>
      <trkpt lat="46.29694" lon="5.29437">
        <ele>247.4</ele>
        <time>2022-02-19T13:06:54Z</time>
      </trkpt>
      <trkpt lat="46.29665" lon="5.29482">
        <ele>247.8</ele>
        <time>2022-02-19T13:07:02Z</time>
      </trkpt>
      <trkpt lat="46.29661" lon="5.29488">
        <ele>247.8</ele>
        <time>2022-02-19T13:07:03Z</time>
      </trkpt>
      <trkpt lat="46.29645" lon="5.29512">
        <ele>248.2</ele>
        <time>2022-02-19T13:07:07Z</time>
      </trkpt>
      <trkpt lat="46.29632" lon="5.29536">
        <ele>248.4</ele>
        <time>2022-02-19T13:07:11Z</time>
      </trkpt>
      <trkpt lat="46.29617" lon="5.29568">
        <ele>249.2</ele>
        <time>2022-02-19T13:07:16Z</time>
      </trkpt>
      <trkpt lat="46.29609" lon="5.29588">
        <ele>249.8</ele>
        <time>2022-02-19T13:07:19Z</time>
      </trkpt>
      <trkpt lat="46.29592" lon="5.29655">
        <ele>250</ele>
        <time>2022-02-19T13:07:27Z</time>
      </trkpt>
      <trkpt lat="46.29574" lon="5.29732">
        <ele>250</ele>
        <time>2022-02-19T13:07:36Z</time>
      </trkpt>
      <trkpt lat="46.29557" lon="5.2981">
        <ele>250.2</ele>
        <time>2022-02-19T13:07:45Z</time>
      </trkpt>
      <trkpt lat="46.29553" lon="5.29827">
        <ele>250.2</ele>
        <time>2022-02-19T13:07:47Z</time>
      </trkpt>
      <trkpt lat="46.29547" lon="5.29853">
        <ele>250.4</ele>
        <time>2022-02-19T13:07:50Z</time>
      </trkpt>
      <trkpt lat="46.29529" lon="5.2993">
        <ele>250.8</ele>
        <time>2022-02-19T13:07:59Z</time>
      </trkpt>
      <trkpt lat="46.29522" lon="5.29955">
        <ele>251</ele>
        <time>2022-02-19T13:08:02Z</time>
      </trkpt>
      <trkpt lat="46.29515" lon="5.2997">
        <ele>251.2</ele>
        <time>2022-02-19T13:08:04Z</time>
      </trkpt>
      <trkpt lat="46.29511" lon="5.29975">
        <ele>251.2</ele>
        <time>2022-02-19T13:08:05Z</time>
      </trkpt>
      <trkpt lat="46.29506" lon="5.29977">
        <ele>251.4</ele>
        <time>2022-02-19T13:08:06Z</time>
      </trkpt>
      <trkpt lat="46.29501" lon="5.29977">
        <ele>251.4</ele>
        <time>2022-02-19T13:08:07Z</time>
      </trkpt>
      <trkpt lat="46.29495" lon="5.29975">
        <ele>251.4</ele>
        <time>2022-02-19T13:08:08Z</time>
      </trkpt>
      <trkpt lat="46.29469" lon="5.29964">
        <ele>251.6</ele>
        <time>2022-02-19T13:08:12Z</time>
      </trkpt>
      <trkpt lat="46.29446" lon="5.29951">
        <ele>251.8</ele>
        <time>2022-02-19T13:08:17Z</time>
      </trkpt>
      <trkpt lat="46.29443" lon="5.2995">
        <ele>251.8</ele>
        <time>2022-02-19T13:08:18Z</time>
      </trkpt>
      <trkpt lat="46.29437" lon="5.29957">
        <ele>251.8</ele>
        <time>2022-02-19T13:08:20Z</time>
      </trkpt>
      <trkpt lat="46.29433" lon="5.29962">
        <ele>251.8</ele>
        <time>2022-02-19T13:08:21Z</time>
      </trkpt>
      <trkpt lat="46.29417" lon="5.29978">
        <ele>251.6</ele>
        <time>2022-02-19T13:08:24Z</time>
      </trkpt>
      <trkpt lat="46.29382" lon="5.30016">
        <ele>251.4</ele>
        <time>2022-02-19T13:08:31Z</time>
      </trkpt>
      <trkpt lat="46.29353" lon="5.30046">
        <ele>251.4</ele>
        <time>2022-02-19T13:08:37Z</time>
      </trkpt>
      <trkpt lat="46.29321" lon="5.30081">
        <ele>252.4</ele>
        <time>2022-02-19T13:08:44Z</time>
      </trkpt>
      <trkpt lat="46.29317" lon="5.30086">
        <ele>252.6</ele>
        <time>2022-02-19T13:08:45Z</time>
      </trkpt>
      <trkpt lat="46.29293" lon="5.3011">
        <ele>252.8</ele>
        <time>2022-02-19T13:08:50Z</time>
      </trkpt>
      <trkpt lat="46.29255" lon="5.3015">
        <ele>253.6</ele>
        <time>2022-02-19T13:08:58Z</time>
      </trkpt>
      <trkpt lat="46.2925" lon="5.30155">
        <ele>253.6</ele>
        <time>2022-02-19T13:08:59Z</time>
      </trkpt>
      <trkpt lat="46.29207" lon="5.30201">
        <ele>254</ele>
        <time>2022-02-19T13:09:07Z</time>
      </trkpt>
      <trkpt lat="46.2916" lon="5.30252">
        <ele>254.4</ele>
        <time>2022-02-19T13:09:16Z</time>
      </trkpt>
      <trkpt lat="46.29149" lon="5.30263">
        <ele>254.6</ele>
        <time>2022-02-19T13:09:18Z</time>
      </trkpt>
      <trkpt lat="46.29117" lon="5.30297">
        <ele>254.8</ele>
        <time>2022-02-19T13:09:24Z</time>
      </trkpt>
      <trkpt lat="46.29096" lon="5.30321">
        <ele>254.8</ele>
        <time>2022-02-19T13:09:28Z</time>
      </trkpt>
      <trkpt lat="46.29062" lon="5.30353">
        <ele>254.8</ele>
        <time>2022-02-19T13:09:34Z</time>
      </trkpt>
      <trkpt lat="46.29036" lon="5.30374">
        <ele>254.8</ele>
        <time>2022-02-19T13:09:39Z</time>
      </trkpt>
      <trkpt lat="46.29023" lon="5.30378">
        <ele>254.6</ele>
        <time>2022-02-19T13:09:41Z</time>
      </trkpt>
      <trkpt lat="46.29003" lon="5.30382">
        <ele>254.6</ele>
        <time>2022-02-19T13:09:44Z</time>
      </trkpt>
      <trkpt lat="46.28991" lon="5.30386">
        <ele>254.8</ele>
        <time>2022-02-19T13:09:46Z</time>
      </trkpt>
      <trkpt lat="46.28973" lon="5.30391">
        <ele>255.4</ele>
        <time>2022-02-19T13:09:49Z</time>
      </trkpt>
      <trkpt lat="46.28943" lon="5.30398">
        <ele>255.8</ele>
        <time>2022-02-19T13:09:54Z</time>
      </trkpt>
      <trkpt lat="46.28932" lon="5.30401">
        <ele>256</ele>
        <time>2022-02-19T13:09:56Z</time>
      </trkpt>
      <trkpt lat="46.28897" lon="5.30409">
        <ele>256.8</ele>
        <time>2022-02-19T13:10:02Z</time>
      </trkpt>
      <trkpt lat="46.28891" lon="5.30411">
        <ele>257</ele>
        <time>2022-02-19T13:10:03Z</time>
      </trkpt>
      <trkpt lat="46.28843" lon="5.30423">
        <ele>257.8</ele>
        <time>2022-02-19T13:10:11Z</time>
      </trkpt>
      <trkpt lat="46.28832" lon="5.30426">
        <ele>258</ele>
        <time>2022-02-19T13:10:13Z</time>
      </trkpt>
      <trkpt lat="46.28803" lon="5.30431">
        <ele>258</ele>
        <time>2022-02-19T13:10:17Z</time>
      </trkpt>
      <trkpt lat="46.28754" lon="5.30441">
        <ele>257.2</ele>
        <time>2022-02-19T13:10:24Z</time>
      </trkpt>
      <trkpt lat="46.28741" lon="5.30443">
        <ele>257</ele>
        <time>2022-02-19T13:10:26Z</time>
      </trkpt>
      <trkpt lat="46.28703" lon="5.30447">
        <ele>256.4</ele>
        <time>2022-02-19T13:10:32Z</time>
      </trkpt>
      <trkpt lat="46.28695" lon="5.30446">
        <ele>256.2</ele>
        <time>2022-02-19T13:10:35Z</time>
      </trkpt>
      <trkpt lat="46.28693" lon="5.30446">
        <ele>256.2</ele>
        <time>2022-02-19T13:10:36Z</time>
      </trkpt>
      <trkpt lat="46.28688" lon="5.30447">
        <ele>256</ele>
        <time>2022-02-19T13:10:38Z</time>
      </trkpt>
      <trkpt lat="46.28686" lon="5.30451">
        <ele>256</ele>
        <time>2022-02-19T13:10:39Z</time>
      </trkpt>
      <trkpt lat="46.28685" lon="5.3048">
        <ele>256</ele>
        <time>2022-02-19T13:10:43Z</time>
      </trkpt>
      <trkpt lat="46.2868" lon="5.30523">
        <ele>256.6</ele>
        <time>2022-02-19T13:10:48Z</time>
      </trkpt>
      <trkpt lat="46.28679" lon="5.30561">
        <ele>257</ele>
        <time>2022-02-19T13:10:52Z</time>
      </trkpt>
      <trkpt lat="46.28677" lon="5.3058">
        <ele>257.2</ele>
        <time>2022-02-19T13:10:54Z</time>
      </trkpt>
      <trkpt lat="46.28674" lon="5.30628">
        <ele>258</ele>
        <time>2022-02-19T13:10:59Z</time>
      </trkpt>
      <trkpt lat="46.28673" lon="5.30647">
        <ele>258.4</ele>
        <time>2022-02-19T13:11:01Z</time>
      </trkpt>
      <trkpt lat="46.28669" lon="5.30713">
        <ele>259</ele>
        <time>2022-02-19T13:11:08Z</time>
      </trkpt>
      <trkpt lat="46.28664" lon="5.30788">
        <ele>259.4</ele>
        <time>2022-02-19T13:11:16Z</time>
      </trkpt>
      <trkpt lat="46.28663" lon="5.30806">
        <ele>259.6</ele>
        <time>2022-02-19T13:11:18Z</time>
      </trkpt>
      <trkpt lat="46.28659" lon="5.3086">
        <ele>260.6</ele>
        <time>2022-02-19T13:11:24Z</time>
      </trkpt>
      <trkpt lat="46.28658" lon="5.3087">
        <ele>260.6</ele>
        <time>2022-02-19T13:11:25Z</time>
      </trkpt>
      <trkpt lat="46.28653" lon="5.30951">
        <ele>261.2</ele>
        <time>2022-02-19T13:11:34Z</time>
      </trkpt>
      <trkpt lat="46.28652" lon="5.30969">
        <ele>261.4</ele>
        <time>2022-02-19T13:11:36Z</time>
      </trkpt>
      <trkpt lat="46.2865" lon="5.30997">
        <ele>261.6</ele>
        <time>2022-02-19T13:11:39Z</time>
      </trkpt>
      <trkpt lat="46.28648" lon="5.31055">
        <ele>262.2</ele>
        <time>2022-02-19T13:11:45Z</time>
      </trkpt>
      <trkpt lat="46.28646" lon="5.31122">
        <ele>262.4</ele>
        <time>2022-02-19T13:11:52Z</time>
      </trkpt>
      <trkpt lat="46.28646" lon="5.31149">
        <ele>262.6</ele>
        <time>2022-02-19T13:11:55Z</time>
      </trkpt>
      <trkpt lat="46.28646" lon="5.31197">
        <ele>262.6</ele>
        <time>2022-02-19T13:12:00Z</time>
      </trkpt>
      <trkpt lat="46.28645" lon="5.31271">
        <ele>261.6</ele>
        <time>2022-02-19T13:12:07Z</time>
      </trkpt>
      <trkpt lat="46.28643" lon="5.3133">
        <ele>261.6</ele>
        <time>2022-02-19T13:12:13Z</time>
      </trkpt>
      <trkpt lat="46.28638" lon="5.31371">
        <ele>262.2</ele>
        <time>2022-02-19T13:12:18Z</time>
      </trkpt>
      <trkpt lat="46.28633" lon="5.31386">
        <ele>262.6</ele>
        <time>2022-02-19T13:12:20Z</time>
      </trkpt>
      <trkpt lat="46.28623" lon="5.31416">
        <ele>263.4</ele>
        <time>2022-02-19T13:12:24Z</time>
      </trkpt>
      <trkpt lat="46.28619" lon="5.31423">
        <ele>263.4</ele>
        <time>2022-02-19T13:12:25Z</time>
      </trkpt>
      <trkpt lat="46.28616" lon="5.31431">
        <ele>263.4</ele>
        <time>2022-02-19T13:12:26Z</time>
      </trkpt>
      <trkpt lat="46.28603" lon="5.31452">
        <ele>263.6</ele>
        <time>2022-02-19T13:12:29Z</time>
      </trkpt>
      <trkpt lat="46.28589" lon="5.31471">
        <ele>263.8</ele>
        <time>2022-02-19T13:12:32Z</time>
      </trkpt>
      <trkpt lat="46.28553" lon="5.31526">
        <ele>264.2</ele>
        <time>2022-02-19T13:12:40Z</time>
      </trkpt>
      <trkpt lat="46.28527" lon="5.3158">
        <ele>264.4</ele>
        <time>2022-02-19T13:12:47Z</time>
      </trkpt>
      <trkpt lat="46.28497" lon="5.31644">
        <ele>264.4</ele>
        <time>2022-02-19T13:12:55Z</time>
      </trkpt>
      <trkpt lat="46.28485" lon="5.31667">
        <ele>264.4</ele>
        <time>2022-02-19T13:12:58Z</time>
      </trkpt>
      <trkpt lat="46.28482" lon="5.31674">
        <ele>264.4</ele>
        <time>2022-02-19T13:12:59Z</time>
      </trkpt>
      <trkpt lat="46.28448" lon="5.31745">
        <ele>264.6</ele>
        <time>2022-02-19T13:13:08Z</time>
      </trkpt>
      <trkpt lat="46.28437" lon="5.31769">
        <ele>264.8</ele>
        <time>2022-02-19T13:13:11Z</time>
      </trkpt>
      <trkpt lat="46.28408" lon="5.31842">
        <ele>265.2</ele>
        <time>2022-02-19T13:13:20Z</time>
      </trkpt>
      <trkpt lat="46.2838" lon="5.31915">
        <ele>265.6</ele>
        <time>2022-02-19T13:13:29Z</time>
      </trkpt>
      <trkpt lat="46.28371" lon="5.31941">
        <ele>265.6</ele>
        <time>2022-02-19T13:13:32Z</time>
      </trkpt>
      <trkpt lat="46.28349" lon="5.31995">
        <ele>265.6</ele>
        <time>2022-02-19T13:13:38Z</time>
      </trkpt>
      <trkpt lat="46.28323" lon="5.32064">
        <ele>264.8</ele>
        <time>2022-02-19T13:13:45Z</time>
      </trkpt>
      <trkpt lat="46.2832" lon="5.32072">
        <ele>264.8</ele>
        <time>2022-02-19T13:13:46Z</time>
      </trkpt>
      <trkpt lat="46.28301" lon="5.32134">
        <ele>263.8</ele>
        <time>2022-02-19T13:13:51Z</time>
      </trkpt>
      <trkpt lat="46.28298" lon="5.32144">
        <ele>263.2</ele>
        <time>2022-02-19T13:13:52Z</time>
      </trkpt>
      <trkpt lat="46.28285" lon="5.32182">
        <ele>261.8</ele>
        <time>2022-02-19T13:13:55Z</time>
      </trkpt>
      <trkpt lat="46.28274" lon="5.32229">
        <ele>260.6</ele>
        <time>2022-02-19T13:13:59Z</time>
      </trkpt>
      <trkpt lat="46.28272" lon="5.32241">
        <ele>260.4</ele>
        <time>2022-02-19T13:14:00Z</time>
      </trkpt>
      <trkpt lat="46.28264" lon="5.3231">
        <ele>259.6</ele>
        <time>2022-02-19T13:14:06Z</time>
      </trkpt>
      <trkpt lat="46.2826" lon="5.32388">
        <ele>259.8</ele>
        <time>2022-02-19T13:14:13Z</time>
      </trkpt>
      <trkpt lat="46.28259" lon="5.32411">
        <ele>259.8</ele>
        <time>2022-02-19T13:14:15Z</time>
      </trkpt>
      <trkpt lat="46.28257" lon="5.32467">
        <ele>259.4</ele>
        <time>2022-02-19T13:14:20Z</time>
      </trkpt>
      <trkpt lat="46.28251" lon="5.32542">
        <ele>259.2</ele>
        <time>2022-02-19T13:14:27Z</time>
      </trkpt>
      <trkpt lat="46.2824" lon="5.32623">
        <ele>259.4</ele>
        <time>2022-02-19T13:14:35Z</time>
      </trkpt>
      <trkpt lat="46.28225" lon="5.327">
        <ele>259</ele>
        <time>2022-02-19T13:14:43Z</time>
      </trkpt>
      <trkpt lat="46.28223" lon="5.32709">
        <ele>259</ele>
        <time>2022-02-19T13:14:44Z</time>
      </trkpt>
      <trkpt lat="46.28214" lon="5.32757">
        <ele>259.4</ele>
        <time>2022-02-19T13:14:50Z</time>
      </trkpt>
      <trkpt lat="46.28208" lon="5.3279">
        <ele>260.6</ele>
        <time>2022-02-19T13:14:54Z</time>
      </trkpt>
      <trkpt lat="46.28205" lon="5.32803">
        <ele>261</ele>
        <time>2022-02-19T13:14:56Z</time>
      </trkpt>
      <trkpt lat="46.28199" lon="5.32832">
        <ele>261.8</ele>
        <time>2022-02-19T13:15:00Z</time>
      </trkpt>
      <trkpt lat="46.28192" lon="5.32869">
        <ele>263.2</ele>
        <time>2022-02-19T13:15:05Z</time>
      </trkpt>
      <trkpt lat="46.28187" lon="5.32896">
        <ele>264.2</ele>
        <time>2022-02-19T13:15:09Z</time>
      </trkpt>
      <trkpt lat="46.28183" lon="5.32923">
        <ele>265</ele>
        <time>2022-02-19T13:15:13Z</time>
      </trkpt>
      <trkpt lat="46.28182" lon="5.3293">
        <ele>265.4</ele>
        <time>2022-02-19T13:15:14Z</time>
      </trkpt>
      <trkpt lat="46.28176" lon="5.32984">
        <ele>266.8</ele>
        <time>2022-02-19T13:15:21Z</time>
      </trkpt>
      <trkpt lat="46.28175" lon="5.32992">
        <ele>266.8</ele>
        <time>2022-02-19T13:15:22Z</time>
      </trkpt>
      <trkpt lat="46.28168" lon="5.33063">
        <ele>267.6</ele>
        <time>2022-02-19T13:15:31Z</time>
      </trkpt>
      <trkpt lat="46.28166" lon="5.33079">
        <ele>267.8</ele>
        <time>2022-02-19T13:15:33Z</time>
      </trkpt>
      <trkpt lat="46.28158" lon="5.33154">
        <ele>268.6</ele>
        <time>2022-02-19T13:15:42Z</time>
      </trkpt>
      <trkpt lat="46.28156" lon="5.33172">
        <ele>268.8</ele>
        <time>2022-02-19T13:15:44Z</time>
      </trkpt>
      <trkpt lat="46.28152" lon="5.33227">
        <ele>269.2</ele>
        <time>2022-02-19T13:15:50Z</time>
      </trkpt>
      <trkpt lat="46.28151" lon="5.33311">
        <ele>269.6</ele>
        <time>2022-02-19T13:15:59Z</time>
      </trkpt>
      <trkpt lat="46.28153" lon="5.33364">
        <ele>270.2</ele>
        <time>2022-02-19T13:16:05Z</time>
      </trkpt>
      <trkpt lat="46.28154" lon="5.33389">
        <ele>270.2</ele>
        <time>2022-02-19T13:16:08Z</time>
      </trkpt>
      <trkpt lat="46.28158" lon="5.33462">
        <ele>270.8</ele>
        <time>2022-02-19T13:16:17Z</time>
      </trkpt>
      <trkpt lat="46.28159" lon="5.33496">
        <ele>271.2</ele>
        <time>2022-02-19T13:16:21Z</time>
      </trkpt>
      <trkpt lat="46.28162" lon="5.33539">
        <ele>271.6</ele>
        <time>2022-02-19T13:16:26Z</time>
      </trkpt>
      <trkpt lat="46.28168" lon="5.33622">
        <ele>272.2</ele>
        <time>2022-02-19T13:16:34Z</time>
      </trkpt>
      <trkpt lat="46.28168" lon="5.33631">
        <ele>272.2</ele>
        <time>2022-02-19T13:16:35Z</time>
      </trkpt>
      <trkpt lat="46.28173" lon="5.33677">
        <ele>272.6</ele>
        <time>2022-02-19T13:16:40Z</time>
      </trkpt>
      <trkpt lat="46.28171" lon="5.33685">
        <ele>272.6</ele>
        <time>2022-02-19T13:16:41Z</time>
      </trkpt>
      <trkpt lat="46.28167" lon="5.3369">
        <ele>272.6</ele>
        <time>2022-02-19T13:16:42Z</time>
      </trkpt>
      <trkpt lat="46.2816" lon="5.33693">
        <ele>272.6</ele>
        <time>2022-02-19T13:16:43Z</time>
      </trkpt>
      <trkpt lat="46.28142" lon="5.33685">
        <ele>272.6</ele>
        <time>2022-02-19T13:16:46Z</time>
      </trkpt>
      <trkpt lat="46.28134" lon="5.33682">
        <ele>272.4</ele>
        <time>2022-02-19T13:16:49Z</time>
      </trkpt>
      <trkpt lat="46.28137" lon="5.33687">
        <ele>272.2</ele>
        <time>2022-02-19T13:16:52Z</time>
      </trkpt>
      <trkpt lat="46.28148" lon="5.33691">
        <ele>272</ele>
        <time>2022-02-19T13:16:55Z</time>
      </trkpt>
      <trkpt lat="46.28158" lon="5.33695">
        <ele>272</ele>
        <time>2022-02-19T13:16:57Z</time>
      </trkpt>
      <trkpt lat="46.28166" lon="5.337">
        <ele>271.8</ele>
        <time>2022-02-19T13:16:59Z</time>
      </trkpt>
      <trkpt lat="46.28172" lon="5.33708">
        <ele>271.8</ele>
        <time>2022-02-19T13:17:01Z</time>
      </trkpt>
      <trkpt lat="46.28175" lon="5.33732">
        <ele>271.8</ele>
        <time>2022-02-19T13:17:04Z</time>
      </trkpt>
      <trkpt lat="46.28181" lon="5.33791">
        <ele>272.6</ele>
        <time>2022-02-19T13:17:11Z</time>
      </trkpt>
      <trkpt lat="46.28185" lon="5.3384">
        <ele>273.2</ele>
        <time>2022-02-19T13:17:17Z</time>
      </trkpt>
      <trkpt lat="46.28187" lon="5.33865">
        <ele>273.6</ele>
        <time>2022-02-19T13:17:20Z</time>
      </trkpt>
      <trkpt lat="46.2819" lon="5.33922">
        <ele>274.4</ele>
        <time>2022-02-19T13:17:27Z</time>
      </trkpt>
      <trkpt lat="46.2819" lon="5.33956">
        <ele>274.8</ele>
        <time>2022-02-19T13:17:31Z</time>
      </trkpt>
      <trkpt lat="46.2819" lon="5.33982">
        <ele>275.4</ele>
        <time>2022-02-19T13:17:34Z</time>
      </trkpt>
      <trkpt lat="46.28188" lon="5.34026">
        <ele>275.6</ele>
        <time>2022-02-19T13:17:39Z</time>
      </trkpt>
      <trkpt lat="46.28186" lon="5.34093">
        <ele>275.4</ele>
        <time>2022-02-19T13:17:46Z</time>
      </trkpt>
      <trkpt lat="46.28182" lon="5.3414">
        <ele>274.6</ele>
        <time>2022-02-19T13:17:51Z</time>
      </trkpt>
      <trkpt lat="46.28177" lon="5.34183">
        <ele>274</ele>
        <time>2022-02-19T13:17:55Z</time>
      </trkpt>
      <trkpt lat="46.28176" lon="5.34192">
        <ele>273.4</ele>
        <time>2022-02-19T13:17:56Z</time>
      </trkpt>
      <trkpt lat="46.28166" lon="5.34257">
        <ele>272.2</ele>
        <time>2022-02-19T13:18:02Z</time>
      </trkpt>
      <trkpt lat="46.28165" lon="5.34268">
        <ele>271.8</ele>
        <time>2022-02-19T13:18:03Z</time>
      </trkpt>
      <trkpt lat="46.28159" lon="5.34304">
        <ele>271</ele>
        <time>2022-02-19T13:18:06Z</time>
      </trkpt>
      <trkpt lat="46.28154" lon="5.34348">
        <ele>269.8</ele>
        <time>2022-02-19T13:18:10Z</time>
      </trkpt>
      <trkpt lat="46.28151" lon="5.34374">
        <ele>269</ele>
        <time>2022-02-19T13:18:12Z</time>
      </trkpt>
      <trkpt lat="46.28148" lon="5.34396">
        <ele>268.8</ele>
        <time>2022-02-19T13:18:14Z</time>
      </trkpt>
      <trkpt lat="46.28141" lon="5.34464">
        <ele>267.4</ele>
        <time>2022-02-19T13:18:19Z</time>
      </trkpt>
      <trkpt lat="46.28137" lon="5.34505">
        <ele>266</ele>
        <time>2022-02-19T13:18:22Z</time>
      </trkpt>
      <trkpt lat="46.28135" lon="5.34518">
        <ele>265.6</ele>
        <time>2022-02-19T13:18:23Z</time>
      </trkpt>
      <trkpt lat="46.28132" lon="5.34532">
        <ele>264.6</ele>
        <time>2022-02-19T13:18:24Z</time>
      </trkpt>
      <trkpt lat="46.28128" lon="5.34544">
        <ele>264.2</ele>
        <time>2022-02-19T13:18:25Z</time>
      </trkpt>
      <trkpt lat="46.28115" lon="5.34566">
        <ele>263.6</ele>
        <time>2022-02-19T13:18:27Z</time>
      </trkpt>
      <trkpt lat="46.28101" lon="5.34585">
        <ele>262.2</ele>
        <time>2022-02-19T13:18:29Z</time>
      </trkpt>
      <trkpt lat="46.28087" lon="5.34603">
        <ele>261.2</ele>
        <time>2022-02-19T13:18:31Z</time>
      </trkpt>
      <trkpt lat="46.28046" lon="5.34656">
        <ele>260.4</ele>
        <time>2022-02-19T13:18:37Z</time>
      </trkpt>
      <trkpt lat="46.28027" lon="5.34681">
        <ele>260.2</ele>
        <time>2022-02-19T13:18:40Z</time>
      </trkpt>
      <trkpt lat="46.27995" lon="5.34723">
        <ele>260.2</ele>
        <time>2022-02-19T13:18:45Z</time>
      </trkpt>
      <trkpt lat="46.27954" lon="5.34779">
        <ele>260.2</ele>
        <time>2022-02-19T13:18:52Z</time>
      </trkpt>
      <trkpt lat="46.27948" lon="5.34786">
        <ele>260.4</ele>
        <time>2022-02-19T13:18:53Z</time>
      </trkpt>
      <trkpt lat="46.27905" lon="5.34842">
        <ele>261</ele>
        <time>2022-02-19T13:19:01Z</time>
      </trkpt>
      <trkpt lat="46.27894" lon="5.34855">
        <ele>261.2</ele>
        <time>2022-02-19T13:19:04Z</time>
      </trkpt>
      <trkpt lat="46.27862" lon="5.34887">
        <ele>261.2</ele>
        <time>2022-02-19T13:19:09Z</time>
      </trkpt>
      <trkpt lat="46.27816" lon="5.34925">
        <ele>262</ele>
        <time>2022-02-19T13:19:17Z</time>
      </trkpt>
      <trkpt lat="46.27811" lon="5.34929">
        <ele>262.4</ele>
        <time>2022-02-19T13:19:18Z</time>
      </trkpt>
      <trkpt lat="46.27781" lon="5.34953">
        <ele>263.4</ele>
        <time>2022-02-19T13:19:24Z</time>
      </trkpt>
      <trkpt lat="46.27775" lon="5.34958">
        <ele>264</ele>
        <time>2022-02-19T13:19:26Z</time>
      </trkpt>
      <trkpt lat="46.27743" lon="5.34996">
        <ele>264.6</ele>
        <time>2022-02-19T13:19:32Z</time>
      </trkpt>
      <trkpt lat="46.27714" lon="5.35051">
        <ele>265.6</ele>
        <time>2022-02-19T13:19:40Z</time>
      </trkpt>
      <trkpt lat="46.27708" lon="5.35063">
        <ele>265.8</ele>
        <time>2022-02-19T13:19:42Z</time>
      </trkpt>
      <trkpt lat="46.27692" lon="5.35098">
        <ele>266.2</ele>
        <time>2022-02-19T13:19:47Z</time>
      </trkpt>
      <trkpt lat="46.27685" lon="5.35112">
        <ele>266.6</ele>
        <time>2022-02-19T13:19:49Z</time>
      </trkpt>
      <trkpt lat="46.27679" lon="5.35125">
        <ele>267</ele>
        <time>2022-02-19T13:19:51Z</time>
      </trkpt>
      <trkpt lat="46.27657" lon="5.35171">
        <ele>268</ele>
        <time>2022-02-19T13:19:58Z</time>
      </trkpt>
      <trkpt lat="46.27654" lon="5.35177">
        <ele>268</ele>
        <time>2022-02-19T13:19:59Z</time>
      </trkpt>
      <trkpt lat="46.27625" lon="5.35245">
        <ele>269</ele>
        <time>2022-02-19T13:20:09Z</time>
      </trkpt>
      <trkpt lat="46.27609" lon="5.35306">
        <ele>270</ele>
        <time>2022-02-19T13:20:17Z</time>
      </trkpt>
      <trkpt lat="46.27608" lon="5.35314">
        <ele>270.2</ele>
        <time>2022-02-19T13:20:18Z</time>
      </trkpt>
      <trkpt lat="46.27595" lon="5.35387">
        <ele>271</ele>
        <time>2022-02-19T13:20:27Z</time>
      </trkpt>
      <trkpt lat="46.27594" lon="5.35395">
        <ele>271</ele>
        <time>2022-02-19T13:20:28Z</time>
      </trkpt>
      <trkpt lat="46.27581" lon="5.35448">
        <ele>271.6</ele>
        <time>2022-02-19T13:20:35Z</time>
      </trkpt>
      <trkpt lat="46.27567" lon="5.35492">
        <ele>272.2</ele>
        <time>2022-02-19T13:20:41Z</time>
      </trkpt>
      <trkpt lat="46.27561" lon="5.35505">
        <ele>272.4</ele>
        <time>2022-02-19T13:20:44Z</time>
      </trkpt>
      <trkpt lat="46.27543" lon="5.3554">
        <ele>273</ele>
        <time>2022-02-19T13:20:49Z</time>
      </trkpt>
      <trkpt lat="46.2754" lon="5.35545">
        <ele>273.4</ele>
        <time>2022-02-19T13:20:50Z</time>
      </trkpt>
      <trkpt lat="46.27524" lon="5.35568">
        <ele>274.6</ele>
        <time>2022-02-19T13:20:55Z</time>
      </trkpt>
      <trkpt lat="46.27518" lon="5.35576">
        <ele>275</ele>
        <time>2022-02-19T13:20:57Z</time>
      </trkpt>
      <trkpt lat="46.2751" lon="5.35592">
        <ele>275.8</ele>
        <time>2022-02-19T13:21:00Z</time>
      </trkpt>
      <trkpt lat="46.27505" lon="5.35607">
        <ele>276.6</ele>
        <time>2022-02-19T13:21:03Z</time>
      </trkpt>
      <trkpt lat="46.27503" lon="5.35613">
        <ele>277</ele>
        <time>2022-02-19T13:21:04Z</time>
      </trkpt>
      <trkpt lat="46.27498" lon="5.35641">
        <ele>278.4</ele>
        <time>2022-02-19T13:21:09Z</time>
      </trkpt>
      <trkpt lat="46.27497" lon="5.35647">
        <ele>278.6</ele>
        <time>2022-02-19T13:21:10Z</time>
      </trkpt>
      <trkpt lat="46.27494" lon="5.35663">
        <ele>279.6</ele>
        <time>2022-02-19T13:21:13Z</time>
      </trkpt>
      <trkpt lat="46.27489" lon="5.35687">
        <ele>280.8</ele>
        <time>2022-02-19T13:21:17Z</time>
      </trkpt>
      <trkpt lat="46.27488" lon="5.35693">
        <ele>281</ele>
        <time>2022-02-19T13:21:18Z</time>
      </trkpt>
      <trkpt lat="46.27482" lon="5.35724">
        <ele>281.8</ele>
        <time>2022-02-19T13:21:23Z</time>
      </trkpt>
      <trkpt lat="46.27479" lon="5.35742">
        <ele>282.2</ele>
        <time>2022-02-19T13:21:26Z</time>
      </trkpt>
      <trkpt lat="46.27474" lon="5.3577">
        <ele>282.8</ele>
        <time>2022-02-19T13:21:30Z</time>
      </trkpt>
      <trkpt lat="46.27472" lon="5.35777">
        <ele>283</ele>
        <time>2022-02-19T13:21:31Z</time>
      </trkpt>
      <trkpt lat="46.27469" lon="5.35792">
        <ele>283.2</ele>
        <time>2022-02-19T13:21:33Z</time>
      </trkpt>
      <trkpt lat="46.27454" lon="5.35842">
        <ele>283.8</ele>
        <time>2022-02-19T13:21:41Z</time>
      </trkpt>
      <trkpt lat="46.27449" lon="5.35853">
        <ele>284.2</ele>
        <time>2022-02-19T13:21:43Z</time>
      </trkpt>
      <trkpt lat="46.27432" lon="5.35883">
        <ele>285</ele>
        <time>2022-02-19T13:21:49Z</time>
      </trkpt>
      <trkpt lat="46.27425" lon="5.35892">
        <ele>285.2</ele>
        <time>2022-02-19T13:21:51Z</time>
      </trkpt>
      <trkpt lat="46.27409" lon="5.35913">
        <ele>286.4</ele>
        <time>2022-02-19T13:21:56Z</time>
      </trkpt>
      <trkpt lat="46.27393" lon="5.35935">
        <ele>287.4</ele>
        <time>2022-02-19T13:22:01Z</time>
      </trkpt>
      <trkpt lat="46.27393" lon="5.35935">
        <ele>287.6</ele>
        <time>2022-02-19T13:22:02Z</time>
      </trkpt>
      <trkpt lat="46.27374" lon="5.3596">
        <ele>288.8</ele>
        <time>2022-02-19T13:22:07Z</time>
      </trkpt>
      <trkpt lat="46.2735" lon="5.35991">
        <ele>290</ele>
        <time>2022-02-19T13:22:14Z</time>
      </trkpt>
      <trkpt lat="46.27334" lon="5.36016">
        <ele>291</ele>
        <time>2022-02-19T13:22:19Z</time>
      </trkpt>
      <trkpt lat="46.27328" lon="5.36027">
        <ele>291.4</ele>
        <time>2022-02-19T13:22:21Z</time>
      </trkpt>
      <trkpt lat="46.27319" lon="5.36047">
        <ele>292</ele>
        <time>2022-02-19T13:22:24Z</time>
      </trkpt>
      <trkpt lat="46.2731" lon="5.3607">
        <ele>292.2</ele>
        <time>2022-02-19T13:22:27Z</time>
      </trkpt>
      <trkpt lat="46.27301" lon="5.36116">
        <ele>292.2</ele>
        <time>2022-02-19T13:22:32Z</time>
      </trkpt>
      <trkpt lat="46.27297" lon="5.36179">
        <ele>292</ele>
        <time>2022-02-19T13:22:38Z</time>
      </trkpt>
      <trkpt lat="46.27296" lon="5.36261">
        <ele>291.6</ele>
        <time>2022-02-19T13:22:46Z</time>
      </trkpt>
      <trkpt lat="46.27296" lon="5.36271">
        <ele>291.4</ele>
        <time>2022-02-19T13:22:47Z</time>
      </trkpt>
      <trkpt lat="46.27291" lon="5.3635">
        <ele>291.2</ele>
        <time>2022-02-19T13:22:55Z</time>
      </trkpt>
      <trkpt lat="46.27283" lon="5.36417">
        <ele>291.2</ele>
        <time>2022-02-19T13:23:02Z</time>
      </trkpt>
      <trkpt lat="46.27268" lon="5.36477">
        <ele>291.8</ele>
        <time>2022-02-19T13:23:09Z</time>
      </trkpt>
      <trkpt lat="46.27247" lon="5.36552">
        <ele>292.8</ele>
        <time>2022-02-19T13:23:18Z</time>
      </trkpt>
      <trkpt lat="46.2724" lon="5.36573">
        <ele>293</ele>
        <time>2022-02-19T13:23:21Z</time>
      </trkpt>
      <trkpt lat="46.27232" lon="5.36603">
        <ele>293.4</ele>
        <time>2022-02-19T13:23:25Z</time>
      </trkpt>
      <trkpt lat="46.27226" lon="5.36624">
        <ele>293.6</ele>
        <time>2022-02-19T13:23:28Z</time>
      </trkpt>
      <trkpt lat="46.27224" lon="5.3663">
        <ele>293.8</ele>
        <time>2022-02-19T13:23:29Z</time>
      </trkpt>
      <trkpt lat="46.27214" lon="5.36642">
        <ele>294</ele>
        <time>2022-02-19T13:23:32Z</time>
      </trkpt>
      <trkpt lat="46.27202" lon="5.36638">
        <ele>294.4</ele>
        <time>2022-02-19T13:23:35Z</time>
      </trkpt>
      <trkpt lat="46.27197" lon="5.36634">
        <ele>294.4</ele>
        <time>2022-02-19T13:23:36Z</time>
      </trkpt>
      <trkpt lat="46.27193" lon="5.3663">
        <ele>294.4</ele>
        <time>2022-02-19T13:23:37Z</time>
      </trkpt>
      <trkpt lat="46.2717" lon="5.36611">
        <ele>295.4</ele>
        <time>2022-02-19T13:23:42Z</time>
      </trkpt>
      <trkpt lat="46.27139" lon="5.36589">
        <ele>296.6</ele>
        <time>2022-02-19T13:23:49Z</time>
      </trkpt>
      <trkpt lat="46.27134" lon="5.36586">
        <ele>296.8</ele>
        <time>2022-02-19T13:23:50Z</time>
      </trkpt>
      <trkpt lat="46.27117" lon="5.36575">
        <ele>297.6</ele>
        <time>2022-02-19T13:23:54Z</time>
      </trkpt>
      <trkpt lat="46.27098" lon="5.36565">
        <ele>298.2</ele>
        <time>2022-02-19T13:23:58Z</time>
      </trkpt>
      <trkpt lat="46.27075" lon="5.36555">
        <ele>298.6</ele>
        <time>2022-02-19T13:24:03Z</time>
      </trkpt>
      <trkpt lat="46.2706" lon="5.36548">
        <ele>299</ele>
        <time>2022-02-19T13:24:06Z</time>
      </trkpt>
      <trkpt lat="46.27017" lon="5.36531">
        <ele>299.6</ele>
        <time>2022-02-19T13:24:14Z</time>
      </trkpt>
      <trkpt lat="46.27007" lon="5.36528">
        <ele>299.8</ele>
        <time>2022-02-19T13:24:16Z</time>
      </trkpt>
      <trkpt lat="46.26973" lon="5.36517">
        <ele>300</ele>
        <time>2022-02-19T13:24:22Z</time>
      </trkpt>
      <trkpt lat="46.26921" lon="5.36501">
        <ele>300.6</ele>
        <time>2022-02-19T13:24:31Z</time>
      </trkpt>
      <trkpt lat="46.26871" lon="5.36486">
        <ele>300.4</ele>
        <time>2022-02-19T13:24:39Z</time>
      </trkpt>
      <trkpt lat="46.26819" lon="5.36466">
        <ele>300.2</ele>
        <time>2022-02-19T13:24:47Z</time>
      </trkpt>
      <trkpt lat="46.26788" lon="5.36439">
        <ele>299.8</ele>
        <time>2022-02-19T13:24:52Z</time>
      </trkpt>
      <trkpt lat="46.26763" lon="5.36395">
        <ele>299</ele>
        <time>2022-02-19T13:24:57Z</time>
      </trkpt>
      <trkpt lat="46.26758" lon="5.36385">
        <ele>298.8</ele>
        <time>2022-02-19T13:24:58Z</time>
      </trkpt>
      <trkpt lat="46.26733" lon="5.36335">
        <ele>297.4</ele>
        <time>2022-02-19T13:25:03Z</time>
      </trkpt>
      <trkpt lat="46.26714" lon="5.36312">
        <ele>296.2</ele>
        <time>2022-02-19T13:25:06Z</time>
      </trkpt>
      <trkpt lat="46.26707" lon="5.36306">
        <ele>296</ele>
        <time>2022-02-19T13:25:07Z</time>
      </trkpt>
      <trkpt lat="46.26686" lon="5.36292">
        <ele>295</ele>
        <time>2022-02-19T13:25:10Z</time>
      </trkpt>
      <trkpt lat="46.26677" lon="5.36287">
        <ele>295</ele>
        <time>2022-02-19T13:25:11Z</time>
      </trkpt>
      <trkpt lat="46.2664" lon="5.36278">
        <ele>294.6</ele>
        <time>2022-02-19T13:25:16Z</time>
      </trkpt>
      <trkpt lat="46.26586" lon="5.36259">
        <ele>294.6</ele>
        <time>2022-02-19T13:25:24Z</time>
      </trkpt>
      <trkpt lat="46.26527" lon="5.3623">
        <ele>295.4</ele>
        <time>2022-02-19T13:25:34Z</time>
      </trkpt>
      <trkpt lat="46.26486" lon="5.36209">
        <ele>295.8</ele>
        <time>2022-02-19T13:25:42Z</time>
      </trkpt>
      <trkpt lat="46.2647" lon="5.362">
        <ele>296</ele>
        <time>2022-02-19T13:25:45Z</time>
      </trkpt>
      <trkpt lat="46.26451" lon="5.36185">
        <ele>296.6</ele>
        <time>2022-02-19T13:25:50Z</time>
      </trkpt>
      <trkpt lat="46.26421" lon="5.36159">
        <ele>297.2</ele>
        <time>2022-02-19T13:25:55Z</time>
      </trkpt>
      <trkpt lat="46.26418" lon="5.36155">
        <ele>297.4</ele>
        <time>2022-02-19T13:25:56Z</time>
      </trkpt>
      <trkpt lat="46.26371" lon="5.3611">
        <ele>297.6</ele>
        <time>2022-02-19T13:26:05Z</time>
      </trkpt>
      <trkpt lat="46.26332" lon="5.36069">
        <ele>298</ele>
        <time>2022-02-19T13:26:13Z</time>
      </trkpt>
      <trkpt lat="46.26308" lon="5.36033">
        <ele>298.4</ele>
        <time>2022-02-19T13:26:19Z</time>
      </trkpt>
      <trkpt lat="46.26301" lon="5.36019">
        <ele>298.6</ele>
        <time>2022-02-19T13:26:21Z</time>
      </trkpt>
      <trkpt lat="46.26277" lon="5.35982">
        <ele>299.6</ele>
        <time>2022-02-19T13:26:28Z</time>
      </trkpt>
      <trkpt lat="46.26258" lon="5.35958">
        <ele>300.6</ele>
        <time>2022-02-19T13:26:33Z</time>
      </trkpt>
      <trkpt lat="46.26245" lon="5.35944">
        <ele>301.4</ele>
        <time>2022-02-19T13:26:36Z</time>
      </trkpt>
      <trkpt lat="46.26237" lon="5.35938">
        <ele>302</ele>
        <time>2022-02-19T13:26:38Z</time>
      </trkpt>
      <trkpt lat="46.26222" lon="5.35929">
        <ele>302.4</ele>
        <time>2022-02-19T13:26:41Z</time>
      </trkpt>
      <trkpt lat="46.26217" lon="5.35927">
        <ele>302.8</ele>
        <time>2022-02-19T13:26:42Z</time>
      </trkpt>
      <trkpt lat="46.26206" lon="5.35923">
        <ele>303.2</ele>
        <time>2022-02-19T13:26:44Z</time>
      </trkpt>
      <trkpt lat="46.26179" lon="5.35918">
        <ele>304.2</ele>
        <time>2022-02-19T13:26:49Z</time>
      </trkpt>
      <trkpt lat="46.26173" lon="5.35917">
        <ele>304.4</ele>
        <time>2022-02-19T13:26:50Z</time>
      </trkpt>
      <trkpt lat="46.26162" lon="5.35917">
        <ele>304.8</ele>
        <time>2022-02-19T13:26:52Z</time>
      </trkpt>
      <trkpt lat="46.26147" lon="5.35919">
        <ele>305</ele>
        <time>2022-02-19T13:26:55Z</time>
      </trkpt>
      <trkpt lat="46.26131" lon="5.35925">
        <ele>305.4</ele>
        <time>2022-02-19T13:26:58Z</time>
      </trkpt>
      <trkpt lat="46.26117" lon="5.35934">
        <ele>305.6</ele>
        <time>2022-02-19T13:27:01Z</time>
      </trkpt>
      <trkpt lat="46.26111" lon="5.35937">
        <ele>305.8</ele>
        <time>2022-02-19T13:27:02Z</time>
      </trkpt>
      <trkpt lat="46.26074" lon="5.35952">
        <ele>306.6</ele>
        <time>2022-02-19T13:27:09Z</time>
      </trkpt>
      <trkpt lat="46.26035" lon="5.35958">
        <ele>307.8</ele>
        <time>2022-02-19T13:27:17Z</time>
      </trkpt>
      <trkpt lat="46.2602" lon="5.35961">
        <ele>308.2</ele>
        <time>2022-02-19T13:27:20Z</time>
      </trkpt>
      <trkpt lat="46.25991" lon="5.35964">
        <ele>309</ele>
        <time>2022-02-19T13:27:26Z</time>
      </trkpt>
      <trkpt lat="46.25973" lon="5.35965">
        <ele>309.6</ele>
        <time>2022-02-19T13:27:30Z</time>
      </trkpt>
      <trkpt lat="46.25964" lon="5.35965">
        <ele>310</ele>
        <time>2022-02-19T13:27:32Z</time>
      </trkpt>
      <trkpt lat="46.25936" lon="5.35965">
        <ele>311</ele>
        <time>2022-02-19T13:27:38Z</time>
      </trkpt>
      <trkpt lat="46.25931" lon="5.35964">
        <ele>311.2</ele>
        <time>2022-02-19T13:27:39Z</time>
      </trkpt>
      <trkpt lat="46.25921" lon="5.35962">
        <ele>311.8</ele>
        <time>2022-02-19T13:27:41Z</time>
      </trkpt>
      <trkpt lat="46.25912" lon="5.35959">
        <ele>312.2</ele>
        <time>2022-02-19T13:27:43Z</time>
      </trkpt>
      <trkpt lat="46.25908" lon="5.35957">
        <ele>312.4</ele>
        <time>2022-02-19T13:27:44Z</time>
      </trkpt>
      <trkpt lat="46.25893" lon="5.3595">
        <ele>312.6</ele>
        <time>2022-02-19T13:27:47Z</time>
      </trkpt>
      <trkpt lat="46.25876" lon="5.35941">
        <ele>313.6</ele>
        <time>2022-02-19T13:27:51Z</time>
      </trkpt>
      <trkpt lat="46.25859" lon="5.35932">
        <ele>314.4</ele>
        <time>2022-02-19T13:27:55Z</time>
      </trkpt>
      <trkpt lat="46.25854" lon="5.35929">
        <ele>314.6</ele>
        <time>2022-02-19T13:27:56Z</time>
      </trkpt>
      <trkpt lat="46.25836" lon="5.35921">
        <ele>316</ele>
        <time>2022-02-19T13:28:00Z</time>
      </trkpt>
      <trkpt lat="46.25825" lon="5.35918">
        <ele>316.6</ele>
        <time>2022-02-19T13:28:02Z</time>
      </trkpt>
      <trkpt lat="46.25816" lon="5.35917">
        <ele>317.2</ele>
        <time>2022-02-19T13:28:04Z</time>
      </trkpt>
      <trkpt lat="46.25783" lon="5.35913">
        <ele>318.4</ele>
        <time>2022-02-19T13:28:11Z</time>
      </trkpt>
      <trkpt lat="46.25758" lon="5.35909">
        <ele>319.6</ele>
        <time>2022-02-19T13:28:16Z</time>
      </trkpt>
      <trkpt lat="46.25738" lon="5.35905">
        <ele>320.4</ele>
        <time>2022-02-19T13:28:20Z</time>
      </trkpt>
      <trkpt lat="46.25722" lon="5.359">
        <ele>320.8</ele>
        <time>2022-02-19T13:28:23Z</time>
      </trkpt>
      <trkpt lat="46.25692" lon="5.35892">
        <ele>321</ele>
        <time>2022-02-19T13:28:28Z</time>
      </trkpt>
      <trkpt lat="46.25639" lon="5.35887">
        <ele>320.4</ele>
        <time>2022-02-19T13:28:35Z</time>
      </trkpt>
      <trkpt lat="46.25624" lon="5.35887">
        <ele>319.6</ele>
        <time>2022-02-19T13:28:37Z</time>
      </trkpt>
      <trkpt lat="46.25585" lon="5.35888">
        <ele>318</ele>
        <time>2022-02-19T13:28:41Z</time>
      </trkpt>
      <trkpt lat="46.25547" lon="5.35891">
        <ele>316.8</ele>
        <time>2022-02-19T13:28:45Z</time>
      </trkpt>
      <trkpt lat="46.2552" lon="5.35892">
        <ele>315.6</ele>
        <time>2022-02-19T13:28:48Z</time>
      </trkpt>
      <trkpt lat="46.2551" lon="5.35892">
        <ele>315.4</ele>
        <time>2022-02-19T13:28:49Z</time>
      </trkpt>
      <trkpt lat="46.25483" lon="5.35892">
        <ele>314.4</ele>
        <time>2022-02-19T13:28:52Z</time>
      </trkpt>
      <trkpt lat="46.25453" lon="5.35894">
        <ele>313.4</ele>
        <time>2022-02-19T13:28:55Z</time>
      </trkpt>
      <trkpt lat="46.25434" lon="5.35895">
        <ele>312.8</ele>
        <time>2022-02-19T13:28:57Z</time>
      </trkpt>
      <trkpt lat="46.25416" lon="5.35898">
        <ele>312</ele>
        <time>2022-02-19T13:28:59Z</time>
      </trkpt>
      <trkpt lat="46.25383" lon="5.35904">
        <ele>311.8</ele>
        <time>2022-02-19T13:29:03Z</time>
      </trkpt>
      <trkpt lat="46.25342" lon="5.35915">
        <ele>311.8</ele>
        <time>2022-02-19T13:29:09Z</time>
      </trkpt>
      <trkpt lat="46.25305" lon="5.35926">
        <ele>312.6</ele>
        <time>2022-02-19T13:29:15Z</time>
      </trkpt>
      <trkpt lat="46.25293" lon="5.35927">
        <ele>313.2</ele>
        <time>2022-02-19T13:29:17Z</time>
      </trkpt>
      <trkpt lat="46.25273" lon="5.35927">
        <ele>313.6</ele>
        <time>2022-02-19T13:29:20Z</time>
      </trkpt>
      <trkpt lat="46.25248" lon="5.35923">
        <ele>314</ele>
        <time>2022-02-19T13:29:24Z</time>
      </trkpt>
      <trkpt lat="46.2524" lon="5.35922">
        <ele>314.4</ele>
        <time>2022-02-19T13:29:25Z</time>
      </trkpt>
      <trkpt lat="46.25202" lon="5.35908">
        <ele>314.6</ele>
        <time>2022-02-19T13:29:31Z</time>
      </trkpt>
      <trkpt lat="46.25175" lon="5.3589">
        <ele>314.6</ele>
        <time>2022-02-19T13:29:35Z</time>
      </trkpt>
      <trkpt lat="46.25169" lon="5.35883">
        <ele>314.6</ele>
        <time>2022-02-19T13:29:36Z</time>
      </trkpt>
      <trkpt lat="46.25158" lon="5.35867">
        <ele>314</ele>
        <time>2022-02-19T13:29:38Z</time>
      </trkpt>
      <trkpt lat="46.25147" lon="5.35845">
        <ele>313.4</ele>
        <time>2022-02-19T13:29:40Z</time>
      </trkpt>
      <trkpt lat="46.25142" lon="5.35834">
        <ele>313.2</ele>
        <time>2022-02-19T13:29:41Z</time>
      </trkpt>
      <trkpt lat="46.25122" lon="5.35787">
        <ele>311.8</ele>
        <time>2022-02-19T13:29:45Z</time>
      </trkpt>
      <trkpt lat="46.25116" lon="5.35775">
        <ele>311.8</ele>
        <time>2022-02-19T13:29:46Z</time>
      </trkpt>
      <trkpt lat="46.25106" lon="5.3575">
        <ele>310.6</ele>
        <time>2022-02-19T13:29:48Z</time>
      </trkpt>
      <trkpt lat="46.25094" lon="5.35725">
        <ele>309.6</ele>
        <time>2022-02-19T13:29:50Z</time>
      </trkpt>
      <trkpt lat="46.25082" lon="5.35701">
        <ele>308.4</ele>
        <time>2022-02-19T13:29:52Z</time>
      </trkpt>
      <trkpt lat="46.25075" lon="5.35689">
        <ele>307.8</ele>
        <time>2022-02-19T13:29:53Z</time>
      </trkpt>
      <trkpt lat="46.25068" lon="5.35678">
        <ele>307</ele>
        <time>2022-02-19T13:29:54Z</time>
      </trkpt>
      <trkpt lat="46.25046" lon="5.35645">
        <ele>305.6</ele>
        <time>2022-02-19T13:29:57Z</time>
      </trkpt>
      <trkpt lat="46.2503" lon="5.35623">
        <ele>303.8</ele>
        <time>2022-02-19T13:29:59Z</time>
      </trkpt>
      <trkpt lat="46.25024" lon="5.35614">
        <ele>303.4</ele>
        <time>2022-02-19T13:30:00Z</time>
      </trkpt>
      <trkpt lat="46.25007" lon="5.35595">
        <ele>302.4</ele>
        <time>2022-02-19T13:30:02Z</time>
      </trkpt>
      <trkpt lat="46.24998" lon="5.35586">
        <ele>301.4</ele>
        <time>2022-02-19T13:30:03Z</time>
      </trkpt>
      <trkpt lat="46.24988" lon="5.35578">
        <ele>300.8</ele>
        <time>2022-02-19T13:30:04Z</time>
      </trkpt>
      <trkpt lat="46.24969" lon="5.35565">
        <ele>300</ele>
        <time>2022-02-19T13:30:06Z</time>
      </trkpt>
      <trkpt lat="46.2495" lon="5.3555">
        <ele>298.8</ele>
        <time>2022-02-19T13:30:08Z</time>
      </trkpt>
      <trkpt lat="46.24932" lon="5.35536">
        <ele>297.8</ele>
        <time>2022-02-19T13:30:10Z</time>
      </trkpt>
      <trkpt lat="46.24903" lon="5.35512">
        <ele>296.6</ele>
        <time>2022-02-19T13:30:13Z</time>
      </trkpt>
      <trkpt lat="46.24896" lon="5.35506">
        <ele>296.2</ele>
        <time>2022-02-19T13:30:14Z</time>
      </trkpt>
      <trkpt lat="46.24868" lon="5.35485">
        <ele>295.2</ele>
        <time>2022-02-19T13:30:17Z</time>
      </trkpt>
      <trkpt lat="46.24834" lon="5.35458">
        <ele>294.2</ele>
        <time>2022-02-19T13:30:21Z</time>
      </trkpt>
      <trkpt lat="46.24812" lon="5.35437">
        <ele>292.8</ele>
        <time>2022-02-19T13:30:24Z</time>
      </trkpt>
      <trkpt lat="46.2478" lon="5.35409">
        <ele>292.2</ele>
        <time>2022-02-19T13:30:28Z</time>
      </trkpt>
      <trkpt lat="46.24752" lon="5.35388">
        <ele>291.8</ele>
        <time>2022-02-19T13:30:31Z</time>
      </trkpt>
      <trkpt lat="46.24734" lon="5.35375">
        <ele>290.8</ele>
        <time>2022-02-19T13:30:33Z</time>
      </trkpt>
      <trkpt lat="46.24716" lon="5.35361">
        <ele>289.6</ele>
        <time>2022-02-19T13:30:35Z</time>
      </trkpt>
      <trkpt lat="46.24688" lon="5.35339">
        <ele>288.2</ele>
        <time>2022-02-19T13:30:38Z</time>
      </trkpt>
      <trkpt lat="46.24658" lon="5.35317">
        <ele>287.2</ele>
        <time>2022-02-19T13:30:41Z</time>
      </trkpt>
      <trkpt lat="46.24649" lon="5.35311">
        <ele>286.8</ele>
        <time>2022-02-19T13:30:42Z</time>
      </trkpt>
      <trkpt lat="46.2463" lon="5.35297">
        <ele>285.4</ele>
        <time>2022-02-19T13:30:44Z</time>
      </trkpt>
      <trkpt lat="46.24622" lon="5.35289">
        <ele>284.2</ele>
        <time>2022-02-19T13:30:45Z</time>
      </trkpt>
      <trkpt lat="46.24613" lon="5.35278">
        <ele>283.6</ele>
        <time>2022-02-19T13:30:46Z</time>
      </trkpt>
      <trkpt lat="46.24608" lon="5.35269">
        <ele>282.6</ele>
        <time>2022-02-19T13:30:47Z</time>
      </trkpt>
      <trkpt lat="46.24601" lon="5.35257">
        <ele>282.4</ele>
        <time>2022-02-19T13:30:48Z</time>
      </trkpt>
      <trkpt lat="46.24594" lon="5.35234">
        <ele>281.8</ele>
        <time>2022-02-19T13:30:50Z</time>
      </trkpt>
      <trkpt lat="46.24593" lon="5.35222">
        <ele>281.4</ele>
        <time>2022-02-19T13:30:51Z</time>
      </trkpt>
      <trkpt lat="46.24593" lon="5.35212">
        <ele>280.8</ele>
        <time>2022-02-19T13:30:52Z</time>
      </trkpt>
      <trkpt lat="46.24595" lon="5.35197">
        <ele>280.6</ele>
        <time>2022-02-19T13:30:53Z</time>
      </trkpt>
      <trkpt lat="46.24597" lon="5.35184">
        <ele>280</ele>
        <time>2022-02-19T13:30:54Z</time>
      </trkpt>
      <trkpt lat="46.24602" lon="5.35161">
        <ele>279.4</ele>
        <time>2022-02-19T13:30:56Z</time>
      </trkpt>
      <trkpt lat="46.24603" lon="5.35149">
        <ele>279.4</ele>
        <time>2022-02-19T13:30:57Z</time>
      </trkpt>
      <trkpt lat="46.24602" lon="5.35137">
        <ele>279.2</ele>
        <time>2022-02-19T13:30:58Z</time>
      </trkpt>
      <trkpt lat="46.246" lon="5.35126">
        <ele>279</ele>
        <time>2022-02-19T13:30:59Z</time>
      </trkpt>
      <trkpt lat="46.24595" lon="5.35116">
        <ele>279</ele>
        <time>2022-02-19T13:31:00Z</time>
      </trkpt>
      <trkpt lat="46.24584" lon="5.35103">
        <ele>278.8</ele>
        <time>2022-02-19T13:31:02Z</time>
      </trkpt>
      <trkpt lat="46.24575" lon="5.35097">
        <ele>278.6</ele>
        <time>2022-02-19T13:31:03Z</time>
      </trkpt>
      <trkpt lat="46.24549" lon="5.35077">
        <ele>278.4</ele>
        <time>2022-02-19T13:31:07Z</time>
      </trkpt>
      <trkpt lat="46.24499" lon="5.35041">
        <ele>278.6</ele>
        <time>2022-02-19T13:31:15Z</time>
      </trkpt>
      <trkpt lat="46.24471" lon="5.35019">
        <ele>279.2</ele>
        <time>2022-02-19T13:31:20Z</time>
      </trkpt>
      <trkpt lat="46.24455" lon="5.35005">
        <ele>279.6</ele>
        <time>2022-02-19T13:31:23Z</time>
      </trkpt>
      <trkpt lat="46.2444" lon="5.34992">
        <ele>280.2</ele>
        <time>2022-02-19T13:31:26Z</time>
      </trkpt>
      <trkpt lat="46.24431" lon="5.34985">
        <ele>280.6</ele>
        <time>2022-02-19T13:31:28Z</time>
      </trkpt>
      <trkpt lat="46.24416" lon="5.34979">
        <ele>281.2</ele>
        <time>2022-02-19T13:31:31Z</time>
      </trkpt>
      <trkpt lat="46.24392" lon="5.34979">
        <ele>282.4</ele>
        <time>2022-02-19T13:31:36Z</time>
      </trkpt>
      <trkpt lat="46.24368" lon="5.3498">
        <ele>283.4</ele>
        <time>2022-02-19T13:31:41Z</time>
      </trkpt>
      <trkpt lat="46.24359" lon="5.34979">
        <ele>284</ele>
        <time>2022-02-19T13:31:43Z</time>
      </trkpt>
      <trkpt lat="46.24344" lon="5.34978">
        <ele>284.6</ele>
        <time>2022-02-19T13:31:46Z</time>
      </trkpt>
      <trkpt lat="46.2432" lon="5.34975">
        <ele>285.4</ele>
        <time>2022-02-19T13:31:51Z</time>
      </trkpt>
      <trkpt lat="46.2431" lon="5.34974">
        <ele>285.8</ele>
        <time>2022-02-19T13:31:53Z</time>
      </trkpt>
      <trkpt lat="46.24277" lon="5.3497">
        <ele>286.4</ele>
        <time>2022-02-19T13:31:59Z</time>
      </trkpt>
      <trkpt lat="46.24254" lon="5.34966">
        <ele>286.8</ele>
        <time>2022-02-19T13:32:03Z</time>
      </trkpt>
      <trkpt lat="46.24244" lon="5.34961">
        <ele>287</ele>
        <time>2022-02-19T13:32:05Z</time>
      </trkpt>
      <trkpt lat="46.24234" lon="5.34956">
        <ele>287</ele>
        <time>2022-02-19T13:32:07Z</time>
      </trkpt>
      <trkpt lat="46.24208" lon="5.3494">
        <ele>287.2</ele>
        <time>2022-02-19T13:32:12Z</time>
      </trkpt>
      <trkpt lat="46.24202" lon="5.34936">
        <ele>287.4</ele>
        <time>2022-02-19T13:32:13Z</time>
      </trkpt>
      <trkpt lat="46.24195" lon="5.34942">
        <ele>287.4</ele>
        <time>2022-02-19T13:32:15Z</time>
      </trkpt>
      <trkpt lat="46.24193" lon="5.34947">
        <ele>287.6</ele>
        <time>2022-02-19T13:32:16Z</time>
      </trkpt>
      <trkpt lat="46.24188" lon="5.3497">
        <ele>287.8</ele>
        <time>2022-02-19T13:32:19Z</time>
      </trkpt>
      <trkpt lat="46.24185" lon="5.34984">
        <ele>288</ele>
        <time>2022-02-19T13:32:21Z</time>
      </trkpt>
      <trkpt lat="46.24178" lon="5.35024">
        <ele>288.8</ele>
        <time>2022-02-19T13:32:27Z</time>
      </trkpt>
      <trkpt lat="46.24176" lon="5.35029">
        <ele>289</ele>
        <time>2022-02-19T13:32:28Z</time>
      </trkpt>
      <trkpt lat="46.24172" lon="5.35045">
        <ele>289.6</ele>
        <time>2022-02-19T13:32:31Z</time>
      </trkpt>
      <trkpt lat="46.24169" lon="5.35049">
        <ele>290</ele>
        <time>2022-02-19T13:32:32Z</time>
      </trkpt>
      <trkpt lat="46.24163" lon="5.35054">
        <ele>290.4</ele>
        <time>2022-02-19T13:32:34Z</time>
      </trkpt>
      <trkpt lat="46.24151" lon="5.35059">
        <ele>291.4</ele>
        <time>2022-02-19T13:32:37Z</time>
      </trkpt>
      <trkpt lat="46.24148" lon="5.3506">
        <ele>291.6</ele>
        <time>2022-02-19T13:32:38Z</time>
      </trkpt>
      <trkpt lat="46.2412" lon="5.35069">
        <ele>292.8</ele>
        <time>2022-02-19T13:32:45Z</time>
      </trkpt>
      <trkpt lat="46.24116" lon="5.3507">
        <ele>292.8</ele>
        <time>2022-02-19T13:32:46Z</time>
      </trkpt>
      <trkpt lat="46.241" lon="5.35083">
        <ele>293.8</ele>
        <time>2022-02-19T13:32:51Z</time>
      </trkpt>
      <trkpt lat="46.24095" lon="5.35091">
        <ele>294</ele>
        <time>2022-02-19T13:32:53Z</time>
      </trkpt>
      <trkpt lat="46.24086" lon="5.35106">
        <ele>294.8</ele>
        <time>2022-02-19T13:32:57Z</time>
      </trkpt>
      <trkpt lat="46.24082" lon="5.35113">
        <ele>295.2</ele>
        <time>2022-02-19T13:32:59Z</time>
      </trkpt>
      <trkpt lat="46.24078" lon="5.35119">
        <ele>295.8</ele>
        <time>2022-02-19T13:33:01Z</time>
      </trkpt>
      <trkpt lat="46.24073" lon="5.35126">
        <ele>296.4</ele>
        <time>2022-02-19T13:33:03Z</time>
      </trkpt>
      <trkpt lat="46.24065" lon="5.3514">
        <ele>297.6</ele>
        <time>2022-02-19T13:33:07Z</time>
      </trkpt>
      <trkpt lat="46.2405" lon="5.35163">
        <ele>298.4</ele>
        <time>2022-02-19T13:33:12Z</time>
      </trkpt>
      <trkpt lat="46.2404" lon="5.35176">
        <ele>298.8</ele>
        <time>2022-02-19T13:33:15Z</time>
      </trkpt>
      <trkpt lat="46.24039" lon="5.3518">
        <ele>299</ele>
        <time>2022-02-19T13:33:16Z</time>
      </trkpt>
      <trkpt lat="46.24037" lon="5.35184">
        <ele>299.2</ele>
        <time>2022-02-19T13:33:17Z</time>
      </trkpt>
      <trkpt lat="46.24028" lon="5.35195">
        <ele>299.8</ele>
        <time>2022-02-19T13:33:20Z</time>
      </trkpt>
      <trkpt lat="46.24016" lon="5.35206">
        <ele>300.4</ele>
        <time>2022-02-19T13:33:23Z</time>
      </trkpt>
      <trkpt lat="46.24003" lon="5.35221">
        <ele>301</ele>
        <time>2022-02-19T13:33:26Z</time>
      </trkpt>
      <trkpt lat="46.23997" lon="5.35228">
        <ele>301</ele>
        <time>2022-02-19T13:33:27Z</time>
      </trkpt>
      <trkpt lat="46.23992" lon="5.35234">
        <ele>301.2</ele>
        <time>2022-02-19T13:33:28Z</time>
      </trkpt>
      <trkpt lat="46.23964" lon="5.35256">
        <ele>301.6</ele>
        <time>2022-02-19T13:33:34Z</time>
      </trkpt>
      <trkpt lat="46.23959" lon="5.35259">
        <ele>301.6</ele>
        <time>2022-02-19T13:33:35Z</time>
      </trkpt>
      <trkpt lat="46.23949" lon="5.35264">
        <ele>302</ele>
        <time>2022-02-19T13:33:37Z</time>
      </trkpt>
      <trkpt lat="46.23943" lon="5.35265">
        <ele>302.2</ele>
        <time>2022-02-19T13:33:38Z</time>
      </trkpt>
      <trkpt lat="46.23938" lon="5.35266">
        <ele>302.2</ele>
        <time>2022-02-19T13:33:39Z</time>
      </trkpt>
      <trkpt lat="46.23919" lon="5.35267">
        <ele>302.2</ele>
        <time>2022-02-19T13:33:42Z</time>
      </trkpt>
      <trkpt lat="46.23905" lon="5.35269">
        <ele>302.4</ele>
        <time>2022-02-19T13:33:44Z</time>
      </trkpt>
      <trkpt lat="46.23862" lon="5.35276">
        <ele>301.6</ele>
        <time>2022-02-19T13:33:50Z</time>
      </trkpt>
      <trkpt lat="46.23822" lon="5.35296">
        <ele>301.2</ele>
        <time>2022-02-19T13:33:56Z</time>
      </trkpt>
      <trkpt lat="46.23816" lon="5.35301">
        <ele>301</ele>
        <time>2022-02-19T13:33:57Z</time>
      </trkpt>
      <trkpt lat="46.2381" lon="5.35317">
        <ele>300.8</ele>
        <time>2022-02-19T13:33:59Z</time>
      </trkpt>
      <trkpt lat="46.23807" lon="5.35356">
        <ele>300.4</ele>
        <time>2022-02-19T13:34:03Z</time>
      </trkpt>
      <trkpt lat="46.23805" lon="5.35365">
        <ele>300.4</ele>
        <time>2022-02-19T13:34:04Z</time>
      </trkpt>
      <trkpt lat="46.23797" lon="5.35384">
        <ele>300.4</ele>
        <time>2022-02-19T13:34:06Z</time>
      </trkpt>
      <trkpt lat="46.2377" lon="5.35428">
        <ele>300.6</ele>
        <time>2022-02-19T13:34:13Z</time>
      </trkpt>
      <trkpt lat="46.23749" lon="5.35461">
        <ele>301.2</ele>
        <time>2022-02-19T13:34:19Z</time>
      </trkpt>
      <trkpt lat="46.23739" lon="5.35475">
        <ele>302.2</ele>
        <time>2022-02-19T13:34:22Z</time>
      </trkpt>
      <trkpt lat="46.2373" lon="5.35487">
        <ele>302.6</ele>
        <time>2022-02-19T13:34:25Z</time>
      </trkpt>
      <trkpt lat="46.23722" lon="5.35495">
        <ele>303.6</ele>
        <time>2022-02-19T13:34:27Z</time>
      </trkpt>
      <trkpt lat="46.2371" lon="5.3551">
        <ele>304.2</ele>
        <time>2022-02-19T13:34:30Z</time>
      </trkpt>
      <trkpt lat="46.23691" lon="5.35539">
        <ele>304.8</ele>
        <time>2022-02-19T13:34:35Z</time>
      </trkpt>
      <trkpt lat="46.23681" lon="5.35556">
        <ele>305.2</ele>
        <time>2022-02-19T13:34:38Z</time>
      </trkpt>
      <trkpt lat="46.23678" lon="5.35564">
        <ele>305.4</ele>
        <time>2022-02-19T13:34:39Z</time>
      </trkpt>
      <trkpt lat="46.23673" lon="5.35585">
        <ele>305.8</ele>
        <time>2022-02-19T13:34:42Z</time>
      </trkpt>
      <trkpt lat="46.23672" lon="5.35601">
        <ele>306</ele>
        <time>2022-02-19T13:34:44Z</time>
      </trkpt>
      <trkpt lat="46.23675" lon="5.35616">
        <ele>306.2</ele>
        <time>2022-02-19T13:34:46Z</time>
      </trkpt>
      <trkpt lat="46.2368" lon="5.35639">
        <ele>306.8</ele>
        <time>2022-02-19T13:34:49Z</time>
      </trkpt>
      <trkpt lat="46.23686" lon="5.3569">
        <ele>307.6</ele>
        <time>2022-02-19T13:34:56Z</time>
      </trkpt>
      <trkpt lat="46.23687" lon="5.35698">
        <ele>307.8</ele>
        <time>2022-02-19T13:34:57Z</time>
      </trkpt>
      <trkpt lat="46.23691" lon="5.35712">
        <ele>308</ele>
        <time>2022-02-19T13:34:59Z</time>
      </trkpt>
      <trkpt lat="46.23698" lon="5.35733">
        <ele>308.2</ele>
        <time>2022-02-19T13:35:02Z</time>
      </trkpt>
      <trkpt lat="46.2372" lon="5.35784">
        <ele>309</ele>
        <time>2022-02-19T13:35:10Z</time>
      </trkpt>
      <trkpt lat="46.23743" lon="5.35826">
        <ele>309.6</ele>
        <time>2022-02-19T13:35:17Z</time>
      </trkpt>
      <trkpt lat="46.23756" lon="5.35845">
        <ele>310</ele>
        <time>2022-02-19T13:35:21Z</time>
      </trkpt>
      <trkpt lat="46.23763" lon="5.35855">
        <ele>310.4</ele>
        <time>2022-02-19T13:35:23Z</time>
      </trkpt>
      <trkpt lat="46.23766" lon="5.3586">
        <ele>310.8</ele>
        <time>2022-02-19T13:35:24Z</time>
      </trkpt>
      <trkpt lat="46.23772" lon="5.35869">
        <ele>311</ele>
        <time>2022-02-19T13:35:26Z</time>
      </trkpt>
      <trkpt lat="46.2378" lon="5.35877">
        <ele>311.4</ele>
        <time>2022-02-19T13:35:28Z</time>
      </trkpt>
      <trkpt lat="46.23791" lon="5.35888">
        <ele>312.2</ele>
        <time>2022-02-19T13:35:31Z</time>
      </trkpt>
      <trkpt lat="46.23807" lon="5.35901">
        <ele>313</ele>
        <time>2022-02-19T13:35:35Z</time>
      </trkpt>
      <trkpt lat="46.23816" lon="5.35906">
        <ele>313.2</ele>
        <time>2022-02-19T13:35:37Z</time>
      </trkpt>
      <trkpt lat="46.23831" lon="5.35911">
        <ele>314</ele>
        <time>2022-02-19T13:35:40Z</time>
      </trkpt>
      <trkpt lat="46.23836" lon="5.35912">
        <ele>314.2</ele>
        <time>2022-02-19T13:35:41Z</time>
      </trkpt>
      <trkpt lat="46.23857" lon="5.35915">
        <ele>315.4</ele>
        <time>2022-02-19T13:35:45Z</time>
      </trkpt>
      <trkpt lat="46.23878" lon="5.35918">
        <ele>315.6</ele>
        <time>2022-02-19T13:35:49Z</time>
      </trkpt>
      <trkpt lat="46.23892" lon="5.35923">
        <ele>315.8</ele>
        <time>2022-02-19T13:35:52Z</time>
      </trkpt>
      <trkpt lat="46.23901" lon="5.35929">
        <ele>316</ele>
        <time>2022-02-19T13:35:54Z</time>
      </trkpt>
      <trkpt lat="46.23906" lon="5.35932">
        <ele>316.2</ele>
        <time>2022-02-19T13:35:55Z</time>
      </trkpt>
      <trkpt lat="46.23911" lon="5.35937">
        <ele>316.4</ele>
        <time>2022-02-19T13:35:56Z</time>
      </trkpt>
      <trkpt lat="46.23935" lon="5.35961">
        <ele>317.4</ele>
        <time>2022-02-19T13:36:02Z</time>
      </trkpt>
      <trkpt lat="46.2394" lon="5.35965">
        <ele>317.6</ele>
        <time>2022-02-19T13:36:03Z</time>
      </trkpt>
      <trkpt lat="46.23964" lon="5.35989">
        <ele>318.6</ele>
        <time>2022-02-19T13:36:09Z</time>
      </trkpt>
      <trkpt lat="46.23968" lon="5.35992">
        <ele>318.6</ele>
        <time>2022-02-19T13:36:10Z</time>
      </trkpt>
      <trkpt lat="46.23983" lon="5.36008">
        <ele>319.6</ele>
        <time>2022-02-19T13:36:14Z</time>
      </trkpt>
      <trkpt lat="46.23986" lon="5.36013">
        <ele>319.8</ele>
        <time>2022-02-19T13:36:15Z</time>
      </trkpt>
      <trkpt lat="46.23988" lon="5.36016">
        <ele>320</ele>
        <time>2022-02-19T13:36:16Z</time>
      </trkpt>
      <trkpt lat="46.23989" lon="5.36019">
        <ele>320</ele>
        <time>2022-02-19T13:36:17Z</time>
      </trkpt>
      <trkpt lat="46.2399" lon="5.36026">
        <ele>320.4</ele>
        <time>2022-02-19T13:36:19Z</time>
      </trkpt>
      <trkpt lat="46.23987" lon="5.36042">
        <ele>320.6</ele>
        <time>2022-02-19T13:36:22Z</time>
      </trkpt>
      <trkpt lat="46.23985" lon="5.36047">
        <ele>320.8</ele>
        <time>2022-02-19T13:36:23Z</time>
      </trkpt>
      <trkpt lat="46.23982" lon="5.36052">
        <ele>320.8</ele>
        <time>2022-02-19T13:36:24Z</time>
      </trkpt>
      <trkpt lat="46.23974" lon="5.36059">
        <ele>321</ele>
        <time>2022-02-19T13:36:26Z</time>
      </trkpt>
      <trkpt lat="46.23964" lon="5.36062">
        <ele>321.4</ele>
        <time>2022-02-19T13:36:28Z</time>
      </trkpt>
      <trkpt lat="46.23956" lon="5.36061">
        <ele>322</ele>
        <time>2022-02-19T13:36:30Z</time>
      </trkpt>
      <trkpt lat="46.23939" lon="5.36055">
        <ele>322.6</ele>
        <time>2022-02-19T13:36:35Z</time>
      </trkpt>
      <trkpt lat="46.23932" lon="5.36052">
        <ele>323.2</ele>
        <time>2022-02-19T13:36:37Z</time>
      </trkpt>
      <trkpt lat="46.23919" lon="5.36044">
        <ele>324</ele>
        <time>2022-02-19T13:36:41Z</time>
      </trkpt>
      <trkpt lat="46.23916" lon="5.36043">
        <ele>324.2</ele>
        <time>2022-02-19T13:36:42Z</time>
      </trkpt>
      <trkpt lat="46.23903" lon="5.36038">
        <ele>325.2</ele>
        <time>2022-02-19T13:36:46Z</time>
      </trkpt>
      <trkpt lat="46.23884" lon="5.36029">
        <ele>326.4</ele>
        <time>2022-02-19T13:36:51Z</time>
      </trkpt>
      <trkpt lat="46.2388" lon="5.36027">
        <ele>326.6</ele>
        <time>2022-02-19T13:36:52Z</time>
      </trkpt>
      <trkpt lat="46.2387" lon="5.36021">
        <ele>327.4</ele>
        <time>2022-02-19T13:36:55Z</time>
      </trkpt>
      <trkpt lat="46.23859" lon="5.36014">
        <ele>328.2</ele>
        <time>2022-02-19T13:36:58Z</time>
      </trkpt>
      <trkpt lat="46.23856" lon="5.36012">
        <ele>328.6</ele>
        <time>2022-02-19T13:36:59Z</time>
      </trkpt>
      <trkpt lat="46.23837" lon="5.36004">
        <ele>330</ele>
        <time>2022-02-19T13:37:04Z</time>
      </trkpt>
      <trkpt lat="46.23826" lon="5.36001">
        <ele>330.2</ele>
        <time>2022-02-19T13:37:07Z</time>
      </trkpt>
      <trkpt lat="46.23816" lon="5.35995">
        <ele>331</ele>
        <time>2022-02-19T13:37:10Z</time>
      </trkpt>
      <trkpt lat="46.23801" lon="5.35989">
        <ele>332</ele>
        <time>2022-02-19T13:37:14Z</time>
      </trkpt>
      <trkpt lat="46.23797" lon="5.35987">
        <ele>332.2</ele>
        <time>2022-02-19T13:37:15Z</time>
      </trkpt>
      <trkpt lat="46.23782" lon="5.35979">
        <ele>333.4</ele>
        <time>2022-02-19T13:37:19Z</time>
      </trkpt>
      <trkpt lat="46.23764" lon="5.35975">
        <ele>334.8</ele>
        <time>2022-02-19T13:37:24Z</time>
      </trkpt>
      <trkpt lat="46.23761" lon="5.35977">
        <ele>334.8</ele>
        <time>2022-02-19T13:37:25Z</time>
      </trkpt>
      <trkpt lat="46.23748" lon="5.35985">
        <ele>335.8</ele>
        <time>2022-02-19T13:37:29Z</time>
      </trkpt>
      <trkpt lat="46.23741" lon="5.35988">
        <ele>336.2</ele>
        <time>2022-02-19T13:37:31Z</time>
      </trkpt>
      <trkpt lat="46.23733" lon="5.3599">
        <ele>337</ele>
        <time>2022-02-19T13:37:33Z</time>
      </trkpt>
      <trkpt lat="46.23722" lon="5.35988">
        <ele>337.6</ele>
        <time>2022-02-19T13:37:36Z</time>
      </trkpt>
      <trkpt lat="46.23715" lon="5.35984">
        <ele>338</ele>
        <time>2022-02-19T13:37:38Z</time>
      </trkpt>
      <trkpt lat="46.23697" lon="5.35971">
        <ele>339.2</ele>
        <time>2022-02-19T13:37:43Z</time>
      </trkpt>
      <trkpt lat="46.2369" lon="5.35966">
        <ele>339.8</ele>
        <time>2022-02-19T13:37:45Z</time>
      </trkpt>
      <trkpt lat="46.23677" lon="5.35956">
        <ele>340.6</ele>
        <time>2022-02-19T13:37:49Z</time>
      </trkpt>
      <trkpt lat="46.23668" lon="5.35946">
        <ele>341</ele>
        <time>2022-02-19T13:37:52Z</time>
      </trkpt>
      <trkpt lat="46.23658" lon="5.35936">
        <ele>341.4</ele>
        <time>2022-02-19T13:37:55Z</time>
      </trkpt>
      <trkpt lat="46.23646" lon="5.35923">
        <ele>342.8</ele>
        <time>2022-02-19T13:37:59Z</time>
      </trkpt>
      <trkpt lat="46.23643" lon="5.35919">
        <ele>343</ele>
        <time>2022-02-19T13:38:00Z</time>
      </trkpt>
      <trkpt lat="46.23634" lon="5.35909">
        <ele>344</ele>
        <time>2022-02-19T13:38:03Z</time>
      </trkpt>
      <trkpt lat="46.23622" lon="5.35894">
        <ele>345</ele>
        <time>2022-02-19T13:38:07Z</time>
      </trkpt>
      <trkpt lat="46.23608" lon="5.35876">
        <ele>346.2</ele>
        <time>2022-02-19T13:38:12Z</time>
      </trkpt>
      <trkpt lat="46.236" lon="5.35865">
        <ele>347.2</ele>
        <time>2022-02-19T13:38:15Z</time>
      </trkpt>
      <trkpt lat="46.23597" lon="5.35862">
        <ele>347.4</ele>
        <time>2022-02-19T13:38:16Z</time>
      </trkpt>
      <trkpt lat="46.23588" lon="5.35852">
        <ele>348.2</ele>
        <time>2022-02-19T13:38:19Z</time>
      </trkpt>
      <trkpt lat="46.23577" lon="5.3584">
        <ele>349.6</ele>
        <time>2022-02-19T13:38:23Z</time>
      </trkpt>
      <trkpt lat="46.23564" lon="5.35829">
        <ele>350.6</ele>
        <time>2022-02-19T13:38:27Z</time>
      </trkpt>
      <trkpt lat="46.23553" lon="5.35819">
        <ele>352</ele>
        <time>2022-02-19T13:38:31Z</time>
      </trkpt>
      <trkpt lat="46.2354" lon="5.35811">
        <ele>353.2</ele>
        <time>2022-02-19T13:38:35Z</time>
      </trkpt>
      <trkpt lat="46.23537" lon="5.3581">
        <ele>353.4</ele>
        <time>2022-02-19T13:38:36Z</time>
      </trkpt>
      <trkpt lat="46.23526" lon="5.35805">
        <ele>354.4</ele>
        <time>2022-02-19T13:38:39Z</time>
      </trkpt>
      <trkpt lat="46.2351" lon="5.35795">
        <ele>355.4</ele>
        <time>2022-02-19T13:38:43Z</time>
      </trkpt>
      <trkpt lat="46.23506" lon="5.35792">
        <ele>355.6</ele>
        <time>2022-02-19T13:38:44Z</time>
      </trkpt>
      <trkpt lat="46.23489" lon="5.35776">
        <ele>356.8</ele>
        <time>2022-02-19T13:38:49Z</time>
      </trkpt>
      <trkpt lat="46.23482" lon="5.35772">
        <ele>357.2</ele>
        <time>2022-02-19T13:38:51Z</time>
      </trkpt>
      <trkpt lat="46.23474" lon="5.35767">
        <ele>357.8</ele>
        <time>2022-02-19T13:38:53Z</time>
      </trkpt>
      <trkpt lat="46.23456" lon="5.35756">
        <ele>359.4</ele>
        <time>2022-02-19T13:38:58Z</time>
      </trkpt>
      <trkpt lat="46.23454" lon="5.35754">
        <ele>359.4</ele>
        <time>2022-02-19T13:38:59Z</time>
      </trkpt>
      <trkpt lat="46.23437" lon="5.35743">
        <ele>360.6</ele>
        <time>2022-02-19T13:39:04Z</time>
      </trkpt>
      <trkpt lat="46.23426" lon="5.35736">
        <ele>361.2</ele>
        <time>2022-02-19T13:39:07Z</time>
      </trkpt>
      <trkpt lat="46.2342" lon="5.35734">
        <ele>361.6</ele>
        <time>2022-02-19T13:39:09Z</time>
      </trkpt>
      <trkpt lat="46.2341" lon="5.35731">
        <ele>362.6</ele>
        <time>2022-02-19T13:39:12Z</time>
      </trkpt>
      <trkpt lat="46.23407" lon="5.3573">
        <ele>362.8</ele>
        <time>2022-02-19T13:39:13Z</time>
      </trkpt>
      <trkpt lat="46.23389" lon="5.35726">
        <ele>364</ele>
        <time>2022-02-19T13:39:18Z</time>
      </trkpt>
      <trkpt lat="46.23385" lon="5.35726">
        <ele>364.2</ele>
        <time>2022-02-19T13:39:19Z</time>
      </trkpt>
      <trkpt lat="46.23366" lon="5.35718">
        <ele>365.2</ele>
        <time>2022-02-19T13:39:24Z</time>
      </trkpt>
      <trkpt lat="46.23361" lon="5.35716">
        <ele>365.6</ele>
        <time>2022-02-19T13:39:25Z</time>
      </trkpt>
      <trkpt lat="46.2335" lon="5.35713">
        <ele>366.4</ele>
        <time>2022-02-19T13:39:28Z</time>
      </trkpt>
      <trkpt lat="46.2334" lon="5.35711">
        <ele>366.8</ele>
        <time>2022-02-19T13:39:31Z</time>
      </trkpt>
      <trkpt lat="46.23332" lon="5.35708">
        <ele>367.6</ele>
        <time>2022-02-19T13:39:33Z</time>
      </trkpt>
      <trkpt lat="46.23316" lon="5.35706">
        <ele>368.8</ele>
        <time>2022-02-19T13:39:37Z</time>
      </trkpt>
      <trkpt lat="46.2331" lon="5.35705">
        <ele>369.4</ele>
        <time>2022-02-19T13:39:39Z</time>
      </trkpt>
      <trkpt lat="46.23303" lon="5.35705">
        <ele>369.8</ele>
        <time>2022-02-19T13:39:41Z</time>
      </trkpt>
      <trkpt lat="46.23293" lon="5.35708">
        <ele>370.8</ele>
        <time>2022-02-19T13:39:44Z</time>
      </trkpt>
      <trkpt lat="46.23289" lon="5.35711">
        <ele>371.2</ele>
        <time>2022-02-19T13:39:45Z</time>
      </trkpt>
      <trkpt lat="46.2328" lon="5.35721">
        <ele>372</ele>
        <time>2022-02-19T13:39:48Z</time>
      </trkpt>
      <trkpt lat="46.23277" lon="5.35725">
        <ele>372.2</ele>
        <time>2022-02-19T13:39:49Z</time>
      </trkpt>
      <trkpt lat="46.2326" lon="5.35741">
        <ele>373.2</ele>
        <time>2022-02-19T13:39:54Z</time>
      </trkpt>
      <trkpt lat="46.23243" lon="5.35744">
        <ele>374.8</ele>
        <time>2022-02-19T13:39:59Z</time>
      </trkpt>
      <trkpt lat="46.23233" lon="5.35747">
        <ele>376.2</ele>
        <time>2022-02-19T13:40:02Z</time>
      </trkpt>
      <trkpt lat="46.23226" lon="5.35752">
        <ele>376.8</ele>
        <time>2022-02-19T13:40:04Z</time>
      </trkpt>
      <trkpt lat="46.2322" lon="5.35756">
        <ele>377.4</ele>
        <time>2022-02-19T13:40:06Z</time>
      </trkpt>
      <trkpt lat="46.23212" lon="5.3576">
        <ele>378.2</ele>
        <time>2022-02-19T13:40:08Z</time>
      </trkpt>
      <trkpt lat="46.23207" lon="5.35762">
        <ele>378.6</ele>
        <time>2022-02-19T13:40:09Z</time>
      </trkpt>
      <trkpt lat="46.23197" lon="5.35764">
        <ele>379.6</ele>
        <time>2022-02-19T13:40:12Z</time>
      </trkpt>
      <trkpt lat="46.23194" lon="5.35766">
        <ele>379.8</ele>
        <time>2022-02-19T13:40:13Z</time>
      </trkpt>
      <trkpt lat="46.23181" lon="5.35776">
        <ele>381.2</ele>
        <time>2022-02-19T13:40:16Z</time>
      </trkpt>
      <trkpt lat="46.23167" lon="5.35787">
        <ele>382</ele>
        <time>2022-02-19T13:40:20Z</time>
      </trkpt>
      <trkpt lat="46.23159" lon="5.35788">
        <ele>382.6</ele>
        <time>2022-02-19T13:40:22Z</time>
      </trkpt>
      <trkpt lat="46.23148" lon="5.35789">
        <ele>383.4</ele>
        <time>2022-02-19T13:40:25Z</time>
      </trkpt>
      <trkpt lat="46.23144" lon="5.35791">
        <ele>383.4</ele>
        <time>2022-02-19T13:40:26Z</time>
      </trkpt>
      <trkpt lat="46.23139" lon="5.35795">
        <ele>383.6</ele>
        <time>2022-02-19T13:40:27Z</time>
      </trkpt>
      <trkpt lat="46.23135" lon="5.35801">
        <ele>383.6</ele>
        <time>2022-02-19T13:40:28Z</time>
      </trkpt>
      <trkpt lat="46.23129" lon="5.35815">
        <ele>383.6</ele>
        <time>2022-02-19T13:40:30Z</time>
      </trkpt>
      <trkpt lat="46.23126" lon="5.35826">
        <ele>383.6</ele>
        <time>2022-02-19T13:40:31Z</time>
      </trkpt>
      <trkpt lat="46.23111" lon="5.35876">
        <ele>383.4</ele>
        <time>2022-02-19T13:40:36Z</time>
      </trkpt>
      <trkpt lat="46.23096" lon="5.35921">
        <ele>382</ele>
        <time>2022-02-19T13:40:40Z</time>
      </trkpt>
      <trkpt lat="46.23089" lon="5.35946">
        <ele>381</ele>
        <time>2022-02-19T13:40:42Z</time>
      </trkpt>
      <trkpt lat="46.23077" lon="5.35982">
        <ele>379.8</ele>
        <time>2022-02-19T13:40:45Z</time>
      </trkpt>
      <trkpt lat="46.23059" lon="5.36039">
        <ele>378.4</ele>
        <time>2022-02-19T13:40:49Z</time>
      </trkpt>
      <trkpt lat="46.23055" lon="5.36052">
        <ele>378</ele>
        <time>2022-02-19T13:40:50Z</time>
      </trkpt>
      <trkpt lat="46.23046" lon="5.3608">
        <ele>377.2</ele>
        <time>2022-02-19T13:40:52Z</time>
      </trkpt>
      <trkpt lat="46.23033" lon="5.36118">
        <ele>376</ele>
        <time>2022-02-19T13:40:55Z</time>
      </trkpt>
      <trkpt lat="46.23028" lon="5.36136">
        <ele>375.4</ele>
        <time>2022-02-19T13:40:56Z</time>
      </trkpt>
      <trkpt lat="46.23023" lon="5.3615">
        <ele>374.8</ele>
        <time>2022-02-19T13:40:57Z</time>
      </trkpt>
      <trkpt lat="46.23005" lon="5.36208">
        <ele>373.2</ele>
        <time>2022-02-19T13:41:01Z</time>
      </trkpt>
      <trkpt lat="46.22997" lon="5.36234">
        <ele>372</ele>
        <time>2022-02-19T13:41:03Z</time>
      </trkpt>
      <trkpt lat="46.22986" lon="5.36266">
        <ele>370.8</ele>
        <time>2022-02-19T13:41:05Z</time>
      </trkpt>
      <trkpt lat="46.22976" lon="5.36296">
        <ele>369.8</ele>
        <time>2022-02-19T13:41:07Z</time>
      </trkpt>
      <trkpt lat="46.22968" lon="5.36322">
        <ele>368.4</ele>
        <time>2022-02-19T13:41:09Z</time>
      </trkpt>
      <trkpt lat="46.22957" lon="5.36355">
        <ele>367</ele>
        <time>2022-02-19T13:41:11Z</time>
      </trkpt>
      <trkpt lat="46.22948" lon="5.36381">
        <ele>365.6</ele>
        <time>2022-02-19T13:41:13Z</time>
      </trkpt>
      <trkpt lat="46.22933" lon="5.36428">
        <ele>364.6</ele>
        <time>2022-02-19T13:41:16Z</time>
      </trkpt>
      <trkpt lat="46.22919" lon="5.36471">
        <ele>363</ele>
        <time>2022-02-19T13:41:19Z</time>
      </trkpt>
      <trkpt lat="46.2291" lon="5.36499">
        <ele>361.8</ele>
        <time>2022-02-19T13:41:21Z</time>
      </trkpt>
      <trkpt lat="46.22901" lon="5.36528">
        <ele>360.8</ele>
        <time>2022-02-19T13:41:23Z</time>
      </trkpt>
      <trkpt lat="46.22897" lon="5.36542">
        <ele>360.4</ele>
        <time>2022-02-19T13:41:24Z</time>
      </trkpt>
      <trkpt lat="46.22888" lon="5.3657">
        <ele>359.4</ele>
        <time>2022-02-19T13:41:26Z</time>
      </trkpt>
      <trkpt lat="46.22874" lon="5.36613">
        <ele>358.4</ele>
        <time>2022-02-19T13:41:29Z</time>
      </trkpt>
      <trkpt lat="46.22865" lon="5.36642">
        <ele>357.2</ele>
        <time>2022-02-19T13:41:31Z</time>
      </trkpt>
      <trkpt lat="46.22856" lon="5.3667">
        <ele>356.2</ele>
        <time>2022-02-19T13:41:33Z</time>
      </trkpt>
      <trkpt lat="46.22847" lon="5.36698">
        <ele>355.2</ele>
        <time>2022-02-19T13:41:35Z</time>
      </trkpt>
      <trkpt lat="46.22833" lon="5.3674">
        <ele>354</ele>
        <time>2022-02-19T13:41:38Z</time>
      </trkpt>
      <trkpt lat="46.22819" lon="5.3678">
        <ele>352.8</ele>
        <time>2022-02-19T13:41:41Z</time>
      </trkpt>
      <trkpt lat="46.22812" lon="5.36804">
        <ele>352.2</ele>
        <time>2022-02-19T13:41:43Z</time>
      </trkpt>
      <trkpt lat="46.22802" lon="5.36832">
        <ele>351.4</ele>
        <time>2022-02-19T13:41:45Z</time>
      </trkpt>
      <trkpt lat="46.22786" lon="5.36882">
        <ele>350.6</ele>
        <time>2022-02-19T13:41:49Z</time>
      </trkpt>
      <trkpt lat="46.22778" lon="5.36906">
        <ele>350.4</ele>
        <time>2022-02-19T13:41:51Z</time>
      </trkpt>
      <trkpt lat="46.2276" lon="5.36957">
        <ele>349.2</ele>
        <time>2022-02-19T13:41:55Z</time>
      </trkpt>
      <trkpt lat="46.22755" lon="5.3697">
        <ele>348.4</ele>
        <time>2022-02-19T13:41:56Z</time>
      </trkpt>
      <trkpt lat="46.22746" lon="5.36997">
        <ele>348</ele>
        <time>2022-02-19T13:41:58Z</time>
      </trkpt>
      <trkpt lat="46.22729" lon="5.37053">
        <ele>346.8</ele>
        <time>2022-02-19T13:42:02Z</time>
      </trkpt>
      <trkpt lat="46.22725" lon="5.37067">
        <ele>346.2</ele>
        <time>2022-02-19T13:42:03Z</time>
      </trkpt>
      <trkpt lat="46.22716" lon="5.37096">
        <ele>345.4</ele>
        <time>2022-02-19T13:42:05Z</time>
      </trkpt>
      <trkpt lat="46.22704" lon="5.3714">
        <ele>344</ele>
        <time>2022-02-19T13:42:08Z</time>
      </trkpt>
      <trkpt lat="46.22696" lon="5.37165">
        <ele>342.6</ele>
        <time>2022-02-19T13:42:10Z</time>
      </trkpt>
      <trkpt lat="46.22687" lon="5.37192">
        <ele>341.4</ele>
        <time>2022-02-19T13:42:12Z</time>
      </trkpt>
      <trkpt lat="46.22684" lon="5.37206">
        <ele>341.4</ele>
        <time>2022-02-19T13:42:13Z</time>
      </trkpt>
      <trkpt lat="46.22683" lon="5.37233">
        <ele>340.8</ele>
        <time>2022-02-19T13:42:15Z</time>
      </trkpt>
      <trkpt lat="46.22691" lon="5.37257">
        <ele>340.6</ele>
        <time>2022-02-19T13:42:17Z</time>
      </trkpt>
      <trkpt lat="46.22699" lon="5.37264">
        <ele>340.4</ele>
        <time>2022-02-19T13:42:18Z</time>
      </trkpt>
      <trkpt lat="46.22706" lon="5.37269">
        <ele>340.4</ele>
        <time>2022-02-19T13:42:19Z</time>
      </trkpt>
      <trkpt lat="46.2272" lon="5.37277">
        <ele>340.4</ele>
        <time>2022-02-19T13:42:21Z</time>
      </trkpt>
      <trkpt lat="46.22771" lon="5.37305">
        <ele>341.6</ele>
        <time>2022-02-19T13:42:28Z</time>
      </trkpt>
      <trkpt lat="46.22779" lon="5.37309">
        <ele>341.6</ele>
        <time>2022-02-19T13:42:29Z</time>
      </trkpt>
      <trkpt lat="46.22826" lon="5.37336">
        <ele>341.8</ele>
        <time>2022-02-19T13:42:35Z</time>
      </trkpt>
      <trkpt lat="46.22881" lon="5.37368">
        <ele>340.8</ele>
        <time>2022-02-19T13:42:42Z</time>
      </trkpt>
      <trkpt lat="46.22889" lon="5.37372">
        <ele>340.6</ele>
        <time>2022-02-19T13:42:43Z</time>
      </trkpt>
      <trkpt lat="46.2291" lon="5.37385">
        <ele>340.4</ele>
        <time>2022-02-19T13:42:46Z</time>
      </trkpt>
      <trkpt lat="46.2294" lon="5.37401">
        <ele>340.4</ele>
        <time>2022-02-19T13:42:50Z</time>
      </trkpt>
      <trkpt lat="46.22976" lon="5.37422">
        <ele>340.8</ele>
        <time>2022-02-19T13:42:56Z</time>
      </trkpt>
      <trkpt lat="46.23019" lon="5.37447">
        <ele>341.8</ele>
        <time>2022-02-19T13:43:03Z</time>
      </trkpt>
      <trkpt lat="46.2306" lon="5.37472">
        <ele>342.2</ele>
        <time>2022-02-19T13:43:09Z</time>
      </trkpt>
      <trkpt lat="46.23111" lon="5.37503">
        <ele>341.2</ele>
        <time>2022-02-19T13:43:16Z</time>
      </trkpt>
      <trkpt lat="46.23118" lon="5.37507">
        <ele>341.2</ele>
        <time>2022-02-19T13:43:17Z</time>
      </trkpt>
      <trkpt lat="46.23145" lon="5.37524">
        <ele>340.8</ele>
        <time>2022-02-19T13:43:21Z</time>
      </trkpt>
      <trkpt lat="46.2317" lon="5.37539">
        <ele>340.4</ele>
        <time>2022-02-19T13:43:25Z</time>
      </trkpt>
      <trkpt lat="46.23222" lon="5.3757">
        <ele>340</ele>
        <time>2022-02-19T13:43:33Z</time>
      </trkpt>
      <trkpt lat="46.23229" lon="5.37574">
        <ele>340</ele>
        <time>2022-02-19T13:43:34Z</time>
      </trkpt>
      <trkpt lat="46.23277" lon="5.37603">
        <ele>340</ele>
        <time>2022-02-19T13:43:42Z</time>
      </trkpt>
      <trkpt lat="46.23316" lon="5.37627">
        <ele>341.2</ele>
        <time>2022-02-19T13:43:49Z</time>
      </trkpt>
      <trkpt lat="46.23356" lon="5.37649">
        <ele>341.8</ele>
        <time>2022-02-19T13:43:56Z</time>
      </trkpt>
      <trkpt lat="46.23362" lon="5.37654">
        <ele>341.8</ele>
        <time>2022-02-19T13:43:57Z</time>
      </trkpt>
      <trkpt lat="46.2338" lon="5.37665">
        <ele>342</ele>
        <time>2022-02-19T13:44:00Z</time>
      </trkpt>
      <trkpt lat="46.23407" lon="5.37681">
        <ele>342</ele>
        <time>2022-02-19T13:44:04Z</time>
      </trkpt>
      <trkpt lat="46.23459" lon="5.37713">
        <ele>341</ele>
        <time>2022-02-19T13:44:12Z</time>
      </trkpt>
      <trkpt lat="46.23465" lon="5.37716">
        <ele>340.8</ele>
        <time>2022-02-19T13:44:13Z</time>
      </trkpt>
      <trkpt lat="46.23505" lon="5.3774">
        <ele>340.8</ele>
        <time>2022-02-19T13:44:20Z</time>
      </trkpt>
      <trkpt lat="46.23545" lon="5.37763">
        <ele>341.6</ele>
        <time>2022-02-19T13:44:28Z</time>
      </trkpt>
      <trkpt lat="46.2355" lon="5.37766">
        <ele>341.8</ele>
        <time>2022-02-19T13:44:29Z</time>
      </trkpt>
      <trkpt lat="46.23589" lon="5.3779">
        <ele>342.2</ele>
        <time>2022-02-19T13:44:36Z</time>
      </trkpt>
      <trkpt lat="46.23607" lon="5.37801">
        <ele>342.4</ele>
        <time>2022-02-19T13:44:39Z</time>
      </trkpt>
      <trkpt lat="46.23631" lon="5.37814">
        <ele>342.4</ele>
        <time>2022-02-19T13:44:43Z</time>
      </trkpt>
      <trkpt lat="46.23668" lon="5.37836">
        <ele>342.6</ele>
        <time>2022-02-19T13:44:50Z</time>
      </trkpt>
      <trkpt lat="46.23696" lon="5.37853">
        <ele>343.2</ele>
        <time>2022-02-19T13:44:56Z</time>
      </trkpt>
      <trkpt lat="46.23702" lon="5.37856">
        <ele>343.4</ele>
        <time>2022-02-19T13:44:57Z</time>
      </trkpt>
      <trkpt lat="46.23743" lon="5.37881">
        <ele>343.8</ele>
        <time>2022-02-19T13:45:05Z</time>
      </trkpt>
      <trkpt lat="46.23795" lon="5.37912">
        <ele>344</ele>
        <time>2022-02-19T13:45:16Z</time>
      </trkpt>
      <trkpt lat="46.23799" lon="5.37915">
        <ele>344</ele>
        <time>2022-02-19T13:45:17Z</time>
      </trkpt>
      <trkpt lat="46.23818" lon="5.37926">
        <ele>344.4</ele>
        <time>2022-02-19T13:45:21Z</time>
      </trkpt>
      <trkpt lat="46.23837" lon="5.37938">
        <ele>344.6</ele>
        <time>2022-02-19T13:45:25Z</time>
      </trkpt>
      <trkpt lat="46.23877" lon="5.37961">
        <ele>345.2</ele>
        <time>2022-02-19T13:45:33Z</time>
      </trkpt>
      <trkpt lat="46.23887" lon="5.37967">
        <ele>345.4</ele>
        <time>2022-02-19T13:45:35Z</time>
      </trkpt>
      <trkpt lat="46.23919" lon="5.37987">
        <ele>346.2</ele>
        <time>2022-02-19T13:45:41Z</time>
      </trkpt>
      <trkpt lat="46.23929" lon="5.37994">
        <ele>346.6</ele>
        <time>2022-02-19T13:45:43Z</time>
      </trkpt>
      <trkpt lat="46.23946" lon="5.38004">
        <ele>346.6</ele>
        <time>2022-02-19T13:45:46Z</time>
      </trkpt>
      <trkpt lat="46.23952" lon="5.38008">
        <ele>346.6</ele>
        <time>2022-02-19T13:45:47Z</time>
      </trkpt>
      <trkpt lat="46.24001" lon="5.38036">
        <ele>346.8</ele>
        <time>2022-02-19T13:45:55Z</time>
      </trkpt>
      <trkpt lat="46.24056" lon="5.38068">
        <ele>346.6</ele>
        <time>2022-02-19T13:46:04Z</time>
      </trkpt>
      <trkpt lat="46.24067" lon="5.38075">
        <ele>346.6</ele>
        <time>2022-02-19T13:46:06Z</time>
      </trkpt>
      <trkpt lat="46.24092" lon="5.3809">
        <ele>347</ele>
        <time>2022-02-19T13:46:11Z</time>
      </trkpt>
      <trkpt lat="46.24103" lon="5.38096">
        <ele>347.2</ele>
        <time>2022-02-19T13:46:13Z</time>
      </trkpt>
      <trkpt lat="46.24123" lon="5.38109">
        <ele>347.8</ele>
        <time>2022-02-19T13:46:17Z</time>
      </trkpt>
      <trkpt lat="46.24144" lon="5.38121">
        <ele>348.2</ele>
        <time>2022-02-19T13:46:21Z</time>
      </trkpt>
      <trkpt lat="46.24164" lon="5.38133">
        <ele>348.8</ele>
        <time>2022-02-19T13:46:25Z</time>
      </trkpt>
      <trkpt lat="46.24194" lon="5.38151">
        <ele>349.6</ele>
        <time>2022-02-19T13:46:31Z</time>
      </trkpt>
      <trkpt lat="46.24203" lon="5.38157">
        <ele>350</ele>
        <time>2022-02-19T13:46:33Z</time>
      </trkpt>
      <trkpt lat="46.24242" lon="5.38181">
        <ele>351</ele>
        <time>2022-02-19T13:46:41Z</time>
      </trkpt>
      <trkpt lat="46.24251" lon="5.38186">
        <ele>351</ele>
        <time>2022-02-19T13:46:43Z</time>
      </trkpt>
      <trkpt lat="46.24286" lon="5.38206">
        <ele>351.8</ele>
        <time>2022-02-19T13:46:51Z</time>
      </trkpt>
      <trkpt lat="46.2429" lon="5.38208">
        <ele>352.2</ele>
        <time>2022-02-19T13:46:52Z</time>
      </trkpt>
      <trkpt lat="46.24316" lon="5.38222">
        <ele>352.8</ele>
        <time>2022-02-19T13:46:58Z</time>
      </trkpt>
      <trkpt lat="46.24329" lon="5.38229">
        <ele>353.2</ele>
        <time>2022-02-19T13:47:01Z</time>
      </trkpt>
      <trkpt lat="46.24354" lon="5.38244">
        <ele>354.2</ele>
        <time>2022-02-19T13:47:07Z</time>
      </trkpt>
      <trkpt lat="46.24358" lon="5.38246">
        <ele>354.4</ele>
        <time>2022-02-19T13:47:08Z</time>
      </trkpt>
      <trkpt lat="46.24378" lon="5.38258">
        <ele>355.2</ele>
        <time>2022-02-19T13:47:13Z</time>
      </trkpt>
      <trkpt lat="46.24382" lon="5.3826">
        <ele>355.6</ele>
        <time>2022-02-19T13:47:14Z</time>
      </trkpt>
      <trkpt lat="46.24402" lon="5.38274">
        <ele>356.6</ele>
        <time>2022-02-19T13:47:19Z</time>
      </trkpt>
      <trkpt lat="46.24418" lon="5.38284">
        <ele>357.2</ele>
        <time>2022-02-19T13:47:23Z</time>
      </trkpt>
      <trkpt lat="46.24426" lon="5.38288">
        <ele>358</ele>
        <time>2022-02-19T13:47:25Z</time>
      </trkpt>
      <trkpt lat="46.24448" lon="5.38302">
        <ele>359</ele>
        <time>2022-02-19T13:47:31Z</time>
      </trkpt>
      <trkpt lat="46.24471" lon="5.38317">
        <ele>360</ele>
        <time>2022-02-19T13:47:37Z</time>
      </trkpt>
      <trkpt lat="46.24485" lon="5.38329">
        <ele>360.8</ele>
        <time>2022-02-19T13:47:41Z</time>
      </trkpt>
      <trkpt lat="46.24492" lon="5.38336">
        <ele>361.2</ele>
        <time>2022-02-19T13:47:43Z</time>
      </trkpt>
      <trkpt lat="46.24509" lon="5.38354">
        <ele>362.2</ele>
        <time>2022-02-19T13:47:48Z</time>
      </trkpt>
      <trkpt lat="46.24519" lon="5.38367">
        <ele>362.8</ele>
        <time>2022-02-19T13:47:51Z</time>
      </trkpt>
      <trkpt lat="46.24525" lon="5.38376">
        <ele>363.2</ele>
        <time>2022-02-19T13:47:53Z</time>
      </trkpt>
      <trkpt lat="46.24543" lon="5.38409">
        <ele>364.2</ele>
        <time>2022-02-19T13:48:00Z</time>
      </trkpt>
      <trkpt lat="46.24546" lon="5.38414">
        <ele>364.4</ele>
        <time>2022-02-19T13:48:01Z</time>
      </trkpt>
      <trkpt lat="46.2456" lon="5.38449">
        <ele>365.4</ele>
        <time>2022-02-19T13:48:07Z</time>
      </trkpt>
      <trkpt lat="46.24565" lon="5.38461">
        <ele>365.8</ele>
        <time>2022-02-19T13:48:09Z</time>
      </trkpt>
      <trkpt lat="46.24574" lon="5.38491">
        <ele>366.6</ele>
        <time>2022-02-19T13:48:14Z</time>
      </trkpt>
      <trkpt lat="46.24578" lon="5.3851">
        <ele>367.2</ele>
        <time>2022-02-19T13:48:17Z</time>
      </trkpt>
      <trkpt lat="46.24583" lon="5.38536">
        <ele>367.8</ele>
        <time>2022-02-19T13:48:21Z</time>
      </trkpt>
      <trkpt lat="46.24588" lon="5.38569">
        <ele>368.6</ele>
        <time>2022-02-19T13:48:26Z</time>
      </trkpt>
      <trkpt lat="46.24588" lon="5.38576">
        <ele>368.8</ele>
        <time>2022-02-19T13:48:27Z</time>
      </trkpt>
      <trkpt lat="46.24589" lon="5.38609">
        <ele>370</ele>
        <time>2022-02-19T13:48:32Z</time>
      </trkpt>
      <trkpt lat="46.24589" lon="5.38621">
        <ele>370.4</ele>
        <time>2022-02-19T13:48:34Z</time>
      </trkpt>
      <trkpt lat="46.24589" lon="5.38645">
        <ele>371.2</ele>
        <time>2022-02-19T13:48:38Z</time>
      </trkpt>
      <trkpt lat="46.24588" lon="5.38665">
        <ele>371.8</ele>
        <time>2022-02-19T13:48:41Z</time>
      </trkpt>
      <trkpt lat="46.24588" lon="5.38676">
        <ele>372.4</ele>
        <time>2022-02-19T13:48:43Z</time>
      </trkpt>
      <trkpt lat="46.24589" lon="5.38688">
        <ele>372.8</ele>
        <time>2022-02-19T13:48:45Z</time>
      </trkpt>
      <trkpt lat="46.24589" lon="5.38694">
        <ele>373</ele>
        <time>2022-02-19T13:48:46Z</time>
      </trkpt>
      <trkpt lat="46.24589" lon="5.38711">
        <ele>373.4</ele>
        <time>2022-02-19T13:48:49Z</time>
      </trkpt>
      <trkpt lat="46.24589" lon="5.38729">
        <ele>374.2</ele>
        <time>2022-02-19T13:48:52Z</time>
      </trkpt>
      <trkpt lat="46.24588" lon="5.38741">
        <ele>374.6</ele>
        <time>2022-02-19T13:48:54Z</time>
      </trkpt>
      <trkpt lat="46.24592" lon="5.38769">
        <ele>375.6</ele>
        <time>2022-02-19T13:48:59Z</time>
      </trkpt>
      <trkpt lat="46.246" lon="5.38801">
        <ele>376.6</ele>
        <time>2022-02-19T13:49:05Z</time>
      </trkpt>
      <trkpt lat="46.24602" lon="5.38806">
        <ele>377</ele>
        <time>2022-02-19T13:49:06Z</time>
      </trkpt>
      <trkpt lat="46.24612" lon="5.38829">
        <ele>377.8</ele>
        <time>2022-02-19T13:49:11Z</time>
      </trkpt>
      <trkpt lat="46.24622" lon="5.38849">
        <ele>378.6</ele>
        <time>2022-02-19T13:49:16Z</time>
      </trkpt>
      <trkpt lat="46.24623" lon="5.38852">
        <ele>379</ele>
        <time>2022-02-19T13:49:17Z</time>
      </trkpt>
      <trkpt lat="46.24636" lon="5.38866">
        <ele>380</ele>
        <time>2022-02-19T13:49:22Z</time>
      </trkpt>
      <trkpt lat="46.24661" lon="5.38875">
        <ele>380.4</ele>
        <time>2022-02-19T13:49:26Z</time>
      </trkpt>
      <trkpt lat="46.24673" lon="5.38887">
        <ele>381</ele>
        <time>2022-02-19T13:49:29Z</time>
      </trkpt>
      <trkpt lat="46.24684" lon="5.38894">
        <ele>381.4</ele>
        <time>2022-02-19T13:49:31Z</time>
      </trkpt>
      <trkpt lat="46.24703" lon="5.3891">
        <ele>382.2</ele>
        <time>2022-02-19T13:49:36Z</time>
      </trkpt>
      <trkpt lat="46.24708" lon="5.38913">
        <ele>382.4</ele>
        <time>2022-02-19T13:49:37Z</time>
      </trkpt>
      <trkpt lat="46.24734" lon="5.38931">
        <ele>383.2</ele>
        <time>2022-02-19T13:49:43Z</time>
      </trkpt>
      <trkpt lat="46.24738" lon="5.38933">
        <ele>383.4</ele>
        <time>2022-02-19T13:49:44Z</time>
      </trkpt>
      <trkpt lat="46.24755" lon="5.38951">
        <ele>384.4</ele>
        <time>2022-02-19T13:49:49Z</time>
      </trkpt>
      <trkpt lat="46.24767" lon="5.38967">
        <ele>385</ele>
        <time>2022-02-19T13:49:53Z</time>
      </trkpt>
      <trkpt lat="46.2477" lon="5.38971">
        <ele>385.2</ele>
        <time>2022-02-19T13:49:54Z</time>
      </trkpt>
      <trkpt lat="46.24776" lon="5.3898">
        <ele>385.6</ele>
        <time>2022-02-19T13:49:56Z</time>
      </trkpt>
      <trkpt lat="46.24778" lon="5.38985">
        <ele>385.8</ele>
        <time>2022-02-19T13:49:57Z</time>
      </trkpt>
      <trkpt lat="46.24784" lon="5.38999">
        <ele>386.2</ele>
        <time>2022-02-19T13:50:00Z</time>
      </trkpt>
      <trkpt lat="46.24786" lon="5.39004">
        <ele>386.4</ele>
        <time>2022-02-19T13:50:01Z</time>
      </trkpt>
      <trkpt lat="46.24788" lon="5.39008">
        <ele>386.8</ele>
        <time>2022-02-19T13:50:02Z</time>
      </trkpt>
      <trkpt lat="46.24798" lon="5.39034">
        <ele>387.8</ele>
        <time>2022-02-19T13:50:07Z</time>
      </trkpt>
      <trkpt lat="46.2481" lon="5.39075">
        <ele>388.8</ele>
        <time>2022-02-19T13:50:14Z</time>
      </trkpt>
      <trkpt lat="46.24813" lon="5.39081">
        <ele>389</ele>
        <time>2022-02-19T13:50:15Z</time>
      </trkpt>
      <trkpt lat="46.24831" lon="5.39121">
        <ele>390</ele>
        <time>2022-02-19T13:50:22Z</time>
      </trkpt>
      <trkpt lat="46.24836" lon="5.39134">
        <ele>390.2</ele>
        <time>2022-02-19T13:50:24Z</time>
      </trkpt>
      <trkpt lat="46.24858" lon="5.39184">
        <ele>390.6</ele>
        <time>2022-02-19T13:50:31Z</time>
      </trkpt>
      <trkpt lat="46.24884" lon="5.39245">
        <ele>390.2</ele>
        <time>2022-02-19T13:50:39Z</time>
      </trkpt>
      <trkpt lat="46.24907" lon="5.39297">
        <ele>390</ele>
        <time>2022-02-19T13:50:45Z</time>
      </trkpt>
      <trkpt lat="46.24914" lon="5.39317">
        <ele>389.8</ele>
        <time>2022-02-19T13:50:47Z</time>
      </trkpt>
      <trkpt lat="46.24923" lon="5.39353">
        <ele>389</ele>
        <time>2022-02-19T13:50:50Z</time>
      </trkpt>
      <trkpt lat="46.24925" lon="5.39366">
        <ele>388.6</ele>
        <time>2022-02-19T13:50:51Z</time>
      </trkpt>
      <trkpt lat="46.24931" lon="5.39421">
        <ele>387.2</ele>
        <time>2022-02-19T13:50:55Z</time>
      </trkpt>
      <trkpt lat="46.24935" lon="5.39464">
        <ele>385.8</ele>
        <time>2022-02-19T13:50:58Z</time>
      </trkpt>
      <trkpt lat="46.24937" lon="5.39494">
        <ele>385.2</ele>
        <time>2022-02-19T13:51:00Z</time>
      </trkpt>
      <trkpt lat="46.2494" lon="5.39524">
        <ele>384.6</ele>
        <time>2022-02-19T13:51:02Z</time>
      </trkpt>
      <trkpt lat="46.24947" lon="5.39569">
        <ele>383.8</ele>
        <time>2022-02-19T13:51:05Z</time>
      </trkpt>
      <trkpt lat="46.24948" lon="5.39585">
        <ele>383</ele>
        <time>2022-02-19T13:51:06Z</time>
      </trkpt>
      <trkpt lat="46.24953" lon="5.39632">
        <ele>381.2</ele>
        <time>2022-02-19T13:51:09Z</time>
      </trkpt>
      <trkpt lat="46.24954" lon="5.39648">
        <ele>381</ele>
        <time>2022-02-19T13:51:10Z</time>
      </trkpt>
      <trkpt lat="46.24957" lon="5.3968">
        <ele>380</ele>
        <time>2022-02-19T13:51:12Z</time>
      </trkpt>
      <trkpt lat="46.2496" lon="5.39711">
        <ele>378.8</ele>
        <time>2022-02-19T13:51:14Z</time>
      </trkpt>
      <trkpt lat="46.24963" lon="5.39743">
        <ele>377.4</ele>
        <time>2022-02-19T13:51:16Z</time>
      </trkpt>
      <trkpt lat="46.24965" lon="5.39759">
        <ele>377</ele>
        <time>2022-02-19T13:51:17Z</time>
      </trkpt>
      <trkpt lat="46.24968" lon="5.39791">
        <ele>376.4</ele>
        <time>2022-02-19T13:51:19Z</time>
      </trkpt>
      <trkpt lat="46.24973" lon="5.39823">
        <ele>375.2</ele>
        <time>2022-02-19T13:51:21Z</time>
      </trkpt>
      <trkpt lat="46.24979" lon="5.39852">
        <ele>374</ele>
        <time>2022-02-19T13:51:23Z</time>
      </trkpt>
      <trkpt lat="46.24984" lon="5.39866">
        <ele>374</ele>
        <time>2022-02-19T13:51:24Z</time>
      </trkpt>
      <trkpt lat="46.24996" lon="5.39892">
        <ele>373</ele>
        <time>2022-02-19T13:51:26Z</time>
      </trkpt>
      <trkpt lat="46.25017" lon="5.39932">
        <ele>371.2</ele>
        <time>2022-02-19T13:51:29Z</time>
      </trkpt>
      <trkpt lat="46.25025" lon="5.39945">
        <ele>371</ele>
        <time>2022-02-19T13:51:30Z</time>
      </trkpt>
      <trkpt lat="46.25041" lon="5.39969">
        <ele>369.6</ele>
        <time>2022-02-19T13:51:32Z</time>
      </trkpt>
      <trkpt lat="46.25061" lon="5.3999">
        <ele>368.4</ele>
        <time>2022-02-19T13:51:34Z</time>
      </trkpt>
      <trkpt lat="46.25089" lon="5.40015">
        <ele>367.4</ele>
        <time>2022-02-19T13:51:37Z</time>
      </trkpt>
      <trkpt lat="46.25118" lon="5.40038">
        <ele>366</ele>
        <time>2022-02-19T13:51:40Z</time>
      </trkpt>
      <trkpt lat="46.25148" lon="5.40057">
        <ele>364.6</ele>
        <time>2022-02-19T13:51:43Z</time>
      </trkpt>
      <trkpt lat="46.25169" lon="5.40067">
        <ele>363.4</ele>
        <time>2022-02-19T13:51:45Z</time>
      </trkpt>
      <trkpt lat="46.25189" lon="5.40074">
        <ele>362.2</ele>
        <time>2022-02-19T13:51:47Z</time>
      </trkpt>
      <trkpt lat="46.2521" lon="5.40079">
        <ele>361.4</ele>
        <time>2022-02-19T13:51:49Z</time>
      </trkpt>
      <trkpt lat="46.25232" lon="5.40082">
        <ele>360.6</ele>
        <time>2022-02-19T13:51:51Z</time>
      </trkpt>
      <trkpt lat="46.25243" lon="5.40082">
        <ele>360</ele>
        <time>2022-02-19T13:51:52Z</time>
      </trkpt>
      <trkpt lat="46.25274" lon="5.4008">
        <ele>358.4</ele>
        <time>2022-02-19T13:51:55Z</time>
      </trkpt>
      <trkpt lat="46.25296" lon="5.40079">
        <ele>357.2</ele>
        <time>2022-02-19T13:51:57Z</time>
      </trkpt>
      <trkpt lat="46.25318" lon="5.40082">
        <ele>356.2</ele>
        <time>2022-02-19T13:51:59Z</time>
      </trkpt>
      <trkpt lat="46.25339" lon="5.40091">
        <ele>355.4</ele>
        <time>2022-02-19T13:52:01Z</time>
      </trkpt>
      <trkpt lat="46.25349" lon="5.40098">
        <ele>355</ele>
        <time>2022-02-19T13:52:02Z</time>
      </trkpt>
      <trkpt lat="46.25368" lon="5.40114">
        <ele>353.8</ele>
        <time>2022-02-19T13:52:04Z</time>
      </trkpt>
      <trkpt lat="46.25378" lon="5.40123">
        <ele>352.8</ele>
        <time>2022-02-19T13:52:05Z</time>
      </trkpt>
      <trkpt lat="46.25405" lon="5.40149">
        <ele>351.2</ele>
        <time>2022-02-19T13:52:08Z</time>
      </trkpt>
      <trkpt lat="46.25432" lon="5.40175">
        <ele>350</ele>
        <time>2022-02-19T13:52:11Z</time>
      </trkpt>
      <trkpt lat="46.25451" lon="5.40193">
        <ele>348.8</ele>
        <time>2022-02-19T13:52:13Z</time>
      </trkpt>
      <trkpt lat="46.25469" lon="5.4021">
        <ele>347.8</ele>
        <time>2022-02-19T13:52:15Z</time>
      </trkpt>
      <trkpt lat="46.25495" lon="5.40235">
        <ele>346.6</ele>
        <time>2022-02-19T13:52:18Z</time>
      </trkpt>
      <trkpt lat="46.25512" lon="5.40252">
        <ele>345.2</ele>
        <time>2022-02-19T13:52:20Z</time>
      </trkpt>
      <trkpt lat="46.2552" lon="5.40261">
        <ele>344.8</ele>
        <time>2022-02-19T13:52:21Z</time>
      </trkpt>
      <trkpt lat="46.25528" lon="5.40271">
        <ele>344.2</ele>
        <time>2022-02-19T13:52:22Z</time>
      </trkpt>
      <trkpt lat="46.25536" lon="5.40283">
        <ele>344</ele>
        <time>2022-02-19T13:52:23Z</time>
      </trkpt>
      <trkpt lat="46.25541" lon="5.40295">
        <ele>343.4</ele>
        <time>2022-02-19T13:52:24Z</time>
      </trkpt>
      <trkpt lat="46.25549" lon="5.40322">
        <ele>342.6</ele>
        <time>2022-02-19T13:52:26Z</time>
      </trkpt>
      <trkpt lat="46.25555" lon="5.40351">
        <ele>342</ele>
        <time>2022-02-19T13:52:28Z</time>
      </trkpt>
      <trkpt lat="46.25557" lon="5.40379">
        <ele>341</ele>
        <time>2022-02-19T13:52:30Z</time>
      </trkpt>
      <trkpt lat="46.25556" lon="5.40394">
        <ele>340.4</ele>
        <time>2022-02-19T13:52:31Z</time>
      </trkpt>
      <trkpt lat="46.25554" lon="5.40408">
        <ele>340.2</ele>
        <time>2022-02-19T13:52:32Z</time>
      </trkpt>
      <trkpt lat="46.2555" lon="5.40421">
        <ele>339.8</ele>
        <time>2022-02-19T13:52:33Z</time>
      </trkpt>
      <trkpt lat="46.25547" lon="5.40435">
        <ele>339.6</ele>
        <time>2022-02-19T13:52:34Z</time>
      </trkpt>
      <trkpt lat="46.25536" lon="5.40475">
        <ele>338.4</ele>
        <time>2022-02-19T13:52:37Z</time>
      </trkpt>
      <trkpt lat="46.25534" lon="5.40489">
        <ele>338</ele>
        <time>2022-02-19T13:52:38Z</time>
      </trkpt>
      <trkpt lat="46.25531" lon="5.40503">
        <ele>337.8</ele>
        <time>2022-02-19T13:52:39Z</time>
      </trkpt>
      <trkpt lat="46.25527" lon="5.40516">
        <ele>337.2</ele>
        <time>2022-02-19T13:52:40Z</time>
      </trkpt>
      <trkpt lat="46.25516" lon="5.40554">
        <ele>336</ele>
        <time>2022-02-19T13:52:43Z</time>
      </trkpt>
      <trkpt lat="46.25506" lon="5.40591">
        <ele>335.4</ele>
        <time>2022-02-19T13:52:46Z</time>
      </trkpt>
      <trkpt lat="46.25503" lon="5.40603">
        <ele>335</ele>
        <time>2022-02-19T13:52:47Z</time>
      </trkpt>
      <trkpt lat="46.25481" lon="5.40686">
        <ele>334.6</ele>
        <time>2022-02-19T13:52:54Z</time>
      </trkpt>
      <trkpt lat="46.25459" lon="5.40763">
        <ele>334.2</ele>
        <time>2022-02-19T13:53:01Z</time>
      </trkpt>
      <trkpt lat="46.25456" lon="5.40774">
        <ele>334.2</ele>
        <time>2022-02-19T13:53:02Z</time>
      </trkpt>
      <trkpt lat="46.25438" lon="5.40838">
        <ele>334.2</ele>
        <time>2022-02-19T13:53:08Z</time>
      </trkpt>
      <trkpt lat="46.25415" lon="5.40916">
        <ele>334.4</ele>
        <time>2022-02-19T13:53:15Z</time>
      </trkpt>
      <trkpt lat="46.25399" lon="5.40974">
        <ele>334.4</ele>
        <time>2022-02-19T13:53:20Z</time>
      </trkpt>
      <trkpt lat="46.25389" lon="5.41008">
        <ele>333.8</ele>
        <time>2022-02-19T13:53:23Z</time>
      </trkpt>
      <trkpt lat="46.25377" lon="5.41057">
        <ele>333.4</ele>
        <time>2022-02-19T13:53:27Z</time>
      </trkpt>
      <trkpt lat="46.25367" lon="5.41093">
        <ele>332.6</ele>
        <time>2022-02-19T13:53:30Z</time>
      </trkpt>
      <trkpt lat="46.25348" lon="5.41165">
        <ele>331.8</ele>
        <time>2022-02-19T13:53:36Z</time>
      </trkpt>
      <trkpt lat="46.25338" lon="5.412">
        <ele>331.4</ele>
        <time>2022-02-19T13:53:39Z</time>
      </trkpt>
      <trkpt lat="46.25318" lon="5.4128">
        <ele>331</ele>
        <time>2022-02-19T13:53:46Z</time>
      </trkpt>
      <trkpt lat="46.25305" lon="5.41322">
        <ele>331</ele>
        <time>2022-02-19T13:53:50Z</time>
      </trkpt>
      <trkpt lat="46.25303" lon="5.41333">
        <ele>331</ele>
        <time>2022-02-19T13:53:51Z</time>
      </trkpt>
      <trkpt lat="46.25304" lon="5.41343">
        <ele>331</ele>
        <time>2022-02-19T13:53:52Z</time>
      </trkpt>
      <trkpt lat="46.25307" lon="5.41352">
        <ele>331</ele>
        <time>2022-02-19T13:53:53Z</time>
      </trkpt>
      <trkpt lat="46.25312" lon="5.4136">
        <ele>331.2</ele>
        <time>2022-02-19T13:53:54Z</time>
      </trkpt>
      <trkpt lat="46.25324" lon="5.41369">
        <ele>331.2</ele>
        <time>2022-02-19T13:53:56Z</time>
      </trkpt>
      <trkpt lat="46.25366" lon="5.41386">
        <ele>332</ele>
        <time>2022-02-19T13:54:02Z</time>
      </trkpt>
      <trkpt lat="46.25421" lon="5.41408">
        <ele>332</ele>
        <time>2022-02-19T13:54:10Z</time>
      </trkpt>
      <trkpt lat="46.2545" lon="5.41421">
        <ele>332.4</ele>
        <time>2022-02-19T13:54:15Z</time>
      </trkpt>
      <trkpt lat="46.25466" lon="5.41428">
        <ele>332.6</ele>
        <time>2022-02-19T13:54:18Z</time>
      </trkpt>
      <trkpt lat="46.25484" lon="5.41438">
        <ele>334</ele>
        <time>2022-02-19T13:54:22Z</time>
      </trkpt>
      <trkpt lat="46.255" lon="5.41445">
        <ele>334.8</ele>
        <time>2022-02-19T13:54:26Z</time>
      </trkpt>
      <trkpt lat="46.25503" lon="5.41447">
        <ele>335</ele>
        <time>2022-02-19T13:54:27Z</time>
      </trkpt>
      <trkpt lat="46.25514" lon="5.41455">
        <ele>336.2</ele>
        <time>2022-02-19T13:54:31Z</time>
      </trkpt>
      <trkpt lat="46.25523" lon="5.41462">
        <ele>337.2</ele>
        <time>2022-02-19T13:54:36Z</time>
      </trkpt>
      <trkpt lat="46.25527" lon="5.41463">
        <ele>337.2</ele>
        <time>2022-02-19T13:54:37Z</time>
      </trkpt>
      <trkpt lat="46.25535" lon="5.41466">
        <ele>337.8</ele>
        <time>2022-02-19T13:54:39Z</time>
      </trkpt>
      <trkpt lat="46.25542" lon="5.41469">
        <ele>338.4</ele>
        <time>2022-02-19T13:54:41Z</time>
      </trkpt>
      <trkpt lat="46.25555" lon="5.41473">
        <ele>339.4</ele>
        <time>2022-02-19T13:54:44Z</time>
      </trkpt>
      <trkpt lat="46.25559" lon="5.41475">
        <ele>339.6</ele>
        <time>2022-02-19T13:54:45Z</time>
      </trkpt>
      <trkpt lat="46.25584" lon="5.41485">
        <ele>340.8</ele>
        <time>2022-02-19T13:54:51Z</time>
      </trkpt>
      <trkpt lat="46.25588" lon="5.41487">
        <ele>341.2</ele>
        <time>2022-02-19T13:54:52Z</time>
      </trkpt>
      <trkpt lat="46.25605" lon="5.41492">
        <ele>342</ele>
        <time>2022-02-19T13:54:56Z</time>
      </trkpt>
      <trkpt lat="46.25622" lon="5.41497">
        <ele>342.6</ele>
        <time>2022-02-19T13:55:00Z</time>
      </trkpt>
      <trkpt lat="46.25632" lon="5.41503">
        <ele>343.4</ele>
        <time>2022-02-19T13:55:03Z</time>
      </trkpt>
      <trkpt lat="46.25638" lon="5.41505">
        <ele>343.8</ele>
        <time>2022-02-19T13:55:05Z</time>
      </trkpt>
      <trkpt lat="46.2565" lon="5.41508">
        <ele>344.4</ele>
        <time>2022-02-19T13:55:08Z</time>
      </trkpt>
      <trkpt lat="46.25661" lon="5.41513">
        <ele>345.2</ele>
        <time>2022-02-19T13:55:11Z</time>
      </trkpt>
      <trkpt lat="46.25664" lon="5.41516">
        <ele>345.6</ele>
        <time>2022-02-19T13:55:12Z</time>
      </trkpt>
      <trkpt lat="46.25677" lon="5.41521">
        <ele>346.4</ele>
        <time>2022-02-19T13:55:16Z</time>
      </trkpt>
      <trkpt lat="46.25686" lon="5.41524">
        <ele>347.2</ele>
        <time>2022-02-19T13:55:19Z</time>
      </trkpt>
      <trkpt lat="46.25695" lon="5.41529">
        <ele>347.8</ele>
        <time>2022-02-19T13:55:22Z</time>
      </trkpt>
      <trkpt lat="46.257" lon="5.41531">
        <ele>348.2</ele>
        <time>2022-02-19T13:55:24Z</time>
      </trkpt>
      <trkpt lat="46.25708" lon="5.41536">
        <ele>349</ele>
        <time>2022-02-19T13:55:27Z</time>
      </trkpt>
      <trkpt lat="46.25711" lon="5.41537">
        <ele>349.2</ele>
        <time>2022-02-19T13:55:28Z</time>
      </trkpt>
      <trkpt lat="46.25721" lon="5.41541">
        <ele>350.2</ele>
        <time>2022-02-19T13:55:32Z</time>
      </trkpt>
      <trkpt lat="46.25724" lon="5.41542">
        <ele>350.4</ele>
        <time>2022-02-19T13:55:33Z</time>
      </trkpt>
      <trkpt lat="46.25743" lon="5.4155">
        <ele>351.4</ele>
        <time>2022-02-19T13:55:39Z</time>
      </trkpt>
      <trkpt lat="46.25746" lon="5.41552">
        <ele>351.4</ele>
        <time>2022-02-19T13:55:40Z</time>
      </trkpt>
      <trkpt lat="46.25764" lon="5.41558">
        <ele>352</ele>
        <time>2022-02-19T13:55:44Z</time>
      </trkpt>
      <trkpt lat="46.25781" lon="5.41563">
        <ele>352.6</ele>
        <time>2022-02-19T13:55:48Z</time>
      </trkpt>
      <trkpt lat="46.25795" lon="5.41568">
        <ele>352.8</ele>
        <time>2022-02-19T13:55:51Z</time>
      </trkpt>
      <trkpt lat="46.25822" lon="5.41576">
        <ele>353.6</ele>
        <time>2022-02-19T13:55:57Z</time>
      </trkpt>
      <trkpt lat="46.25844" lon="5.41585">
        <ele>354</ele>
        <time>2022-02-19T13:56:02Z</time>
      </trkpt>
      <trkpt lat="46.25881" lon="5.41599">
        <ele>354.4</ele>
        <time>2022-02-19T13:56:09Z</time>
      </trkpt>
      <trkpt lat="46.25885" lon="5.41601">
        <ele>354.4</ele>
        <time>2022-02-19T13:56:10Z</time>
      </trkpt>
      <trkpt lat="46.25903" lon="5.41606">
        <ele>354.6</ele>
        <time>2022-02-19T13:56:13Z</time>
      </trkpt>
      <trkpt lat="46.25913" lon="5.41612">
        <ele>354.8</ele>
        <time>2022-02-19T13:56:15Z</time>
      </trkpt>
      <trkpt lat="46.2593" lon="5.41627">
        <ele>355</ele>
        <time>2022-02-19T13:56:19Z</time>
      </trkpt>
      <trkpt lat="46.25942" lon="5.41642">
        <ele>355.2</ele>
        <time>2022-02-19T13:56:22Z</time>
      </trkpt>
      <trkpt lat="46.25959" lon="5.41675">
        <ele>355.6</ele>
        <time>2022-02-19T13:56:27Z</time>
      </trkpt>
      <trkpt lat="46.25961" lon="5.41682">
        <ele>355.8</ele>
        <time>2022-02-19T13:56:28Z</time>
      </trkpt>
      <trkpt lat="46.25965" lon="5.41697">
        <ele>355.8</ele>
        <time>2022-02-19T13:56:30Z</time>
      </trkpt>
      <trkpt lat="46.25967" lon="5.41711">
        <ele>356</ele>
        <time>2022-02-19T13:56:32Z</time>
      </trkpt>
      <trkpt lat="46.25968" lon="5.41718">
        <ele>356.2</ele>
        <time>2022-02-19T13:56:33Z</time>
      </trkpt>
      <trkpt lat="46.25969" lon="5.41725">
        <ele>356.2</ele>
        <time>2022-02-19T13:56:34Z</time>
      </trkpt>
      <trkpt lat="46.25972" lon="5.41746">
        <ele>356.6</ele>
        <time>2022-02-19T13:56:37Z</time>
      </trkpt>
      <trkpt lat="46.25972" lon="5.41753">
        <ele>356.8</ele>
        <time>2022-02-19T13:56:38Z</time>
      </trkpt>
      <trkpt lat="46.25974" lon="5.41779">
        <ele>358</ele>
        <time>2022-02-19T13:56:42Z</time>
      </trkpt>
      <trkpt lat="46.25976" lon="5.41785">
        <ele>358.2</ele>
        <time>2022-02-19T13:56:43Z</time>
      </trkpt>
      <trkpt lat="46.25976" lon="5.41792">
        <ele>358.4</ele>
        <time>2022-02-19T13:56:44Z</time>
      </trkpt>
      <trkpt lat="46.25979" lon="5.41813">
        <ele>358.8</ele>
        <time>2022-02-19T13:56:47Z</time>
      </trkpt>
      <trkpt lat="46.25984" lon="5.41828">
        <ele>359</ele>
        <time>2022-02-19T13:56:49Z</time>
      </trkpt>
      <trkpt lat="46.25986" lon="5.41844">
        <ele>359.4</ele>
        <time>2022-02-19T13:56:51Z</time>
      </trkpt>
      <trkpt lat="46.25997" lon="5.419">
        <ele>359.4</ele>
        <time>2022-02-19T13:56:57Z</time>
      </trkpt>
      <trkpt lat="46.26008" lon="5.41929">
        <ele>359</ele>
        <time>2022-02-19T13:57:00Z</time>
      </trkpt>
      <trkpt lat="46.26019" lon="5.41948">
        <ele>358.8</ele>
        <time>2022-02-19T13:57:02Z</time>
      </trkpt>
      <trkpt lat="46.26037" lon="5.41975">
        <ele>358</ele>
        <time>2022-02-19T13:57:05Z</time>
      </trkpt>
      <trkpt lat="46.26053" lon="5.42004">
        <ele>357</ele>
        <time>2022-02-19T13:57:08Z</time>
      </trkpt>
      <trkpt lat="46.26068" lon="5.42021">
        <ele>355.8</ele>
        <time>2022-02-19T13:57:10Z</time>
      </trkpt>
      <trkpt lat="46.26084" lon="5.42038">
        <ele>355</ele>
        <time>2022-02-19T13:57:12Z</time>
      </trkpt>
      <trkpt lat="46.26093" lon="5.42047">
        <ele>354.4</ele>
        <time>2022-02-19T13:57:13Z</time>
      </trkpt>
      <trkpt lat="46.26118" lon="5.42073">
        <ele>353.2</ele>
        <time>2022-02-19T13:57:16Z</time>
      </trkpt>
      <trkpt lat="46.26126" lon="5.42081">
        <ele>352</ele>
        <time>2022-02-19T13:57:17Z</time>
      </trkpt>
      <trkpt lat="46.26135" lon="5.42088">
        <ele>351.8</ele>
        <time>2022-02-19T13:57:18Z</time>
      </trkpt>
      <trkpt lat="46.26144" lon="5.42095">
        <ele>351</ele>
        <time>2022-02-19T13:57:19Z</time>
      </trkpt>
      <trkpt lat="46.26162" lon="5.42105">
        <ele>349.8</ele>
        <time>2022-02-19T13:57:21Z</time>
      </trkpt>
      <trkpt lat="46.26172" lon="5.42111">
        <ele>349.4</ele>
        <time>2022-02-19T13:57:22Z</time>
      </trkpt>
      <trkpt lat="46.26192" lon="5.42124">
        <ele>348.6</ele>
        <time>2022-02-19T13:57:24Z</time>
      </trkpt>
      <trkpt lat="46.26208" lon="5.42146">
        <ele>347.2</ele>
        <time>2022-02-19T13:57:26Z</time>
      </trkpt>
      <trkpt lat="46.26214" lon="5.42177">
        <ele>346.2</ele>
        <time>2022-02-19T13:57:28Z</time>
      </trkpt>
      <trkpt lat="46.26214" lon="5.42193">
        <ele>345.4</ele>
        <time>2022-02-19T13:57:29Z</time>
      </trkpt>
      <trkpt lat="46.26215" lon="5.42226">
        <ele>343.6</ele>
        <time>2022-02-19T13:57:31Z</time>
      </trkpt>
      <trkpt lat="46.26216" lon="5.42259">
        <ele>342</ele>
        <time>2022-02-19T13:57:33Z</time>
      </trkpt>
      <trkpt lat="46.26219" lon="5.42293">
        <ele>340.6</ele>
        <time>2022-02-19T13:57:35Z</time>
      </trkpt>
      <trkpt lat="46.26223" lon="5.42335">
        <ele>339.2</ele>
        <time>2022-02-19T13:57:38Z</time>
      </trkpt>
      <trkpt lat="46.26225" lon="5.42348">
        <ele>338.8</ele>
        <time>2022-02-19T13:57:39Z</time>
      </trkpt>
      <trkpt lat="46.26231" lon="5.42373">
        <ele>338</ele>
        <time>2022-02-19T13:57:41Z</time>
      </trkpt>
      <trkpt lat="46.2624" lon="5.42396">
        <ele>337.4</ele>
        <time>2022-02-19T13:57:43Z</time>
      </trkpt>
      <trkpt lat="46.26245" lon="5.42406">
        <ele>337</ele>
        <time>2022-02-19T13:57:44Z</time>
      </trkpt>
      <trkpt lat="46.26266" lon="5.42446">
        <ele>336.2</ele>
        <time>2022-02-19T13:57:48Z</time>
      </trkpt>
      <trkpt lat="46.26272" lon="5.42455">
        <ele>336.2</ele>
        <time>2022-02-19T13:57:49Z</time>
      </trkpt>
      <trkpt lat="46.26279" lon="5.42462">
        <ele>336</ele>
        <time>2022-02-19T13:57:50Z</time>
      </trkpt>
      <trkpt lat="46.26286" lon="5.42469">
        <ele>335.4</ele>
        <time>2022-02-19T13:57:51Z</time>
      </trkpt>
      <trkpt lat="46.26307" lon="5.42488">
        <ele>334.6</ele>
        <time>2022-02-19T13:57:54Z</time>
      </trkpt>
      <trkpt lat="46.2632" lon="5.425">
        <ele>334</ele>
        <time>2022-02-19T13:57:56Z</time>
      </trkpt>
      <trkpt lat="46.26325" lon="5.42509">
        <ele>334</ele>
        <time>2022-02-19T13:57:57Z</time>
      </trkpt>
      <trkpt lat="46.26327" lon="5.4252">
        <ele>333.8</ele>
        <time>2022-02-19T13:57:58Z</time>
      </trkpt>
      <trkpt lat="46.26331" lon="5.42542">
        <ele>333.6</ele>
        <time>2022-02-19T13:58:00Z</time>
      </trkpt>
      <trkpt lat="46.26333" lon="5.42569">
        <ele>333</ele>
        <time>2022-02-19T13:58:03Z</time>
      </trkpt>
      <trkpt lat="46.26334" lon="5.42574">
        <ele>333</ele>
        <time>2022-02-19T13:58:04Z</time>
      </trkpt>
      <trkpt lat="46.26334" lon="5.42579">
        <ele>332.4</ele>
        <time>2022-02-19T13:58:07Z</time>
      </trkpt>
      <trkpt lat="46.26334" lon="5.42579">
        <ele>332.2</ele>
        <time>2022-02-19T13:58:08Z</time>
      </trkpt>
      <trkpt lat="46.26341" lon="5.4258">
        <ele>331.2</ele>
        <time>2022-02-19T13:58:15Z</time>
      </trkpt>
      <trkpt lat="46.26346" lon="5.4258">
        <ele>331.2</ele>
        <time>2022-02-19T13:58:17Z</time>
      </trkpt>
      <trkpt lat="46.2636" lon="5.42583">
        <ele>331</ele>
        <time>2022-02-19T13:58:20Z</time>
      </trkpt>
      <trkpt lat="46.26366" lon="5.42583">
        <ele>331</ele>
        <time>2022-02-19T13:58:21Z</time>
      </trkpt>
      <trkpt lat="46.264" lon="5.4259">
        <ele>331</ele>
        <time>2022-02-19T13:58:26Z</time>
      </trkpt>
      <trkpt lat="46.26438" lon="5.42599">
        <ele>331.4</ele>
        <time>2022-02-19T13:58:32Z</time>
      </trkpt>
      <trkpt lat="46.26476" lon="5.42608">
        <ele>331.6</ele>
        <time>2022-02-19T13:58:38Z</time>
      </trkpt>
      <trkpt lat="46.26524" lon="5.42621">
        <ele>332.4</ele>
        <time>2022-02-19T13:58:46Z</time>
      </trkpt>
      <trkpt lat="46.26531" lon="5.42622">
        <ele>332.4</ele>
        <time>2022-02-19T13:58:47Z</time>
      </trkpt>
      <trkpt lat="46.26591" lon="5.42631">
        <ele>333</ele>
        <time>2022-02-19T13:58:56Z</time>
      </trkpt>
      <trkpt lat="46.2665" lon="5.42646">
        <ele>332.8</ele>
        <time>2022-02-19T13:59:05Z</time>
      </trkpt>
      <trkpt lat="46.26663" lon="5.4265">
        <ele>333</ele>
        <time>2022-02-19T13:59:07Z</time>
      </trkpt>
      <trkpt lat="46.26694" lon="5.42658">
        <ele>333.4</ele>
        <time>2022-02-19T13:59:12Z</time>
      </trkpt>
      <trkpt lat="46.26719" lon="5.42665">
        <ele>333.6</ele>
        <time>2022-02-19T13:59:16Z</time>
      </trkpt>
      <trkpt lat="46.26772" lon="5.42679">
        <ele>333.6</ele>
        <time>2022-02-19T13:59:24Z</time>
      </trkpt>
      <trkpt lat="46.26831" lon="5.42696">
        <ele>333.8</ele>
        <time>2022-02-19T13:59:33Z</time>
      </trkpt>
      <trkpt lat="46.26872" lon="5.42711">
        <ele>333.8</ele>
        <time>2022-02-19T13:59:40Z</time>
      </trkpt>
      <trkpt lat="46.2691" lon="5.42729">
        <ele>334.6</ele>
        <time>2022-02-19T13:59:47Z</time>
      </trkpt>
      <trkpt lat="46.26917" lon="5.42731">
        <ele>334.6</ele>
        <time>2022-02-19T13:59:48Z</time>
      </trkpt>
      <trkpt lat="46.26935" lon="5.42737">
        <ele>335.8</ele>
        <time>2022-02-19T13:59:51Z</time>
      </trkpt>
      <trkpt lat="46.26976" lon="5.42749">
        <ele>336.4</ele>
        <time>2022-02-19T13:59:58Z</time>
      </trkpt>
      <trkpt lat="46.27006" lon="5.42757">
        <ele>336.8</ele>
        <time>2022-02-19T14:00:03Z</time>
      </trkpt>
      <trkpt lat="46.27025" lon="5.42761">
        <ele>337</ele>
        <time>2022-02-19T14:00:06Z</time>
      </trkpt>
      <trkpt lat="46.27063" lon="5.42767">
        <ele>337.4</ele>
        <time>2022-02-19T14:00:13Z</time>
      </trkpt>
      <trkpt lat="46.27083" lon="5.42768">
        <ele>338</ele>
        <time>2022-02-19T14:00:17Z</time>
      </trkpt>
      <trkpt lat="46.27093" lon="5.42769">
        <ele>338.4</ele>
        <time>2022-02-19T14:00:19Z</time>
      </trkpt>
      <trkpt lat="46.27108" lon="5.42769">
        <ele>339.2</ele>
        <time>2022-02-19T14:00:22Z</time>
      </trkpt>
      <trkpt lat="46.27149" lon="5.42777">
        <ele>340.2</ele>
        <time>2022-02-19T14:00:30Z</time>
      </trkpt>
      <trkpt lat="46.27195" lon="5.428">
        <ele>340.8</ele>
        <time>2022-02-19T14:00:39Z</time>
      </trkpt>
      <trkpt lat="46.27241" lon="5.42828">
        <ele>340.8</ele>
        <time>2022-02-19T14:00:47Z</time>
      </trkpt>
      <trkpt lat="46.27287" lon="5.4286">
        <ele>340.2</ele>
        <time>2022-02-19T14:00:54Z</time>
      </trkpt>
      <trkpt lat="46.27332" lon="5.42886">
        <ele>339.2</ele>
        <time>2022-02-19T14:01:00Z</time>
      </trkpt>
      <trkpt lat="46.27372" lon="5.429">
        <ele>338</ele>
        <time>2022-02-19T14:01:05Z</time>
      </trkpt>
      <trkpt lat="46.27396" lon="5.42909">
        <ele>337.6</ele>
        <time>2022-02-19T14:01:08Z</time>
      </trkpt>
      <trkpt lat="46.27449" lon="5.42927">
        <ele>337.6</ele>
        <time>2022-02-19T14:01:15Z</time>
      </trkpt>
      <trkpt lat="46.27463" lon="5.42931">
        <ele>337.6</ele>
        <time>2022-02-19T14:01:17Z</time>
      </trkpt>
      <trkpt lat="46.2752" lon="5.42949">
        <ele>337.2</ele>
        <time>2022-02-19T14:01:25Z</time>
      </trkpt>
      <trkpt lat="46.27526" lon="5.42951">
        <ele>337</ele>
        <time>2022-02-19T14:01:26Z</time>
      </trkpt>
      <trkpt lat="46.27579" lon="5.42969">
        <ele>337.8</ele>
        <time>2022-02-19T14:01:34Z</time>
      </trkpt>
      <trkpt lat="46.27586" lon="5.42971">
        <ele>337.8</ele>
        <time>2022-02-19T14:01:35Z</time>
      </trkpt>
      <trkpt lat="46.2764" lon="5.42989">
        <ele>337.4</ele>
        <time>2022-02-19T14:01:43Z</time>
      </trkpt>
      <trkpt lat="46.27667" lon="5.42998">
        <ele>337.6</ele>
        <time>2022-02-19T14:01:47Z</time>
      </trkpt>
      <trkpt lat="46.27721" lon="5.43018">
        <ele>337.6</ele>
        <time>2022-02-19T14:01:55Z</time>
      </trkpt>
      <trkpt lat="46.27772" lon="5.43039">
        <ele>337</ele>
        <time>2022-02-19T14:02:02Z</time>
      </trkpt>
      <trkpt lat="46.27787" lon="5.43045">
        <ele>336.8</ele>
        <time>2022-02-19T14:02:04Z</time>
      </trkpt>
      <trkpt lat="46.27827" lon="5.4305">
        <ele>336.8</ele>
        <time>2022-02-19T14:02:09Z</time>
      </trkpt>
      <trkpt lat="46.27882" lon="5.4305">
        <ele>336.2</ele>
        <time>2022-02-19T14:02:16Z</time>
      </trkpt>
      <trkpt lat="46.2789" lon="5.43051">
        <ele>336</ele>
        <time>2022-02-19T14:02:17Z</time>
      </trkpt>
      <trkpt lat="46.27897" lon="5.43052">
        <ele>335.8</ele>
        <time>2022-02-19T14:02:18Z</time>
      </trkpt>
      <trkpt lat="46.27956" lon="5.43064">
        <ele>336</ele>
        <time>2022-02-19T14:02:26Z</time>
      </trkpt>
      <trkpt lat="46.27963" lon="5.43065">
        <ele>336</ele>
        <time>2022-02-19T14:02:27Z</time>
      </trkpt>
      <trkpt lat="46.28018" lon="5.43078">
        <ele>336.2</ele>
        <time>2022-02-19T14:02:35Z</time>
      </trkpt>
      <trkpt lat="46.28073" lon="5.43089">
        <ele>336.4</ele>
        <time>2022-02-19T14:02:43Z</time>
      </trkpt>
      <trkpt lat="46.28093" lon="5.43093">
        <ele>336.4</ele>
        <time>2022-02-19T14:02:46Z</time>
      </trkpt>
      <trkpt lat="46.28147" lon="5.43104">
        <ele>336</ele>
        <time>2022-02-19T14:02:54Z</time>
      </trkpt>
      <trkpt lat="46.28201" lon="5.43114">
        <ele>336</ele>
        <time>2022-02-19T14:03:02Z</time>
      </trkpt>
      <trkpt lat="46.28214" lon="5.43117">
        <ele>336</ele>
        <time>2022-02-19T14:03:04Z</time>
      </trkpt>
      <trkpt lat="46.28273" lon="5.43128">
        <ele>336.2</ele>
        <time>2022-02-19T14:03:13Z</time>
      </trkpt>
      <trkpt lat="46.28292" lon="5.43131">
        <ele>336.4</ele>
        <time>2022-02-19T14:03:16Z</time>
      </trkpt>
      <trkpt lat="46.28345" lon="5.43131">
        <ele>336.6</ele>
        <time>2022-02-19T14:03:24Z</time>
      </trkpt>
      <trkpt lat="46.28405" lon="5.43123">
        <ele>336.6</ele>
        <time>2022-02-19T14:03:33Z</time>
      </trkpt>
      <trkpt lat="46.28411" lon="5.43122">
        <ele>336.6</ele>
        <time>2022-02-19T14:03:34Z</time>
      </trkpt>
      <trkpt lat="46.28471" lon="5.43115">
        <ele>336.8</ele>
        <time>2022-02-19T14:03:43Z</time>
      </trkpt>
      <trkpt lat="46.28477" lon="5.43114">
        <ele>336.8</ele>
        <time>2022-02-19T14:03:44Z</time>
      </trkpt>
      <trkpt lat="46.28532" lon="5.4311">
        <ele>337</ele>
        <time>2022-02-19T14:03:52Z</time>
      </trkpt>
      <trkpt lat="46.28546" lon="5.43109">
        <ele>337.2</ele>
        <time>2022-02-19T14:03:54Z</time>
      </trkpt>
      <trkpt lat="46.28601" lon="5.43111">
        <ele>337.2</ele>
        <time>2022-02-19T14:04:02Z</time>
      </trkpt>
      <trkpt lat="46.28608" lon="5.43111">
        <ele>337.2</ele>
        <time>2022-02-19T14:04:03Z</time>
      </trkpt>
      <trkpt lat="46.28663" lon="5.43115">
        <ele>337.4</ele>
        <time>2022-02-19T14:04:11Z</time>
      </trkpt>
      <trkpt lat="46.28671" lon="5.43116">
        <ele>337.4</ele>
        <time>2022-02-19T14:04:12Z</time>
      </trkpt>
      <trkpt lat="46.2873" lon="5.43123">
        <ele>337.8</ele>
        <time>2022-02-19T14:04:20Z</time>
      </trkpt>
      <trkpt lat="46.28737" lon="5.43124">
        <ele>337.8</ele>
        <time>2022-02-19T14:04:21Z</time>
      </trkpt>
      <trkpt lat="46.28798" lon="5.43138">
        <ele>338.2</ele>
        <time>2022-02-19T14:04:29Z</time>
      </trkpt>
      <trkpt lat="46.28852" lon="5.43159">
        <ele>338.2</ele>
        <time>2022-02-19T14:04:36Z</time>
      </trkpt>
      <trkpt lat="46.28874" lon="5.43168">
        <ele>338.4</ele>
        <time>2022-02-19T14:04:39Z</time>
      </trkpt>
      <trkpt lat="46.28931" lon="5.43193">
        <ele>338.4</ele>
        <time>2022-02-19T14:04:47Z</time>
      </trkpt>
      <trkpt lat="46.28952" lon="5.43202">
        <ele>338.4</ele>
        <time>2022-02-19T14:04:50Z</time>
      </trkpt>
      <trkpt lat="46.28973" lon="5.43212">
        <ele>338.4</ele>
        <time>2022-02-19T14:04:53Z</time>
      </trkpt>
      <trkpt lat="46.28998" lon="5.43229">
        <ele>338.6</ele>
        <time>2022-02-19T14:04:57Z</time>
      </trkpt>
      <trkpt lat="46.29045" lon="5.43271">
        <ele>338.6</ele>
        <time>2022-02-19T14:05:05Z</time>
      </trkpt>
      <trkpt lat="46.29051" lon="5.43276">
        <ele>338.6</ele>
        <time>2022-02-19T14:05:06Z</time>
      </trkpt>
      <trkpt lat="46.29096" lon="5.43319">
        <ele>338.6</ele>
        <time>2022-02-19T14:05:14Z</time>
      </trkpt>
      <trkpt lat="46.29108" lon="5.43328">
        <ele>338.8</ele>
        <time>2022-02-19T14:05:16Z</time>
      </trkpt>
      <trkpt lat="46.2916" lon="5.4337">
        <ele>339.4</ele>
        <time>2022-02-19T14:05:25Z</time>
      </trkpt>
      <trkpt lat="46.29166" lon="5.43375">
        <ele>339.4</ele>
        <time>2022-02-19T14:05:26Z</time>
      </trkpt>
      <trkpt lat="46.2921" lon="5.43401">
        <ele>339.6</ele>
        <time>2022-02-19T14:05:33Z</time>
      </trkpt>
      <trkpt lat="46.29257" lon="5.43418">
        <ele>339.6</ele>
        <time>2022-02-19T14:05:40Z</time>
      </trkpt>
      <trkpt lat="46.29315" lon="5.43441">
        <ele>339.6</ele>
        <time>2022-02-19T14:05:48Z</time>
      </trkpt>
      <trkpt lat="46.29329" lon="5.43448">
        <ele>339.6</ele>
        <time>2022-02-19T14:05:50Z</time>
      </trkpt>
      <trkpt lat="46.29368" lon="5.43472">
        <ele>340</ele>
        <time>2022-02-19T14:05:56Z</time>
      </trkpt>
      <trkpt lat="46.29381" lon="5.4348">
        <ele>340</ele>
        <time>2022-02-19T14:05:58Z</time>
      </trkpt>
      <trkpt lat="46.29435" lon="5.43517">
        <ele>340.8</ele>
        <time>2022-02-19T14:06:07Z</time>
      </trkpt>
      <trkpt lat="46.29447" lon="5.43525">
        <ele>341</ele>
        <time>2022-02-19T14:06:09Z</time>
      </trkpt>
      <trkpt lat="46.29479" lon="5.43541">
        <ele>342.2</ele>
        <time>2022-02-19T14:06:14Z</time>
      </trkpt>
      <trkpt lat="46.29491" lon="5.43548">
        <ele>342.6</ele>
        <time>2022-02-19T14:06:16Z</time>
      </trkpt>
      <trkpt lat="46.29546" lon="5.43577">
        <ele>342.8</ele>
        <time>2022-02-19T14:06:25Z</time>
      </trkpt>
      <trkpt lat="46.29564" lon="5.43587">
        <ele>342.8</ele>
        <time>2022-02-19T14:06:28Z</time>
      </trkpt>
      <trkpt lat="46.29602" lon="5.43607">
        <ele>343.2</ele>
        <time>2022-02-19T14:06:34Z</time>
      </trkpt>
      <trkpt lat="46.29608" lon="5.4361">
        <ele>343.2</ele>
        <time>2022-02-19T14:06:35Z</time>
      </trkpt>
      <trkpt lat="46.29664" lon="5.43639">
        <ele>343.8</ele>
        <time>2022-02-19T14:06:44Z</time>
      </trkpt>
      <trkpt lat="46.29677" lon="5.43645">
        <ele>343.8</ele>
        <time>2022-02-19T14:06:46Z</time>
      </trkpt>
      <trkpt lat="46.2973" lon="5.43673">
        <ele>344.2</ele>
        <time>2022-02-19T14:06:54Z</time>
      </trkpt>
      <trkpt lat="46.29786" lon="5.43703">
        <ele>343.8</ele>
        <time>2022-02-19T14:07:02Z</time>
      </trkpt>
      <trkpt lat="46.29843" lon="5.43729">
        <ele>343.8</ele>
        <time>2022-02-19T14:07:10Z</time>
      </trkpt>
      <trkpt lat="46.2985" lon="5.43732">
        <ele>343.8</ele>
        <time>2022-02-19T14:07:11Z</time>
      </trkpt>
      <trkpt lat="46.29905" lon="5.43756">
        <ele>344.2</ele>
        <time>2022-02-19T14:07:19Z</time>
      </trkpt>
      <trkpt lat="46.29919" lon="5.43762">
        <ele>344.6</ele>
        <time>2022-02-19T14:07:21Z</time>
      </trkpt>
      <trkpt lat="46.29974" lon="5.43785">
        <ele>345</ele>
        <time>2022-02-19T14:07:29Z</time>
      </trkpt>
      <trkpt lat="46.30008" lon="5.43801">
        <ele>345</ele>
        <time>2022-02-19T14:07:34Z</time>
      </trkpt>
      <trkpt lat="46.3006" lon="5.43827">
        <ele>345</ele>
        <time>2022-02-19T14:07:42Z</time>
      </trkpt>
      <trkpt lat="46.30072" lon="5.43833">
        <ele>345</ele>
        <time>2022-02-19T14:07:44Z</time>
      </trkpt>
      <trkpt lat="46.30128" lon="5.43863">
        <ele>345.4</ele>
        <time>2022-02-19T14:07:53Z</time>
      </trkpt>
      <trkpt lat="46.30158" lon="5.43878">
        <ele>345.6</ele>
        <time>2022-02-19T14:07:58Z</time>
      </trkpt>
      <trkpt lat="46.30186" lon="5.43894">
        <ele>346</ele>
        <time>2022-02-19T14:08:03Z</time>
      </trkpt>
      <trkpt lat="46.3024" lon="5.43921">
        <ele>346.2</ele>
        <time>2022-02-19T14:08:12Z</time>
      </trkpt>
      <trkpt lat="46.30253" lon="5.43927">
        <ele>346.2</ele>
        <time>2022-02-19T14:08:14Z</time>
      </trkpt>
      <trkpt lat="46.3031" lon="5.43955">
        <ele>346.4</ele>
        <time>2022-02-19T14:08:23Z</time>
      </trkpt>
      <trkpt lat="46.30367" lon="5.43983">
        <ele>345.8</ele>
        <time>2022-02-19T14:08:32Z</time>
      </trkpt>
      <trkpt lat="46.30424" lon="5.44007">
        <ele>345.8</ele>
        <time>2022-02-19T14:08:41Z</time>
      </trkpt>
      <trkpt lat="46.30431" lon="5.44009">
        <ele>345.8</ele>
        <time>2022-02-19T14:08:42Z</time>
      </trkpt>
      <trkpt lat="46.30489" lon="5.44023">
        <ele>346.2</ele>
        <time>2022-02-19T14:08:51Z</time>
      </trkpt>
      <trkpt lat="46.30495" lon="5.44025">
        <ele>346.2</ele>
        <time>2022-02-19T14:08:52Z</time>
      </trkpt>
      <trkpt lat="46.30529" lon="5.44035">
        <ele>346.8</ele>
        <time>2022-02-19T14:08:58Z</time>
      </trkpt>
      <trkpt lat="46.3054" lon="5.44037">
        <ele>347</ele>
        <time>2022-02-19T14:09:00Z</time>
      </trkpt>
      <trkpt lat="46.30576" lon="5.44041">
        <ele>348</ele>
        <time>2022-02-19T14:09:06Z</time>
      </trkpt>
      <trkpt lat="46.30588" lon="5.44041">
        <ele>348.4</ele>
        <time>2022-02-19T14:09:08Z</time>
      </trkpt>
      <trkpt lat="46.30613" lon="5.44044">
        <ele>349.2</ele>
        <time>2022-02-19T14:09:12Z</time>
      </trkpt>
      <trkpt lat="46.30631" lon="5.44047">
        <ele>349.6</ele>
        <time>2022-02-19T14:09:15Z</time>
      </trkpt>
      <trkpt lat="46.30655" lon="5.44052">
        <ele>350.4</ele>
        <time>2022-02-19T14:09:19Z</time>
      </trkpt>
      <trkpt lat="46.30673" lon="5.44054">
        <ele>351</ele>
        <time>2022-02-19T14:09:22Z</time>
      </trkpt>
      <trkpt lat="46.30685" lon="5.44053">
        <ele>351.2</ele>
        <time>2022-02-19T14:09:24Z</time>
      </trkpt>
      <trkpt lat="46.30711" lon="5.44048">
        <ele>351.2</ele>
        <time>2022-02-19T14:09:28Z</time>
      </trkpt>
      <trkpt lat="46.30751" lon="5.44035">
        <ele>350.8</ele>
        <time>2022-02-19T14:09:34Z</time>
      </trkpt>
      <trkpt lat="46.30795" lon="5.44022">
        <ele>349.6</ele>
        <time>2022-02-19T14:09:40Z</time>
      </trkpt>
      <trkpt lat="46.30811" lon="5.44021">
        <ele>349.2</ele>
        <time>2022-02-19T14:09:42Z</time>
      </trkpt>
      <trkpt lat="46.30835" lon="5.44026">
        <ele>348.2</ele>
        <time>2022-02-19T14:09:45Z</time>
      </trkpt>
      <trkpt lat="46.30844" lon="5.44028">
        <ele>348</ele>
        <time>2022-02-19T14:09:46Z</time>
      </trkpt>
      <trkpt lat="46.3086" lon="5.44032">
        <ele>346.8</ele>
        <time>2022-02-19T14:09:48Z</time>
      </trkpt>
      <trkpt lat="46.30897" lon="5.44046">
        <ele>345.8</ele>
        <time>2022-02-19T14:09:53Z</time>
      </trkpt>
      <trkpt lat="46.30904" lon="5.4405">
        <ele>345.8</ele>
        <time>2022-02-19T14:09:54Z</time>
      </trkpt>
      <trkpt lat="46.30949" lon="5.44078">
        <ele>345.8</ele>
        <time>2022-02-19T14:10:01Z</time>
      </trkpt>
      <trkpt lat="46.30981" lon="5.44101">
        <ele>346.4</ele>
        <time>2022-02-19T14:10:07Z</time>
      </trkpt>
      <trkpt lat="46.30997" lon="5.44111">
        <ele>347</ele>
        <time>2022-02-19T14:10:10Z</time>
      </trkpt>
      <trkpt lat="46.31016" lon="5.44125">
        <ele>347</ele>
        <time>2022-02-19T14:10:14Z</time>
      </trkpt>
      <trkpt lat="46.31055" lon="5.44158">
        <ele>347.8</ele>
        <time>2022-02-19T14:10:22Z</time>
      </trkpt>
      <trkpt lat="46.3106" lon="5.44162">
        <ele>348.2</ele>
        <time>2022-02-19T14:10:23Z</time>
      </trkpt>
      <trkpt lat="46.31096" lon="5.44194">
        <ele>349</ele>
        <time>2022-02-19T14:10:31Z</time>
      </trkpt>
      <trkpt lat="46.31101" lon="5.44199">
        <ele>349.2</ele>
        <time>2022-02-19T14:10:32Z</time>
      </trkpt>
      <trkpt lat="46.3114" lon="5.44233">
        <ele>350.2</ele>
        <time>2022-02-19T14:10:40Z</time>
      </trkpt>
      <trkpt lat="46.31161" lon="5.44252">
        <ele>350.2</ele>
        <time>2022-02-19T14:10:44Z</time>
      </trkpt>
      <trkpt lat="46.31177" lon="5.44265">
        <ele>350.4</ele>
        <time>2022-02-19T14:10:47Z</time>
      </trkpt>
      <trkpt lat="46.31212" lon="5.44286">
        <ele>350.8</ele>
        <time>2022-02-19T14:10:54Z</time>
      </trkpt>
      <trkpt lat="46.31246" lon="5.44298">
        <ele>351.2</ele>
        <time>2022-02-19T14:11:00Z</time>
      </trkpt>
      <trkpt lat="46.31264" lon="5.44306">
        <ele>351.4</ele>
        <time>2022-02-19T14:11:03Z</time>
      </trkpt>
      <trkpt lat="46.31317" lon="5.44327">
        <ele>352</ele>
        <time>2022-02-19T14:11:12Z</time>
      </trkpt>
      <trkpt lat="46.31374" lon="5.44351">
        <ele>351.8</ele>
        <time>2022-02-19T14:11:21Z</time>
      </trkpt>
      <trkpt lat="46.31381" lon="5.44354">
        <ele>351.8</ele>
        <time>2022-02-19T14:11:22Z</time>
      </trkpt>
      <trkpt lat="46.31437" lon="5.44376">
        <ele>351.6</ele>
        <time>2022-02-19T14:11:30Z</time>
      </trkpt>
      <trkpt lat="46.31493" lon="5.44398">
        <ele>350.2</ele>
        <time>2022-02-19T14:11:38Z</time>
      </trkpt>
      <trkpt lat="46.315" lon="5.44401">
        <ele>350.2</ele>
        <time>2022-02-19T14:11:39Z</time>
      </trkpt>
      <trkpt lat="46.31513" lon="5.44406">
        <ele>350</ele>
        <time>2022-02-19T14:11:41Z</time>
      </trkpt>
      <trkpt lat="46.31568" lon="5.44421">
        <ele>349.6</ele>
        <time>2022-02-19T14:11:49Z</time>
      </trkpt>
      <trkpt lat="46.31619" lon="5.44427">
        <ele>349.8</ele>
        <time>2022-02-19T14:11:57Z</time>
      </trkpt>
      <trkpt lat="46.31669" lon="5.44431">
        <ele>349.8</ele>
        <time>2022-02-19T14:12:05Z</time>
      </trkpt>
      <trkpt lat="46.31723" lon="5.4443">
        <ele>349.8</ele>
        <time>2022-02-19T14:12:14Z</time>
      </trkpt>
      <trkpt lat="46.31763" lon="5.44415">
        <ele>350</ele>
        <time>2022-02-19T14:12:21Z</time>
      </trkpt>
      <trkpt lat="46.31818" lon="5.44392">
        <ele>350.6</ele>
        <time>2022-02-19T14:12:31Z</time>
      </trkpt>
      <trkpt lat="46.31824" lon="5.44389">
        <ele>350.6</ele>
        <time>2022-02-19T14:12:32Z</time>
      </trkpt>
      <trkpt lat="46.31879" lon="5.44366">
        <ele>351.4</ele>
        <time>2022-02-19T14:12:42Z</time>
      </trkpt>
      <trkpt lat="46.31931" lon="5.44345">
        <ele>352.2</ele>
        <time>2022-02-19T14:12:52Z</time>
      </trkpt>
      <trkpt lat="46.3194" lon="5.44341">
        <ele>352.6</ele>
        <time>2022-02-19T14:12:54Z</time>
      </trkpt>
      <trkpt lat="46.31971" lon="5.44327">
        <ele>353.8</ele>
        <time>2022-02-19T14:13:00Z</time>
      </trkpt>
      <trkpt lat="46.3199" lon="5.44319">
        <ele>354.2</ele>
        <time>2022-02-19T14:13:04Z</time>
      </trkpt>
      <trkpt lat="46.32029" lon="5.44302">
        <ele>354.8</ele>
        <time>2022-02-19T14:13:12Z</time>
      </trkpt>
      <trkpt lat="46.3204" lon="5.44297">
        <ele>355</ele>
        <time>2022-02-19T14:13:14Z</time>
      </trkpt>
      <trkpt lat="46.32092" lon="5.44274">
        <ele>355.4</ele>
        <time>2022-02-19T14:13:24Z</time>
      </trkpt>
      <trkpt lat="46.32139" lon="5.44249">
        <ele>355.8</ele>
        <time>2022-02-19T14:13:33Z</time>
      </trkpt>
      <trkpt lat="46.32144" lon="5.44246">
        <ele>356</ele>
        <time>2022-02-19T14:13:34Z</time>
      </trkpt>
      <trkpt lat="46.32168" lon="5.44226">
        <ele>357</ele>
        <time>2022-02-19T14:13:39Z</time>
      </trkpt>
      <trkpt lat="46.32186" lon="5.44211">
        <ele>357.2</ele>
        <time>2022-02-19T14:13:43Z</time>
      </trkpt>
      <trkpt lat="46.3219" lon="5.44207">
        <ele>357.2</ele>
        <time>2022-02-19T14:13:44Z</time>
      </trkpt>
      <trkpt lat="46.32229" lon="5.44172">
        <ele>358</ele>
        <time>2022-02-19T14:13:53Z</time>
      </trkpt>
      <trkpt lat="46.32264" lon="5.44138">
        <ele>359</ele>
        <time>2022-02-19T14:14:02Z</time>
      </trkpt>
      <trkpt lat="46.32302" lon="5.44103">
        <ele>359.8</ele>
        <time>2022-02-19T14:14:12Z</time>
      </trkpt>
      <trkpt lat="46.32309" lon="5.44096">
        <ele>360.2</ele>
        <time>2022-02-19T14:14:14Z</time>
      </trkpt>
      <trkpt lat="46.32321" lon="5.44085">
        <ele>361</ele>
        <time>2022-02-19T14:14:17Z</time>
      </trkpt>
      <trkpt lat="46.32327" lon="5.44079">
        <ele>361.4</ele>
        <time>2022-02-19T14:14:19Z</time>
      </trkpt>
      <trkpt lat="46.32331" lon="5.44075">
        <ele>361.8</ele>
        <time>2022-02-19T14:14:20Z</time>
      </trkpt>
      <trkpt lat="46.32346" lon="5.44061">
        <ele>362.4</ele>
        <time>2022-02-19T14:14:24Z</time>
      </trkpt>
      <trkpt lat="46.32365" lon="5.44045">
        <ele>363.6</ele>
        <time>2022-02-19T14:14:29Z</time>
      </trkpt>
      <trkpt lat="46.32369" lon="5.44042">
        <ele>363.8</ele>
        <time>2022-02-19T14:14:30Z</time>
      </trkpt>
      <trkpt lat="46.32393" lon="5.4402">
        <ele>364.8</ele>
        <time>2022-02-19T14:14:37Z</time>
      </trkpt>
      <trkpt lat="46.3241" lon="5.44005">
        <ele>365.2</ele>
        <time>2022-02-19T14:14:42Z</time>
      </trkpt>
      <trkpt lat="46.32421" lon="5.43996">
        <ele>366</ele>
        <time>2022-02-19T14:14:45Z</time>
      </trkpt>
      <trkpt lat="46.32444" lon="5.43975">
        <ele>367.4</ele>
        <time>2022-02-19T14:14:52Z</time>
      </trkpt>
      <trkpt lat="46.32465" lon="5.43957">
        <ele>368.6</ele>
        <time>2022-02-19T14:14:58Z</time>
      </trkpt>
      <trkpt lat="46.32489" lon="5.43935">
        <ele>369.6</ele>
        <time>2022-02-19T14:15:05Z</time>
      </trkpt>
      <trkpt lat="46.32518" lon="5.4391">
        <ele>370.8</ele>
        <time>2022-02-19T14:15:13Z</time>
      </trkpt>
      <trkpt lat="46.32522" lon="5.43906">
        <ele>371</ele>
        <time>2022-02-19T14:15:14Z</time>
      </trkpt>
      <trkpt lat="46.32548" lon="5.43884">
        <ele>371.8</ele>
        <time>2022-02-19T14:15:21Z</time>
      </trkpt>
      <trkpt lat="46.32556" lon="5.43877">
        <ele>372.2</ele>
        <time>2022-02-19T14:15:23Z</time>
      </trkpt>
      <trkpt lat="46.32585" lon="5.43857">
        <ele>372.8</ele>
        <time>2022-02-19T14:15:30Z</time>
      </trkpt>
      <trkpt lat="46.3259" lon="5.43853">
        <ele>373</ele>
        <time>2022-02-19T14:15:31Z</time>
      </trkpt>
      <trkpt lat="46.32594" lon="5.43849">
        <ele>373</ele>
        <time>2022-02-19T14:15:32Z</time>
      </trkpt>
      <trkpt lat="46.32626" lon="5.43816">
        <ele>373.2</ele>
        <time>2022-02-19T14:15:39Z</time>
      </trkpt>
      <trkpt lat="46.32642" lon="5.43791">
        <ele>373.6</ele>
        <time>2022-02-19T14:15:44Z</time>
      </trkpt>
      <trkpt lat="46.32645" lon="5.43787">
        <ele>373.8</ele>
        <time>2022-02-19T14:15:45Z</time>
      </trkpt>
      <trkpt lat="46.32648" lon="5.43783">
        <ele>374</ele>
        <time>2022-02-19T14:15:46Z</time>
      </trkpt>
      <trkpt lat="46.3267" lon="5.43761">
        <ele>375</ele>
        <time>2022-02-19T14:15:52Z</time>
      </trkpt>
      <trkpt lat="46.32675" lon="5.43759">
        <ele>375.2</ele>
        <time>2022-02-19T14:15:53Z</time>
      </trkpt>
      <trkpt lat="46.32697" lon="5.43749">
        <ele>376.2</ele>
        <time>2022-02-19T14:15:58Z</time>
      </trkpt>
      <trkpt lat="46.32707" lon="5.43745">
        <ele>376.6</ele>
        <time>2022-02-19T14:16:00Z</time>
      </trkpt>
      <trkpt lat="46.32731" lon="5.43735">
        <ele>377.4</ele>
        <time>2022-02-19T14:16:05Z</time>
      </trkpt>
      <trkpt lat="46.3274" lon="5.43731">
        <ele>377.8</ele>
        <time>2022-02-19T14:16:07Z</time>
      </trkpt>
      <trkpt lat="46.32753" lon="5.43726">
        <ele>378</ele>
        <time>2022-02-19T14:16:10Z</time>
      </trkpt>
      <trkpt lat="46.32762" lon="5.43722">
        <ele>378.4</ele>
        <time>2022-02-19T14:16:12Z</time>
      </trkpt>
      <trkpt lat="46.32767" lon="5.43721">
        <ele>378.4</ele>
        <time>2022-02-19T14:16:13Z</time>
      </trkpt>
      <trkpt lat="46.32806" lon="5.43702">
        <ele>379.2</ele>
        <time>2022-02-19T14:16:22Z</time>
      </trkpt>
      <trkpt lat="46.32815" lon="5.43697">
        <ele>379.4</ele>
        <time>2022-02-19T14:16:24Z</time>
      </trkpt>
      <trkpt lat="46.32824" lon="5.43691">
        <ele>379.6</ele>
        <time>2022-02-19T14:16:26Z</time>
      </trkpt>
      <trkpt lat="46.32837" lon="5.4368">
        <ele>379.8</ele>
        <time>2022-02-19T14:16:29Z</time>
      </trkpt>
      <trkpt lat="46.32856" lon="5.43665">
        <ele>380.2</ele>
        <time>2022-02-19T14:16:34Z</time>
      </trkpt>
      <trkpt lat="46.3286" lon="5.43664">
        <ele>380.2</ele>
        <time>2022-02-19T14:16:35Z</time>
      </trkpt>
      <trkpt lat="46.32871" lon="5.43662">
        <ele>380.6</ele>
        <time>2022-02-19T14:16:38Z</time>
      </trkpt>
      <trkpt lat="46.32888" lon="5.43657">
        <ele>381.2</ele>
        <time>2022-02-19T14:16:42Z</time>
      </trkpt>
      <trkpt lat="46.32893" lon="5.43655">
        <ele>381.4</ele>
        <time>2022-02-19T14:16:43Z</time>
      </trkpt>
      <trkpt lat="46.329" lon="5.4365">
        <ele>381.6</ele>
        <time>2022-02-19T14:16:45Z</time>
      </trkpt>
      <trkpt lat="46.32906" lon="5.43643">
        <ele>381.8</ele>
        <time>2022-02-19T14:16:47Z</time>
      </trkpt>
      <trkpt lat="46.32903" lon="5.43628">
        <ele>381.8</ele>
        <time>2022-02-19T14:16:50Z</time>
      </trkpt>
      <trkpt lat="46.329" lon="5.43598">
        <ele>382</ele>
        <time>2022-02-19T14:16:54Z</time>
      </trkpt>
      <trkpt lat="46.32901" lon="5.4359">
        <ele>382</ele>
        <time>2022-02-19T14:16:55Z</time>
      </trkpt>
      <trkpt lat="46.32902" lon="5.43582">
        <ele>382</ele>
        <time>2022-02-19T14:16:56Z</time>
      </trkpt>
      <trkpt lat="46.32909" lon="5.43569">
        <ele>382</ele>
        <time>2022-02-19T14:16:58Z</time>
      </trkpt>
      <trkpt lat="46.32932" lon="5.43541">
        <ele>382.2</ele>
        <time>2022-02-19T14:17:04Z</time>
      </trkpt>
      <trkpt lat="46.32951" lon="5.43526">
        <ele>382.8</ele>
        <time>2022-02-19T14:17:09Z</time>
      </trkpt>
      <trkpt lat="46.32959" lon="5.4352">
        <ele>383.4</ele>
        <time>2022-02-19T14:17:11Z</time>
      </trkpt>
      <trkpt lat="46.32977" lon="5.435">
        <ele>384</ele>
        <time>2022-02-19T14:17:15Z</time>
      </trkpt>
      <trkpt lat="46.32981" lon="5.43493">
        <ele>384</ele>
        <time>2022-02-19T14:17:16Z</time>
      </trkpt>
      <trkpt lat="46.33011" lon="5.43456">
        <ele>383.8</ele>
        <time>2022-02-19T14:17:21Z</time>
      </trkpt>
      <trkpt lat="46.33033" lon="5.4343">
        <ele>382.2</ele>
        <time>2022-02-19T14:17:24Z</time>
      </trkpt>
      <trkpt lat="46.3305" lon="5.43413">
        <ele>381.2</ele>
        <time>2022-02-19T14:17:27Z</time>
      </trkpt>
      <trkpt lat="46.33069" lon="5.43394">
        <ele>380</ele>
        <time>2022-02-19T14:17:29Z</time>
      </trkpt>
      <trkpt lat="46.33086" lon="5.4338">
        <ele>378.6</ele>
        <time>2022-02-19T14:17:31Z</time>
      </trkpt>
      <trkpt lat="46.33105" lon="5.43365">
        <ele>377.4</ele>
        <time>2022-02-19T14:17:33Z</time>
      </trkpt>
      <trkpt lat="46.33125" lon="5.43351">
        <ele>375.4</ele>
        <time>2022-02-19T14:17:35Z</time>
      </trkpt>
      <trkpt lat="46.33145" lon="5.43339">
        <ele>374.2</ele>
        <time>2022-02-19T14:17:37Z</time>
      </trkpt>
      <trkpt lat="46.33166" lon="5.43327">
        <ele>373.2</ele>
        <time>2022-02-19T14:17:39Z</time>
      </trkpt>
      <trkpt lat="46.33187" lon="5.43315">
        <ele>371.8</ele>
        <time>2022-02-19T14:17:41Z</time>
      </trkpt>
      <trkpt lat="46.33208" lon="5.43304">
        <ele>370.4</ele>
        <time>2022-02-19T14:17:43Z</time>
      </trkpt>
      <trkpt lat="46.33219" lon="5.433">
        <ele>369.2</ele>
        <time>2022-02-19T14:17:44Z</time>
      </trkpt>
      <trkpt lat="46.3323" lon="5.43296">
        <ele>368.6</ele>
        <time>2022-02-19T14:17:45Z</time>
      </trkpt>
      <trkpt lat="46.33241" lon="5.43294">
        <ele>367.4</ele>
        <time>2022-02-19T14:17:46Z</time>
      </trkpt>
      <trkpt lat="46.33262" lon="5.43292">
        <ele>366</ele>
        <time>2022-02-19T14:17:48Z</time>
      </trkpt>
      <trkpt lat="46.33285" lon="5.43287">
        <ele>364.8</ele>
        <time>2022-02-19T14:17:50Z</time>
      </trkpt>
      <trkpt lat="46.33295" lon="5.43285">
        <ele>364</ele>
        <time>2022-02-19T14:17:51Z</time>
      </trkpt>
      <trkpt lat="46.33305" lon="5.43282">
        <ele>363.6</ele>
        <time>2022-02-19T14:17:52Z</time>
      </trkpt>
      <trkpt lat="46.33333" lon="5.43273">
        <ele>362.2</ele>
        <time>2022-02-19T14:17:55Z</time>
      </trkpt>
      <trkpt lat="46.33372" lon="5.43263">
        <ele>361.4</ele>
        <time>2022-02-19T14:17:59Z</time>
      </trkpt>
      <trkpt lat="46.33382" lon="5.43261">
        <ele>361</ele>
        <time>2022-02-19T14:18:00Z</time>
      </trkpt>
      <trkpt lat="46.33392" lon="5.43258">
        <ele>360.8</ele>
        <time>2022-02-19T14:18:01Z</time>
      </trkpt>
      <trkpt lat="46.3341" lon="5.43245">
        <ele>360.2</ele>
        <time>2022-02-19T14:18:03Z</time>
      </trkpt>
      <trkpt lat="46.33417" lon="5.43235">
        <ele>360</ele>
        <time>2022-02-19T14:18:04Z</time>
      </trkpt>
      <trkpt lat="46.33423" lon="5.43222">
        <ele>359.8</ele>
        <time>2022-02-19T14:18:05Z</time>
      </trkpt>
      <trkpt lat="46.33427" lon="5.43209">
        <ele>359.6</ele>
        <time>2022-02-19T14:18:06Z</time>
      </trkpt>
      <trkpt lat="46.3343" lon="5.43196">
        <ele>358.8</ele>
        <time>2022-02-19T14:18:07Z</time>
      </trkpt>
      <trkpt lat="46.33442" lon="5.43143">
        <ele>357.4</ele>
        <time>2022-02-19T14:18:11Z</time>
      </trkpt>
      <trkpt lat="46.33445" lon="5.43129">
        <ele>357.2</ele>
        <time>2022-02-19T14:18:12Z</time>
      </trkpt>
      <trkpt lat="46.33452" lon="5.4309">
        <ele>356.8</ele>
        <time>2022-02-19T14:18:15Z</time>
      </trkpt>
      <trkpt lat="46.3346" lon="5.43065">
        <ele>356.6</ele>
        <time>2022-02-19T14:18:17Z</time>
      </trkpt>
      <trkpt lat="46.33479" lon="5.43013">
        <ele>356.4</ele>
        <time>2022-02-19T14:18:22Z</time>
      </trkpt>
      <trkpt lat="46.33482" lon="5.43003">
        <ele>356.4</ele>
        <time>2022-02-19T14:18:23Z</time>
      </trkpt>
      <trkpt lat="46.33487" lon="5.42973">
        <ele>356.6</ele>
        <time>2022-02-19T14:18:26Z</time>
      </trkpt>
      <trkpt lat="46.33498" lon="5.42936">
        <ele>356.8</ele>
        <time>2022-02-19T14:18:30Z</time>
      </trkpt>
      <trkpt lat="46.33523" lon="5.42901">
        <ele>356.8</ele>
        <time>2022-02-19T14:18:35Z</time>
      </trkpt>
      <trkpt lat="46.33549" lon="5.42854">
        <ele>356.8</ele>
        <time>2022-02-19T14:18:41Z</time>
      </trkpt>
      <trkpt lat="46.33554" lon="5.42846">
        <ele>356.8</ele>
        <time>2022-02-19T14:18:42Z</time>
      </trkpt>
      <trkpt lat="46.33573" lon="5.42825">
        <ele>356.6</ele>
        <time>2022-02-19T14:18:45Z</time>
      </trkpt>
      <trkpt lat="46.33592" lon="5.42808">
        <ele>356.4</ele>
        <time>2022-02-19T14:18:48Z</time>
      </trkpt>
      <trkpt lat="46.33606" lon="5.428">
        <ele>356.2</ele>
        <time>2022-02-19T14:18:50Z</time>
      </trkpt>
      <trkpt lat="46.33656" lon="5.42779">
        <ele>356.2</ele>
        <time>2022-02-19T14:18:57Z</time>
      </trkpt>
      <trkpt lat="46.33694" lon="5.42758">
        <ele>356.2</ele>
        <time>2022-02-19T14:19:03Z</time>
      </trkpt>
      <trkpt lat="46.33709" lon="5.42743">
        <ele>356.6</ele>
        <time>2022-02-19T14:19:06Z</time>
      </trkpt>
      <trkpt lat="46.33713" lon="5.42737">
        <ele>356.6</ele>
        <time>2022-02-19T14:19:07Z</time>
      </trkpt>
      <trkpt lat="46.33728" lon="5.42704">
        <ele>357</ele>
        <time>2022-02-19T14:19:12Z</time>
      </trkpt>
      <trkpt lat="46.33741" lon="5.42657">
        <ele>357.6</ele>
        <time>2022-02-19T14:19:19Z</time>
      </trkpt>
      <trkpt lat="46.33761" lon="5.42606">
        <ele>358</ele>
        <time>2022-02-19T14:19:27Z</time>
      </trkpt>
      <trkpt lat="46.33779" lon="5.42579">
        <ele>358.2</ele>
        <time>2022-02-19T14:19:32Z</time>
      </trkpt>
      <trkpt lat="46.33787" lon="5.42569">
        <ele>358.4</ele>
        <time>2022-02-19T14:19:34Z</time>
      </trkpt>
      <trkpt lat="46.33794" lon="5.4256">
        <ele>358.6</ele>
        <time>2022-02-19T14:19:36Z</time>
      </trkpt>
      <trkpt lat="46.3382" lon="5.42527">
        <ele>359.6</ele>
        <time>2022-02-19T14:19:43Z</time>
      </trkpt>
      <trkpt lat="46.33824" lon="5.42523">
        <ele>359.8</ele>
        <time>2022-02-19T14:19:44Z</time>
      </trkpt>
      <trkpt lat="46.33858" lon="5.42486">
        <ele>360.6</ele>
        <time>2022-02-19T14:19:53Z</time>
      </trkpt>
      <trkpt lat="46.33861" lon="5.42483">
        <ele>360.8</ele>
        <time>2022-02-19T14:19:54Z</time>
      </trkpt>
      <trkpt lat="46.33897" lon="5.42446">
        <ele>361.6</ele>
        <time>2022-02-19T14:20:03Z</time>
      </trkpt>
      <trkpt lat="46.33904" lon="5.42439">
        <ele>361.8</ele>
        <time>2022-02-19T14:20:05Z</time>
      </trkpt>
      <trkpt lat="46.33942" lon="5.42408">
        <ele>362.8</ele>
        <time>2022-02-19T14:20:14Z</time>
      </trkpt>
      <trkpt lat="46.33946" lon="5.42405">
        <ele>363</ele>
        <time>2022-02-19T14:20:15Z</time>
      </trkpt>
      <trkpt lat="46.33978" lon="5.42377">
        <ele>364</ele>
        <time>2022-02-19T14:20:23Z</time>
      </trkpt>
      <trkpt lat="46.33992" lon="5.42366">
        <ele>364.2</ele>
        <time>2022-02-19T14:20:26Z</time>
      </trkpt>
      <trkpt lat="46.34036" lon="5.42339">
        <ele>365</ele>
        <time>2022-02-19T14:20:36Z</time>
      </trkpt>
      <trkpt lat="46.34039" lon="5.42337">
        <ele>365.2</ele>
        <time>2022-02-19T14:20:37Z</time>
      </trkpt>
      <trkpt lat="46.34049" lon="5.42332">
        <ele>365.4</ele>
        <time>2022-02-19T14:20:39Z</time>
      </trkpt>
      <trkpt lat="46.34056" lon="5.42326">
        <ele>365.6</ele>
        <time>2022-02-19T14:20:41Z</time>
      </trkpt>
      <trkpt lat="46.3406" lon="5.42324">
        <ele>365.8</ele>
        <time>2022-02-19T14:20:42Z</time>
      </trkpt>
      <trkpt lat="46.34069" lon="5.42319">
        <ele>366.2</ele>
        <time>2022-02-19T14:20:45Z</time>
      </trkpt>
      <trkpt lat="46.34071" lon="5.42319">
        <ele>366.4</ele>
        <time>2022-02-19T14:20:47Z</time>
      </trkpt>
      <trkpt lat="46.34075" lon="5.42319">
        <ele>366.8</ele>
        <time>2022-02-19T14:20:52Z</time>
      </trkpt>
      <trkpt lat="46.34076" lon="5.42316">
        <ele>366.6</ele>
        <time>2022-02-19T14:21:51Z</time>
      </trkpt>
      <trkpt lat="46.34087" lon="5.42302">
        <ele>366.4</ele>
        <time>2022-02-19T14:21:55Z</time>
      </trkpt>
      <trkpt lat="46.34092" lon="5.42297">
        <ele>366.4</ele>
        <time>2022-02-19T14:21:56Z</time>
      </trkpt>
      <trkpt lat="46.34108" lon="5.42278">
        <ele>366.2</ele>
        <time>2022-02-19T14:21:59Z</time>
      </trkpt>
      <trkpt lat="46.34142" lon="5.42241">
        <ele>365.4</ele>
        <time>2022-02-19T14:22:05Z</time>
      </trkpt>
      <trkpt lat="46.34154" lon="5.42228">
        <ele>365.4</ele>
        <time>2022-02-19T14:22:07Z</time>
      </trkpt>
      <trkpt lat="46.34198" lon="5.42176">
        <ele>364.6</ele>
        <time>2022-02-19T14:22:15Z</time>
      </trkpt>
      <trkpt lat="46.34205" lon="5.42169">
        <ele>364.4</ele>
        <time>2022-02-19T14:22:16Z</time>
      </trkpt>
      <trkpt lat="46.34243" lon="5.42126">
        <ele>363.8</ele>
        <time>2022-02-19T14:22:23Z</time>
      </trkpt>
      <trkpt lat="46.34281" lon="5.42077">
        <ele>364.6</ele>
        <time>2022-02-19T14:22:31Z</time>
      </trkpt>
      <trkpt lat="46.34323" lon="5.4202">
        <ele>365</ele>
        <time>2022-02-19T14:22:40Z</time>
      </trkpt>
      <trkpt lat="46.34331" lon="5.42007">
        <ele>365</ele>
        <time>2022-02-19T14:22:42Z</time>
      </trkpt>
      <trkpt lat="46.34346" lon="5.41973">
        <ele>365.4</ele>
        <time>2022-02-19T14:22:47Z</time>
      </trkpt>
      <trkpt lat="46.34348" lon="5.41965">
        <ele>365.6</ele>
        <time>2022-02-19T14:22:48Z</time>
      </trkpt>
      <trkpt lat="46.34356" lon="5.41913">
        <ele>366</ele>
        <time>2022-02-19T14:22:54Z</time>
      </trkpt>
      <trkpt lat="46.34361" lon="5.41897">
        <ele>366</ele>
        <time>2022-02-19T14:22:56Z</time>
      </trkpt>
      <trkpt lat="46.34368" lon="5.41884">
        <ele>366</ele>
        <time>2022-02-19T14:22:58Z</time>
      </trkpt>
      <trkpt lat="46.34373" lon="5.41877">
        <ele>366</ele>
        <time>2022-02-19T14:22:59Z</time>
      </trkpt>
      <trkpt lat="46.34387" lon="5.41864">
        <ele>366</ele>
        <time>2022-02-19T14:23:02Z</time>
      </trkpt>
      <trkpt lat="46.34422" lon="5.41838">
        <ele>366</ele>
        <time>2022-02-19T14:23:09Z</time>
      </trkpt>
      <trkpt lat="46.34427" lon="5.41834">
        <ele>366.2</ele>
        <time>2022-02-19T14:23:10Z</time>
      </trkpt>
      <trkpt lat="46.34455" lon="5.41809">
        <ele>366.6</ele>
        <time>2022-02-19T14:23:16Z</time>
      </trkpt>
      <trkpt lat="46.34459" lon="5.41805">
        <ele>366.8</ele>
        <time>2022-02-19T14:23:17Z</time>
      </trkpt>
      <trkpt lat="46.34504" lon="5.41759">
        <ele>366.6</ele>
        <time>2022-02-19T14:23:26Z</time>
      </trkpt>
      <trkpt lat="46.34509" lon="5.41754">
        <ele>366.6</ele>
        <time>2022-02-19T14:23:27Z</time>
      </trkpt>
      <trkpt lat="46.34557" lon="5.41711">
        <ele>366.2</ele>
        <time>2022-02-19T14:23:36Z</time>
      </trkpt>
      <trkpt lat="46.34563" lon="5.41706">
        <ele>366.4</ele>
        <time>2022-02-19T14:23:37Z</time>
      </trkpt>
      <trkpt lat="46.34606" lon="5.41678">
        <ele>367.8</ele>
        <time>2022-02-19T14:23:46Z</time>
      </trkpt>
      <trkpt lat="46.34615" lon="5.4167">
        <ele>368.2</ele>
        <time>2022-02-19T14:23:48Z</time>
      </trkpt>
      <trkpt lat="46.34633" lon="5.41648">
        <ele>368.6</ele>
        <time>2022-02-19T14:23:52Z</time>
      </trkpt>
      <trkpt lat="46.34661" lon="5.41598">
        <ele>368.6</ele>
        <time>2022-02-19T14:23:59Z</time>
      </trkpt>
      <trkpt lat="46.34693" lon="5.41546">
        <ele>368.8</ele>
        <time>2022-02-19T14:24:07Z</time>
      </trkpt>
      <trkpt lat="46.34697" lon="5.41539">
        <ele>368.8</ele>
        <time>2022-02-19T14:24:08Z</time>
      </trkpt>
      <trkpt lat="46.34736" lon="5.4148">
        <ele>369</ele>
        <time>2022-02-19T14:24:17Z</time>
      </trkpt>
      <trkpt lat="46.34773" lon="5.41427">
        <ele>369.2</ele>
        <time>2022-02-19T14:24:25Z</time>
      </trkpt>
      <trkpt lat="46.34819" lon="5.41378">
        <ele>369.2</ele>
        <time>2022-02-19T14:24:33Z</time>
      </trkpt>
      <trkpt lat="46.34855" lon="5.41336">
        <ele>369</ele>
        <time>2022-02-19T14:24:40Z</time>
      </trkpt>
      <trkpt lat="46.34893" lon="5.41281">
        <ele>369</ele>
        <time>2022-02-19T14:24:48Z</time>
      </trkpt>
      <trkpt lat="46.3493" lon="5.41217">
        <ele>369</ele>
        <time>2022-02-19T14:24:57Z</time>
      </trkpt>
      <trkpt lat="46.34965" lon="5.41168">
        <ele>369.6</ele>
        <time>2022-02-19T14:25:05Z</time>
      </trkpt>
      <trkpt lat="46.34979" lon="5.4115">
        <ele>369.8</ele>
        <time>2022-02-19T14:25:08Z</time>
      </trkpt>
      <trkpt lat="46.34994" lon="5.41125">
        <ele>370</ele>
        <time>2022-02-19T14:25:12Z</time>
      </trkpt>
      <trkpt lat="46.35014" lon="5.41078">
        <ele>370.8</ele>
        <time>2022-02-19T14:25:19Z</time>
      </trkpt>
      <trkpt lat="46.35016" lon="5.41073">
        <ele>371</ele>
        <time>2022-02-19T14:25:20Z</time>
      </trkpt>
      <trkpt lat="46.35034" lon="5.41032">
        <ele>371.6</ele>
        <time>2022-02-19T14:25:26Z</time>
      </trkpt>
      <trkpt lat="46.35043" lon="5.41014">
        <ele>372.2</ele>
        <time>2022-02-19T14:25:29Z</time>
      </trkpt>
      <trkpt lat="46.35049" lon="5.41002">
        <ele>372.4</ele>
        <time>2022-02-19T14:25:31Z</time>
      </trkpt>
      <trkpt lat="46.35057" lon="5.40992">
        <ele>372.8</ele>
        <time>2022-02-19T14:25:33Z</time>
      </trkpt>
      <trkpt lat="46.35066" lon="5.4098">
        <ele>373.2</ele>
        <time>2022-02-19T14:25:36Z</time>
      </trkpt>
      <trkpt lat="46.35077" lon="5.40968">
        <ele>373.8</ele>
        <time>2022-02-19T14:25:39Z</time>
      </trkpt>
      <trkpt lat="46.3508" lon="5.40965">
        <ele>374</ele>
        <time>2022-02-19T14:25:40Z</time>
      </trkpt>
      <trkpt lat="46.35087" lon="5.40957">
        <ele>374.2</ele>
        <time>2022-02-19T14:25:42Z</time>
      </trkpt>
      <trkpt lat="46.35097" lon="5.40949">
        <ele>375.2</ele>
        <time>2022-02-19T14:25:45Z</time>
      </trkpt>
      <trkpt lat="46.35099" lon="5.40947">
        <ele>375.4</ele>
        <time>2022-02-19T14:25:46Z</time>
      </trkpt>
      <trkpt lat="46.35113" lon="5.40936">
        <ele>376.6</ele>
        <time>2022-02-19T14:25:50Z</time>
      </trkpt>
      <trkpt lat="46.35116" lon="5.40934">
        <ele>376.8</ele>
        <time>2022-02-19T14:25:51Z</time>
      </trkpt>
      <trkpt lat="46.35131" lon="5.40925">
        <ele>377.8</ele>
        <time>2022-02-19T14:25:55Z</time>
      </trkpt>
      <trkpt lat="46.35144" lon="5.40919">
        <ele>378.8</ele>
        <time>2022-02-19T14:25:59Z</time>
      </trkpt>
      <trkpt lat="46.35165" lon="5.40912">
        <ele>380</ele>
        <time>2022-02-19T14:26:05Z</time>
      </trkpt>
      <trkpt lat="46.35176" lon="5.40909">
        <ele>380.8</ele>
        <time>2022-02-19T14:26:08Z</time>
      </trkpt>
      <trkpt lat="46.3518" lon="5.40908">
        <ele>381</ele>
        <time>2022-02-19T14:26:09Z</time>
      </trkpt>
      <trkpt lat="46.35193" lon="5.40905">
        <ele>382.2</ele>
        <time>2022-02-19T14:26:13Z</time>
      </trkpt>
      <trkpt lat="46.35196" lon="5.40905">
        <ele>382.6</ele>
        <time>2022-02-19T14:26:14Z</time>
      </trkpt>
      <trkpt lat="46.35206" lon="5.40904">
        <ele>383.6</ele>
        <time>2022-02-19T14:26:17Z</time>
      </trkpt>
      <trkpt lat="46.35222" lon="5.40903">
        <ele>384.6</ele>
        <time>2022-02-19T14:26:22Z</time>
      </trkpt>
      <trkpt lat="46.35233" lon="5.40901">
        <ele>385.2</ele>
        <time>2022-02-19T14:26:25Z</time>
      </trkpt>
      <trkpt lat="46.35236" lon="5.40901">
        <ele>385.6</ele>
        <time>2022-02-19T14:26:26Z</time>
      </trkpt>
      <trkpt lat="46.35249" lon="5.40901">
        <ele>386.6</ele>
        <time>2022-02-19T14:26:30Z</time>
      </trkpt>
      <trkpt lat="46.35259" lon="5.40902">
        <ele>387.2</ele>
        <time>2022-02-19T14:26:33Z</time>
      </trkpt>
      <trkpt lat="46.35268" lon="5.40903">
        <ele>387.8</ele>
        <time>2022-02-19T14:26:36Z</time>
      </trkpt>
      <trkpt lat="46.35281" lon="5.40905">
        <ele>389.2</ele>
        <time>2022-02-19T14:26:40Z</time>
      </trkpt>
      <trkpt lat="46.35287" lon="5.40907">
        <ele>389.8</ele>
        <time>2022-02-19T14:26:42Z</time>
      </trkpt>
      <trkpt lat="46.353" lon="5.40908">
        <ele>390.4</ele>
        <time>2022-02-19T14:26:46Z</time>
      </trkpt>
      <trkpt lat="46.35314" lon="5.40903">
        <ele>391.4</ele>
        <time>2022-02-19T14:26:50Z</time>
      </trkpt>
      <trkpt lat="46.35318" lon="5.409">
        <ele>391.6</ele>
        <time>2022-02-19T14:26:51Z</time>
      </trkpt>
      <trkpt lat="46.3533" lon="5.40885">
        <ele>392.2</ele>
        <time>2022-02-19T14:26:55Z</time>
      </trkpt>
      <trkpt lat="46.35339" lon="5.40857">
        <ele>392.4</ele>
        <time>2022-02-19T14:27:00Z</time>
      </trkpt>
      <trkpt lat="46.3534" lon="5.4085">
        <ele>392.4</ele>
        <time>2022-02-19T14:27:01Z</time>
      </trkpt>
      <trkpt lat="46.3534" lon="5.40844">
        <ele>392.6</ele>
        <time>2022-02-19T14:27:02Z</time>
      </trkpt>
      <trkpt lat="46.35337" lon="5.40816">
        <ele>392.4</ele>
        <time>2022-02-19T14:27:05Z</time>
      </trkpt>
      <trkpt lat="46.35337" lon="5.40807">
        <ele>392.2</ele>
        <time>2022-02-19T14:27:06Z</time>
      </trkpt>
      <trkpt lat="46.35339" lon="5.40799">
        <ele>392.2</ele>
        <time>2022-02-19T14:27:08Z</time>
      </trkpt>
      <trkpt lat="46.35349" lon="5.40787">
        <ele>392</ele>
        <time>2022-02-19T14:27:09Z</time>
      </trkpt>
      <trkpt lat="46.35355" lon="5.40784">
        <ele>391.8</ele>
        <time>2022-02-19T14:27:10Z</time>
      </trkpt>
      <trkpt lat="46.35369" lon="5.40779">
        <ele>391.6</ele>
        <time>2022-02-19T14:27:12Z</time>
      </trkpt>
      <trkpt lat="46.35385" lon="5.40777">
        <ele>391.2</ele>
        <time>2022-02-19T14:27:14Z</time>
      </trkpt>
      <trkpt lat="46.354" lon="5.40775">
        <ele>390.8</ele>
        <time>2022-02-19T14:27:16Z</time>
      </trkpt>
      <trkpt lat="46.35416" lon="5.40768">
        <ele>390.4</ele>
        <time>2022-02-19T14:27:18Z</time>
      </trkpt>
      <trkpt lat="46.35423" lon="5.40763">
        <ele>389.8</ele>
        <time>2022-02-19T14:27:19Z</time>
      </trkpt>
      <trkpt lat="46.35457" lon="5.40743">
        <ele>388.8</ele>
        <time>2022-02-19T14:27:23Z</time>
      </trkpt>
      <trkpt lat="46.35465" lon="5.40741">
        <ele>388.6</ele>
        <time>2022-02-19T14:27:24Z</time>
      </trkpt>
      <trkpt lat="46.35492" lon="5.4074">
        <ele>387.8</ele>
        <time>2022-02-19T14:27:27Z</time>
      </trkpt>
      <trkpt lat="46.35501" lon="5.40741">
        <ele>387</ele>
        <time>2022-02-19T14:27:28Z</time>
      </trkpt>
      <trkpt lat="46.3553" lon="5.4074">
        <ele>386.2</ele>
        <time>2022-02-19T14:27:31Z</time>
      </trkpt>
      <trkpt lat="46.35549" lon="5.40743">
        <ele>385.6</ele>
        <time>2022-02-19T14:27:33Z</time>
      </trkpt>
      <trkpt lat="46.35568" lon="5.4075">
        <ele>384.4</ele>
        <time>2022-02-19T14:27:35Z</time>
      </trkpt>
      <trkpt lat="46.35596" lon="5.40762">
        <ele>383.4</ele>
        <time>2022-02-19T14:27:38Z</time>
      </trkpt>
      <trkpt lat="46.35605" lon="5.40766">
        <ele>383</ele>
        <time>2022-02-19T14:27:39Z</time>
      </trkpt>
      <trkpt lat="46.35642" lon="5.40776">
        <ele>382</ele>
        <time>2022-02-19T14:27:43Z</time>
      </trkpt>
      <trkpt lat="46.35686" lon="5.40778">
        <ele>381</ele>
        <time>2022-02-19T14:27:48Z</time>
      </trkpt>
      <trkpt lat="46.35727" lon="5.40771">
        <ele>380.6</ele>
        <time>2022-02-19T14:27:53Z</time>
      </trkpt>
      <trkpt lat="46.35734" lon="5.40768">
        <ele>380.4</ele>
        <time>2022-02-19T14:27:54Z</time>
      </trkpt>
      <trkpt lat="46.35741" lon="5.40764">
        <ele>380.4</ele>
        <time>2022-02-19T14:27:55Z</time>
      </trkpt>
      <trkpt lat="46.35754" lon="5.40754">
        <ele>380.4</ele>
        <time>2022-02-19T14:27:57Z</time>
      </trkpt>
      <trkpt lat="46.35761" lon="5.40751">
        <ele>380.4</ele>
        <time>2022-02-19T14:27:58Z</time>
      </trkpt>
      <trkpt lat="46.35774" lon="5.40746">
        <ele>380.4</ele>
        <time>2022-02-19T14:28:00Z</time>
      </trkpt>
      <trkpt lat="46.35789" lon="5.40746">
        <ele>380.4</ele>
        <time>2022-02-19T14:28:02Z</time>
      </trkpt>
      <trkpt lat="46.35844" lon="5.40759">
        <ele>380.4</ele>
        <time>2022-02-19T14:28:10Z</time>
      </trkpt>
      <trkpt lat="46.35891" lon="5.40773">
        <ele>380.6</ele>
        <time>2022-02-19T14:28:17Z</time>
      </trkpt>
      <trkpt lat="46.35922" lon="5.40784">
        <ele>380.8</ele>
        <time>2022-02-19T14:28:22Z</time>
      </trkpt>
      <trkpt lat="46.35942" lon="5.40807">
        <ele>380.8</ele>
        <time>2022-02-19T14:28:26Z</time>
      </trkpt>
      <trkpt lat="46.35979" lon="5.40847">
        <ele>381.4</ele>
        <time>2022-02-19T14:28:33Z</time>
      </trkpt>
      <trkpt lat="46.35994" lon="5.40863">
        <ele>381.4</ele>
        <time>2022-02-19T14:28:36Z</time>
      </trkpt>
      <trkpt lat="46.36003" lon="5.40877">
        <ele>381.4</ele>
        <time>2022-02-19T14:28:38Z</time>
      </trkpt>
      <trkpt lat="46.36019" lon="5.40905">
        <ele>381.6</ele>
        <time>2022-02-19T14:28:42Z</time>
      </trkpt>
      <trkpt lat="46.36029" lon="5.40916">
        <ele>381.6</ele>
        <time>2022-02-19T14:28:44Z</time>
      </trkpt>
      <trkpt lat="46.36065" lon="5.40937">
        <ele>382</ele>
        <time>2022-02-19T14:28:50Z</time>
      </trkpt>
      <trkpt lat="46.36077" lon="5.40942">
        <ele>382.2</ele>
        <time>2022-02-19T14:28:52Z</time>
      </trkpt>
      <trkpt lat="46.36096" lon="5.40947">
        <ele>382.6</ele>
        <time>2022-02-19T14:28:55Z</time>
      </trkpt>
      <trkpt lat="46.36102" lon="5.40947">
        <ele>382.8</ele>
        <time>2022-02-19T14:28:56Z</time>
      </trkpt>
      <trkpt lat="46.36138" lon="5.40944">
        <ele>383</ele>
        <time>2022-02-19T14:29:02Z</time>
      </trkpt>
      <trkpt lat="46.36144" lon="5.40945">
        <ele>383.2</ele>
        <time>2022-02-19T14:29:03Z</time>
      </trkpt>
      <trkpt lat="46.36156" lon="5.40947">
        <ele>383.4</ele>
        <time>2022-02-19T14:29:05Z</time>
      </trkpt>
      <trkpt lat="46.36194" lon="5.40958">
        <ele>384</ele>
        <time>2022-02-19T14:29:12Z</time>
      </trkpt>
      <trkpt lat="46.36222" lon="5.40963">
        <ele>384.4</ele>
        <time>2022-02-19T14:29:17Z</time>
      </trkpt>
      <trkpt lat="46.3624" lon="5.40965">
        <ele>384.6</ele>
        <time>2022-02-19T14:29:20Z</time>
      </trkpt>
      <trkpt lat="46.36279" lon="5.40957">
        <ele>385</ele>
        <time>2022-02-19T14:29:27Z</time>
      </trkpt>
      <trkpt lat="46.36316" lon="5.4094">
        <ele>385.4</ele>
        <time>2022-02-19T14:29:34Z</time>
      </trkpt>
      <trkpt lat="46.36321" lon="5.40938">
        <ele>385.6</ele>
        <time>2022-02-19T14:29:35Z</time>
      </trkpt>
      <trkpt lat="46.36366" lon="5.40937">
        <ele>386.6</ele>
        <time>2022-02-19T14:29:43Z</time>
      </trkpt>
      <trkpt lat="46.36371" lon="5.40937">
        <ele>386.8</ele>
        <time>2022-02-19T14:29:44Z</time>
      </trkpt>
      <trkpt lat="46.36428" lon="5.40942">
        <ele>387.4</ele>
        <time>2022-02-19T14:29:54Z</time>
      </trkpt>
      <trkpt lat="46.36434" lon="5.40943">
        <ele>387.4</ele>
        <time>2022-02-19T14:29:55Z</time>
      </trkpt>
      <trkpt lat="46.36481" lon="5.40953">
        <ele>387.4</ele>
        <time>2022-02-19T14:30:03Z</time>
      </trkpt>
      <trkpt lat="46.36504" lon="5.40954">
        <ele>387.8</ele>
        <time>2022-02-19T14:30:07Z</time>
      </trkpt>
      <trkpt lat="46.36538" lon="5.40955">
        <ele>388.2</ele>
        <time>2022-02-19T14:30:13Z</time>
      </trkpt>
      <trkpt lat="46.36577" lon="5.40958">
        <ele>388.8</ele>
        <time>2022-02-19T14:30:20Z</time>
      </trkpt>
      <trkpt lat="46.36598" lon="5.4096">
        <ele>389.4</ele>
        <time>2022-02-19T14:30:24Z</time>
      </trkpt>
      <trkpt lat="46.36615" lon="5.40962">
        <ele>389.8</ele>
        <time>2022-02-19T14:30:27Z</time>
      </trkpt>
      <trkpt lat="46.36646" lon="5.40971">
        <ele>390.6</ele>
        <time>2022-02-19T14:30:33Z</time>
      </trkpt>
      <trkpt lat="46.36657" lon="5.40975">
        <ele>391</ele>
        <time>2022-02-19T14:30:35Z</time>
      </trkpt>
      <trkpt lat="46.36684" lon="5.40983">
        <ele>391.4</ele>
        <time>2022-02-19T14:30:40Z</time>
      </trkpt>
      <trkpt lat="46.36716" lon="5.40986">
        <ele>392</ele>
        <time>2022-02-19T14:30:46Z</time>
      </trkpt>
      <trkpt lat="46.36723" lon="5.40986">
        <ele>392</ele>
        <time>2022-02-19T14:30:47Z</time>
      </trkpt>
      <trkpt lat="46.36733" lon="5.40987">
        <ele>392.4</ele>
        <time>2022-02-19T14:30:49Z</time>
      </trkpt>
      <trkpt lat="46.36749" lon="5.40987">
        <ele>392.8</ele>
        <time>2022-02-19T14:30:52Z</time>
      </trkpt>
      <trkpt lat="46.36754" lon="5.40988">
        <ele>393</ele>
        <time>2022-02-19T14:30:53Z</time>
      </trkpt>
      <trkpt lat="46.36771" lon="5.40991">
        <ele>394</ele>
        <time>2022-02-19T14:30:57Z</time>
      </trkpt>
      <trkpt lat="46.36776" lon="5.40991">
        <ele>394.2</ele>
        <time>2022-02-19T14:30:58Z</time>
      </trkpt>
      <trkpt lat="46.3679" lon="5.40994">
        <ele>394.8</ele>
        <time>2022-02-19T14:31:01Z</time>
      </trkpt>
      <trkpt lat="46.36805" lon="5.40995">
        <ele>395.4</ele>
        <time>2022-02-19T14:31:04Z</time>
      </trkpt>
      <trkpt lat="46.3681" lon="5.40995">
        <ele>395.6</ele>
        <time>2022-02-19T14:31:05Z</time>
      </trkpt>
      <trkpt lat="46.36837" lon="5.40993">
        <ele>396.4</ele>
        <time>2022-02-19T14:31:11Z</time>
      </trkpt>
      <trkpt lat="46.36869" lon="5.40994">
        <ele>397.6</ele>
        <time>2022-02-19T14:31:18Z</time>
      </trkpt>
      <trkpt lat="46.36906" lon="5.40996">
        <ele>398.4</ele>
        <time>2022-02-19T14:31:25Z</time>
      </trkpt>
      <trkpt lat="46.36918" lon="5.40997">
        <ele>398.4</ele>
        <time>2022-02-19T14:31:27Z</time>
      </trkpt>
      <trkpt lat="46.36947" lon="5.40993">
        <ele>398.4</ele>
        <time>2022-02-19T14:31:32Z</time>
      </trkpt>
      <trkpt lat="46.36986" lon="5.40979">
        <ele>398.2</ele>
        <time>2022-02-19T14:31:38Z</time>
      </trkpt>
      <trkpt lat="46.37025" lon="5.40966">
        <ele>397.6</ele>
        <time>2022-02-19T14:31:44Z</time>
      </trkpt>
      <trkpt lat="46.37053" lon="5.40963">
        <ele>398</ele>
        <time>2022-02-19T14:31:49Z</time>
      </trkpt>
      <trkpt lat="46.37058" lon="5.40964">
        <ele>398.6</ele>
        <time>2022-02-19T14:31:50Z</time>
      </trkpt>
      <trkpt lat="46.37069" lon="5.40969">
        <ele>399.2</ele>
        <time>2022-02-19T14:31:52Z</time>
      </trkpt>
      <trkpt lat="46.37075" lon="5.40972">
        <ele>399.2</ele>
        <time>2022-02-19T14:31:53Z</time>
      </trkpt>
      <trkpt lat="46.37111" lon="5.40988">
        <ele>399.2</ele>
        <time>2022-02-19T14:31:59Z</time>
      </trkpt>
      <trkpt lat="46.37162" lon="5.41007">
        <ele>398.8</ele>
        <time>2022-02-19T14:32:07Z</time>
      </trkpt>
      <trkpt lat="46.37194" lon="5.41023">
        <ele>399.2</ele>
        <time>2022-02-19T14:32:13Z</time>
      </trkpt>
      <trkpt lat="46.3723" lon="5.41042">
        <ele>400.6</ele>
        <time>2022-02-19T14:32:21Z</time>
      </trkpt>
      <trkpt lat="46.37245" lon="5.41048">
        <ele>401.6</ele>
        <time>2022-02-19T14:32:24Z</time>
      </trkpt>
      <trkpt lat="46.37269" lon="5.41057">
        <ele>402.6</ele>
        <time>2022-02-19T14:32:29Z</time>
      </trkpt>
      <trkpt lat="46.37287" lon="5.41062">
        <ele>403.4</ele>
        <time>2022-02-19T14:32:33Z</time>
      </trkpt>
      <trkpt lat="46.37296" lon="5.41064">
        <ele>403.6</ele>
        <time>2022-02-19T14:32:35Z</time>
      </trkpt>
      <trkpt lat="46.37314" lon="5.41066">
        <ele>404.8</ele>
        <time>2022-02-19T14:32:40Z</time>
      </trkpt>
      <trkpt lat="46.3733" lon="5.41069">
        <ele>405.6</ele>
        <time>2022-02-19T14:32:43Z</time>
      </trkpt>
      <trkpt lat="46.37334" lon="5.41068">
        <ele>405.8</ele>
        <time>2022-02-19T14:32:44Z</time>
      </trkpt>
      <trkpt lat="46.37342" lon="5.41067">
        <ele>406.2</ele>
        <time>2022-02-19T14:32:46Z</time>
      </trkpt>
      <trkpt lat="46.37352" lon="5.4106">
        <ele>406.8</ele>
        <time>2022-02-19T14:32:49Z</time>
      </trkpt>
      <trkpt lat="46.37355" lon="5.41057">
        <ele>407</ele>
        <time>2022-02-19T14:32:50Z</time>
      </trkpt>
      <trkpt lat="46.37365" lon="5.41046">
        <ele>408.4</ele>
        <time>2022-02-19T14:32:53Z</time>
      </trkpt>
      <trkpt lat="46.37374" lon="5.41034">
        <ele>409</ele>
        <time>2022-02-19T14:32:56Z</time>
      </trkpt>
      <trkpt lat="46.37389" lon="5.41002">
        <ele>409</ele>
        <time>2022-02-19T14:33:01Z</time>
      </trkpt>
      <trkpt lat="46.37391" lon="5.40985">
        <ele>408.8</ele>
        <time>2022-02-19T14:33:03Z</time>
      </trkpt>
      <trkpt lat="46.37391" lon="5.40975">
        <ele>408.6</ele>
        <time>2022-02-19T14:33:04Z</time>
      </trkpt>
      <trkpt lat="46.37389" lon="5.40963">
        <ele>408.2</ele>
        <time>2022-02-19T14:33:05Z</time>
      </trkpt>
      <trkpt lat="46.37387" lon="5.40953">
        <ele>407</ele>
        <time>2022-02-19T14:33:07Z</time>
      </trkpt>
      <trkpt lat="46.37382" lon="5.40932">
        <ele>407</ele>
        <time>2022-02-19T14:33:08Z</time>
      </trkpt>
      <trkpt lat="46.37375" lon="5.40897">
        <ele>406.2</ele>
        <time>2022-02-19T14:33:11Z</time>
      </trkpt>
      <trkpt lat="46.37371" lon="5.40874">
        <ele>405.2</ele>
        <time>2022-02-19T14:33:13Z</time>
      </trkpt>
      <trkpt lat="46.37369" lon="5.40862">
        <ele>404</ele>
        <time>2022-02-19T14:33:14Z</time>
      </trkpt>
      <trkpt lat="46.37369" lon="5.4085">
        <ele>403.6</ele>
        <time>2022-02-19T14:33:15Z</time>
      </trkpt>
      <trkpt lat="46.37371" lon="5.40839">
        <ele>402.8</ele>
        <time>2022-02-19T14:33:16Z</time>
      </trkpt>
      <trkpt lat="46.37375" lon="5.40829">
        <ele>402.6</ele>
        <time>2022-02-19T14:33:17Z</time>
      </trkpt>
      <trkpt lat="46.37387" lon="5.40815">
        <ele>401.6</ele>
        <time>2022-02-19T14:33:19Z</time>
      </trkpt>
      <trkpt lat="46.37394" lon="5.40813">
        <ele>401.2</ele>
        <time>2022-02-19T14:33:20Z</time>
      </trkpt>
      <trkpt lat="46.37411" lon="5.4081">
        <ele>400.6</ele>
        <time>2022-02-19T14:33:22Z</time>
      </trkpt>
      <trkpt lat="46.37419" lon="5.40807">
        <ele>400.2</ele>
        <time>2022-02-19T14:33:23Z</time>
      </trkpt>
      <trkpt lat="46.37434" lon="5.40797">
        <ele>399.4</ele>
        <time>2022-02-19T14:33:25Z</time>
      </trkpt>
      <trkpt lat="46.37454" lon="5.40778">
        <ele>398.4</ele>
        <time>2022-02-19T14:33:28Z</time>
      </trkpt>
      <trkpt lat="46.37461" lon="5.40773">
        <ele>398</ele>
        <time>2022-02-19T14:33:29Z</time>
      </trkpt>
      <trkpt lat="46.37468" lon="5.40768">
        <ele>397.8</ele>
        <time>2022-02-19T14:33:30Z</time>
      </trkpt>
      <trkpt lat="46.37504" lon="5.40752">
        <ele>397.2</ele>
        <time>2022-02-19T14:33:35Z</time>
      </trkpt>
      <trkpt lat="46.37525" lon="5.40747">
        <ele>396.8</ele>
        <time>2022-02-19T14:33:38Z</time>
      </trkpt>
      <trkpt lat="46.37554" lon="5.40744">
        <ele>396</ele>
        <time>2022-02-19T14:33:42Z</time>
      </trkpt>
      <trkpt lat="46.37569" lon="5.40745">
        <ele>395.8</ele>
        <time>2022-02-19T14:33:44Z</time>
      </trkpt>
      <trkpt lat="46.37613" lon="5.40751">
        <ele>395</ele>
        <time>2022-02-19T14:33:50Z</time>
      </trkpt>
      <trkpt lat="46.37649" lon="5.4075">
        <ele>395.2</ele>
        <time>2022-02-19T14:33:55Z</time>
      </trkpt>
      <trkpt lat="46.37656" lon="5.40748">
        <ele>395.2</ele>
        <time>2022-02-19T14:33:56Z</time>
      </trkpt>
      <trkpt lat="46.37662" lon="5.40743">
        <ele>395.2</ele>
        <time>2022-02-19T14:33:57Z</time>
      </trkpt>
      <trkpt lat="46.37674" lon="5.40731">
        <ele>395</ele>
        <time>2022-02-19T14:33:59Z</time>
      </trkpt>
      <trkpt lat="46.3768" lon="5.40723">
        <ele>395</ele>
        <time>2022-02-19T14:34:00Z</time>
      </trkpt>
      <trkpt lat="46.37705" lon="5.4069">
        <ele>393.8</ele>
        <time>2022-02-19T14:34:04Z</time>
      </trkpt>
      <trkpt lat="46.37738" lon="5.40639">
        <ele>392.8</ele>
        <time>2022-02-19T14:34:10Z</time>
      </trkpt>
      <trkpt lat="46.37742" lon="5.40627">
        <ele>392.8</ele>
        <time>2022-02-19T14:34:11Z</time>
      </trkpt>
      <trkpt lat="46.37761" lon="5.40578">
        <ele>392.4</ele>
        <time>2022-02-19T14:34:16Z</time>
      </trkpt>
      <trkpt lat="46.3778" lon="5.40524">
        <ele>392.4</ele>
        <time>2022-02-19T14:34:22Z</time>
      </trkpt>
      <trkpt lat="46.37796" lon="5.40484">
        <ele>392.8</ele>
        <time>2022-02-19T14:34:27Z</time>
      </trkpt>
      <trkpt lat="46.37799" lon="5.40476">
        <ele>393</ele>
        <time>2022-02-19T14:34:28Z</time>
      </trkpt>
      <trkpt lat="46.37809" lon="5.40463">
        <ele>393.4</ele>
        <time>2022-02-19T14:34:30Z</time>
      </trkpt>
      <trkpt lat="46.37814" lon="5.40457">
        <ele>393.4</ele>
        <time>2022-02-19T14:34:31Z</time>
      </trkpt>
      <trkpt lat="46.37832" lon="5.40442">
        <ele>393.8</ele>
        <time>2022-02-19T14:34:34Z</time>
      </trkpt>
      <trkpt lat="46.37861" lon="5.40419">
        <ele>393.4</ele>
        <time>2022-02-19T14:34:39Z</time>
      </trkpt>
      <trkpt lat="46.37889" lon="5.40396">
        <ele>392.6</ele>
        <time>2022-02-19T14:34:44Z</time>
      </trkpt>
      <trkpt lat="46.37906" lon="5.40381">
        <ele>391.6</ele>
        <time>2022-02-19T14:34:47Z</time>
      </trkpt>
      <trkpt lat="46.37911" lon="5.40376">
        <ele>391.4</ele>
        <time>2022-02-19T14:34:48Z</time>
      </trkpt>
      <trkpt lat="46.37943" lon="5.40348">
        <ele>390.6</ele>
        <time>2022-02-19T14:34:53Z</time>
      </trkpt>
      <trkpt lat="46.37949" lon="5.40342">
        <ele>390.2</ele>
        <time>2022-02-19T14:34:54Z</time>
      </trkpt>
      <trkpt lat="46.37974" lon="5.40303">
        <ele>390</ele>
        <time>2022-02-19T14:34:59Z</time>
      </trkpt>
      <trkpt lat="46.37998" lon="5.40254">
        <ele>389.6</ele>
        <time>2022-02-19T14:35:05Z</time>
      </trkpt>
      <trkpt lat="46.38004" lon="5.40237">
        <ele>389.4</ele>
        <time>2022-02-19T14:35:07Z</time>
      </trkpt>
      <trkpt lat="46.38013" lon="5.40193">
        <ele>389.4</ele>
        <time>2022-02-19T14:35:12Z</time>
      </trkpt>
      <trkpt lat="46.38029" lon="5.40122">
        <ele>389.8</ele>
        <time>2022-02-19T14:35:20Z</time>
      </trkpt>
      <trkpt lat="46.38042" lon="5.40069">
        <ele>389.8</ele>
        <time>2022-02-19T14:35:26Z</time>
      </trkpt>
      <trkpt lat="46.38044" lon="5.4006">
        <ele>389.8</ele>
        <time>2022-02-19T14:35:27Z</time>
      </trkpt>
      <trkpt lat="46.38046" lon="5.40007">
        <ele>390.2</ele>
        <time>2022-02-19T14:35:33Z</time>
      </trkpt>
      <trkpt lat="46.38047" lon="5.3995">
        <ele>390.2</ele>
        <time>2022-02-19T14:35:39Z</time>
      </trkpt>
      <trkpt lat="46.38049" lon="5.39942">
        <ele>390.2</ele>
        <time>2022-02-19T14:35:40Z</time>
      </trkpt>
      <trkpt lat="46.38053" lon="5.39935">
        <ele>390</ele>
        <time>2022-02-19T14:35:41Z</time>
      </trkpt>
      <trkpt lat="46.38064" lon="5.39926">
        <ele>389.8</ele>
        <time>2022-02-19T14:35:43Z</time>
      </trkpt>
      <trkpt lat="46.38095" lon="5.39906">
        <ele>389.8</ele>
        <time>2022-02-19T14:35:48Z</time>
      </trkpt>
      <trkpt lat="46.38134" lon="5.39868">
        <ele>390</ele>
        <time>2022-02-19T14:35:55Z</time>
      </trkpt>
      <trkpt lat="46.38146" lon="5.39862">
        <ele>390.2</ele>
        <time>2022-02-19T14:35:57Z</time>
      </trkpt>
      <trkpt lat="46.38158" lon="5.39858">
        <ele>390.4</ele>
        <time>2022-02-19T14:35:59Z</time>
      </trkpt>
      <trkpt lat="46.38169" lon="5.39859">
        <ele>390.4</ele>
        <time>2022-02-19T14:36:01Z</time>
      </trkpt>
      <trkpt lat="46.38181" lon="5.39863">
        <ele>390.8</ele>
        <time>2022-02-19T14:36:03Z</time>
      </trkpt>
      <trkpt lat="46.38219" lon="5.39875">
        <ele>391</ele>
        <time>2022-02-19T14:36:10Z</time>
      </trkpt>
      <trkpt lat="46.38224" lon="5.39877">
        <ele>391</ele>
        <time>2022-02-19T14:36:11Z</time>
      </trkpt>
      <trkpt lat="46.3825" lon="5.39884">
        <ele>391.4</ele>
        <time>2022-02-19T14:36:16Z</time>
      </trkpt>
      <trkpt lat="46.3826" lon="5.39885">
        <ele>391.8</ele>
        <time>2022-02-19T14:36:18Z</time>
      </trkpt>
      <trkpt lat="46.3827" lon="5.39883">
        <ele>392</ele>
        <time>2022-02-19T14:36:20Z</time>
      </trkpt>
      <trkpt lat="46.38274" lon="5.3988">
        <ele>392.2</ele>
        <time>2022-02-19T14:36:21Z</time>
      </trkpt>
      <trkpt lat="46.38277" lon="5.39876">
        <ele>392.6</ele>
        <time>2022-02-19T14:36:22Z</time>
      </trkpt>
      <trkpt lat="46.38277" lon="5.39863">
        <ele>393</ele>
        <time>2022-02-19T14:36:24Z</time>
      </trkpt>
      <trkpt lat="46.38272" lon="5.39845">
        <ele>393.2</ele>
        <time>2022-02-19T14:36:27Z</time>
      </trkpt>
      <trkpt lat="46.38274" lon="5.39832">
        <ele>393</ele>
        <time>2022-02-19T14:36:29Z</time>
      </trkpt>
      <trkpt lat="46.38278" lon="5.39819">
        <ele>393</ele>
        <time>2022-02-19T14:36:31Z</time>
      </trkpt>
      <trkpt lat="46.38289" lon="5.39801">
        <ele>393</ele>
        <time>2022-02-19T14:36:34Z</time>
      </trkpt>
      <trkpt lat="46.38318" lon="5.39771">
        <ele>392.6</ele>
        <time>2022-02-19T14:36:40Z</time>
      </trkpt>
      <trkpt lat="46.38359" lon="5.39738">
        <ele>392.6</ele>
        <time>2022-02-19T14:36:48Z</time>
      </trkpt>
      <trkpt lat="46.38384" lon="5.39718">
        <ele>392.6</ele>
        <time>2022-02-19T14:36:54Z</time>
      </trkpt>
      <trkpt lat="46.38396" lon="5.39708">
        <ele>392.4</ele>
        <time>2022-02-19T14:36:59Z</time>
      </trkpt>
      <trkpt lat="46.38415" lon="5.39696">
        <ele>392.2</ele>
        <time>2022-02-19T14:37:03Z</time>
      </trkpt>
      <trkpt lat="46.38441" lon="5.39683">
        <ele>392.4</ele>
        <time>2022-02-19T14:37:08Z</time>
      </trkpt>
      <trkpt lat="46.38445" lon="5.39679">
        <ele>392.4</ele>
        <time>2022-02-19T14:37:09Z</time>
      </trkpt>
      <trkpt lat="46.38449" lon="5.39674">
        <ele>392.6</ele>
        <time>2022-02-19T14:37:10Z</time>
      </trkpt>
      <trkpt lat="46.38451" lon="5.39659">
        <ele>392.6</ele>
        <time>2022-02-19T14:37:12Z</time>
      </trkpt>
      <trkpt lat="46.38449" lon="5.39644">
        <ele>392.6</ele>
        <time>2022-02-19T14:37:14Z</time>
      </trkpt>
      <trkpt lat="46.38444" lon="5.39621">
        <ele>392.8</ele>
        <time>2022-02-19T14:37:17Z</time>
      </trkpt>
      <trkpt lat="46.3843" lon="5.39553">
        <ele>392.8</ele>
        <time>2022-02-19T14:37:25Z</time>
      </trkpt>
      <trkpt lat="46.38428" lon="5.39518">
        <ele>392.8</ele>
        <time>2022-02-19T14:37:29Z</time>
      </trkpt>
      <trkpt lat="46.38429" lon="5.39509">
        <ele>392.8</ele>
        <time>2022-02-19T14:37:30Z</time>
      </trkpt>
      <trkpt lat="46.38435" lon="5.39439">
        <ele>393.2</ele>
        <time>2022-02-19T14:37:39Z</time>
      </trkpt>
      <trkpt lat="46.3844" lon="5.39396">
        <ele>394.4</ele>
        <time>2022-02-19T14:37:46Z</time>
      </trkpt>
      <trkpt lat="46.3844" lon="5.3939">
        <ele>394.4</ele>
        <time>2022-02-19T14:37:47Z</time>
      </trkpt>
      <trkpt lat="46.38443" lon="5.39368">
        <ele>395.4</ele>
        <time>2022-02-19T14:37:51Z</time>
      </trkpt>
      <trkpt lat="46.38444" lon="5.39352">
        <ele>396</ele>
        <time>2022-02-19T14:37:54Z</time>
      </trkpt>
      <trkpt lat="46.38445" lon="5.39336">
        <ele>396.6</ele>
        <time>2022-02-19T14:37:57Z</time>
      </trkpt>
      <trkpt lat="46.38447" lon="5.39322">
        <ele>397.6</ele>
        <time>2022-02-19T14:38:00Z</time>
      </trkpt>
      <trkpt lat="46.38448" lon="5.39317">
        <ele>397.6</ele>
        <time>2022-02-19T14:38:01Z</time>
      </trkpt>
      <trkpt lat="46.3845" lon="5.39302">
        <ele>398.8</ele>
        <time>2022-02-19T14:38:04Z</time>
      </trkpt>
      <trkpt lat="46.38451" lon="5.39288">
        <ele>399.6</ele>
        <time>2022-02-19T14:38:07Z</time>
      </trkpt>
      <trkpt lat="46.38451" lon="5.39283">
        <ele>400</ele>
        <time>2022-02-19T14:38:08Z</time>
      </trkpt>
      <trkpt lat="46.38453" lon="5.39261">
        <ele>401.4</ele>
        <time>2022-02-19T14:38:13Z</time>
      </trkpt>
      <trkpt lat="46.38454" lon="5.39248">
        <ele>402</ele>
        <time>2022-02-19T14:38:16Z</time>
      </trkpt>
      <trkpt lat="46.38456" lon="5.3924">
        <ele>402.4</ele>
        <time>2022-02-19T14:38:18Z</time>
      </trkpt>
      <trkpt lat="46.3846" lon="5.39214">
        <ele>403.6</ele>
        <time>2022-02-19T14:38:24Z</time>
      </trkpt>
      <trkpt lat="46.38463" lon="5.39206">
        <ele>403.8</ele>
        <time>2022-02-19T14:38:26Z</time>
      </trkpt>
      <trkpt lat="46.38469" lon="5.39184">
        <ele>404.6</ele>
        <time>2022-02-19T14:38:31Z</time>
      </trkpt>
      <trkpt lat="46.3847" lon="5.39179">
        <ele>405</ele>
        <time>2022-02-19T14:38:32Z</time>
      </trkpt>
      <trkpt lat="46.38475" lon="5.39167">
        <ele>405.8</ele>
        <time>2022-02-19T14:38:35Z</time>
      </trkpt>
      <trkpt lat="46.38483" lon="5.39147">
        <ele>407</ele>
        <time>2022-02-19T14:38:40Z</time>
      </trkpt>
      <trkpt lat="46.3849" lon="5.39131">
        <ele>407.4</ele>
        <time>2022-02-19T14:38:44Z</time>
      </trkpt>
      <trkpt lat="46.38498" lon="5.39117">
        <ele>408</ele>
        <time>2022-02-19T14:38:48Z</time>
      </trkpt>
      <trkpt lat="46.38508" lon="5.39105">
        <ele>409</ele>
        <time>2022-02-19T14:38:52Z</time>
      </trkpt>
      <trkpt lat="46.3851" lon="5.39102">
        <ele>409.2</ele>
        <time>2022-02-19T14:38:53Z</time>
      </trkpt>
      <trkpt lat="46.38527" lon="5.39084">
        <ele>410.2</ele>
        <time>2022-02-19T14:38:59Z</time>
      </trkpt>
      <trkpt lat="46.38533" lon="5.39078">
        <ele>410.6</ele>
        <time>2022-02-19T14:39:01Z</time>
      </trkpt>
      <trkpt lat="46.38548" lon="5.39063">
        <ele>411.4</ele>
        <time>2022-02-19T14:39:06Z</time>
      </trkpt>
      <trkpt lat="46.38557" lon="5.39054">
        <ele>411.8</ele>
        <time>2022-02-19T14:39:09Z</time>
      </trkpt>
      <trkpt lat="46.38565" lon="5.39044">
        <ele>412.8</ele>
        <time>2022-02-19T14:39:12Z</time>
      </trkpt>
      <trkpt lat="46.38579" lon="5.3903">
        <ele>413.8</ele>
        <time>2022-02-19T14:39:17Z</time>
      </trkpt>
      <trkpt lat="46.38594" lon="5.39018">
        <ele>415</ele>
        <time>2022-02-19T14:39:22Z</time>
      </trkpt>
      <trkpt lat="46.38604" lon="5.39014">
        <ele>415.6</ele>
        <time>2022-02-19T14:39:25Z</time>
      </trkpt>
      <trkpt lat="46.38613" lon="5.39009">
        <ele>416.2</ele>
        <time>2022-02-19T14:39:28Z</time>
      </trkpt>
      <trkpt lat="46.38623" lon="5.39003">
        <ele>417.2</ele>
        <time>2022-02-19T14:39:31Z</time>
      </trkpt>
      <trkpt lat="46.38633" lon="5.38998">
        <ele>417.4</ele>
        <time>2022-02-19T14:39:34Z</time>
      </trkpt>
      <trkpt lat="46.38647" lon="5.3899">
        <ele>418.2</ele>
        <time>2022-02-19T14:39:38Z</time>
      </trkpt>
      <trkpt lat="46.38661" lon="5.38983">
        <ele>419</ele>
        <time>2022-02-19T14:39:42Z</time>
      </trkpt>
      <trkpt lat="46.38671" lon="5.38976">
        <ele>419.4</ele>
        <time>2022-02-19T14:39:45Z</time>
      </trkpt>
      <trkpt lat="46.38681" lon="5.38971">
        <ele>420.4</ele>
        <time>2022-02-19T14:39:48Z</time>
      </trkpt>
      <trkpt lat="46.3869" lon="5.38965">
        <ele>421</ele>
        <time>2022-02-19T14:39:51Z</time>
      </trkpt>
      <trkpt lat="46.38704" lon="5.38958">
        <ele>421.6</ele>
        <time>2022-02-19T14:39:55Z</time>
      </trkpt>
      <trkpt lat="46.38714" lon="5.38953">
        <ele>422.2</ele>
        <time>2022-02-19T14:39:58Z</time>
      </trkpt>
      <trkpt lat="46.38724" lon="5.38948">
        <ele>422.8</ele>
        <time>2022-02-19T14:40:01Z</time>
      </trkpt>
      <trkpt lat="46.38745" lon="5.3894">
        <ele>423.8</ele>
        <time>2022-02-19T14:40:07Z</time>
      </trkpt>
      <trkpt lat="46.38767" lon="5.38932">
        <ele>424.8</ele>
        <time>2022-02-19T14:40:13Z</time>
      </trkpt>
      <trkpt lat="46.38771" lon="5.38931">
        <ele>425</ele>
        <time>2022-02-19T14:40:14Z</time>
      </trkpt>
      <trkpt lat="46.38804" lon="5.38922">
        <ele>426</ele>
        <time>2022-02-19T14:40:22Z</time>
      </trkpt>
      <trkpt lat="46.3884" lon="5.38913">
        <ele>426.4</ele>
        <time>2022-02-19T14:40:30Z</time>
      </trkpt>
      <trkpt lat="46.38869" lon="5.38901">
        <ele>427.2</ele>
        <time>2022-02-19T14:40:36Z</time>
      </trkpt>
      <trkpt lat="46.38873" lon="5.38899">
        <ele>427.2</ele>
        <time>2022-02-19T14:40:37Z</time>
      </trkpt>
      <trkpt lat="46.38904" lon="5.38885">
        <ele>428.2</ele>
        <time>2022-02-19T14:40:44Z</time>
      </trkpt>
      <trkpt lat="46.38941" lon="5.38875">
        <ele>429.2</ele>
        <time>2022-02-19T14:40:52Z</time>
      </trkpt>
      <trkpt lat="46.38954" lon="5.38872">
        <ele>429.6</ele>
        <time>2022-02-19T14:40:55Z</time>
      </trkpt>
      <trkpt lat="46.3898" lon="5.38861">
        <ele>430.4</ele>
        <time>2022-02-19T14:41:01Z</time>
      </trkpt>
      <trkpt lat="46.38994" lon="5.38851">
        <ele>430.6</ele>
        <time>2022-02-19T14:41:04Z</time>
      </trkpt>
      <trkpt lat="46.39028" lon="5.38827">
        <ele>431.4</ele>
        <time>2022-02-19T14:41:12Z</time>
      </trkpt>
      <trkpt lat="46.39041" lon="5.38818">
        <ele>431.6</ele>
        <time>2022-02-19T14:41:15Z</time>
      </trkpt>
      <trkpt lat="46.39067" lon="5.38799">
        <ele>432.4</ele>
        <time>2022-02-19T14:41:21Z</time>
      </trkpt>
      <trkpt lat="46.3908" lon="5.38788">
        <ele>432.8</ele>
        <time>2022-02-19T14:41:24Z</time>
      </trkpt>
      <trkpt lat="46.39108" lon="5.38759">
        <ele>433.6</ele>
        <time>2022-02-19T14:41:31Z</time>
      </trkpt>
      <trkpt lat="46.3912" lon="5.38746">
        <ele>433.8</ele>
        <time>2022-02-19T14:41:34Z</time>
      </trkpt>
      <trkpt lat="46.39156" lon="5.38706">
        <ele>434.8</ele>
        <time>2022-02-19T14:41:44Z</time>
      </trkpt>
      <trkpt lat="46.3916" lon="5.38702">
        <ele>435</ele>
        <time>2022-02-19T14:41:45Z</time>
      </trkpt>
      <trkpt lat="46.39187" lon="5.38671">
        <ele>436</ele>
        <time>2022-02-19T14:41:53Z</time>
      </trkpt>
      <trkpt lat="46.39197" lon="5.3866">
        <ele>436.8</ele>
        <time>2022-02-19T14:41:56Z</time>
      </trkpt>
      <trkpt lat="46.39202" lon="5.38654">
        <ele>437.2</ele>
        <time>2022-02-19T14:41:58Z</time>
      </trkpt>
      <trkpt lat="46.39218" lon="5.38635">
        <ele>438.2</ele>
        <time>2022-02-19T14:42:03Z</time>
      </trkpt>
      <trkpt lat="46.39224" lon="5.38628">
        <ele>439</ele>
        <time>2022-02-19T14:42:05Z</time>
      </trkpt>
      <trkpt lat="46.39234" lon="5.38616">
        <ele>439.6</ele>
        <time>2022-02-19T14:42:08Z</time>
      </trkpt>
      <trkpt lat="46.3925" lon="5.38598">
        <ele>440.8</ele>
        <time>2022-02-19T14:42:13Z</time>
      </trkpt>
      <trkpt lat="46.3926" lon="5.38586">
        <ele>441.8</ele>
        <time>2022-02-19T14:42:16Z</time>
      </trkpt>
      <trkpt lat="46.39263" lon="5.38583">
        <ele>442.2</ele>
        <time>2022-02-19T14:42:17Z</time>
      </trkpt>
      <trkpt lat="46.39276" lon="5.38567">
        <ele>443.2</ele>
        <time>2022-02-19T14:42:21Z</time>
      </trkpt>
      <trkpt lat="46.39289" lon="5.38553">
        <ele>444.2</ele>
        <time>2022-02-19T14:42:25Z</time>
      </trkpt>
      <trkpt lat="46.39301" lon="5.38539">
        <ele>445.4</ele>
        <time>2022-02-19T14:42:29Z</time>
      </trkpt>
      <trkpt lat="46.39314" lon="5.38524">
        <ele>446.2</ele>
        <time>2022-02-19T14:42:34Z</time>
      </trkpt>
      <trkpt lat="46.39316" lon="5.38521">
        <ele>446.4</ele>
        <time>2022-02-19T14:42:35Z</time>
      </trkpt>
      <trkpt lat="46.3933" lon="5.38507">
        <ele>447.4</ele>
        <time>2022-02-19T14:42:40Z</time>
      </trkpt>
      <trkpt lat="46.39332" lon="5.38504">
        <ele>447.6</ele>
        <time>2022-02-19T14:42:41Z</time>
      </trkpt>
      <trkpt lat="46.39343" lon="5.38492">
        <ele>448.6</ele>
        <time>2022-02-19T14:42:45Z</time>
      </trkpt>
      <trkpt lat="46.3935" lon="5.38484">
        <ele>449.4</ele>
        <time>2022-02-19T14:42:48Z</time>
      </trkpt>
      <trkpt lat="46.39353" lon="5.38481">
        <ele>449.8</ele>
        <time>2022-02-19T14:42:49Z</time>
      </trkpt>
      <trkpt lat="46.39371" lon="5.38465">
        <ele>451</ele>
        <time>2022-02-19T14:42:55Z</time>
      </trkpt>
      <trkpt lat="46.39377" lon="5.3846">
        <ele>451.2</ele>
        <time>2022-02-19T14:42:57Z</time>
      </trkpt>
      <trkpt lat="46.39404" lon="5.38444">
        <ele>451.8</ele>
        <time>2022-02-19T14:43:04Z</time>
      </trkpt>
      <trkpt lat="46.39419" lon="5.38434">
        <ele>452</ele>
        <time>2022-02-19T14:43:08Z</time>
      </trkpt>
      <trkpt lat="46.39428" lon="5.38433">
        <ele>451.8</ele>
        <time>2022-02-19T14:43:10Z</time>
      </trkpt>
      <trkpt lat="46.39449" lon="5.38443">
        <ele>451.6</ele>
        <time>2022-02-19T14:43:15Z</time>
      </trkpt>
      <trkpt lat="46.39476" lon="5.38454">
        <ele>451.8</ele>
        <time>2022-02-19T14:43:20Z</time>
      </trkpt>
      <trkpt lat="46.39491" lon="5.38461">
        <ele>452.2</ele>
        <time>2022-02-19T14:43:23Z</time>
      </trkpt>
      <trkpt lat="46.39513" lon="5.38469">
        <ele>452.6</ele>
        <time>2022-02-19T14:43:27Z</time>
      </trkpt>
      <trkpt lat="46.39528" lon="5.38476">
        <ele>453.2</ele>
        <time>2022-02-19T14:43:30Z</time>
      </trkpt>
      <trkpt lat="46.39552" lon="5.38487">
        <ele>453.4</ele>
        <time>2022-02-19T14:43:34Z</time>
      </trkpt>
      <trkpt lat="46.39587" lon="5.38509">
        <ele>452.4</ele>
        <time>2022-02-19T14:43:39Z</time>
      </trkpt>
      <trkpt lat="46.39601" lon="5.38519">
        <ele>451.8</ele>
        <time>2022-02-19T14:43:41Z</time>
      </trkpt>
      <trkpt lat="46.39621" lon="5.38537">
        <ele>451.2</ele>
        <time>2022-02-19T14:43:44Z</time>
      </trkpt>
      <trkpt lat="46.39632" lon="5.38549">
        <ele>451.2</ele>
        <time>2022-02-19T14:43:46Z</time>
      </trkpt>
      <trkpt lat="46.39637" lon="5.38556">
        <ele>451.2</ele>
        <time>2022-02-19T14:43:47Z</time>
      </trkpt>
      <trkpt lat="46.39647" lon="5.38579">
        <ele>451.2</ele>
        <time>2022-02-19T14:43:50Z</time>
      </trkpt>
      <trkpt lat="46.39662" lon="5.38619">
        <ele>452.4</ele>
        <time>2022-02-19T14:43:55Z</time>
      </trkpt>
      <trkpt lat="46.39665" lon="5.38627">
        <ele>452.4</ele>
        <time>2022-02-19T14:43:56Z</time>
      </trkpt>
      <trkpt lat="46.39692" lon="5.38685">
        <ele>453.2</ele>
        <time>2022-02-19T14:44:03Z</time>
      </trkpt>
      <trkpt lat="46.39707" lon="5.38715">
        <ele>453.4</ele>
        <time>2022-02-19T14:44:07Z</time>
      </trkpt>
      <trkpt lat="46.39721" lon="5.38737">
        <ele>453.6</ele>
        <time>2022-02-19T14:44:10Z</time>
      </trkpt>
      <trkpt lat="46.39762" lon="5.38793">
        <ele>453.8</ele>
        <time>2022-02-19T14:44:18Z</time>
      </trkpt>
      <trkpt lat="46.39767" lon="5.38801">
        <ele>453.8</ele>
        <time>2022-02-19T14:44:19Z</time>
      </trkpt>
      <trkpt lat="46.39798" lon="5.38842">
        <ele>452.8</ele>
        <time>2022-02-19T14:44:24Z</time>
      </trkpt>
      <trkpt lat="46.39804" lon="5.38852">
        <ele>452.6</ele>
        <time>2022-02-19T14:44:25Z</time>
      </trkpt>
      <trkpt lat="46.3983" lon="5.3889">
        <ele>451.2</ele>
        <time>2022-02-19T14:44:29Z</time>
      </trkpt>
      <trkpt lat="46.39844" lon="5.3891">
        <ele>450.4</ele>
        <time>2022-02-19T14:44:31Z</time>
      </trkpt>
      <trkpt lat="46.39851" lon="5.38919">
        <ele>450</ele>
        <time>2022-02-19T14:44:32Z</time>
      </trkpt>
      <trkpt lat="46.39872" lon="5.38949">
        <ele>448.8</ele>
        <time>2022-02-19T14:44:35Z</time>
      </trkpt>
      <trkpt lat="46.39908" lon="5.38999">
        <ele>447.2</ele>
        <time>2022-02-19T14:44:40Z</time>
      </trkpt>
      <trkpt lat="46.39916" lon="5.3901">
        <ele>447</ele>
        <time>2022-02-19T14:44:41Z</time>
      </trkpt>
      <trkpt lat="46.39937" lon="5.39041">
        <ele>446.2</ele>
        <time>2022-02-19T14:44:44Z</time>
      </trkpt>
      <trkpt lat="46.39958" lon="5.39071">
        <ele>445.2</ele>
        <time>2022-02-19T14:44:47Z</time>
      </trkpt>
      <trkpt lat="46.39978" lon="5.39101">
        <ele>444.8</ele>
        <time>2022-02-19T14:44:50Z</time>
      </trkpt>
      <trkpt lat="46.40013" lon="5.39145">
        <ele>444.2</ele>
        <time>2022-02-19T14:44:55Z</time>
      </trkpt>
      <trkpt lat="46.4002" lon="5.39153">
        <ele>443.8</ele>
        <time>2022-02-19T14:44:56Z</time>
      </trkpt>
      <trkpt lat="46.40065" lon="5.392">
        <ele>443</ele>
        <time>2022-02-19T14:45:02Z</time>
      </trkpt>
      <trkpt lat="46.40072" lon="5.39207">
        <ele>442.8</ele>
        <time>2022-02-19T14:45:03Z</time>
      </trkpt>
      <trkpt lat="46.40079" lon="5.39215">
        <ele>442.8</ele>
        <time>2022-02-19T14:45:04Z</time>
      </trkpt>
      <trkpt lat="46.4013" lon="5.39269">
        <ele>441.8</ele>
        <time>2022-02-19T14:45:11Z</time>
      </trkpt>
      <trkpt lat="46.40138" lon="5.39277">
        <ele>441.6</ele>
        <time>2022-02-19T14:45:12Z</time>
      </trkpt>
      <trkpt lat="46.40153" lon="5.39294">
        <ele>441.4</ele>
        <time>2022-02-19T14:45:14Z</time>
      </trkpt>
      <trkpt lat="46.40176" lon="5.39319">
        <ele>440.4</ele>
        <time>2022-02-19T14:45:17Z</time>
      </trkpt>
      <trkpt lat="46.40199" lon="5.39345">
        <ele>439.6</ele>
        <time>2022-02-19T14:45:20Z</time>
      </trkpt>
      <trkpt lat="46.40207" lon="5.39353">
        <ele>439.4</ele>
        <time>2022-02-19T14:45:21Z</time>
      </trkpt>
      <trkpt lat="46.40244" lon="5.39389">
        <ele>439.2</ele>
        <time>2022-02-19T14:45:26Z</time>
      </trkpt>
      <trkpt lat="46.40259" lon="5.39397">
        <ele>439.6</ele>
        <time>2022-02-19T14:45:28Z</time>
      </trkpt>
      <trkpt lat="46.40274" lon="5.39401">
        <ele>439.8</ele>
        <time>2022-02-19T14:45:30Z</time>
      </trkpt>
      <trkpt lat="46.40299" lon="5.39403">
        <ele>440.6</ele>
        <time>2022-02-19T14:45:34Z</time>
      </trkpt>
      <trkpt lat="46.40311" lon="5.39404">
        <ele>441</ele>
        <time>2022-02-19T14:45:36Z</time>
      </trkpt>
      <trkpt lat="46.40327" lon="5.39407">
        <ele>441.8</ele>
        <time>2022-02-19T14:45:39Z</time>
      </trkpt>
      <trkpt lat="46.40349" lon="5.39415">
        <ele>443</ele>
        <time>2022-02-19T14:45:43Z</time>
      </trkpt>
      <trkpt lat="46.40399" lon="5.3944">
        <ele>443.8</ele>
        <time>2022-02-19T14:45:52Z</time>
      </trkpt>
      <trkpt lat="46.40404" lon="5.39443">
        <ele>444</ele>
        <time>2022-02-19T14:45:53Z</time>
      </trkpt>
      <trkpt lat="46.40435" lon="5.39466">
        <ele>445.2</ele>
        <time>2022-02-19T14:45:59Z</time>
      </trkpt>
      <trkpt lat="46.4044" lon="5.39471">
        <ele>445.4</ele>
        <time>2022-02-19T14:46:00Z</time>
      </trkpt>
      <trkpt lat="46.40475" lon="5.39503">
        <ele>446.2</ele>
        <time>2022-02-19T14:46:06Z</time>
      </trkpt>
      <trkpt lat="46.40523" lon="5.39546">
        <ele>445.8</ele>
        <time>2022-02-19T14:46:14Z</time>
      </trkpt>
      <trkpt lat="46.40529" lon="5.39552">
        <ele>445.6</ele>
        <time>2022-02-19T14:46:15Z</time>
      </trkpt>
      <trkpt lat="46.40576" lon="5.396">
        <ele>445.2</ele>
        <time>2022-02-19T14:46:23Z</time>
      </trkpt>
      <trkpt lat="46.40581" lon="5.39607">
        <ele>445</ele>
        <time>2022-02-19T14:46:24Z</time>
      </trkpt>
      <trkpt lat="46.40592" lon="5.39625">
        <ele>444.8</ele>
        <time>2022-02-19T14:46:26Z</time>
      </trkpt>
      <trkpt lat="46.40601" lon="5.39647">
        <ele>444.6</ele>
        <time>2022-02-19T14:46:28Z</time>
      </trkpt>
      <trkpt lat="46.40609" lon="5.39674">
        <ele>444.4</ele>
        <time>2022-02-19T14:46:30Z</time>
      </trkpt>
      <trkpt lat="46.40618" lon="5.39701">
        <ele>443.6</ele>
        <time>2022-02-19T14:46:32Z</time>
      </trkpt>
      <trkpt lat="46.40625" lon="5.39715">
        <ele>443</ele>
        <time>2022-02-19T14:46:33Z</time>
      </trkpt>
      <trkpt lat="46.40641" lon="5.3974">
        <ele>441.8</ele>
        <time>2022-02-19T14:46:35Z</time>
      </trkpt>
      <trkpt lat="46.40649" lon="5.39752">
        <ele>440.6</ele>
        <time>2022-02-19T14:46:36Z</time>
      </trkpt>
      <trkpt lat="46.40668" lon="5.39776">
        <ele>439</ele>
        <time>2022-02-19T14:46:38Z</time>
      </trkpt>
      <trkpt lat="46.40686" lon="5.39799">
        <ele>437</ele>
        <time>2022-02-19T14:46:40Z</time>
      </trkpt>
      <trkpt lat="46.40695" lon="5.39809">
        <ele>436.6</ele>
        <time>2022-02-19T14:46:41Z</time>
      </trkpt>
      <trkpt lat="46.40705" lon="5.39818">
        <ele>435.8</ele>
        <time>2022-02-19T14:46:42Z</time>
      </trkpt>
      <trkpt lat="46.40726" lon="5.39831">
        <ele>434.8</ele>
        <time>2022-02-19T14:46:44Z</time>
      </trkpt>
      <trkpt lat="46.40735" lon="5.39837">
        <ele>434.4</ele>
        <time>2022-02-19T14:46:45Z</time>
      </trkpt>
      <trkpt lat="46.40763" lon="5.39856">
        <ele>433.4</ele>
        <time>2022-02-19T14:46:48Z</time>
      </trkpt>
      <trkpt lat="46.40772" lon="5.39863">
        <ele>433.2</ele>
        <time>2022-02-19T14:46:49Z</time>
      </trkpt>
      <trkpt lat="46.40815" lon="5.39888">
        <ele>433.2</ele>
        <time>2022-02-19T14:46:54Z</time>
      </trkpt>
      <trkpt lat="46.4083" lon="5.39898">
        <ele>433.2</ele>
        <time>2022-02-19T14:46:56Z</time>
      </trkpt>
      <trkpt lat="46.40842" lon="5.39911">
        <ele>433.4</ele>
        <time>2022-02-19T14:46:58Z</time>
      </trkpt>
      <trkpt lat="46.40857" lon="5.39937">
        <ele>433.8</ele>
        <time>2022-02-19T14:47:01Z</time>
      </trkpt>
      <trkpt lat="46.4086" lon="5.39945">
        <ele>433.8</ele>
        <time>2022-02-19T14:47:02Z</time>
      </trkpt>
      <trkpt lat="46.40876" lon="5.39992">
        <ele>433.8</ele>
        <time>2022-02-19T14:47:06Z</time>
      </trkpt>
      <trkpt lat="46.4089" lon="5.40048">
        <ele>432.4</ele>
        <time>2022-02-19T14:47:10Z</time>
      </trkpt>
      <trkpt lat="46.40898" lon="5.40077">
        <ele>430.4</ele>
        <time>2022-02-19T14:47:12Z</time>
      </trkpt>
      <trkpt lat="46.40904" lon="5.40107">
        <ele>429</ele>
        <time>2022-02-19T14:47:14Z</time>
      </trkpt>
      <trkpt lat="46.40908" lon="5.40121">
        <ele>428.8</ele>
        <time>2022-02-19T14:47:15Z</time>
      </trkpt>
      <trkpt lat="46.4092" lon="5.40144">
        <ele>427.4</ele>
        <time>2022-02-19T14:47:17Z</time>
      </trkpt>
      <trkpt lat="46.40935" lon="5.40157">
        <ele>426.8</ele>
        <time>2022-02-19T14:47:19Z</time>
      </trkpt>
      <trkpt lat="46.40952" lon="5.40162">
        <ele>426.4</ele>
        <time>2022-02-19T14:47:21Z</time>
      </trkpt>
      <trkpt lat="46.40968" lon="5.40166">
        <ele>426.2</ele>
        <time>2022-02-19T14:47:23Z</time>
      </trkpt>
      <trkpt lat="46.41017" lon="5.40176">
        <ele>426.4</ele>
        <time>2022-02-19T14:47:29Z</time>
      </trkpt>
      <trkpt lat="46.41075" lon="5.40186">
        <ele>426.8</ele>
        <time>2022-02-19T14:47:36Z</time>
      </trkpt>
      <trkpt lat="46.41106" lon="5.40186">
        <ele>427</ele>
        <time>2022-02-19T14:47:40Z</time>
      </trkpt>
      <trkpt lat="46.41121" lon="5.40182">
        <ele>427.4</ele>
        <time>2022-02-19T14:47:42Z</time>
      </trkpt>
      <trkpt lat="46.41165" lon="5.4016">
        <ele>427.8</ele>
        <time>2022-02-19T14:47:48Z</time>
      </trkpt>
      <trkpt lat="46.4122" lon="5.4013">
        <ele>428.4</ele>
        <time>2022-02-19T14:47:56Z</time>
      </trkpt>
      <trkpt lat="46.41227" lon="5.40128">
        <ele>428.6</ele>
        <time>2022-02-19T14:47:57Z</time>
      </trkpt>
      <trkpt lat="46.41265" lon="5.40119">
        <ele>429.4</ele>
        <time>2022-02-19T14:48:03Z</time>
      </trkpt>
      <trkpt lat="46.41277" lon="5.40117">
        <ele>429.6</ele>
        <time>2022-02-19T14:48:05Z</time>
      </trkpt>
      <trkpt lat="46.41283" lon="5.40117">
        <ele>429.8</ele>
        <time>2022-02-19T14:48:06Z</time>
      </trkpt>
      <trkpt lat="46.41305" lon="5.40115">
        <ele>430.4</ele>
        <time>2022-02-19T14:48:10Z</time>
      </trkpt>
      <trkpt lat="46.41327" lon="5.40115">
        <ele>430.8</ele>
        <time>2022-02-19T14:48:14Z</time>
      </trkpt>
      <trkpt lat="46.41354" lon="5.40115">
        <ele>431.2</ele>
        <time>2022-02-19T14:48:19Z</time>
      </trkpt>
      <trkpt lat="46.41383" lon="5.40116">
        <ele>431.8</ele>
        <time>2022-02-19T14:48:25Z</time>
      </trkpt>
      <trkpt lat="46.41388" lon="5.40116">
        <ele>432</ele>
        <time>2022-02-19T14:48:26Z</time>
      </trkpt>
      <trkpt lat="46.41417" lon="5.40116">
        <ele>433</ele>
        <time>2022-02-19T14:48:32Z</time>
      </trkpt>
      <trkpt lat="46.41427" lon="5.40115">
        <ele>433.2</ele>
        <time>2022-02-19T14:48:34Z</time>
      </trkpt>
      <trkpt lat="46.41451" lon="5.40113">
        <ele>434</ele>
        <time>2022-02-19T14:48:39Z</time>
      </trkpt>
      <trkpt lat="46.41468" lon="5.40112">
        <ele>434.8</ele>
        <time>2022-02-19T14:48:43Z</time>
      </trkpt>
      <trkpt lat="46.41477" lon="5.40111">
        <ele>435.2</ele>
        <time>2022-02-19T14:48:45Z</time>
      </trkpt>
      <trkpt lat="46.41513" lon="5.40109">
        <ele>436.2</ele>
        <time>2022-02-19T14:48:53Z</time>
      </trkpt>
      <trkpt lat="46.41541" lon="5.40107">
        <ele>437.6</ele>
        <time>2022-02-19T14:48:59Z</time>
      </trkpt>
      <trkpt lat="46.41545" lon="5.40107">
        <ele>437.6</ele>
        <time>2022-02-19T14:49:00Z</time>
      </trkpt>
      <trkpt lat="46.41549" lon="5.40106">
        <ele>438</ele>
        <time>2022-02-19T14:49:01Z</time>
      </trkpt>
      <trkpt lat="46.41571" lon="5.40102">
        <ele>438.8</ele>
        <time>2022-02-19T14:49:06Z</time>
      </trkpt>
      <trkpt lat="46.41579" lon="5.401">
        <ele>439</ele>
        <time>2022-02-19T14:49:08Z</time>
      </trkpt>
      <trkpt lat="46.41599" lon="5.40094">
        <ele>439.8</ele>
        <time>2022-02-19T14:49:13Z</time>
      </trkpt>
      <trkpt lat="46.41607" lon="5.40091">
        <ele>440.2</ele>
        <time>2022-02-19T14:49:15Z</time>
      </trkpt>
      <trkpt lat="46.41623" lon="5.40084">
        <ele>440.8</ele>
        <time>2022-02-19T14:49:19Z</time>
      </trkpt>
      <trkpt lat="46.41642" lon="5.40073">
        <ele>442.2</ele>
        <time>2022-02-19T14:49:24Z</time>
      </trkpt>
      <trkpt lat="46.41645" lon="5.40071">
        <ele>442.4</ele>
        <time>2022-02-19T14:49:25Z</time>
      </trkpt>
      <trkpt lat="46.41662" lon="5.40059">
        <ele>443.4</ele>
        <time>2022-02-19T14:49:30Z</time>
      </trkpt>
      <trkpt lat="46.41671" lon="5.40051">
        <ele>444.2</ele>
        <time>2022-02-19T14:49:33Z</time>
      </trkpt>
      <trkpt lat="46.41681" lon="5.40043">
        <ele>444.6</ele>
        <time>2022-02-19T14:49:36Z</time>
      </trkpt>
      <trkpt lat="46.41699" lon="5.40032">
        <ele>446</ele>
        <time>2022-02-19T14:49:41Z</time>
      </trkpt>
      <trkpt lat="46.41705" lon="5.40028">
        <ele>446.4</ele>
        <time>2022-02-19T14:49:43Z</time>
      </trkpt>
      <trkpt lat="46.41716" lon="5.40024">
        <ele>447</ele>
        <time>2022-02-19T14:49:46Z</time>
      </trkpt>
      <trkpt lat="46.41734" lon="5.4002">
        <ele>448.2</ele>
        <time>2022-02-19T14:49:51Z</time>
      </trkpt>
      <trkpt lat="46.41757" lon="5.40022">
        <ele>449.4</ele>
        <time>2022-02-19T14:49:57Z</time>
      </trkpt>
      <trkpt lat="46.41765" lon="5.40024">
        <ele>449.8</ele>
        <time>2022-02-19T14:49:59Z</time>
      </trkpt>
      <trkpt lat="46.41776" lon="5.40027">
        <ele>450.6</ele>
        <time>2022-02-19T14:50:02Z</time>
      </trkpt>
      <trkpt lat="46.41797" lon="5.40034">
        <ele>451.6</ele>
        <time>2022-02-19T14:50:08Z</time>
      </trkpt>
      <trkpt lat="46.41801" lon="5.40035">
        <ele>451.8</ele>
        <time>2022-02-19T14:50:09Z</time>
      </trkpt>
      <trkpt lat="46.41826" lon="5.40043">
        <ele>452.8</ele>
        <time>2022-02-19T14:50:15Z</time>
      </trkpt>
      <trkpt lat="46.41838" lon="5.40047">
        <ele>453.4</ele>
        <time>2022-02-19T14:50:18Z</time>
      </trkpt>
      <trkpt lat="46.41854" lon="5.40051">
        <ele>454</ele>
        <time>2022-02-19T14:50:22Z</time>
      </trkpt>
      <trkpt lat="46.41872" lon="5.40055">
        <ele>455.2</ele>
        <time>2022-02-19T14:50:26Z</time>
      </trkpt>
      <trkpt lat="46.41875" lon="5.40055">
        <ele>455.6</ele>
        <time>2022-02-19T14:50:27Z</time>
      </trkpt>
      <trkpt lat="46.41887" lon="5.40057">
        <ele>456.2</ele>
        <time>2022-02-19T14:50:30Z</time>
      </trkpt>
      <trkpt lat="46.41912" lon="5.40058">
        <ele>457.4</ele>
        <time>2022-02-19T14:50:36Z</time>
      </trkpt>
      <trkpt lat="46.41933" lon="5.40057">
        <ele>458.8</ele>
        <time>2022-02-19T14:50:41Z</time>
      </trkpt>
      <trkpt lat="46.41949" lon="5.40055">
        <ele>459.4</ele>
        <time>2022-02-19T14:50:45Z</time>
      </trkpt>
      <trkpt lat="46.41957" lon="5.40054">
        <ele>460</ele>
        <time>2022-02-19T14:50:47Z</time>
      </trkpt>
      <trkpt lat="46.41977" lon="5.40054">
        <ele>461</ele>
        <time>2022-02-19T14:50:52Z</time>
      </trkpt>
      <trkpt lat="46.41997" lon="5.40057">
        <ele>462</ele>
        <time>2022-02-19T14:50:57Z</time>
      </trkpt>
      <trkpt lat="46.42" lon="5.40057">
        <ele>462.2</ele>
        <time>2022-02-19T14:50:58Z</time>
      </trkpt>
      <trkpt lat="46.42012" lon="5.4006">
        <ele>463.2</ele>
        <time>2022-02-19T14:51:01Z</time>
      </trkpt>
      <trkpt lat="46.42032" lon="5.40065">
        <ele>464.2</ele>
        <time>2022-02-19T14:51:06Z</time>
      </trkpt>
      <trkpt lat="46.42059" lon="5.40073">
        <ele>465.4</ele>
        <time>2022-02-19T14:51:13Z</time>
      </trkpt>
      <trkpt lat="46.42074" lon="5.40079">
        <ele>466.2</ele>
        <time>2022-02-19T14:51:17Z</time>
      </trkpt>
      <trkpt lat="46.42077" lon="5.4008">
        <ele>466.4</ele>
        <time>2022-02-19T14:51:18Z</time>
      </trkpt>
      <trkpt lat="46.42096" lon="5.40085">
        <ele>467.6</ele>
        <time>2022-02-19T14:51:23Z</time>
      </trkpt>
      <trkpt lat="46.42109" lon="5.40087">
        <ele>468</ele>
        <time>2022-02-19T14:51:26Z</time>
      </trkpt>
      <trkpt lat="46.42126" lon="5.40087">
        <ele>468.6</ele>
        <time>2022-02-19T14:51:30Z</time>
      </trkpt>
      <trkpt lat="46.42131" lon="5.40087">
        <ele>468.8</ele>
        <time>2022-02-19T14:51:31Z</time>
      </trkpt>
      <trkpt lat="46.42142" lon="5.40083">
        <ele>469.4</ele>
        <time>2022-02-19T14:51:34Z</time>
      </trkpt>
      <trkpt lat="46.42149" lon="5.40081">
        <ele>469.8</ele>
        <time>2022-02-19T14:51:36Z</time>
      </trkpt>
      <trkpt lat="46.4217" lon="5.40073">
        <ele>470.8</ele>
        <time>2022-02-19T14:51:42Z</time>
      </trkpt>
      <trkpt lat="46.42191" lon="5.40066">
        <ele>471.8</ele>
        <time>2022-02-19T14:51:48Z</time>
      </trkpt>
      <trkpt lat="46.42207" lon="5.4006">
        <ele>472.6</ele>
        <time>2022-02-19T14:51:52Z</time>
      </trkpt>
      <trkpt lat="46.42215" lon="5.40058">
        <ele>472.8</ele>
        <time>2022-02-19T14:51:54Z</time>
      </trkpt>
      <trkpt lat="46.42238" lon="5.4005">
        <ele>473.4</ele>
        <time>2022-02-19T14:51:59Z</time>
      </trkpt>
      <trkpt lat="46.42263" lon="5.40044">
        <ele>474</ele>
        <time>2022-02-19T14:52:04Z</time>
      </trkpt>
      <trkpt lat="46.42278" lon="5.40041">
        <ele>474.2</ele>
        <time>2022-02-19T14:52:07Z</time>
      </trkpt>
      <trkpt lat="46.42316" lon="5.40029">
        <ele>474.8</ele>
        <time>2022-02-19T14:52:15Z</time>
      </trkpt>
      <trkpt lat="46.4235" lon="5.40017">
        <ele>475.2</ele>
        <time>2022-02-19T14:52:22Z</time>
      </trkpt>
      <trkpt lat="46.42359" lon="5.40014">
        <ele>475.4</ele>
        <time>2022-02-19T14:52:24Z</time>
      </trkpt>
      <trkpt lat="46.42385" lon="5.40002">
        <ele>476.2</ele>
        <time>2022-02-19T14:52:30Z</time>
      </trkpt>
      <trkpt lat="46.42388" lon="5.39999">
        <ele>476.4</ele>
        <time>2022-02-19T14:52:31Z</time>
      </trkpt>
      <trkpt lat="46.4239" lon="5.39994">
        <ele>476.4</ele>
        <time>2022-02-19T14:52:32Z</time>
      </trkpt>
      <trkpt lat="46.42393" lon="5.39981">
        <ele>476.8</ele>
        <time>2022-02-19T14:52:34Z</time>
      </trkpt>
      <trkpt lat="46.42394" lon="5.3995">
        <ele>477.4</ele>
        <time>2022-02-19T14:52:38Z</time>
      </trkpt>
      <trkpt lat="46.42394" lon="5.39933">
        <ele>477.4</ele>
        <time>2022-02-19T14:52:40Z</time>
      </trkpt>
      <trkpt lat="46.42398" lon="5.39859">
        <ele>478</ele>
        <time>2022-02-19T14:52:49Z</time>
      </trkpt>
      <trkpt lat="46.42398" lon="5.39833">
        <ele>478.6</ele>
        <time>2022-02-19T14:52:52Z</time>
      </trkpt>
      <trkpt lat="46.42401" lon="5.39807">
        <ele>479.2</ele>
        <time>2022-02-19T14:52:55Z</time>
      </trkpt>
      <trkpt lat="46.42409" lon="5.39795">
        <ele>479.6</ele>
        <time>2022-02-19T14:52:57Z</time>
      </trkpt>
      <trkpt lat="46.42413" lon="5.39793">
        <ele>479.8</ele>
        <time>2022-02-19T14:52:58Z</time>
      </trkpt>
      <trkpt lat="46.42418" lon="5.39792">
        <ele>480.2</ele>
        <time>2022-02-19T14:52:59Z</time>
      </trkpt>
      <trkpt lat="46.4243" lon="5.39794">
        <ele>480.6</ele>
        <time>2022-02-19T14:53:01Z</time>
      </trkpt>
      <trkpt lat="46.42437" lon="5.39796">
        <ele>480.6</ele>
        <time>2022-02-19T14:53:02Z</time>
      </trkpt>
      <trkpt lat="46.42451" lon="5.39803">
        <ele>481</ele>
        <time>2022-02-19T14:53:04Z</time>
      </trkpt>
      <trkpt lat="46.42464" lon="5.39814">
        <ele>481</ele>
        <time>2022-02-19T14:53:06Z</time>
      </trkpt>
      <trkpt lat="46.42491" lon="5.39852">
        <ele>480.6</ele>
        <time>2022-02-19T14:53:11Z</time>
      </trkpt>
      <trkpt lat="46.42527" lon="5.3989">
        <ele>480.6</ele>
        <time>2022-02-19T14:53:17Z</time>
      </trkpt>
      <trkpt lat="46.42576" lon="5.39926">
        <ele>480.2</ele>
        <time>2022-02-19T14:53:24Z</time>
      </trkpt>
      <trkpt lat="46.42589" lon="5.39936">
        <ele>480</ele>
        <time>2022-02-19T14:53:26Z</time>
      </trkpt>
      <trkpt lat="46.42621" lon="5.39952">
        <ele>480.4</ele>
        <time>2022-02-19T14:53:31Z</time>
      </trkpt>
      <trkpt lat="46.4267" lon="5.39975">
        <ele>481</ele>
        <time>2022-02-19T14:53:39Z</time>
      </trkpt>
      <trkpt lat="46.42722" lon="5.39999">
        <ele>481</ele>
        <time>2022-02-19T14:53:47Z</time>
      </trkpt>
      <trkpt lat="46.42735" lon="5.40004">
        <ele>481.2</ele>
        <time>2022-02-19T14:53:49Z</time>
      </trkpt>
      <trkpt lat="46.42778" lon="5.40022">
        <ele>481.8</ele>
        <time>2022-02-19T14:53:56Z</time>
      </trkpt>
      <trkpt lat="46.42784" lon="5.40024">
        <ele>481.8</ele>
        <time>2022-02-19T14:53:57Z</time>
      </trkpt>
      <trkpt lat="46.42832" lon="5.40042">
        <ele>482.6</ele>
        <time>2022-02-19T14:54:04Z</time>
      </trkpt>
      <trkpt lat="46.42882" lon="5.40055">
        <ele>482.2</ele>
        <time>2022-02-19T14:54:11Z</time>
      </trkpt>
      <trkpt lat="46.42914" lon="5.40056">
        <ele>482</ele>
        <time>2022-02-19T14:54:16Z</time>
      </trkpt>
      <trkpt lat="46.42956" lon="5.40062">
        <ele>483</ele>
        <time>2022-02-19T14:54:23Z</time>
      </trkpt>
      <trkpt lat="46.42968" lon="5.40064">
        <ele>483.4</ele>
        <time>2022-02-19T14:54:25Z</time>
      </trkpt>
      <trkpt lat="46.42997" lon="5.40069">
        <ele>484.4</ele>
        <time>2022-02-19T14:54:30Z</time>
      </trkpt>
      <trkpt lat="46.43021" lon="5.40074">
        <ele>485.2</ele>
        <time>2022-02-19T14:54:34Z</time>
      </trkpt>
      <trkpt lat="46.43043" lon="5.40077">
        <ele>485.4</ele>
        <time>2022-02-19T14:54:38Z</time>
      </trkpt>
      <trkpt lat="46.43075" lon="5.40077">
        <ele>485.4</ele>
        <time>2022-02-19T14:54:43Z</time>
      </trkpt>
      <trkpt lat="46.43111" lon="5.40085">
        <ele>484.8</ele>
        <time>2022-02-19T14:54:48Z</time>
      </trkpt>
      <trkpt lat="46.43127" lon="5.40088">
        <ele>484.2</ele>
        <time>2022-02-19T14:54:50Z</time>
      </trkpt>
      <trkpt lat="46.43159" lon="5.40092">
        <ele>483.4</ele>
        <time>2022-02-19T14:54:54Z</time>
      </trkpt>
      <trkpt lat="46.43167" lon="5.40093">
        <ele>483.2</ele>
        <time>2022-02-19T14:54:55Z</time>
      </trkpt>
      <trkpt lat="46.43188" lon="5.40099">
        <ele>483</ele>
        <time>2022-02-19T14:54:58Z</time>
      </trkpt>
      <trkpt lat="46.43202" lon="5.40107">
        <ele>483</ele>
        <time>2022-02-19T14:55:00Z</time>
      </trkpt>
      <trkpt lat="46.43232" lon="5.40121">
        <ele>482.8</ele>
        <time>2022-02-19T14:55:04Z</time>
      </trkpt>
      <trkpt lat="46.43237" lon="5.40122">
        <ele>482.8</ele>
        <time>2022-02-19T14:55:05Z</time>
      </trkpt>
      <trkpt lat="46.4328" lon="5.40119">
        <ele>482.6</ele>
        <time>2022-02-19T14:55:11Z</time>
      </trkpt>
      <trkpt lat="46.4333" lon="5.40116">
        <ele>482.4</ele>
        <time>2022-02-19T14:55:18Z</time>
      </trkpt>
      <trkpt lat="46.43381" lon="5.40122">
        <ele>482.4</ele>
        <time>2022-02-19T14:55:25Z</time>
      </trkpt>
      <trkpt lat="46.43388" lon="5.40124">
        <ele>482.4</ele>
        <time>2022-02-19T14:55:26Z</time>
      </trkpt>
      <trkpt lat="46.43441" lon="5.40144">
        <ele>481.8</ele>
        <time>2022-02-19T14:55:33Z</time>
      </trkpt>
      <trkpt lat="46.43495" lon="5.4017">
        <ele>481.8</ele>
        <time>2022-02-19T14:55:41Z</time>
      </trkpt>
      <trkpt lat="46.43528" lon="5.40174">
        <ele>482</ele>
        <time>2022-02-19T14:55:46Z</time>
      </trkpt>
      <trkpt lat="46.43584" lon="5.40183">
        <ele>482.4</ele>
        <time>2022-02-19T14:55:54Z</time>
      </trkpt>
      <trkpt lat="46.43628" lon="5.40189">
        <ele>482.4</ele>
        <time>2022-02-19T14:56:00Z</time>
      </trkpt>
      <trkpt lat="46.43668" lon="5.40184">
        <ele>483</ele>
        <time>2022-02-19T14:56:06Z</time>
      </trkpt>
      <trkpt lat="46.43693" lon="5.40179">
        <ele>483.4</ele>
        <time>2022-02-19T14:56:10Z</time>
      </trkpt>
      <trkpt lat="46.43725" lon="5.40175">
        <ele>484</ele>
        <time>2022-02-19T14:56:15Z</time>
      </trkpt>
      <trkpt lat="46.43749" lon="5.40171">
        <ele>484.6</ele>
        <time>2022-02-19T14:56:19Z</time>
      </trkpt>
      <trkpt lat="46.43778" lon="5.40163">
        <ele>484.8</ele>
        <time>2022-02-19T14:56:23Z</time>
      </trkpt>
      <trkpt lat="46.43818" lon="5.40149">
        <ele>484.8</ele>
        <time>2022-02-19T14:56:29Z</time>
      </trkpt>
      <trkpt lat="46.43861" lon="5.40136">
        <ele>485.2</ele>
        <time>2022-02-19T14:56:35Z</time>
      </trkpt>
      <trkpt lat="46.43869" lon="5.40133">
        <ele>485.2</ele>
        <time>2022-02-19T14:56:36Z</time>
      </trkpt>
      <trkpt lat="46.43891" lon="5.40116">
        <ele>484.4</ele>
        <time>2022-02-19T14:56:39Z</time>
      </trkpt>
      <trkpt lat="46.4391" lon="5.40099">
        <ele>484.2</ele>
        <time>2022-02-19T14:56:42Z</time>
      </trkpt>
      <trkpt lat="46.43931" lon="5.40088">
        <ele>484.2</ele>
        <time>2022-02-19T14:56:45Z</time>
      </trkpt>
      <trkpt lat="46.43944" lon="5.40086">
        <ele>484</ele>
        <time>2022-02-19T14:56:47Z</time>
      </trkpt>
      <trkpt lat="46.4396" lon="5.40086">
        <ele>484</ele>
        <time>2022-02-19T14:56:49Z</time>
      </trkpt>
      <trkpt lat="46.43977" lon="5.40086">
        <ele>483.8</ele>
        <time>2022-02-19T14:56:51Z</time>
      </trkpt>
      <trkpt lat="46.44001" lon="5.40083">
        <ele>483.4</ele>
        <time>2022-02-19T14:56:54Z</time>
      </trkpt>
      <trkpt lat="46.4405" lon="5.40071">
        <ele>483.2</ele>
        <time>2022-02-19T14:57:01Z</time>
      </trkpt>
      <trkpt lat="46.44098" lon="5.40059">
        <ele>484.4</ele>
        <time>2022-02-19T14:57:08Z</time>
      </trkpt>
      <trkpt lat="46.4413" lon="5.40047">
        <ele>484.6</ele>
        <time>2022-02-19T14:57:13Z</time>
      </trkpt>
      <trkpt lat="46.44148" lon="5.40035">
        <ele>484.8</ele>
        <time>2022-02-19T14:57:16Z</time>
      </trkpt>
      <trkpt lat="46.44163" lon="5.40021">
        <ele>485.2</ele>
        <time>2022-02-19T14:57:19Z</time>
      </trkpt>
      <trkpt lat="46.44199" lon="5.39988">
        <ele>485.8</ele>
        <time>2022-02-19T14:57:26Z</time>
      </trkpt>
      <trkpt lat="46.4424" lon="5.39958">
        <ele>486.6</ele>
        <time>2022-02-19T14:57:33Z</time>
      </trkpt>
      <trkpt lat="46.44247" lon="5.39955">
        <ele>486.6</ele>
        <time>2022-02-19T14:57:34Z</time>
      </trkpt>
      <trkpt lat="46.44253" lon="5.39954">
        <ele>486.6</ele>
        <time>2022-02-19T14:57:35Z</time>
      </trkpt>
      <trkpt lat="46.44287" lon="5.39953">
        <ele>486</ele>
        <time>2022-02-19T14:57:40Z</time>
      </trkpt>
      <trkpt lat="46.44325" lon="5.39951">
        <ele>487</ele>
        <time>2022-02-19T14:57:47Z</time>
      </trkpt>
      <trkpt lat="46.44335" lon="5.39951">
        <ele>487.2</ele>
        <time>2022-02-19T14:57:49Z</time>
      </trkpt>
      <trkpt lat="46.44361" lon="5.39951">
        <ele>488.6</ele>
        <time>2022-02-19T14:57:54Z</time>
      </trkpt>
      <trkpt lat="46.44372" lon="5.39951">
        <ele>489</ele>
        <time>2022-02-19T14:57:56Z</time>
      </trkpt>
      <trkpt lat="46.4441" lon="5.39949">
        <ele>489.4</ele>
        <time>2022-02-19T14:58:02Z</time>
      </trkpt>
      <trkpt lat="46.44439" lon="5.39942">
        <ele>489.4</ele>
        <time>2022-02-19T14:58:06Z</time>
      </trkpt>
      <trkpt lat="46.44484" lon="5.39921">
        <ele>488.8</ele>
        <time>2022-02-19T14:58:13Z</time>
      </trkpt>
      <trkpt lat="46.44496" lon="5.39915">
        <ele>488.8</ele>
        <time>2022-02-19T14:58:15Z</time>
      </trkpt>
      <trkpt lat="46.44524" lon="5.39901">
        <ele>489.6</ele>
        <time>2022-02-19T14:58:20Z</time>
      </trkpt>
      <trkpt lat="46.44567" lon="5.39882">
        <ele>490</ele>
        <time>2022-02-19T14:58:27Z</time>
      </trkpt>
      <trkpt lat="46.44585" lon="5.39871">
        <ele>490</ele>
        <time>2022-02-19T14:58:30Z</time>
      </trkpt>
      <trkpt lat="46.44601" lon="5.39856">
        <ele>490.2</ele>
        <time>2022-02-19T14:58:33Z</time>
      </trkpt>
      <trkpt lat="46.44635" lon="5.39816">
        <ele>490.6</ele>
        <time>2022-02-19T14:58:40Z</time>
      </trkpt>
      <trkpt lat="46.44656" lon="5.39801">
        <ele>490.6</ele>
        <time>2022-02-19T14:58:43Z</time>
      </trkpt>
      <trkpt lat="46.44664" lon="5.39798">
        <ele>490.4</ele>
        <time>2022-02-19T14:58:44Z</time>
      </trkpt>
      <trkpt lat="46.44673" lon="5.39796">
        <ele>490.4</ele>
        <time>2022-02-19T14:58:45Z</time>
      </trkpt>
      <trkpt lat="46.44698" lon="5.39796">
        <ele>489.4</ele>
        <time>2022-02-19T14:58:48Z</time>
      </trkpt>
      <trkpt lat="46.44733" lon="5.39799">
        <ele>489.2</ele>
        <time>2022-02-19T14:58:53Z</time>
      </trkpt>
      <trkpt lat="46.44764" lon="5.398">
        <ele>490.4</ele>
        <time>2022-02-19T14:58:59Z</time>
      </trkpt>
      <trkpt lat="46.44775" lon="5.39801">
        <ele>490.8</ele>
        <time>2022-02-19T14:59:01Z</time>
      </trkpt>
      <trkpt lat="46.4478" lon="5.39801">
        <ele>491</ele>
        <time>2022-02-19T14:59:02Z</time>
      </trkpt>
      <trkpt lat="46.44797" lon="5.39797">
        <ele>491.6</ele>
        <time>2022-02-19T14:59:05Z</time>
      </trkpt>
      <trkpt lat="46.44802" lon="5.39794">
        <ele>492</ele>
        <time>2022-02-19T14:59:06Z</time>
      </trkpt>
      <trkpt lat="46.44822" lon="5.39781">
        <ele>492.2</ele>
        <time>2022-02-19T14:59:09Z</time>
      </trkpt>
      <trkpt lat="46.44842" lon="5.39766">
        <ele>492.2</ele>
        <time>2022-02-19T14:59:12Z</time>
      </trkpt>
      <trkpt lat="46.44863" lon="5.39756">
        <ele>491.8</ele>
        <time>2022-02-19T14:59:15Z</time>
      </trkpt>
      <trkpt lat="46.44899" lon="5.39749">
        <ele>491.6</ele>
        <time>2022-02-19T14:59:21Z</time>
      </trkpt>
      <trkpt lat="46.44938" lon="5.39737">
        <ele>492.8</ele>
        <time>2022-02-19T14:59:28Z</time>
      </trkpt>
      <trkpt lat="46.44971" lon="5.39728">
        <ele>493</ele>
        <time>2022-02-19T14:59:33Z</time>
      </trkpt>
      <trkpt lat="46.44997" lon="5.39704">
        <ele>492.8</ele>
        <time>2022-02-19T14:59:38Z</time>
      </trkpt>
      <trkpt lat="46.4502" lon="5.3968">
        <ele>493</ele>
        <time>2022-02-19T14:59:43Z</time>
      </trkpt>
      <trkpt lat="46.45024" lon="5.39675">
        <ele>493.2</ele>
        <time>2022-02-19T14:59:44Z</time>
      </trkpt>
      <trkpt lat="46.45052" lon="5.39652">
        <ele>494.2</ele>
        <time>2022-02-19T14:59:50Z</time>
      </trkpt>
      <trkpt lat="46.45057" lon="5.39649">
        <ele>494.4</ele>
        <time>2022-02-19T14:59:51Z</time>
      </trkpt>
      <trkpt lat="46.4508" lon="5.39633">
        <ele>495.4</ele>
        <time>2022-02-19T14:59:56Z</time>
      </trkpt>
      <trkpt lat="46.45099" lon="5.39622">
        <ele>496</ele>
        <time>2022-02-19T15:00:00Z</time>
      </trkpt>
      <trkpt lat="46.45119" lon="5.3961">
        <ele>496.4</ele>
        <time>2022-02-19T15:00:04Z</time>
      </trkpt>
      <trkpt lat="46.45148" lon="5.39596">
        <ele>497.2</ele>
        <time>2022-02-19T15:00:09Z</time>
      </trkpt>
      <trkpt lat="46.45194" lon="5.39574">
        <ele>496.8</ele>
        <time>2022-02-19T15:00:16Z</time>
      </trkpt>
      <trkpt lat="46.4524" lon="5.39551">
        <ele>495.6</ele>
        <time>2022-02-19T15:00:22Z</time>
      </trkpt>
      <trkpt lat="46.45248" lon="5.39546">
        <ele>495.4</ele>
        <time>2022-02-19T15:00:23Z</time>
      </trkpt>
      <trkpt lat="46.4527" lon="5.39527">
        <ele>494.4</ele>
        <time>2022-02-19T15:00:26Z</time>
      </trkpt>
      <trkpt lat="46.45282" lon="5.39513">
        <ele>493.6</ele>
        <time>2022-02-19T15:00:28Z</time>
      </trkpt>
      <trkpt lat="46.45288" lon="5.39506">
        <ele>493.2</ele>
        <time>2022-02-19T15:00:29Z</time>
      </trkpt>
      <trkpt lat="46.45316" lon="5.39466">
        <ele>492.2</ele>
        <time>2022-02-19T15:00:34Z</time>
      </trkpt>
      <trkpt lat="46.45336" lon="5.39415">
        <ele>491.8</ele>
        <time>2022-02-19T15:00:39Z</time>
      </trkpt>
      <trkpt lat="46.45359" lon="5.39346">
        <ele>491</ele>
        <time>2022-02-19T15:00:45Z</time>
      </trkpt>
      <trkpt lat="46.45372" lon="5.39308">
        <ele>489.6</ele>
        <time>2022-02-19T15:00:48Z</time>
      </trkpt>
      <trkpt lat="46.45384" lon="5.39272">
        <ele>488.8</ele>
        <time>2022-02-19T15:00:51Z</time>
      </trkpt>
      <trkpt lat="46.45389" lon="5.3926">
        <ele>488.4</ele>
        <time>2022-02-19T15:00:52Z</time>
      </trkpt>
      <trkpt lat="46.45402" lon="5.39225">
        <ele>487</ele>
        <time>2022-02-19T15:00:55Z</time>
      </trkpt>
      <trkpt lat="46.45415" lon="5.39192">
        <ele>485.8</ele>
        <time>2022-02-19T15:00:58Z</time>
      </trkpt>
      <trkpt lat="46.4543" lon="5.39149">
        <ele>484.8</ele>
        <time>2022-02-19T15:01:02Z</time>
      </trkpt>
      <trkpt lat="46.45433" lon="5.39138">
        <ele>484.4</ele>
        <time>2022-02-19T15:01:03Z</time>
      </trkpt>
      <trkpt lat="46.45441" lon="5.39117">
        <ele>483.8</ele>
        <time>2022-02-19T15:01:05Z</time>
      </trkpt>
      <trkpt lat="46.45447" lon="5.39107">
        <ele>483.6</ele>
        <time>2022-02-19T15:01:06Z</time>
      </trkpt>
      <trkpt lat="46.45453" lon="5.39099">
        <ele>483.6</ele>
        <time>2022-02-19T15:01:07Z</time>
      </trkpt>
      <trkpt lat="46.45471" lon="5.39092">
        <ele>483.2</ele>
        <time>2022-02-19T15:01:09Z</time>
      </trkpt>
      <trkpt lat="46.4548" lon="5.39094">
        <ele>482.6</ele>
        <time>2022-02-19T15:01:10Z</time>
      </trkpt>
      <trkpt lat="46.45488" lon="5.39099">
        <ele>482.2</ele>
        <time>2022-02-19T15:01:11Z</time>
      </trkpt>
      <trkpt lat="46.45495" lon="5.39106">
        <ele>481.6</ele>
        <time>2022-02-19T15:01:12Z</time>
      </trkpt>
      <trkpt lat="46.45533" lon="5.39148">
        <ele>481</ele>
        <time>2022-02-19T15:01:18Z</time>
      </trkpt>
      <trkpt lat="46.45567" lon="5.39181">
        <ele>482.8</ele>
        <time>2022-02-19T15:01:24Z</time>
      </trkpt>
      <trkpt lat="46.45572" lon="5.39186">
        <ele>482.8</ele>
        <time>2022-02-19T15:01:25Z</time>
      </trkpt>
      <trkpt lat="46.45596" lon="5.39211">
        <ele>484</ele>
        <time>2022-02-19T15:01:30Z</time>
      </trkpt>
      <trkpt lat="46.456" lon="5.39215">
        <ele>484.4</ele>
        <time>2022-02-19T15:01:31Z</time>
      </trkpt>
      <trkpt lat="46.45608" lon="5.39224">
        <ele>485.4</ele>
        <time>2022-02-19T15:01:33Z</time>
      </trkpt>
      <trkpt lat="46.45629" lon="5.39246">
        <ele>486.4</ele>
        <time>2022-02-19T15:01:38Z</time>
      </trkpt>
      <trkpt lat="46.45633" lon="5.3925">
        <ele>486.6</ele>
        <time>2022-02-19T15:01:39Z</time>
      </trkpt>
      <trkpt lat="46.4565" lon="5.39268">
        <ele>487.4</ele>
        <time>2022-02-19T15:01:43Z</time>
      </trkpt>
      <trkpt lat="46.45654" lon="5.39272">
        <ele>487.6</ele>
        <time>2022-02-19T15:01:44Z</time>
      </trkpt>
      <trkpt lat="46.45672" lon="5.39292">
        <ele>488.6</ele>
        <time>2022-02-19T15:01:49Z</time>
      </trkpt>
      <trkpt lat="46.45686" lon="5.39307">
        <ele>489.4</ele>
        <time>2022-02-19T15:01:53Z</time>
      </trkpt>
      <trkpt lat="46.45693" lon="5.39315">
        <ele>490</ele>
        <time>2022-02-19T15:01:55Z</time>
      </trkpt>
      <trkpt lat="46.45709" lon="5.39331">
        <ele>490.4</ele>
        <time>2022-02-19T15:02:00Z</time>
      </trkpt>
      <trkpt lat="46.45717" lon="5.39341">
        <ele>491</ele>
        <time>2022-02-19T15:02:03Z</time>
      </trkpt>
      <trkpt lat="46.45729" lon="5.39354">
        <ele>492.2</ele>
        <time>2022-02-19T15:02:07Z</time>
      </trkpt>
      <trkpt lat="46.45734" lon="5.3936">
        <ele>492.6</ele>
        <time>2022-02-19T15:02:09Z</time>
      </trkpt>
      <trkpt lat="46.45741" lon="5.3937">
        <ele>493.2</ele>
        <time>2022-02-19T15:02:12Z</time>
      </trkpt>
      <trkpt lat="46.45749" lon="5.39381">
        <ele>494.2</ele>
        <time>2022-02-19T15:02:15Z</time>
      </trkpt>
      <trkpt lat="46.45751" lon="5.39386">
        <ele>494.4</ele>
        <time>2022-02-19T15:02:16Z</time>
      </trkpt>
      <trkpt lat="46.45763" lon="5.39413">
        <ele>495.6</ele>
        <time>2022-02-19T15:02:22Z</time>
      </trkpt>
      <trkpt lat="46.45764" lon="5.39418">
        <ele>495.8</ele>
        <time>2022-02-19T15:02:23Z</time>
      </trkpt>
      <trkpt lat="46.45769" lon="5.39444">
        <ele>496.6</ele>
        <time>2022-02-19T15:02:28Z</time>
      </trkpt>
      <trkpt lat="46.4577" lon="5.39454">
        <ele>497.4</ele>
        <time>2022-02-19T15:02:30Z</time>
      </trkpt>
      <trkpt lat="46.4577" lon="5.39464">
        <ele>498</ele>
        <time>2022-02-19T15:02:32Z</time>
      </trkpt>
      <trkpt lat="46.45769" lon="5.39492">
        <ele>499.2</ele>
        <time>2022-02-19T15:02:37Z</time>
      </trkpt>
      <trkpt lat="46.45769" lon="5.39497">
        <ele>499.4</ele>
        <time>2022-02-19T15:02:38Z</time>
      </trkpt>
      <trkpt lat="46.45766" lon="5.3952">
        <ele>500.2</ele>
        <time>2022-02-19T15:02:42Z</time>
      </trkpt>
      <trkpt lat="46.45763" lon="5.39545">
        <ele>501</ele>
        <time>2022-02-19T15:02:46Z</time>
      </trkpt>
      <trkpt lat="46.45759" lon="5.3957">
        <ele>501.4</ele>
        <time>2022-02-19T15:02:50Z</time>
      </trkpt>
      <trkpt lat="46.45759" lon="5.39591">
        <ele>501.8</ele>
        <time>2022-02-19T15:02:53Z</time>
      </trkpt>
      <trkpt lat="46.45764" lon="5.39633">
        <ele>502.6</ele>
        <time>2022-02-19T15:02:59Z</time>
      </trkpt>
      <trkpt lat="46.45765" lon="5.39639">
        <ele>502.6</ele>
        <time>2022-02-19T15:03:00Z</time>
      </trkpt>
      <trkpt lat="46.45778" lon="5.39674">
        <ele>503.6</ele>
        <time>2022-02-19T15:03:06Z</time>
      </trkpt>
      <trkpt lat="46.4578" lon="5.3968">
        <ele>503.8</ele>
        <time>2022-02-19T15:03:07Z</time>
      </trkpt>
      <trkpt lat="46.4579" lon="5.39695">
        <ele>504.6</ele>
        <time>2022-02-19T15:03:10Z</time>
      </trkpt>
      <trkpt lat="46.45805" lon="5.39713">
        <ele>505.4</ele>
        <time>2022-02-19T15:03:14Z</time>
      </trkpt>
      <trkpt lat="46.45808" lon="5.39717">
        <ele>505.8</ele>
        <time>2022-02-19T15:03:15Z</time>
      </trkpt>
      <trkpt lat="46.45841" lon="5.39746">
        <ele>506.6</ele>
        <time>2022-02-19T15:03:23Z</time>
      </trkpt>
      <trkpt lat="46.45845" lon="5.39749">
        <ele>506.8</ele>
        <time>2022-02-19T15:03:24Z</time>
      </trkpt>
      <trkpt lat="46.4587" lon="5.3977">
        <ele>508</ele>
        <time>2022-02-19T15:03:30Z</time>
      </trkpt>
      <trkpt lat="46.45875" lon="5.39774">
        <ele>508</ele>
        <time>2022-02-19T15:03:31Z</time>
      </trkpt>
      <trkpt lat="46.45893" lon="5.39789">
        <ele>508.4</ele>
        <time>2022-02-19T15:03:35Z</time>
      </trkpt>
      <trkpt lat="46.45907" lon="5.39802">
        <ele>508.6</ele>
        <time>2022-02-19T15:03:38Z</time>
      </trkpt>
      <trkpt lat="46.4593" lon="5.39819">
        <ele>508.8</ele>
        <time>2022-02-19T15:03:42Z</time>
      </trkpt>
      <trkpt lat="46.45939" lon="5.39827">
        <ele>509</ele>
        <time>2022-02-19T15:03:44Z</time>
      </trkpt>
      <trkpt lat="46.45944" lon="5.39831">
        <ele>509</ele>
        <time>2022-02-19T15:03:45Z</time>
      </trkpt>
      <trkpt lat="46.45993" lon="5.39872">
        <ele>509.6</ele>
        <time>2022-02-19T15:03:55Z</time>
      </trkpt>
      <trkpt lat="46.46028" lon="5.39903">
        <ele>510</ele>
        <time>2022-02-19T15:04:02Z</time>
      </trkpt>
      <trkpt lat="46.46033" lon="5.39907">
        <ele>510</ele>
        <time>2022-02-19T15:04:03Z</time>
      </trkpt>
      <trkpt lat="46.46082" lon="5.39948">
        <ele>510.8</ele>
        <time>2022-02-19T15:04:13Z</time>
      </trkpt>
      <trkpt lat="46.46097" lon="5.39962">
        <ele>511</ele>
        <time>2022-02-19T15:04:16Z</time>
      </trkpt>
      <trkpt lat="46.4612" lon="5.39979">
        <ele>511.4</ele>
        <time>2022-02-19T15:04:20Z</time>
      </trkpt>
      <trkpt lat="46.4615" lon="5.40005">
        <ele>512</ele>
        <time>2022-02-19T15:04:26Z</time>
      </trkpt>
      <trkpt lat="46.4616" lon="5.40014">
        <ele>512.2</ele>
        <time>2022-02-19T15:04:28Z</time>
      </trkpt>
      <trkpt lat="46.46173" lon="5.4003">
        <ele>512.4</ele>
        <time>2022-02-19T15:04:31Z</time>
      </trkpt>
      <trkpt lat="46.46179" lon="5.40043">
        <ele>512.4</ele>
        <time>2022-02-19T15:04:33Z</time>
      </trkpt>
      <trkpt lat="46.4619" lon="5.40072">
        <ele>512.6</ele>
        <time>2022-02-19T15:04:37Z</time>
      </trkpt>
      <trkpt lat="46.46191" lon="5.40079">
        <ele>512.6</ele>
        <time>2022-02-19T15:04:38Z</time>
      </trkpt>
      <trkpt lat="46.46193" lon="5.40087">
        <ele>512.8</ele>
        <time>2022-02-19T15:04:39Z</time>
      </trkpt>
      <trkpt lat="46.46194" lon="5.40094">
        <ele>513</ele>
        <time>2022-02-19T15:04:40Z</time>
      </trkpt>
      <trkpt lat="46.46195" lon="5.40117">
        <ele>513.8</ele>
        <time>2022-02-19T15:04:43Z</time>
      </trkpt>
      <trkpt lat="46.46196" lon="5.40132">
        <ele>514</ele>
        <time>2022-02-19T15:04:45Z</time>
      </trkpt>
      <trkpt lat="46.46198" lon="5.40138">
        <ele>514</ele>
        <time>2022-02-19T15:04:46Z</time>
      </trkpt>
      <trkpt lat="46.46202" lon="5.40142">
        <ele>514.2</ele>
        <time>2022-02-19T15:04:47Z</time>
      </trkpt>
      <trkpt lat="46.46207" lon="5.40142">
        <ele>514.4</ele>
        <time>2022-02-19T15:04:48Z</time>
      </trkpt>
      <trkpt lat="46.46213" lon="5.40139">
        <ele>514.4</ele>
        <time>2022-02-19T15:04:49Z</time>
      </trkpt>
      <trkpt lat="46.46221" lon="5.4013">
        <ele>514.6</ele>
        <time>2022-02-19T15:04:51Z</time>
      </trkpt>
      <trkpt lat="46.46229" lon="5.4012">
        <ele>514.8</ele>
        <time>2022-02-19T15:04:53Z</time>
      </trkpt>
      <trkpt lat="46.46242" lon="5.40106">
        <ele>515.2</ele>
        <time>2022-02-19T15:04:56Z</time>
      </trkpt>
      <trkpt lat="46.46247" lon="5.40103">
        <ele>515.2</ele>
        <time>2022-02-19T15:04:57Z</time>
      </trkpt>
      <trkpt lat="46.46271" lon="5.40093">
        <ele>515.8</ele>
        <time>2022-02-19T15:05:02Z</time>
      </trkpt>
      <trkpt lat="46.46275" lon="5.40093">
        <ele>516</ele>
        <time>2022-02-19T15:05:03Z</time>
      </trkpt>
      <trkpt lat="46.46289" lon="5.40094">
        <ele>516.4</ele>
        <time>2022-02-19T15:05:06Z</time>
      </trkpt>
      <trkpt lat="46.46301" lon="5.40097">
        <ele>517.6</ele>
        <time>2022-02-19T15:05:09Z</time>
      </trkpt>
      <trkpt lat="46.46309" lon="5.40098">
        <ele>518</ele>
        <time>2022-02-19T15:05:11Z</time>
      </trkpt>
      <trkpt lat="46.46322" lon="5.40098">
        <ele>519</ele>
        <time>2022-02-19T15:05:14Z</time>
      </trkpt>
      <trkpt lat="46.46344" lon="5.40096">
        <ele>520.4</ele>
        <time>2022-02-19T15:05:19Z</time>
      </trkpt>
      <trkpt lat="46.46361" lon="5.40093">
        <ele>521.2</ele>
        <time>2022-02-19T15:05:23Z</time>
      </trkpt>
      <trkpt lat="46.46369" lon="5.40092">
        <ele>521.6</ele>
        <time>2022-02-19T15:05:25Z</time>
      </trkpt>
      <trkpt lat="46.46377" lon="5.4009">
        <ele>522</ele>
        <time>2022-02-19T15:05:27Z</time>
      </trkpt>
      <trkpt lat="46.46397" lon="5.40086">
        <ele>522.6</ele>
        <time>2022-02-19T15:05:32Z</time>
      </trkpt>
      <trkpt lat="46.46413" lon="5.40083">
        <ele>523.2</ele>
        <time>2022-02-19T15:05:36Z</time>
      </trkpt>
      <trkpt lat="46.46428" lon="5.4008">
        <ele>523.8</ele>
        <time>2022-02-19T15:05:40Z</time>
      </trkpt>
      <trkpt lat="46.46452" lon="5.40075">
        <ele>524.6</ele>
        <time>2022-02-19T15:05:46Z</time>
      </trkpt>
      <trkpt lat="46.4646" lon="5.40074">
        <ele>525</ele>
        <time>2022-02-19T15:05:48Z</time>
      </trkpt>
      <trkpt lat="46.46484" lon="5.40072">
        <ele>526</ele>
        <time>2022-02-19T15:05:54Z</time>
      </trkpt>
      <trkpt lat="46.46498" lon="5.40072">
        <ele>526.6</ele>
        <time>2022-02-19T15:05:57Z</time>
      </trkpt>
      <trkpt lat="46.46512" lon="5.40076">
        <ele>527</ele>
        <time>2022-02-19T15:06:00Z</time>
      </trkpt>
      <trkpt lat="46.46516" lon="5.40078">
        <ele>527.2</ele>
        <time>2022-02-19T15:06:01Z</time>
      </trkpt>
      <trkpt lat="46.46529" lon="5.40084">
        <ele>527.4</ele>
        <time>2022-02-19T15:06:04Z</time>
      </trkpt>
      <trkpt lat="46.46541" lon="5.40091">
        <ele>527.4</ele>
        <time>2022-02-19T15:06:07Z</time>
      </trkpt>
      <trkpt lat="46.46561" lon="5.40101">
        <ele>528.2</ele>
        <time>2022-02-19T15:06:12Z</time>
      </trkpt>
      <trkpt lat="46.46576" lon="5.40108">
        <ele>529</ele>
        <time>2022-02-19T15:06:16Z</time>
      </trkpt>
      <trkpt lat="46.46581" lon="5.4011">
        <ele>529.2</ele>
        <time>2022-02-19T15:06:17Z</time>
      </trkpt>
      <trkpt lat="46.4661" lon="5.40126">
        <ele>530.2</ele>
        <time>2022-02-19T15:06:25Z</time>
      </trkpt>
      <trkpt lat="46.46614" lon="5.40127">
        <ele>530.4</ele>
        <time>2022-02-19T15:06:26Z</time>
      </trkpt>
      <trkpt lat="46.46631" lon="5.40136">
        <ele>531.4</ele>
        <time>2022-02-19T15:06:31Z</time>
      </trkpt>
      <trkpt lat="46.46634" lon="5.40138">
        <ele>531.6</ele>
        <time>2022-02-19T15:06:32Z</time>
      </trkpt>
      <trkpt lat="46.4665" lon="5.40147">
        <ele>532.6</ele>
        <time>2022-02-19T15:06:37Z</time>
      </trkpt>
      <trkpt lat="46.46663" lon="5.40154">
        <ele>533.2</ele>
        <time>2022-02-19T15:06:41Z</time>
      </trkpt>
      <trkpt lat="46.46673" lon="5.40159">
        <ele>533.8</ele>
        <time>2022-02-19T15:06:44Z</time>
      </trkpt>
      <trkpt lat="46.46683" lon="5.40163">
        <ele>534.8</ele>
        <time>2022-02-19T15:06:47Z</time>
      </trkpt>
      <trkpt lat="46.46689" lon="5.40166">
        <ele>535.2</ele>
        <time>2022-02-19T15:06:49Z</time>
      </trkpt>
      <trkpt lat="46.46696" lon="5.4017">
        <ele>535.8</ele>
        <time>2022-02-19T15:06:51Z</time>
      </trkpt>
      <trkpt lat="46.46712" lon="5.40178">
        <ele>536.8</ele>
        <time>2022-02-19T15:06:56Z</time>
      </trkpt>
      <trkpt lat="46.46718" lon="5.40181">
        <ele>537.2</ele>
        <time>2022-02-19T15:06:58Z</time>
      </trkpt>
      <trkpt lat="46.46732" lon="5.40188">
        <ele>538</ele>
        <time>2022-02-19T15:07:02Z</time>
      </trkpt>
      <trkpt lat="46.46744" lon="5.40195">
        <ele>538.8</ele>
        <time>2022-02-19T15:07:06Z</time>
      </trkpt>
      <trkpt lat="46.46752" lon="5.40198">
        <ele>539.2</ele>
        <time>2022-02-19T15:07:08Z</time>
      </trkpt>
      <trkpt lat="46.46765" lon="5.40206">
        <ele>540.2</ele>
        <time>2022-02-19T15:07:12Z</time>
      </trkpt>
      <trkpt lat="46.4678" lon="5.40213">
        <ele>541</ele>
        <time>2022-02-19T15:07:16Z</time>
      </trkpt>
      <trkpt lat="46.46787" lon="5.40217">
        <ele>541.4</ele>
        <time>2022-02-19T15:07:18Z</time>
      </trkpt>
      <trkpt lat="46.46802" lon="5.40225">
        <ele>542.4</ele>
        <time>2022-02-19T15:07:22Z</time>
      </trkpt>
      <trkpt lat="46.46812" lon="5.4023">
        <ele>543</ele>
        <time>2022-02-19T15:07:25Z</time>
      </trkpt>
      <trkpt lat="46.46819" lon="5.40234">
        <ele>543.6</ele>
        <time>2022-02-19T15:07:27Z</time>
      </trkpt>
      <trkpt lat="46.46833" lon="5.40241">
        <ele>544.8</ele>
        <time>2022-02-19T15:07:31Z</time>
      </trkpt>
      <trkpt lat="46.46847" lon="5.40247">
        <ele>545.8</ele>
        <time>2022-02-19T15:07:35Z</time>
      </trkpt>
      <trkpt lat="46.46865" lon="5.40257">
        <ele>546.8</ele>
        <time>2022-02-19T15:07:40Z</time>
      </trkpt>
      <trkpt lat="46.46871" lon="5.4026">
        <ele>547.4</ele>
        <time>2022-02-19T15:07:42Z</time>
      </trkpt>
      <trkpt lat="46.46884" lon="5.40267">
        <ele>547.8</ele>
        <time>2022-02-19T15:07:45Z</time>
      </trkpt>
      <trkpt lat="46.46893" lon="5.40271">
        <ele>548</ele>
        <time>2022-02-19T15:07:47Z</time>
      </trkpt>
      <trkpt lat="46.46918" lon="5.40282">
        <ele>549</ele>
        <time>2022-02-19T15:07:53Z</time>
      </trkpt>
      <trkpt lat="46.46927" lon="5.40286">
        <ele>549.4</ele>
        <time>2022-02-19T15:07:55Z</time>
      </trkpt>
      <trkpt lat="46.46947" lon="5.40298">
        <ele>550.2</ele>
        <time>2022-02-19T15:08:00Z</time>
      </trkpt>
      <trkpt lat="46.46963" lon="5.40305">
        <ele>550.6</ele>
        <time>2022-02-19T15:08:04Z</time>
      </trkpt>
      <trkpt lat="46.46975" lon="5.40309">
        <ele>551.2</ele>
        <time>2022-02-19T15:08:07Z</time>
      </trkpt>
      <trkpt lat="46.46996" lon="5.40317">
        <ele>552.6</ele>
        <time>2022-02-19T15:08:12Z</time>
      </trkpt>
      <trkpt lat="46.4701" lon="5.4032">
        <ele>553</ele>
        <time>2022-02-19T15:08:15Z</time>
      </trkpt>
      <trkpt lat="46.47029" lon="5.40323">
        <ele>553.6</ele>
        <time>2022-02-19T15:08:19Z</time>
      </trkpt>
      <trkpt lat="46.47049" lon="5.40326">
        <ele>553.6</ele>
        <time>2022-02-19T15:08:23Z</time>
      </trkpt>
      <trkpt lat="46.47073" lon="5.40329">
        <ele>553.4</ele>
        <time>2022-02-19T15:08:27Z</time>
      </trkpt>
      <trkpt lat="46.47099" lon="5.40331">
        <ele>552.6</ele>
        <time>2022-02-19T15:08:30Z</time>
      </trkpt>
      <trkpt lat="46.47109" lon="5.40332">
        <ele>552.4</ele>
        <time>2022-02-19T15:08:31Z</time>
      </trkpt>
      <trkpt lat="46.47127" lon="5.40335">
        <ele>551.4</ele>
        <time>2022-02-19T15:08:33Z</time>
      </trkpt>
      <trkpt lat="46.47143" lon="5.4034">
        <ele>550.2</ele>
        <time>2022-02-19T15:08:35Z</time>
      </trkpt>
      <trkpt lat="46.47153" lon="5.40343">
        <ele>550</ele>
        <time>2022-02-19T15:08:36Z</time>
      </trkpt>
      <trkpt lat="46.47195" lon="5.40365">
        <ele>548.8</ele>
        <time>2022-02-19T15:08:40Z</time>
      </trkpt>
      <trkpt lat="46.47223" lon="5.40396">
        <ele>547.6</ele>
        <time>2022-02-19T15:08:43Z</time>
      </trkpt>
      <trkpt lat="46.47232" lon="5.40406">
        <ele>547</ele>
        <time>2022-02-19T15:08:44Z</time>
      </trkpt>
      <trkpt lat="46.47256" lon="5.4042">
        <ele>546.2</ele>
        <time>2022-02-19T15:08:46Z</time>
      </trkpt>
      <trkpt lat="46.47288" lon="5.40434">
        <ele>543.8</ele>
        <time>2022-02-19T15:08:49Z</time>
      </trkpt>
      <trkpt lat="46.473" lon="5.40438">
        <ele>543.4</ele>
        <time>2022-02-19T15:08:50Z</time>
      </trkpt>
      <trkpt lat="46.47322" lon="5.40444">
        <ele>542.6</ele>
        <time>2022-02-19T15:08:52Z</time>
      </trkpt>
      <trkpt lat="46.47344" lon="5.40447">
        <ele>541.4</ele>
        <time>2022-02-19T15:08:54Z</time>
      </trkpt>
      <trkpt lat="46.47366" lon="5.40449">
        <ele>540.2</ele>
        <time>2022-02-19T15:08:56Z</time>
      </trkpt>
      <trkpt lat="46.47389" lon="5.40449">
        <ele>539.2</ele>
        <time>2022-02-19T15:08:58Z</time>
      </trkpt>
      <trkpt lat="46.47412" lon="5.40446">
        <ele>538</ele>
        <time>2022-02-19T15:09:00Z</time>
      </trkpt>
      <trkpt lat="46.47434" lon="5.40445">
        <ele>536.8</ele>
        <time>2022-02-19T15:09:02Z</time>
      </trkpt>
      <trkpt lat="46.47456" lon="5.40446">
        <ele>535.8</ele>
        <time>2022-02-19T15:09:04Z</time>
      </trkpt>
      <trkpt lat="46.47468" lon="5.40448">
        <ele>535</ele>
        <time>2022-02-19T15:09:05Z</time>
      </trkpt>
      <trkpt lat="46.47489" lon="5.40454">
        <ele>533.6</ele>
        <time>2022-02-19T15:09:07Z</time>
      </trkpt>
      <trkpt lat="46.47507" lon="5.40466">
        <ele>532.2</ele>
        <time>2022-02-19T15:09:09Z</time>
      </trkpt>
      <trkpt lat="46.47522" lon="5.40481">
        <ele>531.2</ele>
        <time>2022-02-19T15:09:11Z</time>
      </trkpt>
      <trkpt lat="46.47531" lon="5.40484">
        <ele>530.4</ele>
        <time>2022-02-19T15:09:12Z</time>
      </trkpt>
      <trkpt lat="46.47538" lon="5.40484">
        <ele>530.2</ele>
        <time>2022-02-19T15:09:13Z</time>
      </trkpt>
      <trkpt lat="46.47543" lon="5.40479">
        <ele>529.8</ele>
        <time>2022-02-19T15:09:14Z</time>
      </trkpt>
      <trkpt lat="46.47548" lon="5.40471">
        <ele>529.4</ele>
        <time>2022-02-19T15:09:15Z</time>
      </trkpt>
      <trkpt lat="46.4755" lon="5.4046">
        <ele>528.4</ele>
        <time>2022-02-19T15:09:16Z</time>
      </trkpt>
      <trkpt lat="46.4755" lon="5.40445">
        <ele>527.8</ele>
        <time>2022-02-19T15:09:17Z</time>
      </trkpt>
      <trkpt lat="46.47548" lon="5.40429">
        <ele>526.8</ele>
        <time>2022-02-19T15:09:18Z</time>
      </trkpt>
      <trkpt lat="46.47544" lon="5.40413">
        <ele>526.4</ele>
        <time>2022-02-19T15:09:19Z</time>
      </trkpt>
      <trkpt lat="46.4754" lon="5.40397">
        <ele>525.4</ele>
        <time>2022-02-19T15:09:20Z</time>
      </trkpt>
      <trkpt lat="46.47536" lon="5.40382">
        <ele>524.8</ele>
        <time>2022-02-19T15:09:21Z</time>
      </trkpt>
      <trkpt lat="46.47534" lon="5.40349">
        <ele>524.2</ele>
        <time>2022-02-19T15:09:23Z</time>
      </trkpt>
      <trkpt lat="46.47543" lon="5.40317">
        <ele>523.4</ele>
        <time>2022-02-19T15:09:25Z</time>
      </trkpt>
      <trkpt lat="46.47549" lon="5.40304">
        <ele>523</ele>
        <time>2022-02-19T15:09:26Z</time>
      </trkpt>
      <trkpt lat="46.47559" lon="5.40293">
        <ele>522.2</ele>
        <time>2022-02-19T15:09:27Z</time>
      </trkpt>
      <trkpt lat="46.47569" lon="5.40283">
        <ele>521.4</ele>
        <time>2022-02-19T15:09:28Z</time>
      </trkpt>
      <trkpt lat="46.47579" lon="5.40273">
        <ele>520.8</ele>
        <time>2022-02-19T15:09:29Z</time>
      </trkpt>
      <trkpt lat="46.47591" lon="5.40267">
        <ele>520</ele>
        <time>2022-02-19T15:09:30Z</time>
      </trkpt>
      <trkpt lat="46.47613" lon="5.4026">
        <ele>518.8</ele>
        <time>2022-02-19T15:09:32Z</time>
      </trkpt>
      <trkpt lat="46.47635" lon="5.40254">
        <ele>517</ele>
        <time>2022-02-19T15:09:34Z</time>
      </trkpt>
      <trkpt lat="46.47668" lon="5.4025">
        <ele>516</ele>
        <time>2022-02-19T15:09:37Z</time>
      </trkpt>
      <trkpt lat="46.4769" lon="5.40249">
        <ele>514.4</ele>
        <time>2022-02-19T15:09:39Z</time>
      </trkpt>
      <trkpt lat="46.477" lon="5.40245">
        <ele>514</ele>
        <time>2022-02-19T15:09:40Z</time>
      </trkpt>
      <trkpt lat="46.47709" lon="5.40236">
        <ele>513</ele>
        <time>2022-02-19T15:09:41Z</time>
      </trkpt>
      <trkpt lat="46.47716" lon="5.40224">
        <ele>512.6</ele>
        <time>2022-02-19T15:09:42Z</time>
      </trkpt>
      <trkpt lat="46.47721" lon="5.40209">
        <ele>512.2</ele>
        <time>2022-02-19T15:09:43Z</time>
      </trkpt>
      <trkpt lat="46.47728" lon="5.40181">
        <ele>511.4</ele>
        <time>2022-02-19T15:09:45Z</time>
      </trkpt>
      <trkpt lat="46.47743" lon="5.4016">
        <ele>510.8</ele>
        <time>2022-02-19T15:09:47Z</time>
      </trkpt>
      <trkpt lat="46.47751" lon="5.4015">
        <ele>510.2</ele>
        <time>2022-02-19T15:09:48Z</time>
      </trkpt>
      <trkpt lat="46.47758" lon="5.40139">
        <ele>509.8</ele>
        <time>2022-02-19T15:09:49Z</time>
      </trkpt>
      <trkpt lat="46.47767" lon="5.40129">
        <ele>508.6</ele>
        <time>2022-02-19T15:09:50Z</time>
      </trkpt>
      <trkpt lat="46.47772" lon="5.40114">
        <ele>508.2</ele>
        <time>2022-02-19T15:09:51Z</time>
      </trkpt>
      <trkpt lat="46.47774" lon="5.40099">
        <ele>507.4</ele>
        <time>2022-02-19T15:09:52Z</time>
      </trkpt>
      <trkpt lat="46.47776" lon="5.40085">
        <ele>507</ele>
        <time>2022-02-19T15:09:53Z</time>
      </trkpt>
      <trkpt lat="46.47774" lon="5.40054">
        <ele>506</ele>
        <time>2022-02-19T15:09:55Z</time>
      </trkpt>
      <trkpt lat="46.47774" lon="5.4004">
        <ele>505.4</ele>
        <time>2022-02-19T15:09:56Z</time>
      </trkpt>
      <trkpt lat="46.47777" lon="5.40027">
        <ele>504.6</ele>
        <time>2022-02-19T15:09:57Z</time>
      </trkpt>
      <trkpt lat="46.47781" lon="5.40016">
        <ele>504.2</ele>
        <time>2022-02-19T15:09:58Z</time>
      </trkpt>
      <trkpt lat="46.47788" lon="5.40009">
        <ele>503.2</ele>
        <time>2022-02-19T15:09:59Z</time>
      </trkpt>
      <trkpt lat="46.47795" lon="5.40003">
        <ele>502.6</ele>
        <time>2022-02-19T15:10:00Z</time>
      </trkpt>
      <trkpt lat="46.47805" lon="5.39997">
        <ele>501.8</ele>
        <time>2022-02-19T15:10:01Z</time>
      </trkpt>
      <trkpt lat="46.47825" lon="5.39987">
        <ele>500.6</ele>
        <time>2022-02-19T15:10:03Z</time>
      </trkpt>
      <trkpt lat="46.47847" lon="5.39975">
        <ele>499.2</ele>
        <time>2022-02-19T15:10:05Z</time>
      </trkpt>
      <trkpt lat="46.47869" lon="5.39962">
        <ele>498</ele>
        <time>2022-02-19T15:10:07Z</time>
      </trkpt>
      <trkpt lat="46.47903" lon="5.39944">
        <ele>496.8</ele>
        <time>2022-02-19T15:10:10Z</time>
      </trkpt>
      <trkpt lat="46.47936" lon="5.39924">
        <ele>494.8</ele>
        <time>2022-02-19T15:10:13Z</time>
      </trkpt>
      <trkpt lat="46.47957" lon="5.39913">
        <ele>493.6</ele>
        <time>2022-02-19T15:10:15Z</time>
      </trkpt>
      <trkpt lat="46.47979" lon="5.39902">
        <ele>492.4</ele>
        <time>2022-02-19T15:10:17Z</time>
      </trkpt>
      <trkpt lat="46.47999" lon="5.39893">
        <ele>491.6</ele>
        <time>2022-02-19T15:10:19Z</time>
      </trkpt>
      <trkpt lat="46.48009" lon="5.39889">
        <ele>491</ele>
        <time>2022-02-19T15:10:20Z</time>
      </trkpt>
      <trkpt lat="46.4803" lon="5.39888">
        <ele>490</ele>
        <time>2022-02-19T15:10:22Z</time>
      </trkpt>
      <trkpt lat="46.48049" lon="5.39897">
        <ele>489.6</ele>
        <time>2022-02-19T15:10:24Z</time>
      </trkpt>
      <trkpt lat="46.48059" lon="5.39904">
        <ele>489.4</ele>
        <time>2022-02-19T15:10:25Z</time>
      </trkpt>
      <trkpt lat="46.48069" lon="5.39909">
        <ele>489.2</ele>
        <time>2022-02-19T15:10:26Z</time>
      </trkpt>
      <trkpt lat="46.4809" lon="5.39914">
        <ele>489</ele>
        <time>2022-02-19T15:10:28Z</time>
      </trkpt>
      <trkpt lat="46.48121" lon="5.39911">
        <ele>488.8</ele>
        <time>2022-02-19T15:10:31Z</time>
      </trkpt>
      <trkpt lat="46.48132" lon="5.39908">
        <ele>488.8</ele>
        <time>2022-02-19T15:10:32Z</time>
      </trkpt>
      <trkpt lat="46.48173" lon="5.39886">
        <ele>488.8</ele>
        <time>2022-02-19T15:10:36Z</time>
      </trkpt>
      <trkpt lat="46.48192" lon="5.39871">
        <ele>488.8</ele>
        <time>2022-02-19T15:10:38Z</time>
      </trkpt>
      <trkpt lat="46.482" lon="5.39861">
        <ele>488.8</ele>
        <time>2022-02-19T15:10:39Z</time>
      </trkpt>
      <trkpt lat="46.48206" lon="5.39849">
        <ele>488.8</ele>
        <time>2022-02-19T15:10:40Z</time>
      </trkpt>
      <trkpt lat="46.48208" lon="5.39822">
        <ele>488.8</ele>
        <time>2022-02-19T15:10:42Z</time>
      </trkpt>
      <trkpt lat="46.48194" lon="5.39753">
        <ele>488</ele>
        <time>2022-02-19T15:10:47Z</time>
      </trkpt>
      <trkpt lat="46.48191" lon="5.39726">
        <ele>488</ele>
        <time>2022-02-19T15:10:49Z</time>
      </trkpt>
      <trkpt lat="46.48189" lon="5.39713">
        <ele>487.8</ele>
        <time>2022-02-19T15:10:50Z</time>
      </trkpt>
      <trkpt lat="46.48188" lon="5.397">
        <ele>487.6</ele>
        <time>2022-02-19T15:10:51Z</time>
      </trkpt>
      <trkpt lat="46.48188" lon="5.39687">
        <ele>487.6</ele>
        <time>2022-02-19T15:10:52Z</time>
      </trkpt>
      <trkpt lat="46.4819" lon="5.3966">
        <ele>487.2</ele>
        <time>2022-02-19T15:10:54Z</time>
      </trkpt>
      <trkpt lat="46.48193" lon="5.39646">
        <ele>486.8</ele>
        <time>2022-02-19T15:10:55Z</time>
      </trkpt>
      <trkpt lat="46.48197" lon="5.39633">
        <ele>486.6</ele>
        <time>2022-02-19T15:10:56Z</time>
      </trkpt>
      <trkpt lat="46.48207" lon="5.39605">
        <ele>486</ele>
        <time>2022-02-19T15:10:58Z</time>
      </trkpt>
      <trkpt lat="46.48212" lon="5.39592">
        <ele>485.6</ele>
        <time>2022-02-19T15:10:59Z</time>
      </trkpt>
      <trkpt lat="46.48221" lon="5.39562">
        <ele>484.2</ele>
        <time>2022-02-19T15:11:01Z</time>
      </trkpt>
      <trkpt lat="46.48224" lon="5.39546">
        <ele>483.4</ele>
        <time>2022-02-19T15:11:02Z</time>
      </trkpt>
      <trkpt lat="46.48226" lon="5.39529">
        <ele>482.8</ele>
        <time>2022-02-19T15:11:03Z</time>
      </trkpt>
      <trkpt lat="46.48229" lon="5.39515">
        <ele>481.6</ele>
        <time>2022-02-19T15:11:04Z</time>
      </trkpt>
      <trkpt lat="46.48239" lon="5.39489">
        <ele>480.4</ele>
        <time>2022-02-19T15:11:06Z</time>
      </trkpt>
      <trkpt lat="46.48245" lon="5.39479">
        <ele>479.2</ele>
        <time>2022-02-19T15:11:07Z</time>
      </trkpt>
      <trkpt lat="46.48251" lon="5.39471">
        <ele>478.6</ele>
        <time>2022-02-19T15:11:08Z</time>
      </trkpt>
      <trkpt lat="46.48259" lon="5.39465">
        <ele>477.6</ele>
        <time>2022-02-19T15:11:09Z</time>
      </trkpt>
      <trkpt lat="46.48269" lon="5.39461">
        <ele>476</ele>
        <time>2022-02-19T15:11:10Z</time>
      </trkpt>
      <trkpt lat="46.48276" lon="5.39463">
        <ele>473.6</ele>
        <time>2022-02-19T15:11:11Z</time>
      </trkpt>
      <trkpt lat="46.48287" lon="5.39466">
        <ele>472.8</ele>
        <time>2022-02-19T15:11:12Z</time>
      </trkpt>
      <trkpt lat="46.48294" lon="5.39467">
        <ele>471.6</ele>
        <time>2022-02-19T15:11:13Z</time>
      </trkpt>
      <trkpt lat="46.48303" lon="5.39463">
        <ele>470.8</ele>
        <time>2022-02-19T15:11:14Z</time>
      </trkpt>
      <trkpt lat="46.48308" lon="5.39457">
        <ele>470.4</ele>
        <time>2022-02-19T15:11:15Z</time>
      </trkpt>
      <trkpt lat="46.48313" lon="5.39449">
        <ele>469.8</ele>
        <time>2022-02-19T15:11:16Z</time>
      </trkpt>
      <trkpt lat="46.48317" lon="5.39439">
        <ele>469.4</ele>
        <time>2022-02-19T15:11:17Z</time>
      </trkpt>
      <trkpt lat="46.48322" lon="5.39428">
        <ele>468.4</ele>
        <time>2022-02-19T15:11:18Z</time>
      </trkpt>
      <trkpt lat="46.48327" lon="5.39414">
        <ele>468</ele>
        <time>2022-02-19T15:11:19Z</time>
      </trkpt>
      <trkpt lat="46.48339" lon="5.39384">
        <ele>467.2</ele>
        <time>2022-02-19T15:11:21Z</time>
      </trkpt>
      <trkpt lat="46.48346" lon="5.39369">
        <ele>466.4</ele>
        <time>2022-02-19T15:11:22Z</time>
      </trkpt>
      <trkpt lat="46.48353" lon="5.39356">
        <ele>465.6</ele>
        <time>2022-02-19T15:11:23Z</time>
      </trkpt>
      <trkpt lat="46.48363" lon="5.39343">
        <ele>464.8</ele>
        <time>2022-02-19T15:11:24Z</time>
      </trkpt>
      <trkpt lat="46.48373" lon="5.39336">
        <ele>463.6</ele>
        <time>2022-02-19T15:11:25Z</time>
      </trkpt>
      <trkpt lat="46.48381" lon="5.39332">
        <ele>463</ele>
        <time>2022-02-19T15:11:26Z</time>
      </trkpt>
      <trkpt lat="46.48392" lon="5.39328">
        <ele>461.6</ele>
        <time>2022-02-19T15:11:27Z</time>
      </trkpt>
      <trkpt lat="46.48405" lon="5.39329">
        <ele>460.6</ele>
        <time>2022-02-19T15:11:28Z</time>
      </trkpt>
      <trkpt lat="46.48414" lon="5.39329">
        <ele>459.4</ele>
        <time>2022-02-19T15:11:29Z</time>
      </trkpt>
      <trkpt lat="46.48428" lon="5.3933">
        <ele>458.4</ele>
        <time>2022-02-19T15:11:30Z</time>
      </trkpt>
      <trkpt lat="46.48439" lon="5.39328">
        <ele>457.8</ele>
        <time>2022-02-19T15:11:31Z</time>
      </trkpt>
      <trkpt lat="46.48452" lon="5.39325">
        <ele>456.2</ele>
        <time>2022-02-19T15:11:32Z</time>
      </trkpt>
      <trkpt lat="46.48477" lon="5.39317">
        <ele>454.4</ele>
        <time>2022-02-19T15:11:34Z</time>
      </trkpt>
      <trkpt lat="46.48503" lon="5.39312">
        <ele>452.6</ele>
        <time>2022-02-19T15:11:36Z</time>
      </trkpt>
      <trkpt lat="46.48517" lon="5.39308">
        <ele>452</ele>
        <time>2022-02-19T15:11:37Z</time>
      </trkpt>
      <trkpt lat="46.48534" lon="5.39304">
        <ele>451.6</ele>
        <time>2022-02-19T15:11:38Z</time>
      </trkpt>
      <trkpt lat="46.48544" lon="5.39301">
        <ele>450</ele>
        <time>2022-02-19T15:11:39Z</time>
      </trkpt>
      <trkpt lat="46.48571" lon="5.39294">
        <ele>447.8</ele>
        <time>2022-02-19T15:11:41Z</time>
      </trkpt>
      <trkpt lat="46.48601" lon="5.39288">
        <ele>445.4</ele>
        <time>2022-02-19T15:11:43Z</time>
      </trkpt>
      <trkpt lat="46.48612" lon="5.39286">
        <ele>444.4</ele>
        <time>2022-02-19T15:11:44Z</time>
      </trkpt>
      <trkpt lat="46.48628" lon="5.39282">
        <ele>442.8</ele>
        <time>2022-02-19T15:11:45Z</time>
      </trkpt>
      <trkpt lat="46.48652" lon="5.39279">
        <ele>440.6</ele>
        <time>2022-02-19T15:11:47Z</time>
      </trkpt>
      <trkpt lat="46.48666" lon="5.39279">
        <ele>439.2</ele>
        <time>2022-02-19T15:11:48Z</time>
      </trkpt>
      <trkpt lat="46.48678" lon="5.39282">
        <ele>438.4</ele>
        <time>2022-02-19T15:11:49Z</time>
      </trkpt>
      <trkpt lat="46.48692" lon="5.39285">
        <ele>435.8</ele>
        <time>2022-02-19T15:11:50Z</time>
      </trkpt>
      <trkpt lat="46.48701" lon="5.39288">
        <ele>435.2</ele>
        <time>2022-02-19T15:11:51Z</time>
      </trkpt>
      <trkpt lat="46.4871" lon="5.39294">
        <ele>434</ele>
        <time>2022-02-19T15:11:52Z</time>
      </trkpt>
      <trkpt lat="46.48726" lon="5.39304">
        <ele>432.8</ele>
        <time>2022-02-19T15:11:54Z</time>
      </trkpt>
      <trkpt lat="46.48735" lon="5.39309">
        <ele>432.4</ele>
        <time>2022-02-19T15:11:55Z</time>
      </trkpt>
      <trkpt lat="46.48741" lon="5.39309">
        <ele>431.6</ele>
        <time>2022-02-19T15:11:56Z</time>
      </trkpt>
      <trkpt lat="46.48745" lon="5.39306">
        <ele>430.6</ele>
        <time>2022-02-19T15:11:57Z</time>
      </trkpt>
      <trkpt lat="46.4875" lon="5.39299">
        <ele>430.2</ele>
        <time>2022-02-19T15:11:58Z</time>
      </trkpt>
      <trkpt lat="46.4875" lon="5.39292">
        <ele>428.8</ele>
        <time>2022-02-19T15:11:59Z</time>
      </trkpt>
      <trkpt lat="46.48746" lon="5.3928">
        <ele>428.2</ele>
        <time>2022-02-19T15:12:00Z</time>
      </trkpt>
      <trkpt lat="46.48741" lon="5.39272">
        <ele>427.2</ele>
        <time>2022-02-19T15:12:01Z</time>
      </trkpt>
      <trkpt lat="46.48724" lon="5.3925">
        <ele>425.6</ele>
        <time>2022-02-19T15:12:03Z</time>
      </trkpt>
      <trkpt lat="46.48715" lon="5.39238">
        <ele>424.4</ele>
        <time>2022-02-19T15:12:04Z</time>
      </trkpt>
      <trkpt lat="46.48695" lon="5.39211">
        <ele>422.8</ele>
        <time>2022-02-19T15:12:06Z</time>
      </trkpt>
      <trkpt lat="46.48678" lon="5.39185">
        <ele>421.6</ele>
        <time>2022-02-19T15:12:08Z</time>
      </trkpt>
      <trkpt lat="46.48657" lon="5.39155">
        <ele>419.6</ele>
        <time>2022-02-19T15:12:10Z</time>
      </trkpt>
      <trkpt lat="46.48646" lon="5.39144">
        <ele>419.2</ele>
        <time>2022-02-19T15:12:11Z</time>
      </trkpt>
      <trkpt lat="46.48636" lon="5.39136">
        <ele>417.6</ele>
        <time>2022-02-19T15:12:12Z</time>
      </trkpt>
      <trkpt lat="46.48624" lon="5.39126">
        <ele>416.2</ele>
        <time>2022-02-19T15:12:13Z</time>
      </trkpt>
      <trkpt lat="46.48597" lon="5.39105">
        <ele>415</ele>
        <time>2022-02-19T15:12:15Z</time>
      </trkpt>
      <trkpt lat="46.48576" lon="5.39088">
        <ele>413.2</ele>
        <time>2022-02-19T15:12:17Z</time>
      </trkpt>
      <trkpt lat="46.48547" lon="5.39071">
        <ele>411.2</ele>
        <time>2022-02-19T15:12:19Z</time>
      </trkpt>
      <trkpt lat="46.48534" lon="5.39062">
        <ele>410.4</ele>
        <time>2022-02-19T15:12:20Z</time>
      </trkpt>
      <trkpt lat="46.48525" lon="5.39054">
        <ele>409.2</ele>
        <time>2022-02-19T15:12:21Z</time>
      </trkpt>
      <trkpt lat="46.48516" lon="5.39041">
        <ele>407.2</ele>
        <time>2022-02-19T15:12:22Z</time>
      </trkpt>
      <trkpt lat="46.48509" lon="5.39024">
        <ele>406.2</ele>
        <time>2022-02-19T15:12:23Z</time>
      </trkpt>
      <trkpt lat="46.48504" lon="5.39005">
        <ele>404.4</ele>
        <time>2022-02-19T15:12:24Z</time>
      </trkpt>
      <trkpt lat="46.48495" lon="5.3897">
        <ele>401.8</ele>
        <time>2022-02-19T15:12:26Z</time>
      </trkpt>
      <trkpt lat="46.48481" lon="5.38939">
        <ele>400.6</ele>
        <time>2022-02-19T15:12:28Z</time>
      </trkpt>
      <trkpt lat="46.48466" lon="5.38909">
        <ele>398.6</ele>
        <time>2022-02-19T15:12:30Z</time>
      </trkpt>
      <trkpt lat="46.48463" lon="5.38898">
        <ele>397.2</ele>
        <time>2022-02-19T15:12:31Z</time>
      </trkpt>
      <trkpt lat="46.48462" lon="5.38884">
        <ele>396.8</ele>
        <time>2022-02-19T15:12:32Z</time>
      </trkpt>
      <trkpt lat="46.48464" lon="5.38867">
        <ele>396.2</ele>
        <time>2022-02-19T15:12:33Z</time>
      </trkpt>
      <trkpt lat="46.48469" lon="5.38859">
        <ele>395.6</ele>
        <time>2022-02-19T15:12:34Z</time>
      </trkpt>
      <trkpt lat="46.48476" lon="5.3885">
        <ele>394.4</ele>
        <time>2022-02-19T15:12:35Z</time>
      </trkpt>
      <trkpt lat="46.48485" lon="5.38842">
        <ele>393.8</ele>
        <time>2022-02-19T15:12:36Z</time>
      </trkpt>
      <trkpt lat="46.48495" lon="5.38836">
        <ele>392.6</ele>
        <time>2022-02-19T15:12:37Z</time>
      </trkpt>
      <trkpt lat="46.48516" lon="5.38823">
        <ele>391.4</ele>
        <time>2022-02-19T15:12:39Z</time>
      </trkpt>
      <trkpt lat="46.48534" lon="5.3881">
        <ele>390.2</ele>
        <time>2022-02-19T15:12:41Z</time>
      </trkpt>
      <trkpt lat="46.48545" lon="5.38802">
        <ele>389.2</ele>
        <time>2022-02-19T15:12:42Z</time>
      </trkpt>
      <trkpt lat="46.48566" lon="5.3879">
        <ele>387.6</ele>
        <time>2022-02-19T15:12:44Z</time>
      </trkpt>
      <trkpt lat="46.48585" lon="5.38778">
        <ele>386.6</ele>
        <time>2022-02-19T15:12:46Z</time>
      </trkpt>
      <trkpt lat="46.48594" lon="5.38775">
        <ele>385.4</ele>
        <time>2022-02-19T15:12:47Z</time>
      </trkpt>
      <trkpt lat="46.48603" lon="5.38775">
        <ele>385</ele>
        <time>2022-02-19T15:12:48Z</time>
      </trkpt>
      <trkpt lat="46.48611" lon="5.38776">
        <ele>383.2</ele>
        <time>2022-02-19T15:12:49Z</time>
      </trkpt>
      <trkpt lat="46.48618" lon="5.38775">
        <ele>382.6</ele>
        <time>2022-02-19T15:12:50Z</time>
      </trkpt>
      <trkpt lat="46.48626" lon="5.38769">
        <ele>381.6</ele>
        <time>2022-02-19T15:12:51Z</time>
      </trkpt>
      <trkpt lat="46.48632" lon="5.38759">
        <ele>381</ele>
        <time>2022-02-19T15:12:52Z</time>
      </trkpt>
      <trkpt lat="46.48637" lon="5.38747">
        <ele>379.6</ele>
        <time>2022-02-19T15:12:53Z</time>
      </trkpt>
      <trkpt lat="46.48647" lon="5.38721">
        <ele>378</ele>
        <time>2022-02-19T15:12:55Z</time>
      </trkpt>
      <trkpt lat="46.48649" lon="5.38706">
        <ele>377</ele>
        <time>2022-02-19T15:12:56Z</time>
      </trkpt>
      <trkpt lat="46.48651" lon="5.3869">
        <ele>376.6</ele>
        <time>2022-02-19T15:12:57Z</time>
      </trkpt>
      <trkpt lat="46.48651" lon="5.38674">
        <ele>375.6</ele>
        <time>2022-02-19T15:12:58Z</time>
      </trkpt>
      <trkpt lat="46.4865" lon="5.38658">
        <ele>375.2</ele>
        <time>2022-02-19T15:12:59Z</time>
      </trkpt>
      <trkpt lat="46.48648" lon="5.38642">
        <ele>374.2</ele>
        <time>2022-02-19T15:13:00Z</time>
      </trkpt>
      <trkpt lat="46.48645" lon="5.38626">
        <ele>373.8</ele>
        <time>2022-02-19T15:13:01Z</time>
      </trkpt>
      <trkpt lat="46.48637" lon="5.38596">
        <ele>373</ele>
        <time>2022-02-19T15:13:03Z</time>
      </trkpt>
      <trkpt lat="46.48628" lon="5.38566">
        <ele>371.4</ele>
        <time>2022-02-19T15:13:05Z</time>
      </trkpt>
      <trkpt lat="46.4862" lon="5.38536">
        <ele>369.8</ele>
        <time>2022-02-19T15:13:07Z</time>
      </trkpt>
      <trkpt lat="46.48612" lon="5.38506">
        <ele>368.2</ele>
        <time>2022-02-19T15:13:09Z</time>
      </trkpt>
      <trkpt lat="46.48607" lon="5.38491">
        <ele>367.8</ele>
        <time>2022-02-19T15:13:10Z</time>
      </trkpt>
    </trkseg>
  </trk>
</gpx>